<?xml version="1.0" encoding="UTF-8" standalone="no" ?>
<gpx xmlns="http://www.topografix.com/GPX/1/1" xmlns:xsi="http://www.w3.org/2001/XMLSchema-instance" xsi:schemaLocation="http://www.topografix.com/GPX/1/1 http://www.topografix.com/GPX/1/1/gpx.xsd" version="1.1" creator="VisuGPX - https://www.visugpx.com">
  <metadata>
    <name>Drulhe</name>
    <desc><![CDATA[Une belle rando au départ du Stade de Drulhe. Au  début très facile et sans grande difficulté ensuite à partir du KM15 les cotes arrivent certaines plus technique que d'autre mais qui passent toutes sur le vélo avec un peut de technique. Attention toutefois les sentiers on tendance à se refermer par endroit sur la fin du parcours. ]]></desc>
  </metadata>
  <trk>
    <name><![CDATA[Drulhe sympa technique à la fin]]></name>
    <trkseg>
      <trkpt lat="44.46346" lon="2.12903">
        <ele>495</ele>
        <time>2026-07-04T05:46:50Z</time>
      </trkpt>
      <trkpt lat="44.46346" lon="2.12903">
        <ele>495</ele>
        <time>2026-07-04T05:46:50Z</time>
      </trkpt>
      <trkpt lat="44.46345" lon="2.12903">
        <ele>494.9</ele>
        <time>2026-07-04T05:46:51Z</time>
      </trkpt>
      <trkpt lat="44.46347" lon="2.12906">
        <ele>494.9</ele>
        <time>2026-07-04T05:58:09Z</time>
      </trkpt>
      <trkpt lat="44.46339" lon="2.12912">
        <ele>494.9</ele>
        <time>2026-07-04T05:58:21Z</time>
      </trkpt>
      <trkpt lat="44.46329" lon="2.12917">
        <ele>494.9</ele>
        <time>2026-07-04T05:58:26Z</time>
      </trkpt>
      <trkpt lat="44.4632" lon="2.12927">
        <ele>494.9</ele>
        <time>2026-07-04T05:58:31Z</time>
      </trkpt>
      <trkpt lat="44.46312" lon="2.12935">
        <ele>494.9</ele>
        <time>2026-07-04T05:58:35Z</time>
      </trkpt>
      <trkpt lat="44.46303" lon="2.12941">
        <ele>494.9</ele>
        <time>2026-07-04T05:58:39Z</time>
      </trkpt>
      <trkpt lat="44.46295" lon="2.12951">
        <ele>494.7</ele>
        <time>2026-07-04T05:58:43Z</time>
      </trkpt>
      <trkpt lat="44.46285" lon="2.12959">
        <ele>494.4</ele>
        <time>2026-07-04T05:58:47Z</time>
      </trkpt>
      <trkpt lat="44.46274" lon="2.12964">
        <ele>494.3</ele>
        <time>2026-07-04T05:58:51Z</time>
      </trkpt>
      <trkpt lat="44.46264" lon="2.12968">
        <ele>494.1</ele>
        <time>2026-07-04T05:58:55Z</time>
      </trkpt>
      <trkpt lat="44.46262" lon="2.12981">
        <ele>493.1</ele>
        <time>2026-07-04T05:59:00Z</time>
      </trkpt>
      <trkpt lat="44.46266" lon="2.12995">
        <ele>492.6</ele>
        <time>2026-07-04T05:59:03Z</time>
      </trkpt>
      <trkpt lat="44.4627" lon="2.13011">
        <ele>492</ele>
        <time>2026-07-04T05:59:06Z</time>
      </trkpt>
      <trkpt lat="44.46276" lon="2.13022">
        <ele>491.4</ele>
        <time>2026-07-04T05:59:08Z</time>
      </trkpt>
      <trkpt lat="44.46285" lon="2.13024">
        <ele>491.2</ele>
        <time>2026-07-04T05:59:10Z</time>
      </trkpt>
      <trkpt lat="44.46295" lon="2.13016">
        <ele>491.4</ele>
        <time>2026-07-04T05:59:13Z</time>
      </trkpt>
      <trkpt lat="44.46304" lon="2.13006">
        <ele>491.7</ele>
        <time>2026-07-04T05:59:16Z</time>
      </trkpt>
      <trkpt lat="44.46312" lon="2.12996">
        <ele>491.9</ele>
        <time>2026-07-04T05:59:19Z</time>
      </trkpt>
      <trkpt lat="44.4632" lon="2.12987">
        <ele>492.1</ele>
        <time>2026-07-04T05:59:22Z</time>
      </trkpt>
      <trkpt lat="44.4633" lon="2.12981">
        <ele>492.3</ele>
        <time>2026-07-04T05:59:25Z</time>
      </trkpt>
      <trkpt lat="44.46339" lon="2.12976">
        <ele>492.5</ele>
        <time>2026-07-04T05:59:28Z</time>
      </trkpt>
      <trkpt lat="44.46349" lon="2.12971">
        <ele>492.8</ele>
        <time>2026-07-04T05:59:31Z</time>
      </trkpt>
      <trkpt lat="44.46357" lon="2.12963">
        <ele>493.3</ele>
        <time>2026-07-04T05:59:34Z</time>
      </trkpt>
      <trkpt lat="44.46364" lon="2.12953">
        <ele>493.7</ele>
        <time>2026-07-04T05:59:37Z</time>
      </trkpt>
      <trkpt lat="44.46371" lon="2.12942">
        <ele>493.9</ele>
        <time>2026-07-04T05:59:40Z</time>
      </trkpt>
      <trkpt lat="44.46378" lon="2.12932">
        <ele>493.9</ele>
        <time>2026-07-04T05:59:43Z</time>
      </trkpt>
      <trkpt lat="44.46385" lon="2.12924">
        <ele>493.9</ele>
        <time>2026-07-04T05:59:46Z</time>
      </trkpt>
      <trkpt lat="44.46395" lon="2.12918">
        <ele>493.7</ele>
        <time>2026-07-04T05:59:55Z</time>
      </trkpt>
      <trkpt lat="44.46405" lon="2.12914">
        <ele>493.4</ele>
        <time>2026-07-04T05:59:58Z</time>
      </trkpt>
      <trkpt lat="44.46416" lon="2.12906">
        <ele>493.1</ele>
        <time>2026-07-04T06:00:01Z</time>
      </trkpt>
      <trkpt lat="44.46421" lon="2.12891">
        <ele>492.7</ele>
        <time>2026-07-04T06:00:04Z</time>
      </trkpt>
      <trkpt lat="44.46418" lon="2.12877">
        <ele>492.6</ele>
        <time>2026-07-04T06:00:07Z</time>
      </trkpt>
      <trkpt lat="44.46414" lon="2.12863">
        <ele>492.5</ele>
        <time>2026-07-04T06:00:10Z</time>
      </trkpt>
      <trkpt lat="44.46412" lon="2.12849">
        <ele>492.2</ele>
        <time>2026-07-04T06:00:13Z</time>
      </trkpt>
      <trkpt lat="44.46412" lon="2.12834">
        <ele>491.6</ele>
        <time>2026-07-04T06:00:16Z</time>
      </trkpt>
      <trkpt lat="44.46414" lon="2.12819">
        <ele>490.8</ele>
        <time>2026-07-04T06:00:19Z</time>
      </trkpt>
      <trkpt lat="44.46417" lon="2.12802">
        <ele>489.9</ele>
        <time>2026-07-04T06:00:22Z</time>
      </trkpt>
      <trkpt lat="44.46419" lon="2.12789">
        <ele>489.4</ele>
        <time>2026-07-04T06:00:24Z</time>
      </trkpt>
      <trkpt lat="44.46419" lon="2.12775">
        <ele>489</ele>
        <time>2026-07-04T06:00:26Z</time>
      </trkpt>
      <trkpt lat="44.46421" lon="2.12759">
        <ele>488.5</ele>
        <time>2026-07-04T06:00:28Z</time>
      </trkpt>
      <trkpt lat="44.46422" lon="2.12742">
        <ele>487.8</ele>
        <time>2026-07-04T06:00:30Z</time>
      </trkpt>
      <trkpt lat="44.46423" lon="2.12723">
        <ele>487.1</ele>
        <time>2026-07-04T06:00:32Z</time>
      </trkpt>
      <trkpt lat="44.46423" lon="2.12704">
        <ele>486.6</ele>
        <time>2026-07-04T06:00:34Z</time>
      </trkpt>
      <trkpt lat="44.46422" lon="2.12684">
        <ele>486</ele>
        <time>2026-07-04T06:00:36Z</time>
      </trkpt>
      <trkpt lat="44.46419" lon="2.12663">
        <ele>485.3</ele>
        <time>2026-07-04T06:00:38Z</time>
      </trkpt>
      <trkpt lat="44.46416" lon="2.12642">
        <ele>484.5</ele>
        <time>2026-07-04T06:00:40Z</time>
      </trkpt>
      <trkpt lat="44.46412" lon="2.12619">
        <ele>483.7</ele>
        <time>2026-07-04T06:00:42Z</time>
      </trkpt>
      <trkpt lat="44.46406" lon="2.12598">
        <ele>482.9</ele>
        <time>2026-07-04T06:00:44Z</time>
      </trkpt>
      <trkpt lat="44.46394" lon="2.12583">
        <ele>482.5</ele>
        <time>2026-07-04T06:00:46Z</time>
      </trkpt>
      <trkpt lat="44.46385" lon="2.12573">
        <ele>482</ele>
        <time>2026-07-04T06:00:48Z</time>
      </trkpt>
      <trkpt lat="44.46382" lon="2.12558">
        <ele>480.4</ele>
        <time>2026-07-04T06:00:51Z</time>
      </trkpt>
      <trkpt lat="44.46387" lon="2.12546">
        <ele>479.7</ele>
        <time>2026-07-04T06:00:53Z</time>
      </trkpt>
      <trkpt lat="44.46394" lon="2.12534">
        <ele>478.8</ele>
        <time>2026-07-04T06:00:55Z</time>
      </trkpt>
      <trkpt lat="44.46402" lon="2.12521">
        <ele>477.8</ele>
        <time>2026-07-04T06:00:57Z</time>
      </trkpt>
      <trkpt lat="44.46411" lon="2.12506">
        <ele>476.6</ele>
        <time>2026-07-04T06:00:59Z</time>
      </trkpt>
      <trkpt lat="44.4642" lon="2.12489">
        <ele>475.4</ele>
        <time>2026-07-04T06:01:01Z</time>
      </trkpt>
      <trkpt lat="44.46429" lon="2.12472">
        <ele>474.1</ele>
        <time>2026-07-04T06:01:03Z</time>
      </trkpt>
      <trkpt lat="44.46439" lon="2.12453">
        <ele>472.7</ele>
        <time>2026-07-04T06:01:05Z</time>
      </trkpt>
      <trkpt lat="44.46449" lon="2.12432">
        <ele>471.6</ele>
        <time>2026-07-04T06:01:07Z</time>
      </trkpt>
      <trkpt lat="44.46457" lon="2.12411">
        <ele>471.1</ele>
        <time>2026-07-04T06:01:09Z</time>
      </trkpt>
      <trkpt lat="44.46464" lon="2.1239">
        <ele>471</ele>
        <time>2026-07-04T06:01:11Z</time>
      </trkpt>
      <trkpt lat="44.46469" lon="2.12371">
        <ele>471.4</ele>
        <time>2026-07-04T06:01:13Z</time>
      </trkpt>
      <trkpt lat="44.46473" lon="2.12355">
        <ele>471.8</ele>
        <time>2026-07-04T06:01:15Z</time>
      </trkpt>
      <trkpt lat="44.46477" lon="2.12342">
        <ele>472.3</ele>
        <time>2026-07-04T06:01:17Z</time>
      </trkpt>
      <trkpt lat="44.46484" lon="2.12326">
        <ele>472.9</ele>
        <time>2026-07-04T06:01:20Z</time>
      </trkpt>
      <trkpt lat="44.46493" lon="2.12314">
        <ele>473.4</ele>
        <time>2026-07-04T06:01:23Z</time>
      </trkpt>
      <trkpt lat="44.46502" lon="2.12303">
        <ele>474</ele>
        <time>2026-07-04T06:01:26Z</time>
      </trkpt>
      <trkpt lat="44.46512" lon="2.12294">
        <ele>474.6</ele>
        <time>2026-07-04T06:01:29Z</time>
      </trkpt>
      <trkpt lat="44.46521" lon="2.12286">
        <ele>475.2</ele>
        <time>2026-07-04T06:01:32Z</time>
      </trkpt>
      <trkpt lat="44.4653" lon="2.12277">
        <ele>475.9</ele>
        <time>2026-07-04T06:01:35Z</time>
      </trkpt>
      <trkpt lat="44.46539" lon="2.1227">
        <ele>476.5</ele>
        <time>2026-07-04T06:01:38Z</time>
      </trkpt>
      <trkpt lat="44.46549" lon="2.12265">
        <ele>477.1</ele>
        <time>2026-07-04T06:01:41Z</time>
      </trkpt>
      <trkpt lat="44.46559" lon="2.1226">
        <ele>477.8</ele>
        <time>2026-07-04T06:01:44Z</time>
      </trkpt>
      <trkpt lat="44.4657" lon="2.12256">
        <ele>478.3</ele>
        <time>2026-07-04T06:01:47Z</time>
      </trkpt>
      <trkpt lat="44.4658" lon="2.12254">
        <ele>478.9</ele>
        <time>2026-07-04T06:01:50Z</time>
      </trkpt>
      <trkpt lat="44.46588" lon="2.12253">
        <ele>479.3</ele>
        <time>2026-07-04T06:02:09Z</time>
      </trkpt>
      <trkpt lat="44.46597" lon="2.12245">
        <ele>479.7</ele>
        <time>2026-07-04T06:02:33Z</time>
      </trkpt>
      <trkpt lat="44.46604" lon="2.12235">
        <ele>480</ele>
        <time>2026-07-04T06:02:37Z</time>
      </trkpt>
      <trkpt lat="44.46611" lon="2.12224">
        <ele>480.1</ele>
        <time>2026-07-04T06:02:41Z</time>
      </trkpt>
      <trkpt lat="44.46619" lon="2.12212">
        <ele>480.2</ele>
        <time>2026-07-04T06:02:45Z</time>
      </trkpt>
      <trkpt lat="44.46625" lon="2.12198">
        <ele>480.2</ele>
        <time>2026-07-04T06:02:49Z</time>
      </trkpt>
      <trkpt lat="44.4663" lon="2.12187">
        <ele>480</ele>
        <time>2026-07-04T06:02:52Z</time>
      </trkpt>
      <trkpt lat="44.46636" lon="2.12177">
        <ele>479.8</ele>
        <time>2026-07-04T06:02:55Z</time>
      </trkpt>
      <trkpt lat="44.46642" lon="2.12165">
        <ele>479.5</ele>
        <time>2026-07-04T06:02:58Z</time>
      </trkpt>
      <trkpt lat="44.46649" lon="2.12152">
        <ele>479.2</ele>
        <time>2026-07-04T06:03:01Z</time>
      </trkpt>
      <trkpt lat="44.46656" lon="2.12138">
        <ele>478.8</ele>
        <time>2026-07-04T06:03:04Z</time>
      </trkpt>
      <trkpt lat="44.46662" lon="2.12123">
        <ele>478.3</ele>
        <time>2026-07-04T06:03:07Z</time>
      </trkpt>
      <trkpt lat="44.46669" lon="2.12106">
        <ele>477.7</ele>
        <time>2026-07-04T06:03:10Z</time>
      </trkpt>
      <trkpt lat="44.46672" lon="2.12093">
        <ele>477.2</ele>
        <time>2026-07-04T06:03:12Z</time>
      </trkpt>
      <trkpt lat="44.46675" lon="2.12079">
        <ele>476.6</ele>
        <time>2026-07-04T06:03:14Z</time>
      </trkpt>
      <trkpt lat="44.46678" lon="2.12065">
        <ele>475.8</ele>
        <time>2026-07-04T06:03:16Z</time>
      </trkpt>
      <trkpt lat="44.46681" lon="2.12049">
        <ele>475</ele>
        <time>2026-07-04T06:03:18Z</time>
      </trkpt>
      <trkpt lat="44.46684" lon="2.12033">
        <ele>474.2</ele>
        <time>2026-07-04T06:03:20Z</time>
      </trkpt>
      <trkpt lat="44.46687" lon="2.12016">
        <ele>473.3</ele>
        <time>2026-07-04T06:03:22Z</time>
      </trkpt>
      <trkpt lat="44.4669" lon="2.12">
        <ele>472.3</ele>
        <time>2026-07-04T06:03:24Z</time>
      </trkpt>
      <trkpt lat="44.46694" lon="2.11983">
        <ele>471.4</ele>
        <time>2026-07-04T06:03:26Z</time>
      </trkpt>
      <trkpt lat="44.467" lon="2.11967">
        <ele>470.3</ele>
        <time>2026-07-04T06:03:28Z</time>
      </trkpt>
      <trkpt lat="44.46707" lon="2.11952">
        <ele>469.2</ele>
        <time>2026-07-04T06:03:30Z</time>
      </trkpt>
      <trkpt lat="44.46716" lon="2.11938">
        <ele>468.1</ele>
        <time>2026-07-04T06:03:32Z</time>
      </trkpt>
      <trkpt lat="44.46725" lon="2.11924">
        <ele>467</ele>
        <time>2026-07-04T06:03:34Z</time>
      </trkpt>
      <trkpt lat="44.46734" lon="2.1191">
        <ele>465.9</ele>
        <time>2026-07-04T06:03:36Z</time>
      </trkpt>
      <trkpt lat="44.46743" lon="2.11896">
        <ele>464.8</ele>
        <time>2026-07-04T06:03:38Z</time>
      </trkpt>
      <trkpt lat="44.46753" lon="2.1188">
        <ele>463.7</ele>
        <time>2026-07-04T06:03:40Z</time>
      </trkpt>
      <trkpt lat="44.46763" lon="2.11863">
        <ele>462.4</ele>
        <time>2026-07-04T06:03:42Z</time>
      </trkpt>
      <trkpt lat="44.46773" lon="2.11845">
        <ele>461.2</ele>
        <time>2026-07-04T06:03:44Z</time>
      </trkpt>
      <trkpt lat="44.46784" lon="2.11826">
        <ele>460</ele>
        <time>2026-07-04T06:03:46Z</time>
      </trkpt>
      <trkpt lat="44.46795" lon="2.11807">
        <ele>458.9</ele>
        <time>2026-07-04T06:03:48Z</time>
      </trkpt>
      <trkpt lat="44.46806" lon="2.11789">
        <ele>457.7</ele>
        <time>2026-07-04T06:03:50Z</time>
      </trkpt>
      <trkpt lat="44.46817" lon="2.11772">
        <ele>456.6</ele>
        <time>2026-07-04T06:03:52Z</time>
      </trkpt>
      <trkpt lat="44.46827" lon="2.11756">
        <ele>455.6</ele>
        <time>2026-07-04T06:03:54Z</time>
      </trkpt>
      <trkpt lat="44.46836" lon="2.11742">
        <ele>454.7</ele>
        <time>2026-07-04T06:03:56Z</time>
      </trkpt>
      <trkpt lat="44.46843" lon="2.1173">
        <ele>454</ele>
        <time>2026-07-04T06:03:58Z</time>
      </trkpt>
      <trkpt lat="44.46849" lon="2.11719">
        <ele>453.3</ele>
        <time>2026-07-04T06:04:00Z</time>
      </trkpt>
      <trkpt lat="44.46854" lon="2.11707">
        <ele>452.6</ele>
        <time>2026-07-04T06:04:03Z</time>
      </trkpt>
      <trkpt lat="44.46855" lon="2.11694">
        <ele>452.3</ele>
        <time>2026-07-04T06:04:11Z</time>
      </trkpt>
      <trkpt lat="44.46862" lon="2.11701">
        <ele>450.7</ele>
        <time>2026-07-04T06:04:21Z</time>
      </trkpt>
      <trkpt lat="44.46869" lon="2.11711">
        <ele>448.5</ele>
        <time>2026-07-04T06:04:25Z</time>
      </trkpt>
      <trkpt lat="44.46877" lon="2.11721">
        <ele>445.3</ele>
        <time>2026-07-04T06:04:29Z</time>
      </trkpt>
      <trkpt lat="44.46886" lon="2.11723">
        <ele>442.1</ele>
        <time>2026-07-04T06:04:35Z</time>
      </trkpt>
      <trkpt lat="44.46891" lon="2.11713">
        <ele>439</ele>
        <time>2026-07-04T06:04:38Z</time>
      </trkpt>
      <trkpt lat="44.46894" lon="2.11699">
        <ele>436.1</ele>
        <time>2026-07-04T06:04:42Z</time>
      </trkpt>
      <trkpt lat="44.46894" lon="2.11684">
        <ele>433.7</ele>
        <time>2026-07-04T06:04:46Z</time>
      </trkpt>
      <trkpt lat="44.46895" lon="2.11669">
        <ele>431.6</ele>
        <time>2026-07-04T06:04:50Z</time>
      </trkpt>
      <trkpt lat="44.46897" lon="2.11653">
        <ele>429.3</ele>
        <time>2026-07-04T06:04:54Z</time>
      </trkpt>
      <trkpt lat="44.469" lon="2.11639">
        <ele>427.1</ele>
        <time>2026-07-04T06:04:57Z</time>
      </trkpt>
      <trkpt lat="44.46902" lon="2.11624">
        <ele>424.9</ele>
        <time>2026-07-04T06:05:00Z</time>
      </trkpt>
      <trkpt lat="44.46905" lon="2.11612">
        <ele>423</ele>
        <time>2026-07-04T06:05:11Z</time>
      </trkpt>
      <trkpt lat="44.46907" lon="2.11597">
        <ele>421</ele>
        <time>2026-07-04T06:05:16Z</time>
      </trkpt>
      <trkpt lat="44.46908" lon="2.11584">
        <ele>419.5</ele>
        <time>2026-07-04T06:05:19Z</time>
      </trkpt>
      <trkpt lat="44.46909" lon="2.11571">
        <ele>418</ele>
        <time>2026-07-04T06:05:25Z</time>
      </trkpt>
      <trkpt lat="44.46911" lon="2.11558">
        <ele>416.7</ele>
        <time>2026-07-04T06:05:29Z</time>
      </trkpt>
      <trkpt lat="44.46912" lon="2.11542">
        <ele>415.1</ele>
        <time>2026-07-04T06:05:32Z</time>
      </trkpt>
      <trkpt lat="44.46912" lon="2.11529">
        <ele>413.9</ele>
        <time>2026-07-04T06:05:35Z</time>
      </trkpt>
      <trkpt lat="44.46914" lon="2.11512">
        <ele>412.2</ele>
        <time>2026-07-04T06:05:38Z</time>
      </trkpt>
      <trkpt lat="44.46915" lon="2.11493">
        <ele>410.1</ele>
        <time>2026-07-04T06:05:41Z</time>
      </trkpt>
      <trkpt lat="44.46913" lon="2.11474">
        <ele>407.6</ele>
        <time>2026-07-04T06:05:44Z</time>
      </trkpt>
      <trkpt lat="44.46913" lon="2.11457">
        <ele>405.2</ele>
        <time>2026-07-04T06:05:47Z</time>
      </trkpt>
      <trkpt lat="44.46913" lon="2.11437">
        <ele>402.9</ele>
        <time>2026-07-04T06:05:50Z</time>
      </trkpt>
      <trkpt lat="44.46912" lon="2.11422">
        <ele>401.5</ele>
        <time>2026-07-04T06:05:52Z</time>
      </trkpt>
      <trkpt lat="44.46911" lon="2.11408">
        <ele>400.3</ele>
        <time>2026-07-04T06:05:54Z</time>
      </trkpt>
      <trkpt lat="44.4691" lon="2.11395">
        <ele>399.3</ele>
        <time>2026-07-04T06:05:56Z</time>
      </trkpt>
      <trkpt lat="44.46911" lon="2.11378">
        <ele>398</ele>
        <time>2026-07-04T06:05:59Z</time>
      </trkpt>
      <trkpt lat="44.46911" lon="2.11359">
        <ele>396.4</ele>
        <time>2026-07-04T06:06:02Z</time>
      </trkpt>
      <trkpt lat="44.46912" lon="2.11343">
        <ele>395</ele>
        <time>2026-07-04T06:06:04Z</time>
      </trkpt>
      <trkpt lat="44.46913" lon="2.11331">
        <ele>393.5</ele>
        <time>2026-07-04T06:06:06Z</time>
      </trkpt>
      <trkpt lat="44.46915" lon="2.11317">
        <ele>392.1</ele>
        <time>2026-07-04T06:06:08Z</time>
      </trkpt>
      <trkpt lat="44.46915" lon="2.11304">
        <ele>390.6</ele>
        <time>2026-07-04T06:06:10Z</time>
      </trkpt>
      <trkpt lat="44.46915" lon="2.1129">
        <ele>388.9</ele>
        <time>2026-07-04T06:06:12Z</time>
      </trkpt>
      <trkpt lat="44.46914" lon="2.11277">
        <ele>387.1</ele>
        <time>2026-07-04T06:06:14Z</time>
      </trkpt>
      <trkpt lat="44.46913" lon="2.11262">
        <ele>385.1</ele>
        <time>2026-07-04T06:06:16Z</time>
      </trkpt>
      <trkpt lat="44.46913" lon="2.11245">
        <ele>382.8</ele>
        <time>2026-07-04T06:06:18Z</time>
      </trkpt>
      <trkpt lat="44.46911" lon="2.11229">
        <ele>373.3</ele>
        <time>2026-07-04T06:06:21Z</time>
      </trkpt>
      <trkpt lat="44.4692" lon="2.11236">
        <ele>367.4</ele>
        <time>2026-07-04T06:06:30Z</time>
      </trkpt>
      <trkpt lat="44.46924" lon="2.11248">
        <ele>366.8</ele>
        <time>2026-07-04T06:06:33Z</time>
      </trkpt>
      <trkpt lat="44.46928" lon="2.11263">
        <ele>366.2</ele>
        <time>2026-07-04T06:06:37Z</time>
      </trkpt>
      <trkpt lat="44.46929" lon="2.11276">
        <ele>365.8</ele>
        <time>2026-07-04T06:06:42Z</time>
      </trkpt>
      <trkpt lat="44.46932" lon="2.11289">
        <ele>365.3</ele>
        <time>2026-07-04T06:06:48Z</time>
      </trkpt>
      <trkpt lat="44.46935" lon="2.11304">
        <ele>364.6</ele>
        <time>2026-07-04T06:06:52Z</time>
      </trkpt>
      <trkpt lat="44.46937" lon="2.11317">
        <ele>364</ele>
        <time>2026-07-04T06:06:56Z</time>
      </trkpt>
      <trkpt lat="44.46944" lon="2.11307">
        <ele>363.2</ele>
        <time>2026-07-04T06:07:04Z</time>
      </trkpt>
      <trkpt lat="44.46952" lon="2.11301">
        <ele>362.4</ele>
        <time>2026-07-04T06:07:10Z</time>
      </trkpt>
      <trkpt lat="44.46963" lon="2.11298">
        <ele>361.4</ele>
        <time>2026-07-04T06:07:14Z</time>
      </trkpt>
      <trkpt lat="44.46969" lon="2.11287">
        <ele>360.6</ele>
        <time>2026-07-04T06:07:36Z</time>
      </trkpt>
      <trkpt lat="44.46976" lon="2.11274">
        <ele>359.6</ele>
        <time>2026-07-04T06:07:41Z</time>
      </trkpt>
      <trkpt lat="44.46982" lon="2.1126">
        <ele>358.6</ele>
        <time>2026-07-04T06:07:44Z</time>
      </trkpt>
      <trkpt lat="44.46983" lon="2.11254">
        <ele>358.3</ele>
        <time>2026-07-04T06:08:01Z</time>
      </trkpt>
      <trkpt lat="44.46983" lon="2.11249">
        <ele>358</ele>
        <time>2026-07-04T06:08:06Z</time>
      </trkpt>
      <trkpt lat="44.46986" lon="2.11235">
        <ele>357.2</ele>
        <time>2026-07-04T06:08:09Z</time>
      </trkpt>
      <trkpt lat="44.46991" lon="2.11223">
        <ele>356.4</ele>
        <time>2026-07-04T06:08:11Z</time>
      </trkpt>
      <trkpt lat="44.46998" lon="2.11209">
        <ele>355.5</ele>
        <time>2026-07-04T06:08:13Z</time>
      </trkpt>
      <trkpt lat="44.47008" lon="2.11196">
        <ele>354.4</ele>
        <time>2026-07-04T06:08:15Z</time>
      </trkpt>
      <trkpt lat="44.47018" lon="2.11184">
        <ele>353.4</ele>
        <time>2026-07-04T06:08:17Z</time>
      </trkpt>
      <trkpt lat="44.47027" lon="2.11177">
        <ele>352.7</ele>
        <time>2026-07-04T06:08:19Z</time>
      </trkpt>
      <trkpt lat="44.47038" lon="2.1117">
        <ele>352</ele>
        <time>2026-07-04T06:08:21Z</time>
      </trkpt>
      <trkpt lat="44.47051" lon="2.11165">
        <ele>351.3</ele>
        <time>2026-07-04T06:08:23Z</time>
      </trkpt>
      <trkpt lat="44.47065" lon="2.11159">
        <ele>350.5</ele>
        <time>2026-07-04T06:08:25Z</time>
      </trkpt>
      <trkpt lat="44.47079" lon="2.11151">
        <ele>349.6</ele>
        <time>2026-07-04T06:08:27Z</time>
      </trkpt>
      <trkpt lat="44.47094" lon="2.11143">
        <ele>348.7</ele>
        <time>2026-07-04T06:08:29Z</time>
      </trkpt>
      <trkpt lat="44.47106" lon="2.11132">
        <ele>347.5</ele>
        <time>2026-07-04T06:08:31Z</time>
      </trkpt>
      <trkpt lat="44.47114" lon="2.11117">
        <ele>346.4</ele>
        <time>2026-07-04T06:08:33Z</time>
      </trkpt>
      <trkpt lat="44.47119" lon="2.11098">
        <ele>345</ele>
        <time>2026-07-04T06:08:35Z</time>
      </trkpt>
      <trkpt lat="44.47118" lon="2.11081">
        <ele>343.7</ele>
        <time>2026-07-04T06:08:37Z</time>
      </trkpt>
      <trkpt lat="44.47115" lon="2.11068">
        <ele>342.7</ele>
        <time>2026-07-04T06:08:39Z</time>
      </trkpt>
      <trkpt lat="44.47108" lon="2.11053">
        <ele>341.4</ele>
        <time>2026-07-04T06:08:42Z</time>
      </trkpt>
      <trkpt lat="44.471" lon="2.11046">
        <ele>340.5</ele>
        <time>2026-07-04T06:08:44Z</time>
      </trkpt>
      <trkpt lat="44.47091" lon="2.1104">
        <ele>339.6</ele>
        <time>2026-07-04T06:08:46Z</time>
      </trkpt>
      <trkpt lat="44.47081" lon="2.11034">
        <ele>338.8</ele>
        <time>2026-07-04T06:08:48Z</time>
      </trkpt>
      <trkpt lat="44.47071" lon="2.11027">
        <ele>338</ele>
        <time>2026-07-04T06:08:50Z</time>
      </trkpt>
      <trkpt lat="44.47062" lon="2.1102">
        <ele>337.3</ele>
        <time>2026-07-04T06:08:54Z</time>
      </trkpt>
      <trkpt lat="44.47069" lon="2.11012">
        <ele>336.4</ele>
        <time>2026-07-04T06:08:58Z</time>
      </trkpt>
      <trkpt lat="44.47079" lon="2.11008">
        <ele>335.5</ele>
        <time>2026-07-04T06:09:01Z</time>
      </trkpt>
      <trkpt lat="44.47092" lon="2.11004">
        <ele>334.4</ele>
        <time>2026-07-04T06:09:04Z</time>
      </trkpt>
      <trkpt lat="44.47103" lon="2.11004">
        <ele>333.6</ele>
        <time>2026-07-04T06:09:07Z</time>
      </trkpt>
      <trkpt lat="44.47115" lon="2.11008">
        <ele>333.4</ele>
        <time>2026-07-04T06:09:10Z</time>
      </trkpt>
      <trkpt lat="44.47127" lon="2.11013">
        <ele>332.7</ele>
        <time>2026-07-04T06:09:13Z</time>
      </trkpt>
      <trkpt lat="44.47137" lon="2.11019">
        <ele>331.7</ele>
        <time>2026-07-04T06:09:16Z</time>
      </trkpt>
      <trkpt lat="44.47147" lon="2.11022">
        <ele>330.9</ele>
        <time>2026-07-04T06:09:19Z</time>
      </trkpt>
      <trkpt lat="44.47156" lon="2.1102">
        <ele>330</ele>
        <time>2026-07-04T06:09:22Z</time>
      </trkpt>
      <trkpt lat="44.47163" lon="2.11011">
        <ele>328.9</ele>
        <time>2026-07-04T06:09:24Z</time>
      </trkpt>
      <trkpt lat="44.47173" lon="2.11">
        <ele>327.6</ele>
        <time>2026-07-04T06:09:26Z</time>
      </trkpt>
      <trkpt lat="44.47183" lon="2.10988">
        <ele>326.7</ele>
        <time>2026-07-04T06:09:28Z</time>
      </trkpt>
      <trkpt lat="44.47194" lon="2.10978">
        <ele>326.5</ele>
        <time>2026-07-04T06:09:30Z</time>
      </trkpt>
      <trkpt lat="44.47205" lon="2.10973">
        <ele>326.7</ele>
        <time>2026-07-04T06:09:32Z</time>
      </trkpt>
      <trkpt lat="44.47215" lon="2.10973">
        <ele>326.7</ele>
        <time>2026-07-04T06:09:34Z</time>
      </trkpt>
      <trkpt lat="44.47225" lon="2.10975">
        <ele>326.3</ele>
        <time>2026-07-04T06:09:36Z</time>
      </trkpt>
      <trkpt lat="44.47235" lon="2.10977">
        <ele>325.4</ele>
        <time>2026-07-04T06:09:38Z</time>
      </trkpt>
      <trkpt lat="44.47247" lon="2.10977">
        <ele>324.5</ele>
        <time>2026-07-04T06:09:40Z</time>
      </trkpt>
      <trkpt lat="44.4726" lon="2.10976">
        <ele>323.4</ele>
        <time>2026-07-04T06:09:42Z</time>
      </trkpt>
      <trkpt lat="44.47273" lon="2.10973">
        <ele>321.9</ele>
        <time>2026-07-04T06:09:44Z</time>
      </trkpt>
      <trkpt lat="44.47284" lon="2.10965">
        <ele>320.8</ele>
        <time>2026-07-04T06:09:46Z</time>
      </trkpt>
      <trkpt lat="44.47292" lon="2.10951">
        <ele>319.8</ele>
        <time>2026-07-04T06:09:48Z</time>
      </trkpt>
      <trkpt lat="44.47301" lon="2.10936">
        <ele>318.5</ele>
        <time>2026-07-04T06:09:50Z</time>
      </trkpt>
      <trkpt lat="44.47311" lon="2.10919">
        <ele>317.9</ele>
        <time>2026-07-04T06:09:52Z</time>
      </trkpt>
      <trkpt lat="44.47324" lon="2.10904">
        <ele>317</ele>
        <time>2026-07-04T06:09:54Z</time>
      </trkpt>
      <trkpt lat="44.47339" lon="2.10895">
        <ele>316</ele>
        <time>2026-07-04T06:09:56Z</time>
      </trkpt>
      <trkpt lat="44.47353" lon="2.10892">
        <ele>315.1</ele>
        <time>2026-07-04T06:09:58Z</time>
      </trkpt>
      <trkpt lat="44.47368" lon="2.10886">
        <ele>313.9</ele>
        <time>2026-07-04T06:10:00Z</time>
      </trkpt>
      <trkpt lat="44.47382" lon="2.10876">
        <ele>312.6</ele>
        <time>2026-07-04T06:10:02Z</time>
      </trkpt>
      <trkpt lat="44.47395" lon="2.10865">
        <ele>312.1</ele>
        <time>2026-07-04T06:10:04Z</time>
      </trkpt>
      <trkpt lat="44.47409" lon="2.10853">
        <ele>310.8</ele>
        <time>2026-07-04T06:10:06Z</time>
      </trkpt>
      <trkpt lat="44.47422" lon="2.10842">
        <ele>308.7</ele>
        <time>2026-07-04T06:10:08Z</time>
      </trkpt>
      <trkpt lat="44.47437" lon="2.1083">
        <ele>307.5</ele>
        <time>2026-07-04T06:10:10Z</time>
      </trkpt>
      <trkpt lat="44.4745" lon="2.10817">
        <ele>305</ele>
        <time>2026-07-04T06:10:12Z</time>
      </trkpt>
      <trkpt lat="44.47463" lon="2.10801">
        <ele>303</ele>
        <time>2026-07-04T06:10:14Z</time>
      </trkpt>
      <trkpt lat="44.4747" lon="2.10792">
        <ele>301.8</ele>
        <time>2026-07-04T06:10:15Z</time>
      </trkpt>
      <trkpt lat="44.47477" lon="2.10782">
        <ele>300.4</ele>
        <time>2026-07-04T06:10:16Z</time>
      </trkpt>
      <trkpt lat="44.47483" lon="2.10759">
        <ele>298.1</ele>
        <time>2026-07-04T06:10:18Z</time>
      </trkpt>
      <trkpt lat="44.47486" lon="2.10736">
        <ele>297.3</ele>
        <time>2026-07-04T06:10:20Z</time>
      </trkpt>
      <trkpt lat="44.47491" lon="2.10713">
        <ele>296.5</ele>
        <time>2026-07-04T06:10:22Z</time>
      </trkpt>
      <trkpt lat="44.47499" lon="2.10691">
        <ele>294.7</ele>
        <time>2026-07-04T06:10:24Z</time>
      </trkpt>
      <trkpt lat="44.47505" lon="2.1067">
        <ele>294.1</ele>
        <time>2026-07-04T06:10:26Z</time>
      </trkpt>
      <trkpt lat="44.47511" lon="2.1065">
        <ele>293.7</ele>
        <time>2026-07-04T06:10:28Z</time>
      </trkpt>
      <trkpt lat="44.47518" lon="2.10637">
        <ele>293.3</ele>
        <time>2026-07-04T06:10:30Z</time>
      </trkpt>
      <trkpt lat="44.47527" lon="2.10645">
        <ele>290.7</ele>
        <time>2026-07-04T06:10:42Z</time>
      </trkpt>
      <trkpt lat="44.47527" lon="2.1066">
        <ele>289.3</ele>
        <time>2026-07-04T06:10:45Z</time>
      </trkpt>
      <trkpt lat="44.47526" lon="2.10674">
        <ele>288.6</ele>
        <time>2026-07-04T06:10:47Z</time>
      </trkpt>
      <trkpt lat="44.47527" lon="2.1069">
        <ele>287.8</ele>
        <time>2026-07-04T06:10:49Z</time>
      </trkpt>
      <trkpt lat="44.47529" lon="2.10706">
        <ele>286.3</ele>
        <time>2026-07-04T06:10:51Z</time>
      </trkpt>
      <trkpt lat="44.47533" lon="2.10723">
        <ele>285.3</ele>
        <time>2026-07-04T06:10:53Z</time>
      </trkpt>
      <trkpt lat="44.47536" lon="2.10742">
        <ele>284.1</ele>
        <time>2026-07-04T06:10:55Z</time>
      </trkpt>
      <trkpt lat="44.47538" lon="2.10762">
        <ele>282.8</ele>
        <time>2026-07-04T06:10:57Z</time>
      </trkpt>
      <trkpt lat="44.4754" lon="2.10785">
        <ele>282.4</ele>
        <time>2026-07-04T06:10:59Z</time>
      </trkpt>
      <trkpt lat="44.4754" lon="2.10808">
        <ele>282.1</ele>
        <time>2026-07-04T06:11:01Z</time>
      </trkpt>
      <trkpt lat="44.47538" lon="2.10831">
        <ele>281.4</ele>
        <time>2026-07-04T06:11:03Z</time>
      </trkpt>
      <trkpt lat="44.47535" lon="2.10854">
        <ele>281.9</ele>
        <time>2026-07-04T06:11:05Z</time>
      </trkpt>
      <trkpt lat="44.47532" lon="2.10878">
        <ele>282.2</ele>
        <time>2026-07-04T06:11:07Z</time>
      </trkpt>
      <trkpt lat="44.4753" lon="2.10902">
        <ele>281.9</ele>
        <time>2026-07-04T06:11:09Z</time>
      </trkpt>
      <trkpt lat="44.47529" lon="2.10926">
        <ele>281.1</ele>
        <time>2026-07-04T06:11:11Z</time>
      </trkpt>
      <trkpt lat="44.4753" lon="2.10948">
        <ele>280.4</ele>
        <time>2026-07-04T06:11:13Z</time>
      </trkpt>
      <trkpt lat="44.47534" lon="2.10969">
        <ele>279.6</ele>
        <time>2026-07-04T06:11:15Z</time>
      </trkpt>
      <trkpt lat="44.47542" lon="2.10987">
        <ele>278.4</ele>
        <time>2026-07-04T06:11:17Z</time>
      </trkpt>
      <trkpt lat="44.47549" lon="2.11004">
        <ele>277.7</ele>
        <time>2026-07-04T06:11:19Z</time>
      </trkpt>
      <trkpt lat="44.47557" lon="2.11022">
        <ele>277.2</ele>
        <time>2026-07-04T06:11:21Z</time>
      </trkpt>
      <trkpt lat="44.47563" lon="2.1104">
        <ele>277.1</ele>
        <time>2026-07-04T06:11:23Z</time>
      </trkpt>
      <trkpt lat="44.47571" lon="2.11057">
        <ele>277.3</ele>
        <time>2026-07-04T06:11:25Z</time>
      </trkpt>
      <trkpt lat="44.47579" lon="2.11073">
        <ele>276.9</ele>
        <time>2026-07-04T06:11:27Z</time>
      </trkpt>
      <trkpt lat="44.47587" lon="2.11088">
        <ele>276</ele>
        <time>2026-07-04T06:11:29Z</time>
      </trkpt>
      <trkpt lat="44.47596" lon="2.11102">
        <ele>275.6</ele>
        <time>2026-07-04T06:11:31Z</time>
      </trkpt>
      <trkpt lat="44.47605" lon="2.11114">
        <ele>274.5</ele>
        <time>2026-07-04T06:11:33Z</time>
      </trkpt>
      <trkpt lat="44.47615" lon="2.11125">
        <ele>272.9</ele>
        <time>2026-07-04T06:11:35Z</time>
      </trkpt>
      <trkpt lat="44.47625" lon="2.11136">
        <ele>271.9</ele>
        <time>2026-07-04T06:11:37Z</time>
      </trkpt>
      <trkpt lat="44.47635" lon="2.11147">
        <ele>271</ele>
        <time>2026-07-04T06:11:39Z</time>
      </trkpt>
      <trkpt lat="44.47645" lon="2.11158">
        <ele>270.5</ele>
        <time>2026-07-04T06:11:41Z</time>
      </trkpt>
      <trkpt lat="44.47656" lon="2.1117">
        <ele>269.9</ele>
        <time>2026-07-04T06:11:43Z</time>
      </trkpt>
      <trkpt lat="44.47668" lon="2.1118">
        <ele>269.2</ele>
        <time>2026-07-04T06:11:45Z</time>
      </trkpt>
      <trkpt lat="44.47681" lon="2.11191">
        <ele>268.8</ele>
        <time>2026-07-04T06:11:47Z</time>
      </trkpt>
      <trkpt lat="44.47694" lon="2.11199">
        <ele>268.4</ele>
        <time>2026-07-04T06:11:49Z</time>
      </trkpt>
      <trkpt lat="44.47709" lon="2.11202">
        <ele>268</ele>
        <time>2026-07-04T06:11:51Z</time>
      </trkpt>
      <trkpt lat="44.47725" lon="2.11201">
        <ele>267</ele>
        <time>2026-07-04T06:11:53Z</time>
      </trkpt>
      <trkpt lat="44.47739" lon="2.11203">
        <ele>266.2</ele>
        <time>2026-07-04T06:11:55Z</time>
      </trkpt>
      <trkpt lat="44.47753" lon="2.11208">
        <ele>266.1</ele>
        <time>2026-07-04T06:11:57Z</time>
      </trkpt>
      <trkpt lat="44.47766" lon="2.11217">
        <ele>266.3</ele>
        <time>2026-07-04T06:11:59Z</time>
      </trkpt>
      <trkpt lat="44.47777" lon="2.11227">
        <ele>266.5</ele>
        <time>2026-07-04T06:12:01Z</time>
      </trkpt>
      <trkpt lat="44.47789" lon="2.11237">
        <ele>266.7</ele>
        <time>2026-07-04T06:12:03Z</time>
      </trkpt>
      <trkpt lat="44.478" lon="2.11247">
        <ele>266.9</ele>
        <time>2026-07-04T06:12:05Z</time>
      </trkpt>
      <trkpt lat="44.4781" lon="2.11257">
        <ele>267.1</ele>
        <time>2026-07-04T06:12:07Z</time>
      </trkpt>
      <trkpt lat="44.4782" lon="2.11266">
        <ele>267.3</ele>
        <time>2026-07-04T06:12:09Z</time>
      </trkpt>
      <trkpt lat="44.47827" lon="2.11274">
        <ele>267.4</ele>
        <time>2026-07-04T06:12:11Z</time>
      </trkpt>
      <trkpt lat="44.47838" lon="2.11283">
        <ele>267.6</ele>
        <time>2026-07-04T06:12:14Z</time>
      </trkpt>
      <trkpt lat="44.4785" lon="2.11288">
        <ele>267.8</ele>
        <time>2026-07-04T06:12:17Z</time>
      </trkpt>
      <trkpt lat="44.4786" lon="2.11293">
        <ele>267.9</ele>
        <time>2026-07-04T06:12:20Z</time>
      </trkpt>
      <trkpt lat="44.47869" lon="2.11297">
        <ele>268</ele>
        <time>2026-07-04T06:12:23Z</time>
      </trkpt>
      <trkpt lat="44.47879" lon="2.11303">
        <ele>268</ele>
        <time>2026-07-04T06:12:27Z</time>
      </trkpt>
      <trkpt lat="44.47883" lon="2.11316">
        <ele>268</ele>
        <time>2026-07-04T06:12:31Z</time>
      </trkpt>
      <trkpt lat="44.4788" lon="2.1133">
        <ele>268.1</ele>
        <time>2026-07-04T06:12:34Z</time>
      </trkpt>
      <trkpt lat="44.47876" lon="2.11347">
        <ele>268.6</ele>
        <time>2026-07-04T06:12:37Z</time>
      </trkpt>
      <trkpt lat="44.47873" lon="2.1136">
        <ele>269.1</ele>
        <time>2026-07-04T06:12:40Z</time>
      </trkpt>
      <trkpt lat="44.47868" lon="2.11374">
        <ele>269.8</ele>
        <time>2026-07-04T06:12:43Z</time>
      </trkpt>
      <trkpt lat="44.47862" lon="2.11387">
        <ele>270.4</ele>
        <time>2026-07-04T06:12:46Z</time>
      </trkpt>
      <trkpt lat="44.47857" lon="2.11402">
        <ele>271</ele>
        <time>2026-07-04T06:12:49Z</time>
      </trkpt>
      <trkpt lat="44.4785" lon="2.11415">
        <ele>271.3</ele>
        <time>2026-07-04T06:12:52Z</time>
      </trkpt>
      <trkpt lat="44.47842" lon="2.11428">
        <ele>271.5</ele>
        <time>2026-07-04T06:12:55Z</time>
      </trkpt>
      <trkpt lat="44.47836" lon="2.11442">
        <ele>271.8</ele>
        <time>2026-07-04T06:12:58Z</time>
      </trkpt>
      <trkpt lat="44.47831" lon="2.11458">
        <ele>272</ele>
        <time>2026-07-04T06:13:01Z</time>
      </trkpt>
      <trkpt lat="44.47835" lon="2.11475">
        <ele>271.9</ele>
        <time>2026-07-04T06:13:04Z</time>
      </trkpt>
      <trkpt lat="44.47839" lon="2.11486">
        <ele>271.8</ele>
        <time>2026-07-04T06:13:06Z</time>
      </trkpt>
      <trkpt lat="44.47844" lon="2.11497">
        <ele>271.7</ele>
        <time>2026-07-04T06:13:08Z</time>
      </trkpt>
      <trkpt lat="44.47849" lon="2.11508">
        <ele>271.7</ele>
        <time>2026-07-04T06:13:10Z</time>
      </trkpt>
      <trkpt lat="44.47854" lon="2.1152">
        <ele>271.7</ele>
        <time>2026-07-04T06:13:12Z</time>
      </trkpt>
      <trkpt lat="44.47859" lon="2.1153">
        <ele>271.8</ele>
        <time>2026-07-04T06:13:14Z</time>
      </trkpt>
      <trkpt lat="44.47869" lon="2.11539">
        <ele>272.5</ele>
        <time>2026-07-04T06:13:17Z</time>
      </trkpt>
      <trkpt lat="44.4788" lon="2.11539">
        <ele>273.2</ele>
        <time>2026-07-04T06:13:20Z</time>
      </trkpt>
      <trkpt lat="44.4789" lon="2.11536">
        <ele>274</ele>
        <time>2026-07-04T06:13:23Z</time>
      </trkpt>
      <trkpt lat="44.479" lon="2.11533">
        <ele>274.8</ele>
        <time>2026-07-04T06:13:26Z</time>
      </trkpt>
      <trkpt lat="44.4791" lon="2.1153">
        <ele>275.6</ele>
        <time>2026-07-04T06:13:29Z</time>
      </trkpt>
      <trkpt lat="44.4792" lon="2.11528">
        <ele>276.4</ele>
        <time>2026-07-04T06:13:32Z</time>
      </trkpt>
      <trkpt lat="44.4793" lon="2.11527">
        <ele>277.2</ele>
        <time>2026-07-04T06:13:35Z</time>
      </trkpt>
      <trkpt lat="44.47942" lon="2.11528">
        <ele>278.1</ele>
        <time>2026-07-04T06:13:39Z</time>
      </trkpt>
      <trkpt lat="44.47951" lon="2.11526">
        <ele>278.8</ele>
        <time>2026-07-04T06:13:42Z</time>
      </trkpt>
      <trkpt lat="44.47961" lon="2.11525">
        <ele>279.6</ele>
        <time>2026-07-04T06:13:45Z</time>
      </trkpt>
      <trkpt lat="44.47971" lon="2.11522">
        <ele>280.4</ele>
        <time>2026-07-04T06:13:48Z</time>
      </trkpt>
      <trkpt lat="44.4798" lon="2.1152">
        <ele>281.1</ele>
        <time>2026-07-04T06:13:51Z</time>
      </trkpt>
      <trkpt lat="44.47989" lon="2.11517">
        <ele>281.9</ele>
        <time>2026-07-04T06:13:54Z</time>
      </trkpt>
      <trkpt lat="44.48" lon="2.11514">
        <ele>282.8</ele>
        <time>2026-07-04T06:13:58Z</time>
      </trkpt>
      <trkpt lat="44.48009" lon="2.1151">
        <ele>283.5</ele>
        <time>2026-07-04T06:14:01Z</time>
      </trkpt>
      <trkpt lat="44.48018" lon="2.11506">
        <ele>284.1</ele>
        <time>2026-07-04T06:14:04Z</time>
      </trkpt>
      <trkpt lat="44.48028" lon="2.11504">
        <ele>284.9</ele>
        <time>2026-07-04T06:14:07Z</time>
      </trkpt>
      <trkpt lat="44.48038" lon="2.11501">
        <ele>285.6</ele>
        <time>2026-07-04T06:14:10Z</time>
      </trkpt>
      <trkpt lat="44.4805" lon="2.11504">
        <ele>286.4</ele>
        <time>2026-07-04T06:14:14Z</time>
      </trkpt>
      <trkpt lat="44.4806" lon="2.11507">
        <ele>287.1</ele>
        <time>2026-07-04T06:14:17Z</time>
      </trkpt>
      <trkpt lat="44.48068" lon="2.1151">
        <ele>287.7</ele>
        <time>2026-07-04T06:14:20Z</time>
      </trkpt>
      <trkpt lat="44.48078" lon="2.11513">
        <ele>288.3</ele>
        <time>2026-07-04T06:14:23Z</time>
      </trkpt>
      <trkpt lat="44.48087" lon="2.11515">
        <ele>289</ele>
        <time>2026-07-04T06:14:26Z</time>
      </trkpt>
      <trkpt lat="44.48097" lon="2.11515">
        <ele>289.6</ele>
        <time>2026-07-04T06:14:29Z</time>
      </trkpt>
      <trkpt lat="44.48107" lon="2.11515">
        <ele>290.3</ele>
        <time>2026-07-04T06:14:32Z</time>
      </trkpt>
      <trkpt lat="44.48117" lon="2.11513">
        <ele>291</ele>
        <time>2026-07-04T06:14:35Z</time>
      </trkpt>
      <trkpt lat="44.48126" lon="2.11511">
        <ele>291.8</ele>
        <time>2026-07-04T06:14:38Z</time>
      </trkpt>
      <trkpt lat="44.48136" lon="2.11508">
        <ele>292.5</ele>
        <time>2026-07-04T06:14:41Z</time>
      </trkpt>
      <trkpt lat="44.48145" lon="2.11506">
        <ele>293.2</ele>
        <time>2026-07-04T06:14:44Z</time>
      </trkpt>
      <trkpt lat="44.48155" lon="2.11506">
        <ele>293.8</ele>
        <time>2026-07-04T06:14:47Z</time>
      </trkpt>
      <trkpt lat="44.48166" lon="2.11506">
        <ele>294.3</ele>
        <time>2026-07-04T06:14:50Z</time>
      </trkpt>
      <trkpt lat="44.48176" lon="2.11508">
        <ele>294.6</ele>
        <time>2026-07-04T06:14:53Z</time>
      </trkpt>
      <trkpt lat="44.48187" lon="2.11508">
        <ele>294.8</ele>
        <time>2026-07-04T06:14:56Z</time>
      </trkpt>
      <trkpt lat="44.48199" lon="2.11506">
        <ele>294.6</ele>
        <time>2026-07-04T06:14:59Z</time>
      </trkpt>
      <trkpt lat="44.48211" lon="2.11501">
        <ele>293.9</ele>
        <time>2026-07-04T06:15:02Z</time>
      </trkpt>
      <trkpt lat="44.48223" lon="2.11496">
        <ele>293.3</ele>
        <time>2026-07-04T06:15:05Z</time>
      </trkpt>
      <trkpt lat="44.48232" lon="2.11495">
        <ele>293</ele>
        <time>2026-07-04T06:15:07Z</time>
      </trkpt>
      <trkpt lat="44.48242" lon="2.11495">
        <ele>292.5</ele>
        <time>2026-07-04T06:15:09Z</time>
      </trkpt>
      <trkpt lat="44.48252" lon="2.11497">
        <ele>292.1</ele>
        <time>2026-07-04T06:15:11Z</time>
      </trkpt>
      <trkpt lat="44.48262" lon="2.11497">
        <ele>291.7</ele>
        <time>2026-07-04T06:15:13Z</time>
      </trkpt>
      <trkpt lat="44.48271" lon="2.11497">
        <ele>291.5</ele>
        <time>2026-07-04T06:15:15Z</time>
      </trkpt>
      <trkpt lat="44.48281" lon="2.11499">
        <ele>291.5</ele>
        <time>2026-07-04T06:15:17Z</time>
      </trkpt>
      <trkpt lat="44.4829" lon="2.11501">
        <ele>291.9</ele>
        <time>2026-07-04T06:15:19Z</time>
      </trkpt>
      <trkpt lat="44.48303" lon="2.11501">
        <ele>292.6</ele>
        <time>2026-07-04T06:15:22Z</time>
      </trkpt>
      <trkpt lat="44.48314" lon="2.11502">
        <ele>293.4</ele>
        <time>2026-07-04T06:15:25Z</time>
      </trkpt>
      <trkpt lat="44.48326" lon="2.11501">
        <ele>294.1</ele>
        <time>2026-07-04T06:15:28Z</time>
      </trkpt>
      <trkpt lat="44.48338" lon="2.11499">
        <ele>294.7</ele>
        <time>2026-07-04T06:15:31Z</time>
      </trkpt>
      <trkpt lat="44.4835" lon="2.11497">
        <ele>295.2</ele>
        <time>2026-07-04T06:15:34Z</time>
      </trkpt>
      <trkpt lat="44.48361" lon="2.11498">
        <ele>295.4</ele>
        <time>2026-07-04T06:15:37Z</time>
      </trkpt>
      <trkpt lat="44.48371" lon="2.11498">
        <ele>295.4</ele>
        <time>2026-07-04T06:15:39Z</time>
      </trkpt>
      <trkpt lat="44.4838" lon="2.11497">
        <ele>295.4</ele>
        <time>2026-07-04T06:15:41Z</time>
      </trkpt>
      <trkpt lat="44.48389" lon="2.11495">
        <ele>295.5</ele>
        <time>2026-07-04T06:15:43Z</time>
      </trkpt>
      <trkpt lat="44.48398" lon="2.11491">
        <ele>295.5</ele>
        <time>2026-07-04T06:15:45Z</time>
      </trkpt>
      <trkpt lat="44.48407" lon="2.11488">
        <ele>295.6</ele>
        <time>2026-07-04T06:15:47Z</time>
      </trkpt>
      <trkpt lat="44.4842" lon="2.11483">
        <ele>295.7</ele>
        <time>2026-07-04T06:15:50Z</time>
      </trkpt>
      <trkpt lat="44.48427" lon="2.11474">
        <ele>295.2</ele>
        <time>2026-07-04T06:15:53Z</time>
      </trkpt>
      <trkpt lat="44.48427" lon="2.11456">
        <ele>293.9</ele>
        <time>2026-07-04T06:15:56Z</time>
      </trkpt>
      <trkpt lat="44.48426" lon="2.11443">
        <ele>292.8</ele>
        <time>2026-07-04T06:15:58Z</time>
      </trkpt>
      <trkpt lat="44.48426" lon="2.11427">
        <ele>291.5</ele>
        <time>2026-07-04T06:16:00Z</time>
      </trkpt>
      <trkpt lat="44.48424" lon="2.11411">
        <ele>290.3</ele>
        <time>2026-07-04T06:16:02Z</time>
      </trkpt>
      <trkpt lat="44.48421" lon="2.11395">
        <ele>289.3</ele>
        <time>2026-07-04T06:16:04Z</time>
      </trkpt>
      <trkpt lat="44.48418" lon="2.11379">
        <ele>288.4</ele>
        <time>2026-07-04T06:16:06Z</time>
      </trkpt>
      <trkpt lat="44.48412" lon="2.11367">
        <ele>287.7</ele>
        <time>2026-07-04T06:16:08Z</time>
      </trkpt>
      <trkpt lat="44.48404" lon="2.11359">
        <ele>286.9</ele>
        <time>2026-07-04T06:16:10Z</time>
      </trkpt>
      <trkpt lat="44.48395" lon="2.11355">
        <ele>286.2</ele>
        <time>2026-07-04T06:16:12Z</time>
      </trkpt>
      <trkpt lat="44.48388" lon="2.11346">
        <ele>285.4</ele>
        <time>2026-07-04T06:16:14Z</time>
      </trkpt>
      <trkpt lat="44.48384" lon="2.1133">
        <ele>284.5</ele>
        <time>2026-07-04T06:16:16Z</time>
      </trkpt>
      <trkpt lat="44.48383" lon="2.11312">
        <ele>283.2</ele>
        <time>2026-07-04T06:16:18Z</time>
      </trkpt>
      <trkpt lat="44.48385" lon="2.11293">
        <ele>281.5</ele>
        <time>2026-07-04T06:16:20Z</time>
      </trkpt>
      <trkpt lat="44.4839" lon="2.11273">
        <ele>279.4</ele>
        <time>2026-07-04T06:16:22Z</time>
      </trkpt>
      <trkpt lat="44.48398" lon="2.11255">
        <ele>277.3</ele>
        <time>2026-07-04T06:16:24Z</time>
      </trkpt>
      <trkpt lat="44.48411" lon="2.11239">
        <ele>274.7</ele>
        <time>2026-07-04T06:16:26Z</time>
      </trkpt>
      <trkpt lat="44.48419" lon="2.11232">
        <ele>273.2</ele>
        <time>2026-07-04T06:16:27Z</time>
      </trkpt>
      <trkpt lat="44.48427" lon="2.11224">
        <ele>271.5</ele>
        <time>2026-07-04T06:16:28Z</time>
      </trkpt>
      <trkpt lat="44.48437" lon="2.11217">
        <ele>269.8</ele>
        <time>2026-07-04T06:16:29Z</time>
      </trkpt>
      <trkpt lat="44.48447" lon="2.1121">
        <ele>268</ele>
        <time>2026-07-04T06:16:30Z</time>
      </trkpt>
      <trkpt lat="44.48458" lon="2.11202">
        <ele>266.4</ele>
        <time>2026-07-04T06:16:31Z</time>
      </trkpt>
      <trkpt lat="44.48468" lon="2.11192">
        <ele>265.2</ele>
        <time>2026-07-04T06:16:32Z</time>
      </trkpt>
      <trkpt lat="44.48477" lon="2.11183">
        <ele>264.3</ele>
        <time>2026-07-04T06:16:33Z</time>
      </trkpt>
      <trkpt lat="44.48485" lon="2.11172">
        <ele>263.4</ele>
        <time>2026-07-04T06:16:34Z</time>
      </trkpt>
      <trkpt lat="44.48492" lon="2.11159">
        <ele>262.5</ele>
        <time>2026-07-04T06:16:35Z</time>
      </trkpt>
      <trkpt lat="44.48498" lon="2.11147">
        <ele>261.6</ele>
        <time>2026-07-04T06:16:36Z</time>
      </trkpt>
      <trkpt lat="44.48505" lon="2.11135">
        <ele>260.7</ele>
        <time>2026-07-04T06:16:37Z</time>
      </trkpt>
      <trkpt lat="44.48513" lon="2.11124">
        <ele>260</ele>
        <time>2026-07-04T06:16:38Z</time>
      </trkpt>
      <trkpt lat="44.48521" lon="2.11114">
        <ele>259.3</ele>
        <time>2026-07-04T06:16:39Z</time>
      </trkpt>
      <trkpt lat="44.4853" lon="2.11106">
        <ele>258.7</ele>
        <time>2026-07-04T06:16:40Z</time>
      </trkpt>
      <trkpt lat="44.4854" lon="2.111">
        <ele>258.2</ele>
        <time>2026-07-04T06:16:41Z</time>
      </trkpt>
      <trkpt lat="44.48549" lon="2.11095">
        <ele>257.8</ele>
        <time>2026-07-04T06:16:42Z</time>
      </trkpt>
      <trkpt lat="44.48559" lon="2.1109">
        <ele>257.5</ele>
        <time>2026-07-04T06:16:43Z</time>
      </trkpt>
      <trkpt lat="44.48568" lon="2.11085">
        <ele>257.2</ele>
        <time>2026-07-04T06:16:44Z</time>
      </trkpt>
      <trkpt lat="44.48576" lon="2.11079">
        <ele>256.9</ele>
        <time>2026-07-04T06:16:45Z</time>
      </trkpt>
      <trkpt lat="44.48584" lon="2.11073">
        <ele>256.6</ele>
        <time>2026-07-04T06:16:46Z</time>
      </trkpt>
      <trkpt lat="44.486" lon="2.11061">
        <ele>256.2</ele>
        <time>2026-07-04T06:16:48Z</time>
      </trkpt>
      <trkpt lat="44.48615" lon="2.1105">
        <ele>255.8</ele>
        <time>2026-07-04T06:16:50Z</time>
      </trkpt>
      <trkpt lat="44.48631" lon="2.11042">
        <ele>255.5</ele>
        <time>2026-07-04T06:16:52Z</time>
      </trkpt>
      <trkpt lat="44.48645" lon="2.11036">
        <ele>255.2</ele>
        <time>2026-07-04T06:16:54Z</time>
      </trkpt>
      <trkpt lat="44.48659" lon="2.11027">
        <ele>254.9</ele>
        <time>2026-07-04T06:16:56Z</time>
      </trkpt>
      <trkpt lat="44.48667" lon="2.1101">
        <ele>254.5</ele>
        <time>2026-07-04T06:16:58Z</time>
      </trkpt>
      <trkpt lat="44.4867" lon="2.10991">
        <ele>254</ele>
        <time>2026-07-04T06:17:00Z</time>
      </trkpt>
      <trkpt lat="44.48671" lon="2.10971">
        <ele>253.4</ele>
        <time>2026-07-04T06:17:02Z</time>
      </trkpt>
      <trkpt lat="44.48671" lon="2.10952">
        <ele>252.9</ele>
        <time>2026-07-04T06:17:04Z</time>
      </trkpt>
      <trkpt lat="44.48671" lon="2.10932">
        <ele>252.4</ele>
        <time>2026-07-04T06:17:06Z</time>
      </trkpt>
      <trkpt lat="44.48672" lon="2.10913">
        <ele>252</ele>
        <time>2026-07-04T06:17:08Z</time>
      </trkpt>
      <trkpt lat="44.48673" lon="2.10894">
        <ele>251.6</ele>
        <time>2026-07-04T06:17:10Z</time>
      </trkpt>
      <trkpt lat="44.48671" lon="2.10876">
        <ele>251.4</ele>
        <time>2026-07-04T06:17:12Z</time>
      </trkpt>
      <trkpt lat="44.48669" lon="2.1086">
        <ele>251.2</ele>
        <time>2026-07-04T06:17:14Z</time>
      </trkpt>
      <trkpt lat="44.48667" lon="2.10844">
        <ele>251</ele>
        <time>2026-07-04T06:17:16Z</time>
      </trkpt>
      <trkpt lat="44.48663" lon="2.10827">
        <ele>250.9</ele>
        <time>2026-07-04T06:17:18Z</time>
      </trkpt>
      <trkpt lat="44.48659" lon="2.10812">
        <ele>250.8</ele>
        <time>2026-07-04T06:17:20Z</time>
      </trkpt>
      <trkpt lat="44.48654" lon="2.10798">
        <ele>250.7</ele>
        <time>2026-07-04T06:17:22Z</time>
      </trkpt>
      <trkpt lat="44.48649" lon="2.10782">
        <ele>250.6</ele>
        <time>2026-07-04T06:17:24Z</time>
      </trkpt>
      <trkpt lat="44.48643" lon="2.10767">
        <ele>250.5</ele>
        <time>2026-07-04T06:17:26Z</time>
      </trkpt>
      <trkpt lat="44.48638" lon="2.10752">
        <ele>250.5</ele>
        <time>2026-07-04T06:17:28Z</time>
      </trkpt>
      <trkpt lat="44.48632" lon="2.10737">
        <ele>250.5</ele>
        <time>2026-07-04T06:17:30Z</time>
      </trkpt>
      <trkpt lat="44.48627" lon="2.10723">
        <ele>250.6</ele>
        <time>2026-07-04T06:17:32Z</time>
      </trkpt>
      <trkpt lat="44.48623" lon="2.1071">
        <ele>250.5</ele>
        <time>2026-07-04T06:17:34Z</time>
      </trkpt>
      <trkpt lat="44.48619" lon="2.10696">
        <ele>250.3</ele>
        <time>2026-07-04T06:17:36Z</time>
      </trkpt>
      <trkpt lat="44.48614" lon="2.10682">
        <ele>250.1</ele>
        <time>2026-07-04T06:17:38Z</time>
      </trkpt>
      <trkpt lat="44.4861" lon="2.10667">
        <ele>250</ele>
        <time>2026-07-04T06:17:40Z</time>
      </trkpt>
      <trkpt lat="44.48605" lon="2.10652">
        <ele>249.9</ele>
        <time>2026-07-04T06:17:42Z</time>
      </trkpt>
      <trkpt lat="44.486" lon="2.10638">
        <ele>249.8</ele>
        <time>2026-07-04T06:17:44Z</time>
      </trkpt>
      <trkpt lat="44.48596" lon="2.10623">
        <ele>249.8</ele>
        <time>2026-07-04T06:17:46Z</time>
      </trkpt>
      <trkpt lat="44.48591" lon="2.10609">
        <ele>249.8</ele>
        <time>2026-07-04T06:17:48Z</time>
      </trkpt>
      <trkpt lat="44.48586" lon="2.10595">
        <ele>249.8</ele>
        <time>2026-07-04T06:17:50Z</time>
      </trkpt>
      <trkpt lat="44.48582" lon="2.10581">
        <ele>249.8</ele>
        <time>2026-07-04T06:17:52Z</time>
      </trkpt>
      <trkpt lat="44.48577" lon="2.10567">
        <ele>249.8</ele>
        <time>2026-07-04T06:17:54Z</time>
      </trkpt>
      <trkpt lat="44.48573" lon="2.10553">
        <ele>249.8</ele>
        <time>2026-07-04T06:17:56Z</time>
      </trkpt>
      <trkpt lat="44.48569" lon="2.1054">
        <ele>249.7</ele>
        <time>2026-07-04T06:17:58Z</time>
      </trkpt>
      <trkpt lat="44.48564" lon="2.10526">
        <ele>249.7</ele>
        <time>2026-07-04T06:18:00Z</time>
      </trkpt>
      <trkpt lat="44.4856" lon="2.10512">
        <ele>249.6</ele>
        <time>2026-07-04T06:18:02Z</time>
      </trkpt>
      <trkpt lat="44.48555" lon="2.10498">
        <ele>249.5</ele>
        <time>2026-07-04T06:18:04Z</time>
      </trkpt>
      <trkpt lat="44.4855" lon="2.10484">
        <ele>249.4</ele>
        <time>2026-07-04T06:18:06Z</time>
      </trkpt>
      <trkpt lat="44.48546" lon="2.1047">
        <ele>249.3</ele>
        <time>2026-07-04T06:18:08Z</time>
      </trkpt>
      <trkpt lat="44.48542" lon="2.10456">
        <ele>249.2</ele>
        <time>2026-07-04T06:18:10Z</time>
      </trkpt>
      <trkpt lat="44.48539" lon="2.10443">
        <ele>249.1</ele>
        <time>2026-07-04T06:18:12Z</time>
      </trkpt>
      <trkpt lat="44.48545" lon="2.10432">
        <ele>248.9</ele>
        <time>2026-07-04T06:18:14Z</time>
      </trkpt>
      <trkpt lat="44.48554" lon="2.10426">
        <ele>248.7</ele>
        <time>2026-07-04T06:18:16Z</time>
      </trkpt>
      <trkpt lat="44.48565" lon="2.1042">
        <ele>248.4</ele>
        <time>2026-07-04T06:18:18Z</time>
      </trkpt>
      <trkpt lat="44.48575" lon="2.10414">
        <ele>248.1</ele>
        <time>2026-07-04T06:18:20Z</time>
      </trkpt>
      <trkpt lat="44.48585" lon="2.10407">
        <ele>247.9</ele>
        <time>2026-07-04T06:18:22Z</time>
      </trkpt>
      <trkpt lat="44.48596" lon="2.10401">
        <ele>247.7</ele>
        <time>2026-07-04T06:18:24Z</time>
      </trkpt>
      <trkpt lat="44.48606" lon="2.10394">
        <ele>247.4</ele>
        <time>2026-07-04T06:18:26Z</time>
      </trkpt>
      <trkpt lat="44.48617" lon="2.10387">
        <ele>247.1</ele>
        <time>2026-07-04T06:18:28Z</time>
      </trkpt>
      <trkpt lat="44.48627" lon="2.10381">
        <ele>246.8</ele>
        <time>2026-07-04T06:18:30Z</time>
      </trkpt>
      <trkpt lat="44.48638" lon="2.10374">
        <ele>246.6</ele>
        <time>2026-07-04T06:18:32Z</time>
      </trkpt>
      <trkpt lat="44.48648" lon="2.10368">
        <ele>246.5</ele>
        <time>2026-07-04T06:18:34Z</time>
      </trkpt>
      <trkpt lat="44.48658" lon="2.10362">
        <ele>246.4</ele>
        <time>2026-07-04T06:18:36Z</time>
      </trkpt>
      <trkpt lat="44.48666" lon="2.10356">
        <ele>246.5</ele>
        <time>2026-07-04T06:18:38Z</time>
      </trkpt>
      <trkpt lat="44.48675" lon="2.10364">
        <ele>246.5</ele>
        <time>2026-07-04T06:18:41Z</time>
      </trkpt>
      <trkpt lat="44.48681" lon="2.10379">
        <ele>246.5</ele>
        <time>2026-07-04T06:18:44Z</time>
      </trkpt>
      <trkpt lat="44.48687" lon="2.1039">
        <ele>246.5</ele>
        <time>2026-07-04T06:18:46Z</time>
      </trkpt>
      <trkpt lat="44.48693" lon="2.10401">
        <ele>246.5</ele>
        <time>2026-07-04T06:18:48Z</time>
      </trkpt>
      <trkpt lat="44.48699" lon="2.10413">
        <ele>246.5</ele>
        <time>2026-07-04T06:18:50Z</time>
      </trkpt>
      <trkpt lat="44.48705" lon="2.10424">
        <ele>246.4</ele>
        <time>2026-07-04T06:18:52Z</time>
      </trkpt>
      <trkpt lat="44.48712" lon="2.10435">
        <ele>246.4</ele>
        <time>2026-07-04T06:18:54Z</time>
      </trkpt>
      <trkpt lat="44.48718" lon="2.10446">
        <ele>246.4</ele>
        <time>2026-07-04T06:18:56Z</time>
      </trkpt>
      <trkpt lat="44.48725" lon="2.10458">
        <ele>246.4</ele>
        <time>2026-07-04T06:18:58Z</time>
      </trkpt>
      <trkpt lat="44.48731" lon="2.10469">
        <ele>246.4</ele>
        <time>2026-07-04T06:19:00Z</time>
      </trkpt>
      <trkpt lat="44.48738" lon="2.10479">
        <ele>246.3</ele>
        <time>2026-07-04T06:19:02Z</time>
      </trkpt>
      <trkpt lat="44.48747" lon="2.10489">
        <ele>246.3</ele>
        <time>2026-07-04T06:19:04Z</time>
      </trkpt>
      <trkpt lat="44.48755" lon="2.10498">
        <ele>246.3</ele>
        <time>2026-07-04T06:19:06Z</time>
      </trkpt>
      <trkpt lat="44.48762" lon="2.10508">
        <ele>246.3</ele>
        <time>2026-07-04T06:19:08Z</time>
      </trkpt>
      <trkpt lat="44.4877" lon="2.10517">
        <ele>246.2</ele>
        <time>2026-07-04T06:19:10Z</time>
      </trkpt>
      <trkpt lat="44.48778" lon="2.10527">
        <ele>246.2</ele>
        <time>2026-07-04T06:19:12Z</time>
      </trkpt>
      <trkpt lat="44.48787" lon="2.10537">
        <ele>246.2</ele>
        <time>2026-07-04T06:19:14Z</time>
      </trkpt>
      <trkpt lat="44.48795" lon="2.10546">
        <ele>246.2</ele>
        <time>2026-07-04T06:19:16Z</time>
      </trkpt>
      <trkpt lat="44.48801" lon="2.10554">
        <ele>246.2</ele>
        <time>2026-07-04T06:19:18Z</time>
      </trkpt>
      <trkpt lat="44.48811" lon="2.10565">
        <ele>246.3</ele>
        <time>2026-07-04T06:19:21Z</time>
      </trkpt>
      <trkpt lat="44.48818" lon="2.10576">
        <ele>246.3</ele>
        <time>2026-07-04T06:19:24Z</time>
      </trkpt>
      <trkpt lat="44.48825" lon="2.10588">
        <ele>246.4</ele>
        <time>2026-07-04T06:19:27Z</time>
      </trkpt>
      <trkpt lat="44.48833" lon="2.10599">
        <ele>246.3</ele>
        <time>2026-07-04T06:19:30Z</time>
      </trkpt>
      <trkpt lat="44.48843" lon="2.1061">
        <ele>246.2</ele>
        <time>2026-07-04T06:19:33Z</time>
      </trkpt>
      <trkpt lat="44.4885" lon="2.1062">
        <ele>246.2</ele>
        <time>2026-07-04T06:19:35Z</time>
      </trkpt>
      <trkpt lat="44.48856" lon="2.1063">
        <ele>246.1</ele>
        <time>2026-07-04T06:19:37Z</time>
      </trkpt>
      <trkpt lat="44.48864" lon="2.10644">
        <ele>246.1</ele>
        <time>2026-07-04T06:19:40Z</time>
      </trkpt>
      <trkpt lat="44.48872" lon="2.10657">
        <ele>246.2</ele>
        <time>2026-07-04T06:19:43Z</time>
      </trkpt>
      <trkpt lat="44.48879" lon="2.1067">
        <ele>246.4</ele>
        <time>2026-07-04T06:19:46Z</time>
      </trkpt>
      <trkpt lat="44.48885" lon="2.10683">
        <ele>246.6</ele>
        <time>2026-07-04T06:19:49Z</time>
      </trkpt>
      <trkpt lat="44.48893" lon="2.10695">
        <ele>247</ele>
        <time>2026-07-04T06:19:52Z</time>
      </trkpt>
      <trkpt lat="44.48899" lon="2.10706">
        <ele>247.6</ele>
        <time>2026-07-04T06:19:56Z</time>
      </trkpt>
      <trkpt lat="44.48905" lon="2.10718">
        <ele>248.9</ele>
        <time>2026-07-04T06:20:01Z</time>
      </trkpt>
      <trkpt lat="44.4891" lon="2.10729">
        <ele>250.5</ele>
        <time>2026-07-04T06:20:06Z</time>
      </trkpt>
      <trkpt lat="44.48912" lon="2.10731">
        <ele>250.4</ele>
        <time>2026-07-04T06:20:23Z</time>
      </trkpt>
      <trkpt lat="44.48917" lon="2.10741">
        <ele>252.2</ele>
        <time>2026-07-04T06:21:03Z</time>
      </trkpt>
      <trkpt lat="44.48923" lon="2.10752">
        <ele>253.3</ele>
        <time>2026-07-04T06:21:06Z</time>
      </trkpt>
      <trkpt lat="44.48931" lon="2.10763">
        <ele>254.6</ele>
        <time>2026-07-04T06:21:09Z</time>
      </trkpt>
      <trkpt lat="44.48939" lon="2.10773">
        <ele>255.6</ele>
        <time>2026-07-04T06:21:12Z</time>
      </trkpt>
      <trkpt lat="44.48945" lon="2.10782">
        <ele>256.7</ele>
        <time>2026-07-04T06:21:15Z</time>
      </trkpt>
      <trkpt lat="44.48954" lon="2.10788">
        <ele>257.7</ele>
        <time>2026-07-04T06:21:19Z</time>
      </trkpt>
      <trkpt lat="44.48964" lon="2.10786">
        <ele>257</ele>
        <time>2026-07-04T06:21:23Z</time>
      </trkpt>
      <trkpt lat="44.48975" lon="2.10783">
        <ele>256.6</ele>
        <time>2026-07-04T06:21:27Z</time>
      </trkpt>
      <trkpt lat="44.48984" lon="2.1078">
        <ele>255.8</ele>
        <time>2026-07-04T06:21:30Z</time>
      </trkpt>
      <trkpt lat="44.48995" lon="2.10776">
        <ele>255</ele>
        <time>2026-07-04T06:21:33Z</time>
      </trkpt>
      <trkpt lat="44.49006" lon="2.10772">
        <ele>254.5</ele>
        <time>2026-07-04T06:21:36Z</time>
      </trkpt>
      <trkpt lat="44.49016" lon="2.10765">
        <ele>253.5</ele>
        <time>2026-07-04T06:21:39Z</time>
      </trkpt>
      <trkpt lat="44.49025" lon="2.10752">
        <ele>252.3</ele>
        <time>2026-07-04T06:21:42Z</time>
      </trkpt>
      <trkpt lat="44.49034" lon="2.1074">
        <ele>251.3</ele>
        <time>2026-07-04T06:21:45Z</time>
      </trkpt>
      <trkpt lat="44.49043" lon="2.10728">
        <ele>250.7</ele>
        <time>2026-07-04T06:21:48Z</time>
      </trkpt>
      <trkpt lat="44.49054" lon="2.10719">
        <ele>250.3</ele>
        <time>2026-07-04T06:21:51Z</time>
      </trkpt>
      <trkpt lat="44.49066" lon="2.10711">
        <ele>249.6</ele>
        <time>2026-07-04T06:21:54Z</time>
      </trkpt>
      <trkpt lat="44.49078" lon="2.10704">
        <ele>248.6</ele>
        <time>2026-07-04T06:21:57Z</time>
      </trkpt>
      <trkpt lat="44.49091" lon="2.10699">
        <ele>247.8</ele>
        <time>2026-07-04T06:22:00Z</time>
      </trkpt>
      <trkpt lat="44.49102" lon="2.10697">
        <ele>247</ele>
        <time>2026-07-04T06:22:03Z</time>
      </trkpt>
      <trkpt lat="44.49113" lon="2.10693">
        <ele>246.7</ele>
        <time>2026-07-04T06:22:06Z</time>
      </trkpt>
      <trkpt lat="44.49126" lon="2.10687">
        <ele>245.6</ele>
        <time>2026-07-04T06:22:09Z</time>
      </trkpt>
      <trkpt lat="44.49137" lon="2.1068">
        <ele>245</ele>
        <time>2026-07-04T06:22:11Z</time>
      </trkpt>
      <trkpt lat="44.49152" lon="2.10674">
        <ele>244.3</ele>
        <time>2026-07-04T06:22:13Z</time>
      </trkpt>
      <trkpt lat="44.49166" lon="2.10665">
        <ele>243.9</ele>
        <time>2026-07-04T06:22:15Z</time>
      </trkpt>
      <trkpt lat="44.49182" lon="2.10657">
        <ele>243.6</ele>
        <time>2026-07-04T06:22:17Z</time>
      </trkpt>
      <trkpt lat="44.49196" lon="2.10649">
        <ele>243.5</ele>
        <time>2026-07-04T06:22:19Z</time>
      </trkpt>
      <trkpt lat="44.4921" lon="2.1064">
        <ele>243.8</ele>
        <time>2026-07-04T06:22:21Z</time>
      </trkpt>
      <trkpt lat="44.49224" lon="2.10634">
        <ele>244.6</ele>
        <time>2026-07-04T06:22:23Z</time>
      </trkpt>
      <trkpt lat="44.49231" lon="2.10624">
        <ele>245.4</ele>
        <time>2026-07-04T06:22:25Z</time>
      </trkpt>
      <trkpt lat="44.49238" lon="2.10612">
        <ele>246</ele>
        <time>2026-07-04T06:22:27Z</time>
      </trkpt>
      <trkpt lat="44.49242" lon="2.10596">
        <ele>246.1</ele>
        <time>2026-07-04T06:22:30Z</time>
      </trkpt>
      <trkpt lat="44.49245" lon="2.10578">
        <ele>246.2</ele>
        <time>2026-07-04T06:22:33Z</time>
      </trkpt>
      <trkpt lat="44.49249" lon="2.1056">
        <ele>246.7</ele>
        <time>2026-07-04T06:22:36Z</time>
      </trkpt>
      <trkpt lat="44.49252" lon="2.10547">
        <ele>247</ele>
        <time>2026-07-04T06:22:38Z</time>
      </trkpt>
      <trkpt lat="44.49257" lon="2.10531">
        <ele>247.4</ele>
        <time>2026-07-04T06:22:41Z</time>
      </trkpt>
      <trkpt lat="44.49264" lon="2.10517">
        <ele>247.7</ele>
        <time>2026-07-04T06:22:44Z</time>
      </trkpt>
      <trkpt lat="44.49269" lon="2.10506">
        <ele>247.8</ele>
        <time>2026-07-04T06:22:46Z</time>
      </trkpt>
      <trkpt lat="44.49274" lon="2.10495">
        <ele>247.7</ele>
        <time>2026-07-04T06:22:48Z</time>
      </trkpt>
      <trkpt lat="44.4928" lon="2.10483">
        <ele>247.6</ele>
        <time>2026-07-04T06:22:50Z</time>
      </trkpt>
      <trkpt lat="44.49286" lon="2.10472">
        <ele>247.6</ele>
        <time>2026-07-04T06:22:52Z</time>
      </trkpt>
      <trkpt lat="44.49294" lon="2.10458">
        <ele>247.4</ele>
        <time>2026-07-04T06:22:55Z</time>
      </trkpt>
      <trkpt lat="44.49299" lon="2.10448">
        <ele>247.1</ele>
        <time>2026-07-04T06:22:57Z</time>
      </trkpt>
      <trkpt lat="44.49305" lon="2.10437">
        <ele>246.9</ele>
        <time>2026-07-04T06:22:59Z</time>
      </trkpt>
      <trkpt lat="44.4931" lon="2.10426">
        <ele>246.7</ele>
        <time>2026-07-04T06:23:01Z</time>
      </trkpt>
      <trkpt lat="44.49315" lon="2.10414">
        <ele>246.4</ele>
        <time>2026-07-04T06:23:03Z</time>
      </trkpt>
      <trkpt lat="44.49321" lon="2.10401">
        <ele>246.2</ele>
        <time>2026-07-04T06:23:05Z</time>
      </trkpt>
      <trkpt lat="44.49326" lon="2.10387">
        <ele>245.9</ele>
        <time>2026-07-04T06:23:07Z</time>
      </trkpt>
      <trkpt lat="44.49333" lon="2.10374">
        <ele>245.8</ele>
        <time>2026-07-04T06:23:09Z</time>
      </trkpt>
      <trkpt lat="44.4934" lon="2.10362">
        <ele>245.8</ele>
        <time>2026-07-04T06:23:11Z</time>
      </trkpt>
      <trkpt lat="44.49345" lon="2.10348">
        <ele>245.8</ele>
        <time>2026-07-04T06:23:13Z</time>
      </trkpt>
      <trkpt lat="44.49351" lon="2.10336">
        <ele>245.9</ele>
        <time>2026-07-04T06:23:15Z</time>
      </trkpt>
      <trkpt lat="44.49358" lon="2.10324">
        <ele>246.1</ele>
        <time>2026-07-04T06:23:17Z</time>
      </trkpt>
      <trkpt lat="44.49365" lon="2.10314">
        <ele>246.3</ele>
        <time>2026-07-04T06:23:19Z</time>
      </trkpt>
      <trkpt lat="44.49373" lon="2.10305">
        <ele>246.3</ele>
        <time>2026-07-04T06:23:21Z</time>
      </trkpt>
      <trkpt lat="44.49381" lon="2.10295">
        <ele>246.2</ele>
        <time>2026-07-04T06:23:23Z</time>
      </trkpt>
      <trkpt lat="44.49388" lon="2.10286">
        <ele>246</ele>
        <time>2026-07-04T06:23:25Z</time>
      </trkpt>
      <trkpt lat="44.49396" lon="2.10276">
        <ele>245.8</ele>
        <time>2026-07-04T06:23:27Z</time>
      </trkpt>
      <trkpt lat="44.49404" lon="2.10267">
        <ele>245.6</ele>
        <time>2026-07-04T06:23:29Z</time>
      </trkpt>
      <trkpt lat="44.49411" lon="2.10258">
        <ele>245.4</ele>
        <time>2026-07-04T06:23:31Z</time>
      </trkpt>
      <trkpt lat="44.49419" lon="2.10247">
        <ele>245</ele>
        <time>2026-07-04T06:23:33Z</time>
      </trkpt>
      <trkpt lat="44.49428" lon="2.10235">
        <ele>244.7</ele>
        <time>2026-07-04T06:23:35Z</time>
      </trkpt>
      <trkpt lat="44.49437" lon="2.10224">
        <ele>244.5</ele>
        <time>2026-07-04T06:23:37Z</time>
      </trkpt>
      <trkpt lat="44.49445" lon="2.10214">
        <ele>244.3</ele>
        <time>2026-07-04T06:23:39Z</time>
      </trkpt>
      <trkpt lat="44.49453" lon="2.10203">
        <ele>244.1</ele>
        <time>2026-07-04T06:23:41Z</time>
      </trkpt>
      <trkpt lat="44.49461" lon="2.10192">
        <ele>244</ele>
        <time>2026-07-04T06:23:43Z</time>
      </trkpt>
      <trkpt lat="44.49469" lon="2.10182">
        <ele>243.9</ele>
        <time>2026-07-04T06:23:45Z</time>
      </trkpt>
      <trkpt lat="44.49475" lon="2.10169">
        <ele>243.5</ele>
        <time>2026-07-04T06:23:47Z</time>
      </trkpt>
      <trkpt lat="44.49481" lon="2.10157">
        <ele>243.1</ele>
        <time>2026-07-04T06:23:49Z</time>
      </trkpt>
      <trkpt lat="44.49488" lon="2.10144">
        <ele>242.8</ele>
        <time>2026-07-04T06:23:51Z</time>
      </trkpt>
      <trkpt lat="44.49494" lon="2.10133">
        <ele>242.5</ele>
        <time>2026-07-04T06:23:53Z</time>
      </trkpt>
      <trkpt lat="44.49501" lon="2.10121">
        <ele>242.2</ele>
        <time>2026-07-04T06:23:55Z</time>
      </trkpt>
      <trkpt lat="44.49508" lon="2.10108">
        <ele>241.7</ele>
        <time>2026-07-04T06:23:57Z</time>
      </trkpt>
      <trkpt lat="44.49516" lon="2.10096">
        <ele>241.3</ele>
        <time>2026-07-04T06:23:59Z</time>
      </trkpt>
      <trkpt lat="44.49524" lon="2.10082">
        <ele>240.9</ele>
        <time>2026-07-04T06:24:01Z</time>
      </trkpt>
      <trkpt lat="44.49532" lon="2.10071">
        <ele>240.6</ele>
        <time>2026-07-04T06:24:03Z</time>
      </trkpt>
      <trkpt lat="44.4954" lon="2.1006">
        <ele>240.3</ele>
        <time>2026-07-04T06:24:05Z</time>
      </trkpt>
      <trkpt lat="44.49548" lon="2.10049">
        <ele>240</ele>
        <time>2026-07-04T06:24:07Z</time>
      </trkpt>
      <trkpt lat="44.49556" lon="2.10039">
        <ele>239.8</ele>
        <time>2026-07-04T06:24:09Z</time>
      </trkpt>
      <trkpt lat="44.49565" lon="2.10031">
        <ele>239.5</ele>
        <time>2026-07-04T06:24:11Z</time>
      </trkpt>
      <trkpt lat="44.49575" lon="2.10025">
        <ele>239.2</ele>
        <time>2026-07-04T06:24:13Z</time>
      </trkpt>
      <trkpt lat="44.49585" lon="2.10019">
        <ele>239</ele>
        <time>2026-07-04T06:24:15Z</time>
      </trkpt>
      <trkpt lat="44.49595" lon="2.10013">
        <ele>238.9</ele>
        <time>2026-07-04T06:24:17Z</time>
      </trkpt>
      <trkpt lat="44.49605" lon="2.10006">
        <ele>238.7</ele>
        <time>2026-07-04T06:24:19Z</time>
      </trkpt>
      <trkpt lat="44.49616" lon="2.09999">
        <ele>238.6</ele>
        <time>2026-07-04T06:24:21Z</time>
      </trkpt>
      <trkpt lat="44.49626" lon="2.09993">
        <ele>238.5</ele>
        <time>2026-07-04T06:24:23Z</time>
      </trkpt>
      <trkpt lat="44.49636" lon="2.09987">
        <ele>238.5</ele>
        <time>2026-07-04T06:24:25Z</time>
      </trkpt>
      <trkpt lat="44.49645" lon="2.09982">
        <ele>238.4</ele>
        <time>2026-07-04T06:24:27Z</time>
      </trkpt>
      <trkpt lat="44.49655" lon="2.09976">
        <ele>238.5</ele>
        <time>2026-07-04T06:24:29Z</time>
      </trkpt>
      <trkpt lat="44.49665" lon="2.0997">
        <ele>238.5</ele>
        <time>2026-07-04T06:24:31Z</time>
      </trkpt>
      <trkpt lat="44.49674" lon="2.09964">
        <ele>238.6</ele>
        <time>2026-07-04T06:24:33Z</time>
      </trkpt>
      <trkpt lat="44.49684" lon="2.09963">
        <ele>238.6</ele>
        <time>2026-07-04T06:24:35Z</time>
      </trkpt>
      <trkpt lat="44.49693" lon="2.09967">
        <ele>238.7</ele>
        <time>2026-07-04T06:24:37Z</time>
      </trkpt>
      <trkpt lat="44.49706" lon="2.09968">
        <ele>238.7</ele>
        <time>2026-07-04T06:24:40Z</time>
      </trkpt>
      <trkpt lat="44.49715" lon="2.09964">
        <ele>238.7</ele>
        <time>2026-07-04T06:24:42Z</time>
      </trkpt>
      <trkpt lat="44.49724" lon="2.09958">
        <ele>238.6</ele>
        <time>2026-07-04T06:24:44Z</time>
      </trkpt>
      <trkpt lat="44.49733" lon="2.09952">
        <ele>238.5</ele>
        <time>2026-07-04T06:24:46Z</time>
      </trkpt>
      <trkpt lat="44.49742" lon="2.09945">
        <ele>238.4</ele>
        <time>2026-07-04T06:24:48Z</time>
      </trkpt>
      <trkpt lat="44.49751" lon="2.09938">
        <ele>238.4</ele>
        <time>2026-07-04T06:24:50Z</time>
      </trkpt>
      <trkpt lat="44.4976" lon="2.09931">
        <ele>238.3</ele>
        <time>2026-07-04T06:24:52Z</time>
      </trkpt>
      <trkpt lat="44.49769" lon="2.09925">
        <ele>238.3</ele>
        <time>2026-07-04T06:24:54Z</time>
      </trkpt>
      <trkpt lat="44.49779" lon="2.09918">
        <ele>238.3</ele>
        <time>2026-07-04T06:24:56Z</time>
      </trkpt>
      <trkpt lat="44.49788" lon="2.09912">
        <ele>238.3</ele>
        <time>2026-07-04T06:24:58Z</time>
      </trkpt>
      <trkpt lat="44.49798" lon="2.09907">
        <ele>238.2</ele>
        <time>2026-07-04T06:25:00Z</time>
      </trkpt>
      <trkpt lat="44.49807" lon="2.09901">
        <ele>238.1</ele>
        <time>2026-07-04T06:25:02Z</time>
      </trkpt>
      <trkpt lat="44.49816" lon="2.09894">
        <ele>238.1</ele>
        <time>2026-07-04T06:25:04Z</time>
      </trkpt>
      <trkpt lat="44.49826" lon="2.09887">
        <ele>238</ele>
        <time>2026-07-04T06:25:06Z</time>
      </trkpt>
      <trkpt lat="44.49835" lon="2.0988">
        <ele>237.9</ele>
        <time>2026-07-04T06:25:08Z</time>
      </trkpt>
      <trkpt lat="44.49845" lon="2.09873">
        <ele>237.8</ele>
        <time>2026-07-04T06:25:10Z</time>
      </trkpt>
      <trkpt lat="44.49854" lon="2.09866">
        <ele>237.9</ele>
        <time>2026-07-04T06:25:12Z</time>
      </trkpt>
      <trkpt lat="44.49864" lon="2.0986">
        <ele>237.9</ele>
        <time>2026-07-04T06:25:14Z</time>
      </trkpt>
      <trkpt lat="44.49873" lon="2.09853">
        <ele>238</ele>
        <time>2026-07-04T06:25:16Z</time>
      </trkpt>
      <trkpt lat="44.49882" lon="2.09847">
        <ele>238.1</ele>
        <time>2026-07-04T06:25:18Z</time>
      </trkpt>
      <trkpt lat="44.49892" lon="2.09842">
        <ele>238.3</ele>
        <time>2026-07-04T06:25:21Z</time>
      </trkpt>
      <trkpt lat="44.49903" lon="2.09842">
        <ele>238</ele>
        <time>2026-07-04T06:25:25Z</time>
      </trkpt>
      <trkpt lat="44.49914" lon="2.09843">
        <ele>237.6</ele>
        <time>2026-07-04T06:25:28Z</time>
      </trkpt>
      <trkpt lat="44.49928" lon="2.09847">
        <ele>237.3</ele>
        <time>2026-07-04T06:25:31Z</time>
      </trkpt>
      <trkpt lat="44.49937" lon="2.09851">
        <ele>237.2</ele>
        <time>2026-07-04T06:25:33Z</time>
      </trkpt>
      <trkpt lat="44.49946" lon="2.09854">
        <ele>237.1</ele>
        <time>2026-07-04T06:25:35Z</time>
      </trkpt>
      <trkpt lat="44.49955" lon="2.09857">
        <ele>237.1</ele>
        <time>2026-07-04T06:25:37Z</time>
      </trkpt>
      <trkpt lat="44.49964" lon="2.09861">
        <ele>237.2</ele>
        <time>2026-07-04T06:25:39Z</time>
      </trkpt>
      <trkpt lat="44.49973" lon="2.09864">
        <ele>237.2</ele>
        <time>2026-07-04T06:25:41Z</time>
      </trkpt>
      <trkpt lat="44.49982" lon="2.09867">
        <ele>237.3</ele>
        <time>2026-07-04T06:25:43Z</time>
      </trkpt>
      <trkpt lat="44.49992" lon="2.0987">
        <ele>237.3</ele>
        <time>2026-07-04T06:25:45Z</time>
      </trkpt>
      <trkpt lat="44.50001" lon="2.09873">
        <ele>237.2</ele>
        <time>2026-07-04T06:25:47Z</time>
      </trkpt>
      <trkpt lat="44.5001" lon="2.09876">
        <ele>237.2</ele>
        <time>2026-07-04T06:25:49Z</time>
      </trkpt>
      <trkpt lat="44.5002" lon="2.09879">
        <ele>237.1</ele>
        <time>2026-07-04T06:25:51Z</time>
      </trkpt>
      <trkpt lat="44.5003" lon="2.09882">
        <ele>237</ele>
        <time>2026-07-04T06:25:53Z</time>
      </trkpt>
      <trkpt lat="44.50039" lon="2.09886">
        <ele>236.9</ele>
        <time>2026-07-04T06:25:55Z</time>
      </trkpt>
      <trkpt lat="44.50048" lon="2.09892">
        <ele>236.8</ele>
        <time>2026-07-04T06:25:57Z</time>
      </trkpt>
      <trkpt lat="44.50057" lon="2.09899">
        <ele>236.7</ele>
        <time>2026-07-04T06:25:59Z</time>
      </trkpt>
      <trkpt lat="44.50065" lon="2.09907">
        <ele>236.6</ele>
        <time>2026-07-04T06:26:01Z</time>
      </trkpt>
      <trkpt lat="44.50072" lon="2.09917">
        <ele>236.6</ele>
        <time>2026-07-04T06:26:03Z</time>
      </trkpt>
      <trkpt lat="44.50079" lon="2.09926">
        <ele>236.6</ele>
        <time>2026-07-04T06:26:05Z</time>
      </trkpt>
      <trkpt lat="44.50086" lon="2.09935">
        <ele>236.5</ele>
        <time>2026-07-04T06:26:07Z</time>
      </trkpt>
      <trkpt lat="44.50093" lon="2.09944">
        <ele>236.4</ele>
        <time>2026-07-04T06:26:09Z</time>
      </trkpt>
      <trkpt lat="44.50099" lon="2.09953">
        <ele>236.3</ele>
        <time>2026-07-04T06:26:11Z</time>
      </trkpt>
      <trkpt lat="44.50106" lon="2.09962">
        <ele>236.2</ele>
        <time>2026-07-04T06:26:13Z</time>
      </trkpt>
      <trkpt lat="44.50113" lon="2.09971">
        <ele>236.2</ele>
        <time>2026-07-04T06:26:15Z</time>
      </trkpt>
      <trkpt lat="44.50121" lon="2.09979">
        <ele>236.1</ele>
        <time>2026-07-04T06:26:17Z</time>
      </trkpt>
      <trkpt lat="44.50128" lon="2.09987">
        <ele>236.1</ele>
        <time>2026-07-04T06:26:19Z</time>
      </trkpt>
      <trkpt lat="44.50136" lon="2.09995">
        <ele>236.1</ele>
        <time>2026-07-04T06:26:21Z</time>
      </trkpt>
      <trkpt lat="44.50144" lon="2.10003">
        <ele>236</ele>
        <time>2026-07-04T06:26:23Z</time>
      </trkpt>
      <trkpt lat="44.50152" lon="2.1001">
        <ele>236</ele>
        <time>2026-07-04T06:26:25Z</time>
      </trkpt>
      <trkpt lat="44.50161" lon="2.10018">
        <ele>236.1</ele>
        <time>2026-07-04T06:26:27Z</time>
      </trkpt>
      <trkpt lat="44.50168" lon="2.10026">
        <ele>236.2</ele>
        <time>2026-07-04T06:26:29Z</time>
      </trkpt>
      <trkpt lat="44.50175" lon="2.10033">
        <ele>236.2</ele>
        <time>2026-07-04T06:26:31Z</time>
      </trkpt>
      <trkpt lat="44.50184" lon="2.1004">
        <ele>236.1</ele>
        <time>2026-07-04T06:26:33Z</time>
      </trkpt>
      <trkpt lat="44.50192" lon="2.10047">
        <ele>236.1</ele>
        <time>2026-07-04T06:26:35Z</time>
      </trkpt>
      <trkpt lat="44.502" lon="2.10055">
        <ele>236.1</ele>
        <time>2026-07-04T06:26:37Z</time>
      </trkpt>
      <trkpt lat="44.50207" lon="2.10063">
        <ele>236.1</ele>
        <time>2026-07-04T06:26:39Z</time>
      </trkpt>
      <trkpt lat="44.50215" lon="2.1007">
        <ele>236.2</ele>
        <time>2026-07-04T06:26:41Z</time>
      </trkpt>
      <trkpt lat="44.50223" lon="2.10078">
        <ele>236.3</ele>
        <time>2026-07-04T06:26:43Z</time>
      </trkpt>
      <trkpt lat="44.50234" lon="2.10088">
        <ele>236.4</ele>
        <time>2026-07-04T06:26:46Z</time>
      </trkpt>
      <trkpt lat="44.50242" lon="2.10095">
        <ele>236.2</ele>
        <time>2026-07-04T06:26:48Z</time>
      </trkpt>
      <trkpt lat="44.50251" lon="2.10102">
        <ele>236</ele>
        <time>2026-07-04T06:26:50Z</time>
      </trkpt>
      <trkpt lat="44.5026" lon="2.10109">
        <ele>235.8</ele>
        <time>2026-07-04T06:26:52Z</time>
      </trkpt>
      <trkpt lat="44.50269" lon="2.10116">
        <ele>235.7</ele>
        <time>2026-07-04T06:26:54Z</time>
      </trkpt>
      <trkpt lat="44.50278" lon="2.10123">
        <ele>235.7</ele>
        <time>2026-07-04T06:26:56Z</time>
      </trkpt>
      <trkpt lat="44.50287" lon="2.10128">
        <ele>235.7</ele>
        <time>2026-07-04T06:26:58Z</time>
      </trkpt>
      <trkpt lat="44.50296" lon="2.10133">
        <ele>235.9</ele>
        <time>2026-07-04T06:27:00Z</time>
      </trkpt>
      <trkpt lat="44.50307" lon="2.10139">
        <ele>236.3</ele>
        <time>2026-07-04T06:27:03Z</time>
      </trkpt>
      <trkpt lat="44.50319" lon="2.10143">
        <ele>236.5</ele>
        <time>2026-07-04T06:27:06Z</time>
      </trkpt>
      <trkpt lat="44.50328" lon="2.10145">
        <ele>236.6</ele>
        <time>2026-07-04T06:27:08Z</time>
      </trkpt>
      <trkpt lat="44.50337" lon="2.10149">
        <ele>236.7</ele>
        <time>2026-07-04T06:27:10Z</time>
      </trkpt>
      <trkpt lat="44.5035" lon="2.10153">
        <ele>236.8</ele>
        <time>2026-07-04T06:27:13Z</time>
      </trkpt>
      <trkpt lat="44.50363" lon="2.10158">
        <ele>236.7</ele>
        <time>2026-07-04T06:27:16Z</time>
      </trkpt>
      <trkpt lat="44.50372" lon="2.10161">
        <ele>236.7</ele>
        <time>2026-07-04T06:27:18Z</time>
      </trkpt>
      <trkpt lat="44.50385" lon="2.10165">
        <ele>236.8</ele>
        <time>2026-07-04T06:27:21Z</time>
      </trkpt>
      <trkpt lat="44.50397" lon="2.10169">
        <ele>237.2</ele>
        <time>2026-07-04T06:27:24Z</time>
      </trkpt>
      <trkpt lat="44.50409" lon="2.10175">
        <ele>237.8</ele>
        <time>2026-07-04T06:27:27Z</time>
      </trkpt>
      <trkpt lat="44.5042" lon="2.10183">
        <ele>238.4</ele>
        <time>2026-07-04T06:27:30Z</time>
      </trkpt>
      <trkpt lat="44.50429" lon="2.10191">
        <ele>238.7</ele>
        <time>2026-07-04T06:27:33Z</time>
      </trkpt>
      <trkpt lat="44.5044" lon="2.10201">
        <ele>238.9</ele>
        <time>2026-07-04T06:27:36Z</time>
      </trkpt>
      <trkpt lat="44.50451" lon="2.10211">
        <ele>238.8</ele>
        <time>2026-07-04T06:27:39Z</time>
      </trkpt>
      <trkpt lat="44.50459" lon="2.10218">
        <ele>238.7</ele>
        <time>2026-07-04T06:27:41Z</time>
      </trkpt>
      <trkpt lat="44.50466" lon="2.10226">
        <ele>238.5</ele>
        <time>2026-07-04T06:27:43Z</time>
      </trkpt>
      <trkpt lat="44.50474" lon="2.10234">
        <ele>238.2</ele>
        <time>2026-07-04T06:27:45Z</time>
      </trkpt>
      <trkpt lat="44.50481" lon="2.10242">
        <ele>238</ele>
        <time>2026-07-04T06:27:47Z</time>
      </trkpt>
      <trkpt lat="44.50488" lon="2.10251">
        <ele>237.9</ele>
        <time>2026-07-04T06:27:49Z</time>
      </trkpt>
      <trkpt lat="44.50496" lon="2.10263">
        <ele>237.8</ele>
        <time>2026-07-04T06:27:52Z</time>
      </trkpt>
      <trkpt lat="44.505" lon="2.1028">
        <ele>237.9</ele>
        <time>2026-07-04T06:27:55Z</time>
      </trkpt>
      <trkpt lat="44.505" lon="2.10297">
        <ele>238.2</ele>
        <time>2026-07-04T06:27:58Z</time>
      </trkpt>
      <trkpt lat="44.50502" lon="2.10312">
        <ele>238.6</ele>
        <time>2026-07-04T06:28:01Z</time>
      </trkpt>
      <trkpt lat="44.5051" lon="2.10322">
        <ele>238.8</ele>
        <time>2026-07-04T06:28:04Z</time>
      </trkpt>
      <trkpt lat="44.50521" lon="2.10323">
        <ele>238.9</ele>
        <time>2026-07-04T06:28:07Z</time>
      </trkpt>
      <trkpt lat="44.50533" lon="2.10322">
        <ele>239.5</ele>
        <time>2026-07-04T06:28:10Z</time>
      </trkpt>
      <trkpt lat="44.50542" lon="2.10321">
        <ele>240.2</ele>
        <time>2026-07-04T06:28:13Z</time>
      </trkpt>
      <trkpt lat="44.50553" lon="2.10323">
        <ele>240.4</ele>
        <time>2026-07-04T06:28:17Z</time>
      </trkpt>
      <trkpt lat="44.50565" lon="2.10324">
        <ele>239.5</ele>
        <time>2026-07-04T06:28:20Z</time>
      </trkpt>
      <trkpt lat="44.50575" lon="2.10322">
        <ele>238.7</ele>
        <time>2026-07-04T06:28:22Z</time>
      </trkpt>
      <trkpt lat="44.50584" lon="2.10319">
        <ele>237.9</ele>
        <time>2026-07-04T06:28:24Z</time>
      </trkpt>
      <trkpt lat="44.50598" lon="2.1032">
        <ele>236.2</ele>
        <time>2026-07-04T06:28:27Z</time>
      </trkpt>
      <trkpt lat="44.50611" lon="2.10321">
        <ele>234.6</ele>
        <time>2026-07-04T06:28:29Z</time>
      </trkpt>
      <trkpt lat="44.50624" lon="2.10322">
        <ele>233.4</ele>
        <time>2026-07-04T06:28:31Z</time>
      </trkpt>
      <trkpt lat="44.50637" lon="2.10325">
        <ele>232.9</ele>
        <time>2026-07-04T06:28:33Z</time>
      </trkpt>
      <trkpt lat="44.50648" lon="2.10327">
        <ele>233</ele>
        <time>2026-07-04T06:28:35Z</time>
      </trkpt>
      <trkpt lat="44.50659" lon="2.1033">
        <ele>233.4</ele>
        <time>2026-07-04T06:28:38Z</time>
      </trkpt>
      <trkpt lat="44.50671" lon="2.10333">
        <ele>233.5</ele>
        <time>2026-07-04T06:28:41Z</time>
      </trkpt>
      <trkpt lat="44.50684" lon="2.10339">
        <ele>233.4</ele>
        <time>2026-07-04T06:28:44Z</time>
      </trkpt>
      <trkpt lat="44.50697" lon="2.10341">
        <ele>233.3</ele>
        <time>2026-07-04T06:28:47Z</time>
      </trkpt>
      <trkpt lat="44.5071" lon="2.10342">
        <ele>233.4</ele>
        <time>2026-07-04T06:28:50Z</time>
      </trkpt>
      <trkpt lat="44.50723" lon="2.1034">
        <ele>233.7</ele>
        <time>2026-07-04T06:28:53Z</time>
      </trkpt>
      <trkpt lat="44.50736" lon="2.10339">
        <ele>234.1</ele>
        <time>2026-07-04T06:28:56Z</time>
      </trkpt>
      <trkpt lat="44.50745" lon="2.10338">
        <ele>234.3</ele>
        <time>2026-07-04T06:28:58Z</time>
      </trkpt>
      <trkpt lat="44.50754" lon="2.10338">
        <ele>234.4</ele>
        <time>2026-07-04T06:29:00Z</time>
      </trkpt>
      <trkpt lat="44.50763" lon="2.10338">
        <ele>234.4</ele>
        <time>2026-07-04T06:29:02Z</time>
      </trkpt>
      <trkpt lat="44.50772" lon="2.10339">
        <ele>234.3</ele>
        <time>2026-07-04T06:29:04Z</time>
      </trkpt>
      <trkpt lat="44.50784" lon="2.10339">
        <ele>234.3</ele>
        <time>2026-07-04T06:29:07Z</time>
      </trkpt>
      <trkpt lat="44.50793" lon="2.10341">
        <ele>234.3</ele>
        <time>2026-07-04T06:29:09Z</time>
      </trkpt>
      <trkpt lat="44.50802" lon="2.10344">
        <ele>234.3</ele>
        <time>2026-07-04T06:29:11Z</time>
      </trkpt>
      <trkpt lat="44.50814" lon="2.10347">
        <ele>234.4</ele>
        <time>2026-07-04T06:29:14Z</time>
      </trkpt>
      <trkpt lat="44.50826" lon="2.10352">
        <ele>234.6</ele>
        <time>2026-07-04T06:29:17Z</time>
      </trkpt>
      <trkpt lat="44.50836" lon="2.10355">
        <ele>234.6</ele>
        <time>2026-07-04T06:29:19Z</time>
      </trkpt>
      <trkpt lat="44.50845" lon="2.10359">
        <ele>234.5</ele>
        <time>2026-07-04T06:29:21Z</time>
      </trkpt>
      <trkpt lat="44.50855" lon="2.10364">
        <ele>234.3</ele>
        <time>2026-07-04T06:29:23Z</time>
      </trkpt>
      <trkpt lat="44.50864" lon="2.1037">
        <ele>234.1</ele>
        <time>2026-07-04T06:29:25Z</time>
      </trkpt>
      <trkpt lat="44.50873" lon="2.10377">
        <ele>233.9</ele>
        <time>2026-07-04T06:29:27Z</time>
      </trkpt>
      <trkpt lat="44.50881" lon="2.10384">
        <ele>233.8</ele>
        <time>2026-07-04T06:29:29Z</time>
      </trkpt>
      <trkpt lat="44.5089" lon="2.10391">
        <ele>233.6</ele>
        <time>2026-07-04T06:29:31Z</time>
      </trkpt>
      <trkpt lat="44.509" lon="2.10399">
        <ele>233.4</ele>
        <time>2026-07-04T06:29:33Z</time>
      </trkpt>
      <trkpt lat="44.50909" lon="2.10407">
        <ele>233.2</ele>
        <time>2026-07-04T06:29:35Z</time>
      </trkpt>
      <trkpt lat="44.50918" lon="2.10416">
        <ele>233</ele>
        <time>2026-07-04T06:29:37Z</time>
      </trkpt>
      <trkpt lat="44.50925" lon="2.10423">
        <ele>232.7</ele>
        <time>2026-07-04T06:29:39Z</time>
      </trkpt>
      <trkpt lat="44.50935" lon="2.10429">
        <ele>232.4</ele>
        <time>2026-07-04T06:29:41Z</time>
      </trkpt>
      <trkpt lat="44.50946" lon="2.10437">
        <ele>232.2</ele>
        <time>2026-07-04T06:29:43Z</time>
      </trkpt>
      <trkpt lat="44.50956" lon="2.10446">
        <ele>232</ele>
        <time>2026-07-04T06:29:45Z</time>
      </trkpt>
      <trkpt lat="44.50966" lon="2.10453">
        <ele>231.9</ele>
        <time>2026-07-04T06:29:47Z</time>
      </trkpt>
      <trkpt lat="44.50976" lon="2.1046">
        <ele>231.9</ele>
        <time>2026-07-04T06:29:49Z</time>
      </trkpt>
      <trkpt lat="44.50987" lon="2.10465">
        <ele>231.9</ele>
        <time>2026-07-04T06:29:51Z</time>
      </trkpt>
      <trkpt lat="44.50996" lon="2.1047">
        <ele>231.9</ele>
        <time>2026-07-04T06:29:53Z</time>
      </trkpt>
      <trkpt lat="44.51005" lon="2.10473">
        <ele>232</ele>
        <time>2026-07-04T06:29:55Z</time>
      </trkpt>
      <trkpt lat="44.51015" lon="2.10475">
        <ele>232</ele>
        <time>2026-07-04T06:29:57Z</time>
      </trkpt>
      <trkpt lat="44.51026" lon="2.10478">
        <ele>232.1</ele>
        <time>2026-07-04T06:29:59Z</time>
      </trkpt>
      <trkpt lat="44.51037" lon="2.10481">
        <ele>232.3</ele>
        <time>2026-07-04T06:30:01Z</time>
      </trkpt>
      <trkpt lat="44.51046" lon="2.10487">
        <ele>232.5</ele>
        <time>2026-07-04T06:30:03Z</time>
      </trkpt>
      <trkpt lat="44.51053" lon="2.10496">
        <ele>232.8</ele>
        <time>2026-07-04T06:30:05Z</time>
      </trkpt>
      <trkpt lat="44.51059" lon="2.10512">
        <ele>233.3</ele>
        <time>2026-07-04T06:30:08Z</time>
      </trkpt>
      <trkpt lat="44.51064" lon="2.1053">
        <ele>233.8</ele>
        <time>2026-07-04T06:30:11Z</time>
      </trkpt>
      <trkpt lat="44.51067" lon="2.10542">
        <ele>234.1</ele>
        <time>2026-07-04T06:30:13Z</time>
      </trkpt>
      <trkpt lat="44.51071" lon="2.1056">
        <ele>234.5</ele>
        <time>2026-07-04T06:30:16Z</time>
      </trkpt>
      <trkpt lat="44.51074" lon="2.10577">
        <ele>234.9</ele>
        <time>2026-07-04T06:30:19Z</time>
      </trkpt>
      <trkpt lat="44.51076" lon="2.10594">
        <ele>235.3</ele>
        <time>2026-07-04T06:30:22Z</time>
      </trkpt>
      <trkpt lat="44.51078" lon="2.10612">
        <ele>235.6</ele>
        <time>2026-07-04T06:30:25Z</time>
      </trkpt>
      <trkpt lat="44.51079" lon="2.1063">
        <ele>235.6</ele>
        <time>2026-07-04T06:30:28Z</time>
      </trkpt>
      <trkpt lat="44.51079" lon="2.10643">
        <ele>235.7</ele>
        <time>2026-07-04T06:30:30Z</time>
      </trkpt>
      <trkpt lat="44.5108" lon="2.10656">
        <ele>235.7</ele>
        <time>2026-07-04T06:30:32Z</time>
      </trkpt>
      <trkpt lat="44.5108" lon="2.10669">
        <ele>235.7</ele>
        <time>2026-07-04T06:30:34Z</time>
      </trkpt>
      <trkpt lat="44.51081" lon="2.10687">
        <ele>235.9</ele>
        <time>2026-07-04T06:30:37Z</time>
      </trkpt>
      <trkpt lat="44.51082" lon="2.10705">
        <ele>236.2</ele>
        <time>2026-07-04T06:30:40Z</time>
      </trkpt>
      <trkpt lat="44.51082" lon="2.10723">
        <ele>236.5</ele>
        <time>2026-07-04T06:30:43Z</time>
      </trkpt>
      <trkpt lat="44.5108" lon="2.1074">
        <ele>236.7</ele>
        <time>2026-07-04T06:30:46Z</time>
      </trkpt>
      <trkpt lat="44.51077" lon="2.10757">
        <ele>236.9</ele>
        <time>2026-07-04T06:30:49Z</time>
      </trkpt>
      <trkpt lat="44.51079" lon="2.10773">
        <ele>237.1</ele>
        <time>2026-07-04T06:30:52Z</time>
      </trkpt>
      <trkpt lat="44.51087" lon="2.10779">
        <ele>237.2</ele>
        <time>2026-07-04T06:30:55Z</time>
      </trkpt>
      <trkpt lat="44.51097" lon="2.10785">
        <ele>237.4</ele>
        <time>2026-07-04T06:30:58Z</time>
      </trkpt>
      <trkpt lat="44.51106" lon="2.10798">
        <ele>237.8</ele>
        <time>2026-07-04T06:31:01Z</time>
      </trkpt>
      <trkpt lat="44.51111" lon="2.10812">
        <ele>238.4</ele>
        <time>2026-07-04T06:31:04Z</time>
      </trkpt>
      <trkpt lat="44.51114" lon="2.10827">
        <ele>239.1</ele>
        <time>2026-07-04T06:31:07Z</time>
      </trkpt>
      <trkpt lat="44.51117" lon="2.10842">
        <ele>239.9</ele>
        <time>2026-07-04T06:31:10Z</time>
      </trkpt>
      <trkpt lat="44.51119" lon="2.10857">
        <ele>240.6</ele>
        <time>2026-07-04T06:31:13Z</time>
      </trkpt>
      <trkpt lat="44.51122" lon="2.1087">
        <ele>241.3</ele>
        <time>2026-07-04T06:31:16Z</time>
      </trkpt>
      <trkpt lat="44.51124" lon="2.10884">
        <ele>241.9</ele>
        <time>2026-07-04T06:31:19Z</time>
      </trkpt>
      <trkpt lat="44.51125" lon="2.10898">
        <ele>242.4</ele>
        <time>2026-07-04T06:31:22Z</time>
      </trkpt>
      <trkpt lat="44.51127" lon="2.10912">
        <ele>242.9</ele>
        <time>2026-07-04T06:31:25Z</time>
      </trkpt>
      <trkpt lat="44.51127" lon="2.10927">
        <ele>243.2</ele>
        <time>2026-07-04T06:31:28Z</time>
      </trkpt>
      <trkpt lat="44.51128" lon="2.10941">
        <ele>243.7</ele>
        <time>2026-07-04T06:31:31Z</time>
      </trkpt>
      <trkpt lat="44.51129" lon="2.10954">
        <ele>244.2</ele>
        <time>2026-07-04T06:31:34Z</time>
      </trkpt>
      <trkpt lat="44.51131" lon="2.10969">
        <ele>244.7</ele>
        <time>2026-07-04T06:31:37Z</time>
      </trkpt>
      <trkpt lat="44.51133" lon="2.10981">
        <ele>245.2</ele>
        <time>2026-07-04T06:31:40Z</time>
      </trkpt>
      <trkpt lat="44.51135" lon="2.10995">
        <ele>245.7</ele>
        <time>2026-07-04T06:31:43Z</time>
      </trkpt>
      <trkpt lat="44.51137" lon="2.11008">
        <ele>246.2</ele>
        <time>2026-07-04T06:31:46Z</time>
      </trkpt>
      <trkpt lat="44.51139" lon="2.11021">
        <ele>246.6</ele>
        <time>2026-07-04T06:31:49Z</time>
      </trkpt>
      <trkpt lat="44.51141" lon="2.11036">
        <ele>247</ele>
        <time>2026-07-04T06:31:52Z</time>
      </trkpt>
      <trkpt lat="44.51143" lon="2.11052">
        <ele>247.4</ele>
        <time>2026-07-04T06:31:55Z</time>
      </trkpt>
      <trkpt lat="44.51146" lon="2.11068">
        <ele>247.7</ele>
        <time>2026-07-04T06:31:58Z</time>
      </trkpt>
      <trkpt lat="44.51149" lon="2.11083">
        <ele>248.1</ele>
        <time>2026-07-04T06:32:01Z</time>
      </trkpt>
      <trkpt lat="44.51151" lon="2.11099">
        <ele>248.5</ele>
        <time>2026-07-04T06:32:04Z</time>
      </trkpt>
      <trkpt lat="44.51154" lon="2.11113">
        <ele>248.9</ele>
        <time>2026-07-04T06:32:07Z</time>
      </trkpt>
      <trkpt lat="44.51157" lon="2.11128">
        <ele>249.3</ele>
        <time>2026-07-04T06:32:10Z</time>
      </trkpt>
      <trkpt lat="44.51162" lon="2.11141">
        <ele>249.8</ele>
        <time>2026-07-04T06:32:13Z</time>
      </trkpt>
      <trkpt lat="44.51168" lon="2.11151">
        <ele>250.3</ele>
        <time>2026-07-04T06:32:16Z</time>
      </trkpt>
      <trkpt lat="44.51177" lon="2.11153">
        <ele>250.6</ele>
        <time>2026-07-04T06:32:20Z</time>
      </trkpt>
      <trkpt lat="44.51185" lon="2.11151">
        <ele>250.5</ele>
        <time>2026-07-04T06:32:23Z</time>
      </trkpt>
      <trkpt lat="44.51197" lon="2.11148">
        <ele>250.5</ele>
        <time>2026-07-04T06:32:27Z</time>
      </trkpt>
      <trkpt lat="44.51206" lon="2.11145">
        <ele>250.4</ele>
        <time>2026-07-04T06:32:30Z</time>
      </trkpt>
      <trkpt lat="44.51216" lon="2.11142">
        <ele>250.3</ele>
        <time>2026-07-04T06:32:33Z</time>
      </trkpt>
      <trkpt lat="44.51226" lon="2.11138">
        <ele>250.2</ele>
        <time>2026-07-04T06:32:37Z</time>
      </trkpt>
      <trkpt lat="44.51238" lon="2.11132">
        <ele>250.1</ele>
        <time>2026-07-04T06:32:41Z</time>
      </trkpt>
      <trkpt lat="44.51248" lon="2.11126">
        <ele>250</ele>
        <time>2026-07-04T06:32:44Z</time>
      </trkpt>
      <trkpt lat="44.51258" lon="2.11119">
        <ele>249.9</ele>
        <time>2026-07-04T06:32:47Z</time>
      </trkpt>
      <trkpt lat="44.51267" lon="2.11113">
        <ele>249.9</ele>
        <time>2026-07-04T06:32:50Z</time>
      </trkpt>
      <trkpt lat="44.51276" lon="2.11107">
        <ele>249.8</ele>
        <time>2026-07-04T06:32:53Z</time>
      </trkpt>
      <trkpt lat="44.51285" lon="2.11102">
        <ele>249.7</ele>
        <time>2026-07-04T06:32:56Z</time>
      </trkpt>
      <trkpt lat="44.51294" lon="2.11095">
        <ele>249.6</ele>
        <time>2026-07-04T06:32:59Z</time>
      </trkpt>
      <trkpt lat="44.51304" lon="2.11088">
        <ele>249.4</ele>
        <time>2026-07-04T06:33:02Z</time>
      </trkpt>
      <trkpt lat="44.51314" lon="2.11086">
        <ele>249.2</ele>
        <time>2026-07-04T06:33:05Z</time>
      </trkpt>
      <trkpt lat="44.51321" lon="2.11097">
        <ele>247.8</ele>
        <time>2026-07-04T06:33:08Z</time>
      </trkpt>
      <trkpt lat="44.51326" lon="2.11109">
        <ele>246.7</ele>
        <time>2026-07-04T06:33:10Z</time>
      </trkpt>
      <trkpt lat="44.51332" lon="2.11122">
        <ele>245.4</ele>
        <time>2026-07-04T06:33:12Z</time>
      </trkpt>
      <trkpt lat="44.51338" lon="2.11137">
        <ele>244.1</ele>
        <time>2026-07-04T06:33:14Z</time>
      </trkpt>
      <trkpt lat="44.51345" lon="2.11152">
        <ele>243.2</ele>
        <time>2026-07-04T06:33:16Z</time>
      </trkpt>
      <trkpt lat="44.51352" lon="2.11167">
        <ele>242.7</ele>
        <time>2026-07-04T06:33:18Z</time>
      </trkpt>
      <trkpt lat="44.51359" lon="2.1118">
        <ele>242.6</ele>
        <time>2026-07-04T06:33:20Z</time>
      </trkpt>
      <trkpt lat="44.51367" lon="2.11188">
        <ele>242.6</ele>
        <time>2026-07-04T06:33:22Z</time>
      </trkpt>
      <trkpt lat="44.51376" lon="2.11195">
        <ele>242.6</ele>
        <time>2026-07-04T06:33:24Z</time>
      </trkpt>
      <trkpt lat="44.51387" lon="2.112">
        <ele>242.3</ele>
        <time>2026-07-04T06:33:26Z</time>
      </trkpt>
      <trkpt lat="44.51398" lon="2.11204">
        <ele>241.7</ele>
        <time>2026-07-04T06:33:28Z</time>
      </trkpt>
      <trkpt lat="44.5141" lon="2.11208">
        <ele>240.7</ele>
        <time>2026-07-04T06:33:30Z</time>
      </trkpt>
      <trkpt lat="44.51424" lon="2.11212">
        <ele>239.6</ele>
        <time>2026-07-04T06:33:32Z</time>
      </trkpt>
      <trkpt lat="44.51438" lon="2.11215">
        <ele>238.4</ele>
        <time>2026-07-04T06:33:34Z</time>
      </trkpt>
      <trkpt lat="44.51453" lon="2.11218">
        <ele>237.5</ele>
        <time>2026-07-04T06:33:36Z</time>
      </trkpt>
      <trkpt lat="44.51468" lon="2.1122">
        <ele>237</ele>
        <time>2026-07-04T06:33:38Z</time>
      </trkpt>
      <trkpt lat="44.51483" lon="2.11222">
        <ele>236.6</ele>
        <time>2026-07-04T06:33:40Z</time>
      </trkpt>
      <trkpt lat="44.51496" lon="2.11225">
        <ele>236.5</ele>
        <time>2026-07-04T06:33:42Z</time>
      </trkpt>
      <trkpt lat="44.51509" lon="2.11229">
        <ele>236.5</ele>
        <time>2026-07-04T06:33:44Z</time>
      </trkpt>
      <trkpt lat="44.51521" lon="2.11232">
        <ele>236.7</ele>
        <time>2026-07-04T06:33:46Z</time>
      </trkpt>
      <trkpt lat="44.51532" lon="2.11232">
        <ele>237</ele>
        <time>2026-07-04T06:33:48Z</time>
      </trkpt>
      <trkpt lat="44.51542" lon="2.1123">
        <ele>237.4</ele>
        <time>2026-07-04T06:33:50Z</time>
      </trkpt>
      <trkpt lat="44.51552" lon="2.11228">
        <ele>237.9</ele>
        <time>2026-07-04T06:33:52Z</time>
      </trkpt>
      <trkpt lat="44.51561" lon="2.11224">
        <ele>238.4</ele>
        <time>2026-07-04T06:33:54Z</time>
      </trkpt>
      <trkpt lat="44.51569" lon="2.11219">
        <ele>238.8</ele>
        <time>2026-07-04T06:33:56Z</time>
      </trkpt>
      <trkpt lat="44.51578" lon="2.11213">
        <ele>239.2</ele>
        <time>2026-07-04T06:33:58Z</time>
      </trkpt>
      <trkpt lat="44.51586" lon="2.11208">
        <ele>239.4</ele>
        <time>2026-07-04T06:34:00Z</time>
      </trkpt>
      <trkpt lat="44.51596" lon="2.11204">
        <ele>239.4</ele>
        <time>2026-07-04T06:34:02Z</time>
      </trkpt>
      <trkpt lat="44.51607" lon="2.11204">
        <ele>239.3</ele>
        <time>2026-07-04T06:34:04Z</time>
      </trkpt>
      <trkpt lat="44.51617" lon="2.11207">
        <ele>239.3</ele>
        <time>2026-07-04T06:34:06Z</time>
      </trkpt>
      <trkpt lat="44.51628" lon="2.11209">
        <ele>239.2</ele>
        <time>2026-07-04T06:34:08Z</time>
      </trkpt>
      <trkpt lat="44.51638" lon="2.11212">
        <ele>239.2</ele>
        <time>2026-07-04T06:34:10Z</time>
      </trkpt>
      <trkpt lat="44.51647" lon="2.11212">
        <ele>239.3</ele>
        <time>2026-07-04T06:34:12Z</time>
      </trkpt>
      <trkpt lat="44.51657" lon="2.11212">
        <ele>239.4</ele>
        <time>2026-07-04T06:34:14Z</time>
      </trkpt>
      <trkpt lat="44.51667" lon="2.11212">
        <ele>239.7</ele>
        <time>2026-07-04T06:34:16Z</time>
      </trkpt>
      <trkpt lat="44.51677" lon="2.11211">
        <ele>240</ele>
        <time>2026-07-04T06:34:18Z</time>
      </trkpt>
      <trkpt lat="44.51687" lon="2.11211">
        <ele>240.4</ele>
        <time>2026-07-04T06:34:20Z</time>
      </trkpt>
      <trkpt lat="44.51697" lon="2.1121">
        <ele>240.7</ele>
        <time>2026-07-04T06:34:22Z</time>
      </trkpt>
      <trkpt lat="44.51706" lon="2.1121">
        <ele>241</ele>
        <time>2026-07-04T06:34:24Z</time>
      </trkpt>
      <trkpt lat="44.51715" lon="2.11209">
        <ele>241.5</ele>
        <time>2026-07-04T06:34:26Z</time>
      </trkpt>
      <trkpt lat="44.51728" lon="2.11208">
        <ele>242.4</ele>
        <time>2026-07-04T06:34:29Z</time>
      </trkpt>
      <trkpt lat="44.51739" lon="2.11207">
        <ele>243.4</ele>
        <time>2026-07-04T06:34:32Z</time>
      </trkpt>
      <trkpt lat="44.5175" lon="2.11206">
        <ele>244.6</ele>
        <time>2026-07-04T06:34:35Z</time>
      </trkpt>
      <trkpt lat="44.5176" lon="2.11205">
        <ele>245.7</ele>
        <time>2026-07-04T06:34:38Z</time>
      </trkpt>
      <trkpt lat="44.51771" lon="2.11204">
        <ele>246.9</ele>
        <time>2026-07-04T06:34:41Z</time>
      </trkpt>
      <trkpt lat="44.51781" lon="2.11202">
        <ele>248.2</ele>
        <time>2026-07-04T06:34:44Z</time>
      </trkpt>
      <trkpt lat="44.5179" lon="2.112">
        <ele>249.3</ele>
        <time>2026-07-04T06:34:47Z</time>
      </trkpt>
      <trkpt lat="44.51801" lon="2.11197">
        <ele>250.3</ele>
        <time>2026-07-04T06:34:51Z</time>
      </trkpt>
      <trkpt lat="44.5181" lon="2.11193">
        <ele>250.7</ele>
        <time>2026-07-04T06:34:54Z</time>
      </trkpt>
      <trkpt lat="44.51822" lon="2.11189">
        <ele>250.6</ele>
        <time>2026-07-04T06:34:57Z</time>
      </trkpt>
      <trkpt lat="44.51833" lon="2.11184">
        <ele>250.4</ele>
        <time>2026-07-04T06:35:00Z</time>
      </trkpt>
      <trkpt lat="44.51844" lon="2.1118">
        <ele>250.4</ele>
        <time>2026-07-04T06:35:03Z</time>
      </trkpt>
      <trkpt lat="44.51855" lon="2.11176">
        <ele>250.6</ele>
        <time>2026-07-04T06:35:06Z</time>
      </trkpt>
      <trkpt lat="44.51866" lon="2.11171">
        <ele>251</ele>
        <time>2026-07-04T06:35:09Z</time>
      </trkpt>
      <trkpt lat="44.51876" lon="2.11167">
        <ele>251.5</ele>
        <time>2026-07-04T06:35:12Z</time>
      </trkpt>
      <trkpt lat="44.51886" lon="2.11167">
        <ele>252.3</ele>
        <time>2026-07-04T06:35:15Z</time>
      </trkpt>
      <trkpt lat="44.51894" lon="2.11174">
        <ele>253</ele>
        <time>2026-07-04T06:35:18Z</time>
      </trkpt>
      <trkpt lat="44.519" lon="2.11185">
        <ele>253.7</ele>
        <time>2026-07-04T06:35:21Z</time>
      </trkpt>
      <trkpt lat="44.51906" lon="2.11197">
        <ele>254.4</ele>
        <time>2026-07-04T06:35:24Z</time>
      </trkpt>
      <trkpt lat="44.51911" lon="2.11208">
        <ele>255</ele>
        <time>2026-07-04T06:35:27Z</time>
      </trkpt>
      <trkpt lat="44.51916" lon="2.11219">
        <ele>255.7</ele>
        <time>2026-07-04T06:35:30Z</time>
      </trkpt>
      <trkpt lat="44.51922" lon="2.11231">
        <ele>256.4</ele>
        <time>2026-07-04T06:35:33Z</time>
      </trkpt>
      <trkpt lat="44.51928" lon="2.1124">
        <ele>257</ele>
        <time>2026-07-04T06:35:36Z</time>
      </trkpt>
      <trkpt lat="44.51936" lon="2.11248">
        <ele>257.7</ele>
        <time>2026-07-04T06:35:39Z</time>
      </trkpt>
      <trkpt lat="44.51944" lon="2.11255">
        <ele>258.5</ele>
        <time>2026-07-04T06:35:42Z</time>
      </trkpt>
      <trkpt lat="44.51952" lon="2.1126">
        <ele>259.2</ele>
        <time>2026-07-04T06:35:45Z</time>
      </trkpt>
      <trkpt lat="44.51961" lon="2.11266">
        <ele>259.9</ele>
        <time>2026-07-04T06:35:48Z</time>
      </trkpt>
      <trkpt lat="44.51968" lon="2.11273">
        <ele>260.6</ele>
        <time>2026-07-04T06:35:51Z</time>
      </trkpt>
      <trkpt lat="44.51975" lon="2.11283">
        <ele>261.2</ele>
        <time>2026-07-04T06:35:54Z</time>
      </trkpt>
      <trkpt lat="44.51982" lon="2.11293">
        <ele>261.6</ele>
        <time>2026-07-04T06:35:57Z</time>
      </trkpt>
      <trkpt lat="44.51989" lon="2.11304">
        <ele>261.7</ele>
        <time>2026-07-04T06:36:00Z</time>
      </trkpt>
      <trkpt lat="44.51999" lon="2.11315">
        <ele>261.3</ele>
        <time>2026-07-04T06:36:03Z</time>
      </trkpt>
      <trkpt lat="44.52005" lon="2.11325">
        <ele>260.7</ele>
        <time>2026-07-04T06:36:05Z</time>
      </trkpt>
      <trkpt lat="44.52011" lon="2.11338">
        <ele>259.6</ele>
        <time>2026-07-04T06:36:07Z</time>
      </trkpt>
      <trkpt lat="44.5202" lon="2.11354">
        <ele>257.8</ele>
        <time>2026-07-04T06:36:09Z</time>
      </trkpt>
      <trkpt lat="44.52035" lon="2.11367">
        <ele>255.5</ele>
        <time>2026-07-04T06:36:11Z</time>
      </trkpt>
      <trkpt lat="44.52043" lon="2.11372">
        <ele>254.3</ele>
        <time>2026-07-04T06:36:12Z</time>
      </trkpt>
      <trkpt lat="44.52053" lon="2.11376">
        <ele>253.2</ele>
        <time>2026-07-04T06:36:13Z</time>
      </trkpt>
      <trkpt lat="44.52063" lon="2.11381">
        <ele>252</ele>
        <time>2026-07-04T06:36:14Z</time>
      </trkpt>
      <trkpt lat="44.52073" lon="2.11385">
        <ele>251</ele>
        <time>2026-07-04T06:36:15Z</time>
      </trkpt>
      <trkpt lat="44.52083" lon="2.11389">
        <ele>249.8</ele>
        <time>2026-07-04T06:36:16Z</time>
      </trkpt>
      <trkpt lat="44.52093" lon="2.11393">
        <ele>248.7</ele>
        <time>2026-07-04T06:36:17Z</time>
      </trkpt>
      <trkpt lat="44.52104" lon="2.11397">
        <ele>247.7</ele>
        <time>2026-07-04T06:36:18Z</time>
      </trkpt>
      <trkpt lat="44.52114" lon="2.11403">
        <ele>246.6</ele>
        <time>2026-07-04T06:36:19Z</time>
      </trkpt>
      <trkpt lat="44.52125" lon="2.11409">
        <ele>245.6</ele>
        <time>2026-07-04T06:36:20Z</time>
      </trkpt>
      <trkpt lat="44.52135" lon="2.11416">
        <ele>244.7</ele>
        <time>2026-07-04T06:36:21Z</time>
      </trkpt>
      <trkpt lat="44.52145" lon="2.11423">
        <ele>244</ele>
        <time>2026-07-04T06:36:22Z</time>
      </trkpt>
      <trkpt lat="44.52156" lon="2.11431">
        <ele>243.2</ele>
        <time>2026-07-04T06:36:23Z</time>
      </trkpt>
      <trkpt lat="44.52166" lon="2.11437">
        <ele>242.5</ele>
        <time>2026-07-04T06:36:24Z</time>
      </trkpt>
      <trkpt lat="44.52177" lon="2.11443">
        <ele>241.9</ele>
        <time>2026-07-04T06:36:25Z</time>
      </trkpt>
      <trkpt lat="44.52186" lon="2.11448">
        <ele>241.5</ele>
        <time>2026-07-04T06:36:26Z</time>
      </trkpt>
      <trkpt lat="44.522" lon="2.11454">
        <ele>241.1</ele>
        <time>2026-07-04T06:36:28Z</time>
      </trkpt>
      <trkpt lat="44.52208" lon="2.11463">
        <ele>240.8</ele>
        <time>2026-07-04T06:36:30Z</time>
      </trkpt>
      <trkpt lat="44.52207" lon="2.11477">
        <ele>240.2</ele>
        <time>2026-07-04T06:36:32Z</time>
      </trkpt>
      <trkpt lat="44.522" lon="2.11489">
        <ele>239.8</ele>
        <time>2026-07-04T06:36:34Z</time>
      </trkpt>
      <trkpt lat="44.52192" lon="2.115">
        <ele>239.7</ele>
        <time>2026-07-04T06:36:36Z</time>
      </trkpt>
      <trkpt lat="44.52183" lon="2.11509">
        <ele>239.7</ele>
        <time>2026-07-04T06:36:38Z</time>
      </trkpt>
      <trkpt lat="44.52175" lon="2.11519">
        <ele>239.8</ele>
        <time>2026-07-04T06:36:40Z</time>
      </trkpt>
      <trkpt lat="44.52168" lon="2.1153">
        <ele>239.9</ele>
        <time>2026-07-04T06:36:42Z</time>
      </trkpt>
      <trkpt lat="44.52162" lon="2.11542">
        <ele>240</ele>
        <time>2026-07-04T06:36:44Z</time>
      </trkpt>
      <trkpt lat="44.52156" lon="2.11555">
        <ele>240.1</ele>
        <time>2026-07-04T06:36:46Z</time>
      </trkpt>
      <trkpt lat="44.52151" lon="2.11567">
        <ele>240.2</ele>
        <time>2026-07-04T06:36:48Z</time>
      </trkpt>
      <trkpt lat="44.52146" lon="2.1158">
        <ele>240.3</ele>
        <time>2026-07-04T06:36:50Z</time>
      </trkpt>
      <trkpt lat="44.52141" lon="2.11592">
        <ele>240.4</ele>
        <time>2026-07-04T06:36:52Z</time>
      </trkpt>
      <trkpt lat="44.5214" lon="2.11606">
        <ele>240.4</ele>
        <time>2026-07-04T06:36:54Z</time>
      </trkpt>
      <trkpt lat="44.52146" lon="2.11617">
        <ele>240.4</ele>
        <time>2026-07-04T06:36:56Z</time>
      </trkpt>
      <trkpt lat="44.52153" lon="2.11626">
        <ele>240.3</ele>
        <time>2026-07-04T06:36:58Z</time>
      </trkpt>
      <trkpt lat="44.5216" lon="2.11636">
        <ele>240.2</ele>
        <time>2026-07-04T06:37:00Z</time>
      </trkpt>
      <trkpt lat="44.52166" lon="2.11645">
        <ele>240.1</ele>
        <time>2026-07-04T06:37:02Z</time>
      </trkpt>
      <trkpt lat="44.52173" lon="2.11656">
        <ele>240.1</ele>
        <time>2026-07-04T06:37:04Z</time>
      </trkpt>
      <trkpt lat="44.52181" lon="2.11666">
        <ele>240.1</ele>
        <time>2026-07-04T06:37:06Z</time>
      </trkpt>
      <trkpt lat="44.52188" lon="2.11676">
        <ele>240.1</ele>
        <time>2026-07-04T06:37:08Z</time>
      </trkpt>
      <trkpt lat="44.52195" lon="2.11687">
        <ele>240</ele>
        <time>2026-07-04T06:37:10Z</time>
      </trkpt>
      <trkpt lat="44.52202" lon="2.11698">
        <ele>240</ele>
        <time>2026-07-04T06:37:12Z</time>
      </trkpt>
      <trkpt lat="44.52208" lon="2.11709">
        <ele>240</ele>
        <time>2026-07-04T06:37:14Z</time>
      </trkpt>
      <trkpt lat="44.52214" lon="2.11721">
        <ele>240</ele>
        <time>2026-07-04T06:37:16Z</time>
      </trkpt>
      <trkpt lat="44.5222" lon="2.11733">
        <ele>240</ele>
        <time>2026-07-04T06:37:18Z</time>
      </trkpt>
      <trkpt lat="44.52225" lon="2.11745">
        <ele>239.9</ele>
        <time>2026-07-04T06:37:20Z</time>
      </trkpt>
      <trkpt lat="44.5223" lon="2.11757">
        <ele>239.9</ele>
        <time>2026-07-04T06:37:22Z</time>
      </trkpt>
      <trkpt lat="44.52233" lon="2.11768">
        <ele>239.9</ele>
        <time>2026-07-04T06:37:24Z</time>
      </trkpt>
      <trkpt lat="44.52235" lon="2.11781">
        <ele>239.9</ele>
        <time>2026-07-04T06:37:26Z</time>
      </trkpt>
      <trkpt lat="44.52236" lon="2.11793">
        <ele>240</ele>
        <time>2026-07-04T06:37:28Z</time>
      </trkpt>
      <trkpt lat="44.52238" lon="2.11807">
        <ele>240.1</ele>
        <time>2026-07-04T06:37:30Z</time>
      </trkpt>
      <trkpt lat="44.52241" lon="2.11819">
        <ele>240.2</ele>
        <time>2026-07-04T06:37:32Z</time>
      </trkpt>
      <trkpt lat="44.5225" lon="2.11833">
        <ele>240.4</ele>
        <time>2026-07-04T06:37:35Z</time>
      </trkpt>
      <trkpt lat="44.52258" lon="2.11848">
        <ele>240.6</ele>
        <time>2026-07-04T06:37:38Z</time>
      </trkpt>
      <trkpt lat="44.52265" lon="2.11864">
        <ele>240.8</ele>
        <time>2026-07-04T06:37:41Z</time>
      </trkpt>
      <trkpt lat="44.52271" lon="2.1188">
        <ele>241</ele>
        <time>2026-07-04T06:37:44Z</time>
      </trkpt>
      <trkpt lat="44.52277" lon="2.11896">
        <ele>241.1</ele>
        <time>2026-07-04T06:37:47Z</time>
      </trkpt>
      <trkpt lat="44.52285" lon="2.11912">
        <ele>241.3</ele>
        <time>2026-07-04T06:37:50Z</time>
      </trkpt>
      <trkpt lat="44.52291" lon="2.11927">
        <ele>241.5</ele>
        <time>2026-07-04T06:37:53Z</time>
      </trkpt>
      <trkpt lat="44.52298" lon="2.11944">
        <ele>241.6</ele>
        <time>2026-07-04T06:37:56Z</time>
      </trkpt>
      <trkpt lat="44.52304" lon="2.11959">
        <ele>241.7</ele>
        <time>2026-07-04T06:37:59Z</time>
      </trkpt>
      <trkpt lat="44.52312" lon="2.11975">
        <ele>241.9</ele>
        <time>2026-07-04T06:38:02Z</time>
      </trkpt>
      <trkpt lat="44.52318" lon="2.11991">
        <ele>242.1</ele>
        <time>2026-07-04T06:38:05Z</time>
      </trkpt>
      <trkpt lat="44.52322" lon="2.12002">
        <ele>242.2</ele>
        <time>2026-07-04T06:38:07Z</time>
      </trkpt>
      <trkpt lat="44.52326" lon="2.12014">
        <ele>242.4</ele>
        <time>2026-07-04T06:38:09Z</time>
      </trkpt>
      <trkpt lat="44.52332" lon="2.1203">
        <ele>242.6</ele>
        <time>2026-07-04T06:38:12Z</time>
      </trkpt>
      <trkpt lat="44.52338" lon="2.12046">
        <ele>243</ele>
        <time>2026-07-04T06:38:15Z</time>
      </trkpt>
      <trkpt lat="44.52347" lon="2.12053">
        <ele>243.3</ele>
        <time>2026-07-04T06:38:18Z</time>
      </trkpt>
      <trkpt lat="44.52356" lon="2.12046">
        <ele>243.8</ele>
        <time>2026-07-04T06:38:21Z</time>
      </trkpt>
      <trkpt lat="44.52367" lon="2.12036">
        <ele>244.4</ele>
        <time>2026-07-04T06:38:24Z</time>
      </trkpt>
      <trkpt lat="44.52379" lon="2.12029">
        <ele>245.2</ele>
        <time>2026-07-04T06:38:27Z</time>
      </trkpt>
      <trkpt lat="44.52391" lon="2.12022">
        <ele>245.6</ele>
        <time>2026-07-04T06:38:30Z</time>
      </trkpt>
      <trkpt lat="44.52401" lon="2.12012">
        <ele>245.5</ele>
        <time>2026-07-04T06:38:33Z</time>
      </trkpt>
      <trkpt lat="44.52412" lon="2.12004">
        <ele>245.4</ele>
        <time>2026-07-04T06:38:36Z</time>
      </trkpt>
      <trkpt lat="44.52424" lon="2.11999">
        <ele>245.4</ele>
        <time>2026-07-04T06:38:39Z</time>
      </trkpt>
      <trkpt lat="44.52436" lon="2.12001">
        <ele>245.6</ele>
        <time>2026-07-04T06:38:42Z</time>
      </trkpt>
      <trkpt lat="44.52448" lon="2.12006">
        <ele>245.7</ele>
        <time>2026-07-04T06:38:45Z</time>
      </trkpt>
      <trkpt lat="44.52461" lon="2.1201">
        <ele>246</ele>
        <time>2026-07-04T06:38:48Z</time>
      </trkpt>
      <trkpt lat="44.52473" lon="2.12014">
        <ele>246.4</ele>
        <time>2026-07-04T06:38:51Z</time>
      </trkpt>
      <trkpt lat="44.52486" lon="2.12017">
        <ele>247</ele>
        <time>2026-07-04T06:38:54Z</time>
      </trkpt>
      <trkpt lat="44.52498" lon="2.12019">
        <ele>248</ele>
        <time>2026-07-04T06:38:57Z</time>
      </trkpt>
      <trkpt lat="44.52508" lon="2.12022">
        <ele>249</ele>
        <time>2026-07-04T06:39:00Z</time>
      </trkpt>
      <trkpt lat="44.52519" lon="2.12026">
        <ele>250.2</ele>
        <time>2026-07-04T06:39:03Z</time>
      </trkpt>
      <trkpt lat="44.52529" lon="2.1203">
        <ele>251.4</ele>
        <time>2026-07-04T06:39:06Z</time>
      </trkpt>
      <trkpt lat="44.52539" lon="2.12033">
        <ele>252.6</ele>
        <time>2026-07-04T06:39:09Z</time>
      </trkpt>
      <trkpt lat="44.52549" lon="2.12037">
        <ele>253.8</ele>
        <time>2026-07-04T06:39:12Z</time>
      </trkpt>
      <trkpt lat="44.52559" lon="2.12041">
        <ele>254.9</ele>
        <time>2026-07-04T06:39:15Z</time>
      </trkpt>
      <trkpt lat="44.52568" lon="2.12045">
        <ele>255.9</ele>
        <time>2026-07-04T06:39:18Z</time>
      </trkpt>
      <trkpt lat="44.52577" lon="2.12051">
        <ele>256.7</ele>
        <time>2026-07-04T06:39:21Z</time>
      </trkpt>
      <trkpt lat="44.52586" lon="2.12057">
        <ele>257.2</ele>
        <time>2026-07-04T06:39:24Z</time>
      </trkpt>
      <trkpt lat="44.52595" lon="2.12066">
        <ele>257.7</ele>
        <time>2026-07-04T06:39:27Z</time>
      </trkpt>
      <trkpt lat="44.52604" lon="2.12072">
        <ele>258.1</ele>
        <time>2026-07-04T06:39:30Z</time>
      </trkpt>
      <trkpt lat="44.52614" lon="2.12078">
        <ele>258.5</ele>
        <time>2026-07-04T06:39:33Z</time>
      </trkpt>
      <trkpt lat="44.52624" lon="2.12082">
        <ele>259</ele>
        <time>2026-07-04T06:39:36Z</time>
      </trkpt>
      <trkpt lat="44.52635" lon="2.12086">
        <ele>259.6</ele>
        <time>2026-07-04T06:39:39Z</time>
      </trkpt>
      <trkpt lat="44.52646" lon="2.1209">
        <ele>260.1</ele>
        <time>2026-07-04T06:39:42Z</time>
      </trkpt>
      <trkpt lat="44.52657" lon="2.12094">
        <ele>260.7</ele>
        <time>2026-07-04T06:39:45Z</time>
      </trkpt>
      <trkpt lat="44.52667" lon="2.12097">
        <ele>261.3</ele>
        <time>2026-07-04T06:39:48Z</time>
      </trkpt>
      <trkpt lat="44.52678" lon="2.12101">
        <ele>261.8</ele>
        <time>2026-07-04T06:39:51Z</time>
      </trkpt>
      <trkpt lat="44.52689" lon="2.12104">
        <ele>262.2</ele>
        <time>2026-07-04T06:39:54Z</time>
      </trkpt>
      <trkpt lat="44.527" lon="2.12108">
        <ele>262.7</ele>
        <time>2026-07-04T06:39:57Z</time>
      </trkpt>
      <trkpt lat="44.52711" lon="2.12112">
        <ele>263</ele>
        <time>2026-07-04T06:40:00Z</time>
      </trkpt>
      <trkpt lat="44.52723" lon="2.12116">
        <ele>263.5</ele>
        <time>2026-07-04T06:40:03Z</time>
      </trkpt>
      <trkpt lat="44.52734" lon="2.1212">
        <ele>264</ele>
        <time>2026-07-04T06:40:06Z</time>
      </trkpt>
      <trkpt lat="44.52745" lon="2.12124">
        <ele>264.7</ele>
        <time>2026-07-04T06:40:09Z</time>
      </trkpt>
      <trkpt lat="44.52757" lon="2.12127">
        <ele>265.3</ele>
        <time>2026-07-04T06:40:12Z</time>
      </trkpt>
      <trkpt lat="44.52768" lon="2.12127">
        <ele>266</ele>
        <time>2026-07-04T06:40:15Z</time>
      </trkpt>
      <trkpt lat="44.52779" lon="2.12125">
        <ele>266.5</ele>
        <time>2026-07-04T06:40:18Z</time>
      </trkpt>
      <trkpt lat="44.5279" lon="2.12124">
        <ele>267</ele>
        <time>2026-07-04T06:40:21Z</time>
      </trkpt>
      <trkpt lat="44.52802" lon="2.12124">
        <ele>267.5</ele>
        <time>2026-07-04T06:40:24Z</time>
      </trkpt>
      <trkpt lat="44.52813" lon="2.12128">
        <ele>267.9</ele>
        <time>2026-07-04T06:40:27Z</time>
      </trkpt>
      <trkpt lat="44.52824" lon="2.12135">
        <ele>268.4</ele>
        <time>2026-07-04T06:40:30Z</time>
      </trkpt>
      <trkpt lat="44.52834" lon="2.12144">
        <ele>269</ele>
        <time>2026-07-04T06:40:33Z</time>
      </trkpt>
      <trkpt lat="44.52843" lon="2.12154">
        <ele>269.5</ele>
        <time>2026-07-04T06:40:36Z</time>
      </trkpt>
      <trkpt lat="44.52852" lon="2.12165">
        <ele>270.1</ele>
        <time>2026-07-04T06:40:39Z</time>
      </trkpt>
      <trkpt lat="44.52859" lon="2.12177">
        <ele>270.8</ele>
        <time>2026-07-04T06:40:42Z</time>
      </trkpt>
      <trkpt lat="44.52864" lon="2.12191">
        <ele>271.4</ele>
        <time>2026-07-04T06:40:45Z</time>
      </trkpt>
      <trkpt lat="44.52862" lon="2.12208">
        <ele>272</ele>
        <time>2026-07-04T06:40:48Z</time>
      </trkpt>
      <trkpt lat="44.52861" lon="2.12224">
        <ele>272.6</ele>
        <time>2026-07-04T06:40:51Z</time>
      </trkpt>
      <trkpt lat="44.52861" lon="2.12241">
        <ele>273.1</ele>
        <time>2026-07-04T06:40:54Z</time>
      </trkpt>
      <trkpt lat="44.52863" lon="2.12257">
        <ele>273.6</ele>
        <time>2026-07-04T06:40:57Z</time>
      </trkpt>
      <trkpt lat="44.52866" lon="2.12274">
        <ele>274.1</ele>
        <time>2026-07-04T06:41:00Z</time>
      </trkpt>
      <trkpt lat="44.52869" lon="2.1229">
        <ele>274.6</ele>
        <time>2026-07-04T06:41:03Z</time>
      </trkpt>
      <trkpt lat="44.52871" lon="2.12306">
        <ele>275</ele>
        <time>2026-07-04T06:41:06Z</time>
      </trkpt>
      <trkpt lat="44.52867" lon="2.12319">
        <ele>274.7</ele>
        <time>2026-07-04T06:41:09Z</time>
      </trkpt>
      <trkpt lat="44.5286" lon="2.12327">
        <ele>273.7</ele>
        <time>2026-07-04T06:41:11Z</time>
      </trkpt>
      <trkpt lat="44.5285" lon="2.12336">
        <ele>272.3</ele>
        <time>2026-07-04T06:41:13Z</time>
      </trkpt>
      <trkpt lat="44.52839" lon="2.12348">
        <ele>270.5</ele>
        <time>2026-07-04T06:41:15Z</time>
      </trkpt>
      <trkpt lat="44.52826" lon="2.12361">
        <ele>268.5</ele>
        <time>2026-07-04T06:41:17Z</time>
      </trkpt>
      <trkpt lat="44.52811" lon="2.12373">
        <ele>266.5</ele>
        <time>2026-07-04T06:41:19Z</time>
      </trkpt>
      <trkpt lat="44.52794" lon="2.12382">
        <ele>264.7</ele>
        <time>2026-07-04T06:41:21Z</time>
      </trkpt>
      <trkpt lat="44.52786" lon="2.12388">
        <ele>263.9</ele>
        <time>2026-07-04T06:41:22Z</time>
      </trkpt>
      <trkpt lat="44.52774" lon="2.12404">
        <ele>262.3</ele>
        <time>2026-07-04T06:41:24Z</time>
      </trkpt>
      <trkpt lat="44.52766" lon="2.12425">
        <ele>260.9</ele>
        <time>2026-07-04T06:41:26Z</time>
      </trkpt>
      <trkpt lat="44.52759" lon="2.12446">
        <ele>259.7</ele>
        <time>2026-07-04T06:41:28Z</time>
      </trkpt>
      <trkpt lat="44.5275" lon="2.12466">
        <ele>258.8</ele>
        <time>2026-07-04T06:41:30Z</time>
      </trkpt>
      <trkpt lat="44.52741" lon="2.12483">
        <ele>258</ele>
        <time>2026-07-04T06:41:32Z</time>
      </trkpt>
      <trkpt lat="44.52732" lon="2.12502">
        <ele>257.2</ele>
        <time>2026-07-04T06:41:34Z</time>
      </trkpt>
      <trkpt lat="44.52722" lon="2.1252">
        <ele>256.7</ele>
        <time>2026-07-04T06:41:36Z</time>
      </trkpt>
      <trkpt lat="44.52713" lon="2.12537">
        <ele>256.3</ele>
        <time>2026-07-04T06:41:38Z</time>
      </trkpt>
      <trkpt lat="44.52706" lon="2.12552">
        <ele>255.9</ele>
        <time>2026-07-04T06:41:40Z</time>
      </trkpt>
      <trkpt lat="44.527" lon="2.12565">
        <ele>255.8</ele>
        <time>2026-07-04T06:41:42Z</time>
      </trkpt>
      <trkpt lat="44.52695" lon="2.12578">
        <ele>255.6</ele>
        <time>2026-07-04T06:41:44Z</time>
      </trkpt>
      <trkpt lat="44.52691" lon="2.12591">
        <ele>255.5</ele>
        <time>2026-07-04T06:41:46Z</time>
      </trkpt>
      <trkpt lat="44.52688" lon="2.12604">
        <ele>255.5</ele>
        <time>2026-07-04T06:41:48Z</time>
      </trkpt>
      <trkpt lat="44.52686" lon="2.12618">
        <ele>255.5</ele>
        <time>2026-07-04T06:41:50Z</time>
      </trkpt>
      <trkpt lat="44.52683" lon="2.12631">
        <ele>255.5</ele>
        <time>2026-07-04T06:41:52Z</time>
      </trkpt>
      <trkpt lat="44.52681" lon="2.12646">
        <ele>255.5</ele>
        <time>2026-07-04T06:41:54Z</time>
      </trkpt>
      <trkpt lat="44.52678" lon="2.12661">
        <ele>255.6</ele>
        <time>2026-07-04T06:41:56Z</time>
      </trkpt>
      <trkpt lat="44.52676" lon="2.12677">
        <ele>255.7</ele>
        <time>2026-07-04T06:41:58Z</time>
      </trkpt>
      <trkpt lat="44.52675" lon="2.12692">
        <ele>255.9</ele>
        <time>2026-07-04T06:42:00Z</time>
      </trkpt>
      <trkpt lat="44.52674" lon="2.12708">
        <ele>256.1</ele>
        <time>2026-07-04T06:42:02Z</time>
      </trkpt>
      <trkpt lat="44.52674" lon="2.12723">
        <ele>256.4</ele>
        <time>2026-07-04T06:42:04Z</time>
      </trkpt>
      <trkpt lat="44.52673" lon="2.12738">
        <ele>256.8</ele>
        <time>2026-07-04T06:42:06Z</time>
      </trkpt>
      <trkpt lat="44.52672" lon="2.12751">
        <ele>257.2</ele>
        <time>2026-07-04T06:42:08Z</time>
      </trkpt>
      <trkpt lat="44.52672" lon="2.12765">
        <ele>257.5</ele>
        <time>2026-07-04T06:42:10Z</time>
      </trkpt>
      <trkpt lat="44.52672" lon="2.12778">
        <ele>257.7</ele>
        <time>2026-07-04T06:42:12Z</time>
      </trkpt>
      <trkpt lat="44.52671" lon="2.12792">
        <ele>257.9</ele>
        <time>2026-07-04T06:42:14Z</time>
      </trkpt>
      <trkpt lat="44.52672" lon="2.12805">
        <ele>258.1</ele>
        <time>2026-07-04T06:42:16Z</time>
      </trkpt>
      <trkpt lat="44.52672" lon="2.12818">
        <ele>258.3</ele>
        <time>2026-07-04T06:42:18Z</time>
      </trkpt>
      <trkpt lat="44.52673" lon="2.12831">
        <ele>258.5</ele>
        <time>2026-07-04T06:42:20Z</time>
      </trkpt>
      <trkpt lat="44.52675" lon="2.12844">
        <ele>258.8</ele>
        <time>2026-07-04T06:42:22Z</time>
      </trkpt>
      <trkpt lat="44.52677" lon="2.12857">
        <ele>259.1</ele>
        <time>2026-07-04T06:42:24Z</time>
      </trkpt>
      <trkpt lat="44.52679" lon="2.1287">
        <ele>259.5</ele>
        <time>2026-07-04T06:42:26Z</time>
      </trkpt>
      <trkpt lat="44.52683" lon="2.12882">
        <ele>259.9</ele>
        <time>2026-07-04T06:42:28Z</time>
      </trkpt>
      <trkpt lat="44.52686" lon="2.12894">
        <ele>259.9</ele>
        <time>2026-07-04T06:42:30Z</time>
      </trkpt>
      <trkpt lat="44.5269" lon="2.12906">
        <ele>259.3</ele>
        <time>2026-07-04T06:42:32Z</time>
      </trkpt>
      <trkpt lat="44.52695" lon="2.12922">
        <ele>258.6</ele>
        <time>2026-07-04T06:42:35Z</time>
      </trkpt>
      <trkpt lat="44.5269" lon="2.12933">
        <ele>258.4</ele>
        <time>2026-07-04T06:42:38Z</time>
      </trkpt>
      <trkpt lat="44.52678" lon="2.1294">
        <ele>257.8</ele>
        <time>2026-07-04T06:42:41Z</time>
      </trkpt>
      <trkpt lat="44.52666" lon="2.12948">
        <ele>257.3</ele>
        <time>2026-07-04T06:42:44Z</time>
      </trkpt>
      <trkpt lat="44.52662" lon="2.12959">
        <ele>257.3</ele>
        <time>2026-07-04T06:42:48Z</time>
      </trkpt>
      <trkpt lat="44.52668" lon="2.12974">
        <ele>257.5</ele>
        <time>2026-07-04T06:42:52Z</time>
      </trkpt>
      <trkpt lat="44.52674" lon="2.12988">
        <ele>257.6</ele>
        <time>2026-07-04T06:42:55Z</time>
      </trkpt>
      <trkpt lat="44.52678" lon="2.13005">
        <ele>257.7</ele>
        <time>2026-07-04T06:42:58Z</time>
      </trkpt>
      <trkpt lat="44.52679" lon="2.13023">
        <ele>257.8</ele>
        <time>2026-07-04T06:43:01Z</time>
      </trkpt>
      <trkpt lat="44.52678" lon="2.1304">
        <ele>257.9</ele>
        <time>2026-07-04T06:43:04Z</time>
      </trkpt>
      <trkpt lat="44.52674" lon="2.13058">
        <ele>258</ele>
        <time>2026-07-04T06:43:07Z</time>
      </trkpt>
      <trkpt lat="44.52669" lon="2.13075">
        <ele>258.2</ele>
        <time>2026-07-04T06:43:10Z</time>
      </trkpt>
      <trkpt lat="44.52666" lon="2.13093">
        <ele>258.4</ele>
        <time>2026-07-04T06:43:13Z</time>
      </trkpt>
      <trkpt lat="44.52663" lon="2.1311">
        <ele>258.6</ele>
        <time>2026-07-04T06:43:16Z</time>
      </trkpt>
      <trkpt lat="44.5266" lon="2.13127">
        <ele>258.9</ele>
        <time>2026-07-04T06:43:19Z</time>
      </trkpt>
      <trkpt lat="44.52658" lon="2.13145">
        <ele>259.1</ele>
        <time>2026-07-04T06:43:22Z</time>
      </trkpt>
      <trkpt lat="44.52658" lon="2.13163">
        <ele>259.3</ele>
        <time>2026-07-04T06:43:25Z</time>
      </trkpt>
      <trkpt lat="44.52658" lon="2.13182">
        <ele>259.5</ele>
        <time>2026-07-04T06:43:28Z</time>
      </trkpt>
      <trkpt lat="44.52653" lon="2.132">
        <ele>259.8</ele>
        <time>2026-07-04T06:43:31Z</time>
      </trkpt>
      <trkpt lat="44.52648" lon="2.13217">
        <ele>260</ele>
        <time>2026-07-04T06:43:34Z</time>
      </trkpt>
      <trkpt lat="44.52644" lon="2.13235">
        <ele>260.3</ele>
        <time>2026-07-04T06:43:37Z</time>
      </trkpt>
      <trkpt lat="44.52642" lon="2.13253">
        <ele>260.5</ele>
        <time>2026-07-04T06:43:40Z</time>
      </trkpt>
      <trkpt lat="44.5264" lon="2.1327">
        <ele>260.8</ele>
        <time>2026-07-04T06:43:43Z</time>
      </trkpt>
      <trkpt lat="44.52639" lon="2.13288">
        <ele>260.9</ele>
        <time>2026-07-04T06:43:46Z</time>
      </trkpt>
      <trkpt lat="44.52638" lon="2.133">
        <ele>261.1</ele>
        <time>2026-07-04T06:43:48Z</time>
      </trkpt>
      <trkpt lat="44.52636" lon="2.13313">
        <ele>261.3</ele>
        <time>2026-07-04T06:43:50Z</time>
      </trkpt>
      <trkpt lat="44.52634" lon="2.13325">
        <ele>261.5</ele>
        <time>2026-07-04T06:43:52Z</time>
      </trkpt>
      <trkpt lat="44.5263" lon="2.13342">
        <ele>261.7</ele>
        <time>2026-07-04T06:43:55Z</time>
      </trkpt>
      <trkpt lat="44.52628" lon="2.13359">
        <ele>262.1</ele>
        <time>2026-07-04T06:43:58Z</time>
      </trkpt>
      <trkpt lat="44.52626" lon="2.13375">
        <ele>262.3</ele>
        <time>2026-07-04T06:44:01Z</time>
      </trkpt>
      <trkpt lat="44.52625" lon="2.13393">
        <ele>262.5</ele>
        <time>2026-07-04T06:44:04Z</time>
      </trkpt>
      <trkpt lat="44.52623" lon="2.13411">
        <ele>262.8</ele>
        <time>2026-07-04T06:44:07Z</time>
      </trkpt>
      <trkpt lat="44.5262" lon="2.13425">
        <ele>263</ele>
        <time>2026-07-04T06:44:10Z</time>
      </trkpt>
      <trkpt lat="44.52616" lon="2.1344">
        <ele>263.2</ele>
        <time>2026-07-04T06:44:13Z</time>
      </trkpt>
      <trkpt lat="44.52609" lon="2.13452">
        <ele>263.5</ele>
        <time>2026-07-04T06:44:16Z</time>
      </trkpt>
      <trkpt lat="44.52603" lon="2.13463">
        <ele>263.7</ele>
        <time>2026-07-04T06:44:18Z</time>
      </trkpt>
      <trkpt lat="44.52598" lon="2.13473">
        <ele>263.8</ele>
        <time>2026-07-04T06:44:20Z</time>
      </trkpt>
      <trkpt lat="44.5259" lon="2.13488">
        <ele>264.1</ele>
        <time>2026-07-04T06:44:23Z</time>
      </trkpt>
      <trkpt lat="44.52582" lon="2.135">
        <ele>264.2</ele>
        <time>2026-07-04T06:44:26Z</time>
      </trkpt>
      <trkpt lat="44.52575" lon="2.13514">
        <ele>264.4</ele>
        <time>2026-07-04T06:44:29Z</time>
      </trkpt>
      <trkpt lat="44.5257" lon="2.13529">
        <ele>264.5</ele>
        <time>2026-07-04T06:44:32Z</time>
      </trkpt>
      <trkpt lat="44.52567" lon="2.13546">
        <ele>264.7</ele>
        <time>2026-07-04T06:44:35Z</time>
      </trkpt>
      <trkpt lat="44.52566" lon="2.13564">
        <ele>265</ele>
        <time>2026-07-04T06:44:38Z</time>
      </trkpt>
      <trkpt lat="44.52563" lon="2.13577">
        <ele>265.4</ele>
        <time>2026-07-04T06:44:41Z</time>
      </trkpt>
      <trkpt lat="44.52551" lon="2.13577">
        <ele>265.6</ele>
        <time>2026-07-04T06:44:45Z</time>
      </trkpt>
      <trkpt lat="44.52543" lon="2.13582">
        <ele>265.7</ele>
        <time>2026-07-04T06:44:48Z</time>
      </trkpt>
      <trkpt lat="44.52534" lon="2.13594">
        <ele>265.9</ele>
        <time>2026-07-04T06:44:52Z</time>
      </trkpt>
      <trkpt lat="44.52528" lon="2.13604">
        <ele>266.2</ele>
        <time>2026-07-04T06:44:55Z</time>
      </trkpt>
      <trkpt lat="44.52522" lon="2.13616">
        <ele>266.5</ele>
        <time>2026-07-04T06:44:58Z</time>
      </trkpt>
      <trkpt lat="44.52517" lon="2.1363">
        <ele>266.7</ele>
        <time>2026-07-04T06:45:01Z</time>
      </trkpt>
      <trkpt lat="44.52514" lon="2.13645">
        <ele>266.9</ele>
        <time>2026-07-04T06:45:04Z</time>
      </trkpt>
      <trkpt lat="44.52511" lon="2.13661">
        <ele>267.1</ele>
        <time>2026-07-04T06:45:07Z</time>
      </trkpt>
      <trkpt lat="44.52505" lon="2.13675">
        <ele>267.4</ele>
        <time>2026-07-04T06:45:10Z</time>
      </trkpt>
      <trkpt lat="44.52499" lon="2.13689">
        <ele>267.7</ele>
        <time>2026-07-04T06:45:13Z</time>
      </trkpt>
      <trkpt lat="44.52494" lon="2.13701">
        <ele>268.2</ele>
        <time>2026-07-04T06:45:16Z</time>
      </trkpt>
      <trkpt lat="44.52489" lon="2.13718">
        <ele>269.1</ele>
        <time>2026-07-04T06:45:20Z</time>
      </trkpt>
      <trkpt lat="44.52485" lon="2.13731">
        <ele>270.1</ele>
        <time>2026-07-04T06:45:23Z</time>
      </trkpt>
      <trkpt lat="44.5248" lon="2.13744">
        <ele>271.1</ele>
        <time>2026-07-04T06:45:26Z</time>
      </trkpt>
      <trkpt lat="44.52475" lon="2.13758">
        <ele>272.2</ele>
        <time>2026-07-04T06:45:29Z</time>
      </trkpt>
      <trkpt lat="44.5247" lon="2.13771">
        <ele>273.4</ele>
        <time>2026-07-04T06:45:32Z</time>
      </trkpt>
      <trkpt lat="44.52465" lon="2.13783">
        <ele>274.6</ele>
        <time>2026-07-04T06:45:35Z</time>
      </trkpt>
      <trkpt lat="44.52458" lon="2.13796">
        <ele>275.9</ele>
        <time>2026-07-04T06:45:39Z</time>
      </trkpt>
      <trkpt lat="44.52454" lon="2.13809">
        <ele>276.9</ele>
        <time>2026-07-04T06:45:43Z</time>
      </trkpt>
      <trkpt lat="44.52451" lon="2.13823">
        <ele>277.4</ele>
        <time>2026-07-04T06:45:46Z</time>
      </trkpt>
      <trkpt lat="44.5245" lon="2.13838">
        <ele>277.6</ele>
        <time>2026-07-04T06:45:49Z</time>
      </trkpt>
      <trkpt lat="44.52451" lon="2.13853">
        <ele>277.7</ele>
        <time>2026-07-04T06:45:52Z</time>
      </trkpt>
      <trkpt lat="44.52454" lon="2.13866">
        <ele>277.8</ele>
        <time>2026-07-04T06:45:54Z</time>
      </trkpt>
      <trkpt lat="44.52459" lon="2.13882">
        <ele>277.9</ele>
        <time>2026-07-04T06:45:57Z</time>
      </trkpt>
      <trkpt lat="44.52463" lon="2.13899">
        <ele>278</ele>
        <time>2026-07-04T06:46:00Z</time>
      </trkpt>
      <trkpt lat="44.52468" lon="2.1391">
        <ele>277.9</ele>
        <time>2026-07-04T06:46:02Z</time>
      </trkpt>
      <trkpt lat="44.52472" lon="2.13921">
        <ele>277.7</ele>
        <time>2026-07-04T06:46:04Z</time>
      </trkpt>
      <trkpt lat="44.52478" lon="2.13934">
        <ele>277.3</ele>
        <time>2026-07-04T06:46:06Z</time>
      </trkpt>
      <trkpt lat="44.52485" lon="2.13948">
        <ele>276.7</ele>
        <time>2026-07-04T06:46:08Z</time>
      </trkpt>
      <trkpt lat="44.5249" lon="2.13961">
        <ele>276.3</ele>
        <time>2026-07-04T06:46:10Z</time>
      </trkpt>
      <trkpt lat="44.52495" lon="2.13975">
        <ele>275.9</ele>
        <time>2026-07-04T06:46:12Z</time>
      </trkpt>
      <trkpt lat="44.52495" lon="2.13991">
        <ele>275.5</ele>
        <time>2026-07-04T06:46:14Z</time>
      </trkpt>
      <trkpt lat="44.52494" lon="2.14007">
        <ele>275.4</ele>
        <time>2026-07-04T06:46:16Z</time>
      </trkpt>
      <trkpt lat="44.52493" lon="2.1402">
        <ele>276</ele>
        <time>2026-07-04T06:46:18Z</time>
      </trkpt>
      <trkpt lat="44.52493" lon="2.14034">
        <ele>277</ele>
        <time>2026-07-04T06:46:21Z</time>
      </trkpt>
      <trkpt lat="44.52492" lon="2.14047">
        <ele>278.3</ele>
        <time>2026-07-04T06:46:25Z</time>
      </trkpt>
      <trkpt lat="44.52492" lon="2.14061">
        <ele>279.7</ele>
        <time>2026-07-04T06:46:29Z</time>
      </trkpt>
      <trkpt lat="44.5249" lon="2.14074">
        <ele>281.2</ele>
        <time>2026-07-04T06:46:33Z</time>
      </trkpt>
      <trkpt lat="44.52489" lon="2.14088">
        <ele>282.7</ele>
        <time>2026-07-04T06:46:38Z</time>
      </trkpt>
      <trkpt lat="44.52487" lon="2.14104">
        <ele>284.1</ele>
        <time>2026-07-04T06:46:43Z</time>
      </trkpt>
      <trkpt lat="44.52489" lon="2.14121">
        <ele>285.4</ele>
        <time>2026-07-04T06:46:47Z</time>
      </trkpt>
      <trkpt lat="44.52489" lon="2.14135">
        <ele>286.4</ele>
        <time>2026-07-04T06:46:51Z</time>
      </trkpt>
      <trkpt lat="44.52488" lon="2.14147">
        <ele>287.4</ele>
        <time>2026-07-04T06:46:55Z</time>
      </trkpt>
      <trkpt lat="44.52478" lon="2.1415">
        <ele>288.6</ele>
        <time>2026-07-04T06:47:00Z</time>
      </trkpt>
      <trkpt lat="44.5247" lon="2.14155">
        <ele>289.6</ele>
        <time>2026-07-04T06:47:04Z</time>
      </trkpt>
      <trkpt lat="44.52461" lon="2.14163">
        <ele>290.5</ele>
        <time>2026-07-04T06:47:09Z</time>
      </trkpt>
      <trkpt lat="44.52455" lon="2.14173">
        <ele>291.3</ele>
        <time>2026-07-04T06:47:13Z</time>
      </trkpt>
      <trkpt lat="44.52448" lon="2.14183">
        <ele>292.1</ele>
        <time>2026-07-04T06:47:17Z</time>
      </trkpt>
      <trkpt lat="44.52442" lon="2.14194">
        <ele>292.9</ele>
        <time>2026-07-04T06:47:21Z</time>
      </trkpt>
      <trkpt lat="44.52435" lon="2.14206">
        <ele>293.9</ele>
        <time>2026-07-04T06:47:25Z</time>
      </trkpt>
      <trkpt lat="44.52427" lon="2.14216">
        <ele>294.8</ele>
        <time>2026-07-04T06:47:29Z</time>
      </trkpt>
      <trkpt lat="44.52419" lon="2.14223">
        <ele>295.9</ele>
        <time>2026-07-04T06:47:33Z</time>
      </trkpt>
      <trkpt lat="44.52413" lon="2.14234">
        <ele>297.2</ele>
        <time>2026-07-04T06:47:37Z</time>
      </trkpt>
      <trkpt lat="44.52409" lon="2.14249">
        <ele>298.7</ele>
        <time>2026-07-04T06:47:42Z</time>
      </trkpt>
      <trkpt lat="44.52408" lon="2.14262">
        <ele>299.5</ele>
        <time>2026-07-04T06:47:45Z</time>
      </trkpt>
      <trkpt lat="44.52407" lon="2.14275">
        <ele>299.9</ele>
        <time>2026-07-04T06:47:48Z</time>
      </trkpt>
      <trkpt lat="44.52404" lon="2.14287">
        <ele>300</ele>
        <time>2026-07-04T06:47:51Z</time>
      </trkpt>
      <trkpt lat="44.52402" lon="2.14302">
        <ele>299.8</ele>
        <time>2026-07-04T06:47:54Z</time>
      </trkpt>
      <trkpt lat="44.52398" lon="2.14319">
        <ele>299.4</ele>
        <time>2026-07-04T06:47:57Z</time>
      </trkpt>
      <trkpt lat="44.52393" lon="2.14336">
        <ele>298.8</ele>
        <time>2026-07-04T06:48:00Z</time>
      </trkpt>
      <trkpt lat="44.5239" lon="2.14354">
        <ele>298.3</ele>
        <time>2026-07-04T06:48:03Z</time>
      </trkpt>
      <trkpt lat="44.52389" lon="2.1437">
        <ele>298</ele>
        <time>2026-07-04T06:48:06Z</time>
      </trkpt>
      <trkpt lat="44.52387" lon="2.14386">
        <ele>297.9</ele>
        <time>2026-07-04T06:48:09Z</time>
      </trkpt>
      <trkpt lat="44.52382" lon="2.14397">
        <ele>298</ele>
        <time>2026-07-04T06:48:12Z</time>
      </trkpt>
      <trkpt lat="44.5238" lon="2.14412">
        <ele>298.2</ele>
        <time>2026-07-04T06:48:15Z</time>
      </trkpt>
      <trkpt lat="44.52385" lon="2.14426">
        <ele>298.4</ele>
        <time>2026-07-04T06:48:18Z</time>
      </trkpt>
      <trkpt lat="44.52389" lon="2.14439">
        <ele>298.4</ele>
        <time>2026-07-04T06:48:20Z</time>
      </trkpt>
      <trkpt lat="44.52395" lon="2.14451">
        <ele>298.2</ele>
        <time>2026-07-04T06:48:22Z</time>
      </trkpt>
      <trkpt lat="44.52406" lon="2.14462">
        <ele>297.5</ele>
        <time>2026-07-04T06:48:25Z</time>
      </trkpt>
      <trkpt lat="44.52416" lon="2.14474">
        <ele>296.4</ele>
        <time>2026-07-04T06:48:27Z</time>
      </trkpt>
      <trkpt lat="44.52426" lon="2.14483">
        <ele>295.2</ele>
        <time>2026-07-04T06:48:29Z</time>
      </trkpt>
      <trkpt lat="44.52436" lon="2.14494">
        <ele>294.2</ele>
        <time>2026-07-04T06:48:32Z</time>
      </trkpt>
      <trkpt lat="44.52445" lon="2.14502">
        <ele>293.6</ele>
        <time>2026-07-04T06:48:35Z</time>
      </trkpt>
      <trkpt lat="44.52454" lon="2.14509">
        <ele>293.5</ele>
        <time>2026-07-04T06:48:38Z</time>
      </trkpt>
      <trkpt lat="44.5246" lon="2.14518">
        <ele>293.6</ele>
        <time>2026-07-04T06:48:43Z</time>
      </trkpt>
      <trkpt lat="44.52465" lon="2.14529">
        <ele>293.8</ele>
        <time>2026-07-04T06:49:09Z</time>
      </trkpt>
      <trkpt lat="44.52465" lon="2.14529">
        <ele>293.8</ele>
        <time>2026-07-04T06:49:11Z</time>
      </trkpt>
      <trkpt lat="44.52466" lon="2.14532">
        <ele>293.9</ele>
        <time>2026-07-04T06:49:26Z</time>
      </trkpt>
      <trkpt lat="44.52468" lon="2.14542">
        <ele>294.2</ele>
        <time>2026-07-04T06:49:46Z</time>
      </trkpt>
      <trkpt lat="44.52468" lon="2.14556">
        <ele>294.8</ele>
        <time>2026-07-04T06:49:50Z</time>
      </trkpt>
      <trkpt lat="44.52471" lon="2.14569">
        <ele>295.7</ele>
        <time>2026-07-04T06:49:54Z</time>
      </trkpt>
      <trkpt lat="44.52477" lon="2.14582">
        <ele>296.9</ele>
        <time>2026-07-04T06:49:59Z</time>
      </trkpt>
      <trkpt lat="44.52481" lon="2.14597">
        <ele>298.3</ele>
        <time>2026-07-04T06:50:03Z</time>
      </trkpt>
      <trkpt lat="44.52487" lon="2.1461">
        <ele>299.7</ele>
        <time>2026-07-04T06:50:07Z</time>
      </trkpt>
      <trkpt lat="44.52482" lon="2.14598">
        <ele>300.8</ele>
        <time>2026-07-04T06:50:25Z</time>
      </trkpt>
      <trkpt lat="44.52477" lon="2.14583">
        <ele>302.2</ele>
        <time>2026-07-04T06:50:28Z</time>
      </trkpt>
      <trkpt lat="44.52473" lon="2.14577">
        <ele>302.8</ele>
        <time>2026-07-04T06:51:01Z</time>
      </trkpt>
      <trkpt lat="44.52474" lon="2.14581">
        <ele>303.1</ele>
        <time>2026-07-04T06:56:20Z</time>
      </trkpt>
      <trkpt lat="44.52478" lon="2.14583">
        <ele>303.5</ele>
        <time>2026-07-04T06:57:01Z</time>
      </trkpt>
      <trkpt lat="44.5248" lon="2.14587">
        <ele>303.8</ele>
        <time>2026-07-04T06:57:19Z</time>
      </trkpt>
      <trkpt lat="44.52484" lon="2.14598">
        <ele>304.3</ele>
        <time>2026-07-04T06:57:23Z</time>
      </trkpt>
      <trkpt lat="44.52488" lon="2.14611">
        <ele>304.3</ele>
        <time>2026-07-04T06:57:27Z</time>
      </trkpt>
      <trkpt lat="44.52493" lon="2.14623">
        <ele>303.8</ele>
        <time>2026-07-04T06:57:31Z</time>
      </trkpt>
      <trkpt lat="44.52502" lon="2.14633">
        <ele>303.1</ele>
        <time>2026-07-04T06:57:35Z</time>
      </trkpt>
      <trkpt lat="44.52512" lon="2.1464">
        <ele>302.4</ele>
        <time>2026-07-04T06:57:39Z</time>
      </trkpt>
      <trkpt lat="44.52525" lon="2.14649">
        <ele>301.9</ele>
        <time>2026-07-04T06:57:42Z</time>
      </trkpt>
      <trkpt lat="44.52534" lon="2.14654">
        <ele>301.8</ele>
        <time>2026-07-04T06:57:44Z</time>
      </trkpt>
      <trkpt lat="44.52544" lon="2.14662">
        <ele>302</ele>
        <time>2026-07-04T06:57:46Z</time>
      </trkpt>
      <trkpt lat="44.52554" lon="2.1467">
        <ele>302.4</ele>
        <time>2026-07-04T06:57:48Z</time>
      </trkpt>
      <trkpt lat="44.52562" lon="2.14678">
        <ele>303</ele>
        <time>2026-07-04T06:57:50Z</time>
      </trkpt>
      <trkpt lat="44.52571" lon="2.14687">
        <ele>304</ele>
        <time>2026-07-04T06:57:53Z</time>
      </trkpt>
      <trkpt lat="44.52578" lon="2.14701">
        <ele>305.2</ele>
        <time>2026-07-04T06:57:56Z</time>
      </trkpt>
      <trkpt lat="44.52581" lon="2.14715">
        <ele>306.1</ele>
        <time>2026-07-04T06:57:59Z</time>
      </trkpt>
      <trkpt lat="44.52579" lon="2.14732">
        <ele>306.7</ele>
        <time>2026-07-04T06:58:03Z</time>
      </trkpt>
      <trkpt lat="44.52577" lon="2.14746">
        <ele>307</ele>
        <time>2026-07-04T06:58:07Z</time>
      </trkpt>
      <trkpt lat="44.52577" lon="2.14762">
        <ele>306.9</ele>
        <time>2026-07-04T06:58:12Z</time>
      </trkpt>
      <trkpt lat="44.52576" lon="2.14777">
        <ele>306.8</ele>
        <time>2026-07-04T06:58:15Z</time>
      </trkpt>
      <trkpt lat="44.52574" lon="2.14792">
        <ele>306.8</ele>
        <time>2026-07-04T06:58:18Z</time>
      </trkpt>
      <trkpt lat="44.52575" lon="2.14805">
        <ele>306.9</ele>
        <time>2026-07-04T06:58:21Z</time>
      </trkpt>
      <trkpt lat="44.52578" lon="2.14819">
        <ele>307.2</ele>
        <time>2026-07-04T06:58:24Z</time>
      </trkpt>
      <trkpt lat="44.52582" lon="2.14833">
        <ele>307.5</ele>
        <time>2026-07-04T06:58:27Z</time>
      </trkpt>
      <trkpt lat="44.52587" lon="2.14849">
        <ele>307.6</ele>
        <time>2026-07-04T06:58:31Z</time>
      </trkpt>
      <trkpt lat="44.5259" lon="2.14862">
        <ele>307.2</ele>
        <time>2026-07-04T06:58:34Z</time>
      </trkpt>
      <trkpt lat="44.52593" lon="2.14879">
        <ele>306.4</ele>
        <time>2026-07-04T06:58:37Z</time>
      </trkpt>
      <trkpt lat="44.52597" lon="2.14892">
        <ele>305.7</ele>
        <time>2026-07-04T06:58:40Z</time>
      </trkpt>
      <trkpt lat="44.52606" lon="2.14896">
        <ele>305.2</ele>
        <time>2026-07-04T06:58:43Z</time>
      </trkpt>
      <trkpt lat="44.52616" lon="2.14899">
        <ele>304.8</ele>
        <time>2026-07-04T06:58:46Z</time>
      </trkpt>
      <trkpt lat="44.52628" lon="2.14905">
        <ele>304.7</ele>
        <time>2026-07-04T06:58:50Z</time>
      </trkpt>
      <trkpt lat="44.52637" lon="2.14909">
        <ele>304.9</ele>
        <time>2026-07-04T06:58:53Z</time>
      </trkpt>
      <trkpt lat="44.52648" lon="2.14915">
        <ele>305.1</ele>
        <time>2026-07-04T06:58:57Z</time>
      </trkpt>
      <trkpt lat="44.52659" lon="2.1492">
        <ele>305.4</ele>
        <time>2026-07-04T06:59:00Z</time>
      </trkpt>
      <trkpt lat="44.52669" lon="2.14925">
        <ele>305.7</ele>
        <time>2026-07-04T06:59:04Z</time>
      </trkpt>
      <trkpt lat="44.52677" lon="2.14932">
        <ele>306.1</ele>
        <time>2026-07-04T06:59:14Z</time>
      </trkpt>
      <trkpt lat="44.52686" lon="2.14937">
        <ele>306.5</ele>
        <time>2026-07-04T06:59:23Z</time>
      </trkpt>
      <trkpt lat="44.52695" lon="2.14935">
        <ele>307.1</ele>
        <time>2026-07-04T06:59:30Z</time>
      </trkpt>
      <trkpt lat="44.52702" lon="2.14945">
        <ele>307.8</ele>
        <time>2026-07-04T06:59:39Z</time>
      </trkpt>
      <trkpt lat="44.52711" lon="2.14957">
        <ele>309.1</ele>
        <time>2026-07-04T06:59:43Z</time>
      </trkpt>
      <trkpt lat="44.5272" lon="2.14965">
        <ele>310.4</ele>
        <time>2026-07-04T06:59:47Z</time>
      </trkpt>
      <trkpt lat="44.52726" lon="2.14978">
        <ele>311.5</ele>
        <time>2026-07-04T06:59:51Z</time>
      </trkpt>
      <trkpt lat="44.52729" lon="2.1499">
        <ele>312.4</ele>
        <time>2026-07-04T06:59:54Z</time>
      </trkpt>
      <trkpt lat="44.52733" lon="2.15001">
        <ele>313.2</ele>
        <time>2026-07-04T06:59:57Z</time>
      </trkpt>
      <trkpt lat="44.52739" lon="2.15014">
        <ele>314</ele>
        <time>2026-07-04T07:00:01Z</time>
      </trkpt>
      <trkpt lat="44.52745" lon="2.15024">
        <ele>314.5</ele>
        <time>2026-07-04T07:00:05Z</time>
      </trkpt>
      <trkpt lat="44.52747" lon="2.1504">
        <ele>314.9</ele>
        <time>2026-07-04T07:00:09Z</time>
      </trkpt>
      <trkpt lat="44.52749" lon="2.15054">
        <ele>317.7</ele>
        <time>2026-07-04T07:00:12Z</time>
      </trkpt>
      <trkpt lat="44.52751" lon="2.15068">
        <ele>320.2</ele>
        <time>2026-07-04T07:00:16Z</time>
      </trkpt>
      <trkpt lat="44.52749" lon="2.1508">
        <ele>322.5</ele>
        <time>2026-07-04T07:00:22Z</time>
      </trkpt>
      <trkpt lat="44.52741" lon="2.15089">
        <ele>326.2</ele>
        <time>2026-07-04T07:00:30Z</time>
      </trkpt>
      <trkpt lat="44.52741" lon="2.15102">
        <ele>327.1</ele>
        <time>2026-07-04T07:00:49Z</time>
      </trkpt>
      <trkpt lat="44.5274" lon="2.15117">
        <ele>328.4</ele>
        <time>2026-07-04T07:01:05Z</time>
      </trkpt>
      <trkpt lat="44.52739" lon="2.15131">
        <ele>329.7</ele>
        <time>2026-07-04T07:01:10Z</time>
      </trkpt>
      <trkpt lat="44.5274" lon="2.15146">
        <ele>330.8</ele>
        <time>2026-07-04T07:01:14Z</time>
      </trkpt>
      <trkpt lat="44.52739" lon="2.15158">
        <ele>331.9</ele>
        <time>2026-07-04T07:01:18Z</time>
      </trkpt>
      <trkpt lat="44.52737" lon="2.15171">
        <ele>333</ele>
        <time>2026-07-04T07:01:23Z</time>
      </trkpt>
      <trkpt lat="44.52741" lon="2.15185">
        <ele>334.5</ele>
        <time>2026-07-04T07:01:28Z</time>
      </trkpt>
      <trkpt lat="44.52746" lon="2.15196">
        <ele>335.9</ele>
        <time>2026-07-04T07:01:32Z</time>
      </trkpt>
      <trkpt lat="44.52753" lon="2.15205">
        <ele>337.4</ele>
        <time>2026-07-04T07:01:42Z</time>
      </trkpt>
      <trkpt lat="44.52762" lon="2.15211">
        <ele>338.6</ele>
        <time>2026-07-04T07:01:59Z</time>
      </trkpt>
      <trkpt lat="44.52764" lon="2.15214">
        <ele>339</ele>
        <time>2026-07-04T07:02:10Z</time>
      </trkpt>
      <trkpt lat="44.52764" lon="2.15229">
        <ele>340</ele>
        <time>2026-07-04T07:02:28Z</time>
      </trkpt>
      <trkpt lat="44.52763" lon="2.15243">
        <ele>341.1</ele>
        <time>2026-07-04T07:02:33Z</time>
      </trkpt>
      <trkpt lat="44.52762" lon="2.15257">
        <ele>342.2</ele>
        <time>2026-07-04T07:02:38Z</time>
      </trkpt>
      <trkpt lat="44.52765" lon="2.15269">
        <ele>343.3</ele>
        <time>2026-07-04T07:02:43Z</time>
      </trkpt>
      <trkpt lat="44.52769" lon="2.15285">
        <ele>344.8</ele>
        <time>2026-07-04T07:02:48Z</time>
      </trkpt>
      <trkpt lat="44.52769" lon="2.15298">
        <ele>346</ele>
        <time>2026-07-04T07:02:52Z</time>
      </trkpt>
      <trkpt lat="44.52771" lon="2.15314">
        <ele>347.4</ele>
        <time>2026-07-04T07:02:57Z</time>
      </trkpt>
      <trkpt lat="44.52771" lon="2.15328">
        <ele>348.2</ele>
        <time>2026-07-04T07:03:01Z</time>
      </trkpt>
      <trkpt lat="44.5276" lon="2.15333">
        <ele>349.2</ele>
        <time>2026-07-04T07:03:06Z</time>
      </trkpt>
      <trkpt lat="44.52751" lon="2.15338">
        <ele>350.2</ele>
        <time>2026-07-04T07:03:10Z</time>
      </trkpt>
      <trkpt lat="44.52743" lon="2.15345">
        <ele>351.3</ele>
        <time>2026-07-04T07:03:14Z</time>
      </trkpt>
      <trkpt lat="44.52738" lon="2.15358">
        <ele>352.8</ele>
        <time>2026-07-04T07:03:20Z</time>
      </trkpt>
      <trkpt lat="44.52731" lon="2.15349">
        <ele>354.3</ele>
        <time>2026-07-04T07:03:39Z</time>
      </trkpt>
      <trkpt lat="44.52734" lon="2.15335">
        <ele>355.9</ele>
        <time>2026-07-04T07:03:45Z</time>
      </trkpt>
      <trkpt lat="44.52736" lon="2.15321">
        <ele>357.6</ele>
        <time>2026-07-04T07:04:11Z</time>
      </trkpt>
      <trkpt lat="44.52728" lon="2.15313">
        <ele>359.5</ele>
        <time>2026-07-04T07:04:18Z</time>
      </trkpt>
      <trkpt lat="44.52719" lon="2.15307">
        <ele>361.5</ele>
        <time>2026-07-04T07:04:24Z</time>
      </trkpt>
      <trkpt lat="44.52709" lon="2.15305">
        <ele>363.7</ele>
        <time>2026-07-04T07:04:30Z</time>
      </trkpt>
      <trkpt lat="44.52699" lon="2.15299">
        <ele>365.8</ele>
        <time>2026-07-04T07:04:36Z</time>
      </trkpt>
      <trkpt lat="44.52689" lon="2.15294">
        <ele>368</ele>
        <time>2026-07-04T07:04:41Z</time>
      </trkpt>
      <trkpt lat="44.52685" lon="2.15308">
        <ele>369.9</ele>
        <time>2026-07-04T07:04:50Z</time>
      </trkpt>
      <trkpt lat="44.52687" lon="2.15322">
        <ele>371.5</ele>
        <time>2026-07-04T07:04:55Z</time>
      </trkpt>
      <trkpt lat="44.52685" lon="2.15337">
        <ele>373.2</ele>
        <time>2026-07-04T07:05:00Z</time>
      </trkpt>
      <trkpt lat="44.52683" lon="2.15352">
        <ele>374.7</ele>
        <time>2026-07-04T07:05:05Z</time>
      </trkpt>
      <trkpt lat="44.52684" lon="2.15365">
        <ele>375.9</ele>
        <time>2026-07-04T07:05:10Z</time>
      </trkpt>
      <trkpt lat="44.52686" lon="2.1538">
        <ele>377</ele>
        <time>2026-07-04T07:05:15Z</time>
      </trkpt>
      <trkpt lat="44.52679" lon="2.15382">
        <ele>377.8</ele>
        <time>2026-07-04T07:05:59Z</time>
      </trkpt>
      <trkpt lat="44.52678" lon="2.15382">
        <ele>377.9</ele>
        <time>2026-07-04T07:06:25Z</time>
      </trkpt>
      <trkpt lat="44.52678" lon="2.15382">
        <ele>378</ele>
        <time>2026-07-04T07:06:31Z</time>
      </trkpt>
      <trkpt lat="44.52677" lon="2.15385">
        <ele>377.9</ele>
        <time>2026-07-04T07:08:35Z</time>
      </trkpt>
      <trkpt lat="44.52678" lon="2.15385">
        <ele>377.9</ele>
        <time>2026-07-04T07:08:45Z</time>
      </trkpt>
      <trkpt lat="44.5268" lon="2.15384">
        <ele>377.9</ele>
        <time>2026-07-04T07:12:31Z</time>
      </trkpt>
      <trkpt lat="44.52682" lon="2.15385">
        <ele>377.9</ele>
        <time>2026-07-04T07:13:00Z</time>
      </trkpt>
      <trkpt lat="44.52675" lon="2.15393">
        <ele>378.2</ele>
        <time>2026-07-04T07:14:47Z</time>
      </trkpt>
      <trkpt lat="44.52673" lon="2.1539">
        <ele>378.2</ele>
        <time>2026-07-04T07:15:46Z</time>
      </trkpt>
      <trkpt lat="44.52671" lon="2.15376">
        <ele>378.3</ele>
        <time>2026-07-04T07:15:54Z</time>
      </trkpt>
      <trkpt lat="44.52667" lon="2.15362">
        <ele>379.3</ele>
        <time>2026-07-04T07:15:59Z</time>
      </trkpt>
      <trkpt lat="44.52661" lon="2.15348">
        <ele>380.2</ele>
        <time>2026-07-04T07:16:03Z</time>
      </trkpt>
      <trkpt lat="44.52656" lon="2.15334">
        <ele>381.2</ele>
        <time>2026-07-04T07:16:07Z</time>
      </trkpt>
      <trkpt lat="44.52649" lon="2.15324">
        <ele>382</ele>
        <time>2026-07-04T07:16:10Z</time>
      </trkpt>
      <trkpt lat="44.52642" lon="2.15315">
        <ele>382.9</ele>
        <time>2026-07-04T07:16:13Z</time>
      </trkpt>
      <trkpt lat="44.52635" lon="2.15307">
        <ele>383.7</ele>
        <time>2026-07-04T07:16:16Z</time>
      </trkpt>
      <trkpt lat="44.52629" lon="2.15296">
        <ele>384.6</ele>
        <time>2026-07-04T07:16:20Z</time>
      </trkpt>
      <trkpt lat="44.52622" lon="2.15283">
        <ele>385.6</ele>
        <time>2026-07-04T07:16:24Z</time>
      </trkpt>
      <trkpt lat="44.52618" lon="2.15268">
        <ele>386.2</ele>
        <time>2026-07-04T07:16:27Z</time>
      </trkpt>
      <trkpt lat="44.52616" lon="2.15253">
        <ele>386.8</ele>
        <time>2026-07-04T07:16:30Z</time>
      </trkpt>
      <trkpt lat="44.52616" lon="2.15238">
        <ele>387.3</ele>
        <time>2026-07-04T07:16:33Z</time>
      </trkpt>
      <trkpt lat="44.52614" lon="2.15225">
        <ele>388</ele>
        <time>2026-07-04T07:16:36Z</time>
      </trkpt>
      <trkpt lat="44.52611" lon="2.1521">
        <ele>388.8</ele>
        <time>2026-07-04T07:16:40Z</time>
      </trkpt>
      <trkpt lat="44.52605" lon="2.15197">
        <ele>389.7</ele>
        <time>2026-07-04T07:16:44Z</time>
      </trkpt>
      <trkpt lat="44.52596" lon="2.15186">
        <ele>391</ele>
        <time>2026-07-04T07:16:48Z</time>
      </trkpt>
      <trkpt lat="44.52588" lon="2.15176">
        <ele>392.5</ele>
        <time>2026-07-04T07:16:52Z</time>
      </trkpt>
      <trkpt lat="44.52578" lon="2.15169">
        <ele>394.3</ele>
        <time>2026-07-04T07:16:56Z</time>
      </trkpt>
      <trkpt lat="44.52568" lon="2.15162">
        <ele>396.5</ele>
        <time>2026-07-04T07:17:01Z</time>
      </trkpt>
      <trkpt lat="44.52559" lon="2.15157">
        <ele>398.8</ele>
        <time>2026-07-04T07:17:06Z</time>
      </trkpt>
      <trkpt lat="44.52548" lon="2.15156">
        <ele>401.4</ele>
        <time>2026-07-04T07:17:10Z</time>
      </trkpt>
      <trkpt lat="44.52539" lon="2.15155">
        <ele>403.4</ele>
        <time>2026-07-04T07:17:14Z</time>
      </trkpt>
      <trkpt lat="44.52529" lon="2.15155">
        <ele>405.4</ele>
        <time>2026-07-04T07:17:19Z</time>
      </trkpt>
      <trkpt lat="44.52519" lon="2.15157">
        <ele>407.7</ele>
        <time>2026-07-04T07:17:24Z</time>
      </trkpt>
      <trkpt lat="44.52509" lon="2.15157">
        <ele>410</ele>
        <time>2026-07-04T07:17:29Z</time>
      </trkpt>
      <trkpt lat="44.52499" lon="2.15161">
        <ele>412.4</ele>
        <time>2026-07-04T07:17:34Z</time>
      </trkpt>
      <trkpt lat="44.5249" lon="2.15164">
        <ele>414.7</ele>
        <time>2026-07-04T07:17:39Z</time>
      </trkpt>
      <trkpt lat="44.5248" lon="2.15168">
        <ele>416.9</ele>
        <time>2026-07-04T07:17:45Z</time>
      </trkpt>
      <trkpt lat="44.52471" lon="2.15172">
        <ele>418.7</ele>
        <time>2026-07-04T07:17:50Z</time>
      </trkpt>
      <trkpt lat="44.5246" lon="2.15174">
        <ele>420.3</ele>
        <time>2026-07-04T07:17:55Z</time>
      </trkpt>
      <trkpt lat="44.52449" lon="2.15175">
        <ele>421.3</ele>
        <time>2026-07-04T07:17:59Z</time>
      </trkpt>
      <trkpt lat="44.52438" lon="2.15175">
        <ele>422.3</ele>
        <time>2026-07-04T07:18:03Z</time>
      </trkpt>
      <trkpt lat="44.52428" lon="2.15177">
        <ele>423.4</ele>
        <time>2026-07-04T07:18:07Z</time>
      </trkpt>
      <trkpt lat="44.52419" lon="2.15184">
        <ele>425.1</ele>
        <time>2026-07-04T07:18:12Z</time>
      </trkpt>
      <trkpt lat="44.52422" lon="2.15198">
        <ele>427.1</ele>
        <time>2026-07-04T07:18:19Z</time>
      </trkpt>
      <trkpt lat="44.5243" lon="2.15204">
        <ele>428.7</ele>
        <time>2026-07-04T07:18:24Z</time>
      </trkpt>
      <trkpt lat="44.5244" lon="2.15212">
        <ele>430</ele>
        <time>2026-07-04T07:18:29Z</time>
      </trkpt>
      <trkpt lat="44.52448" lon="2.15219">
        <ele>430.9</ele>
        <time>2026-07-04T07:18:33Z</time>
      </trkpt>
      <trkpt lat="44.52456" lon="2.15229">
        <ele>431.9</ele>
        <time>2026-07-04T07:18:38Z</time>
      </trkpt>
      <trkpt lat="44.52465" lon="2.15237">
        <ele>433</ele>
        <time>2026-07-04T07:18:43Z</time>
      </trkpt>
      <trkpt lat="44.52472" lon="2.15245">
        <ele>433.9</ele>
        <time>2026-07-04T07:18:47Z</time>
      </trkpt>
      <trkpt lat="44.5248" lon="2.15252">
        <ele>434.6</ele>
        <time>2026-07-04T07:18:51Z</time>
      </trkpt>
      <trkpt lat="44.5249" lon="2.1526">
        <ele>435.2</ele>
        <time>2026-07-04T07:18:55Z</time>
      </trkpt>
      <trkpt lat="44.525" lon="2.15269">
        <ele>435.7</ele>
        <time>2026-07-04T07:18:59Z</time>
      </trkpt>
      <trkpt lat="44.52508" lon="2.15279">
        <ele>436.4</ele>
        <time>2026-07-04T07:19:03Z</time>
      </trkpt>
      <trkpt lat="44.52513" lon="2.15292">
        <ele>437.1</ele>
        <time>2026-07-04T07:19:07Z</time>
      </trkpt>
      <trkpt lat="44.52516" lon="2.15304">
        <ele>437.5</ele>
        <time>2026-07-04T07:19:10Z</time>
      </trkpt>
      <trkpt lat="44.52518" lon="2.15317">
        <ele>437.8</ele>
        <time>2026-07-04T07:19:13Z</time>
      </trkpt>
      <trkpt lat="44.52519" lon="2.1533">
        <ele>437.9</ele>
        <time>2026-07-04T07:19:16Z</time>
      </trkpt>
      <trkpt lat="44.52519" lon="2.15345">
        <ele>438.2</ele>
        <time>2026-07-04T07:19:19Z</time>
      </trkpt>
      <trkpt lat="44.52519" lon="2.1536">
        <ele>438.5</ele>
        <time>2026-07-04T07:19:22Z</time>
      </trkpt>
      <trkpt lat="44.5252" lon="2.15374">
        <ele>438.8</ele>
        <time>2026-07-04T07:19:25Z</time>
      </trkpt>
      <trkpt lat="44.5252" lon="2.15389">
        <ele>439.2</ele>
        <time>2026-07-04T07:19:28Z</time>
      </trkpt>
      <trkpt lat="44.52519" lon="2.15403">
        <ele>439.8</ele>
        <time>2026-07-04T07:19:31Z</time>
      </trkpt>
      <trkpt lat="44.52515" lon="2.15417">
        <ele>440.6</ele>
        <time>2026-07-04T07:19:34Z</time>
      </trkpt>
      <trkpt lat="44.52512" lon="2.15433">
        <ele>441.3</ele>
        <time>2026-07-04T07:19:37Z</time>
      </trkpt>
      <trkpt lat="44.52506" lon="2.15449">
        <ele>441.9</ele>
        <time>2026-07-04T07:19:40Z</time>
      </trkpt>
      <trkpt lat="44.525" lon="2.15463">
        <ele>442.5</ele>
        <time>2026-07-04T07:19:43Z</time>
      </trkpt>
      <trkpt lat="44.52494" lon="2.15476">
        <ele>443</ele>
        <time>2026-07-04T07:19:46Z</time>
      </trkpt>
      <trkpt lat="44.52485" lon="2.15487">
        <ele>443.6</ele>
        <time>2026-07-04T07:19:49Z</time>
      </trkpt>
      <trkpt lat="44.52474" lon="2.15492">
        <ele>444</ele>
        <time>2026-07-04T07:19:52Z</time>
      </trkpt>
      <trkpt lat="44.52461" lon="2.15496">
        <ele>444.3</ele>
        <time>2026-07-04T07:19:55Z</time>
      </trkpt>
      <trkpt lat="44.52448" lon="2.155">
        <ele>444.8</ele>
        <time>2026-07-04T07:19:58Z</time>
      </trkpt>
      <trkpt lat="44.52436" lon="2.15502">
        <ele>445.4</ele>
        <time>2026-07-04T07:20:01Z</time>
      </trkpt>
      <trkpt lat="44.52428" lon="2.15495">
        <ele>446.1</ele>
        <time>2026-07-04T07:20:04Z</time>
      </trkpt>
      <trkpt lat="44.52422" lon="2.15484">
        <ele>446.7</ele>
        <time>2026-07-04T07:20:07Z</time>
      </trkpt>
      <trkpt lat="44.52416" lon="2.15471">
        <ele>447.2</ele>
        <time>2026-07-04T07:20:10Z</time>
      </trkpt>
      <trkpt lat="44.5241" lon="2.15457">
        <ele>447.6</ele>
        <time>2026-07-04T07:20:13Z</time>
      </trkpt>
      <trkpt lat="44.52404" lon="2.15444">
        <ele>447.9</ele>
        <time>2026-07-04T07:20:16Z</time>
      </trkpt>
      <trkpt lat="44.52398" lon="2.15431">
        <ele>448.2</ele>
        <time>2026-07-04T07:20:19Z</time>
      </trkpt>
      <trkpt lat="44.5239" lon="2.15421">
        <ele>448.4</ele>
        <time>2026-07-04T07:20:22Z</time>
      </trkpt>
      <trkpt lat="44.52381" lon="2.15428">
        <ele>448.6</ele>
        <time>2026-07-04T07:20:25Z</time>
      </trkpt>
      <trkpt lat="44.52369" lon="2.15437">
        <ele>448.8</ele>
        <time>2026-07-04T07:20:28Z</time>
      </trkpt>
      <trkpt lat="44.52358" lon="2.15444">
        <ele>449.1</ele>
        <time>2026-07-04T07:20:31Z</time>
      </trkpt>
      <trkpt lat="44.52345" lon="2.15452">
        <ele>449.5</ele>
        <time>2026-07-04T07:20:34Z</time>
      </trkpt>
      <trkpt lat="44.52337" lon="2.15456">
        <ele>449.8</ele>
        <time>2026-07-04T07:20:36Z</time>
      </trkpt>
      <trkpt lat="44.52328" lon="2.15461">
        <ele>450.2</ele>
        <time>2026-07-04T07:20:38Z</time>
      </trkpt>
      <trkpt lat="44.52319" lon="2.15464">
        <ele>450.6</ele>
        <time>2026-07-04T07:20:40Z</time>
      </trkpt>
      <trkpt lat="44.52307" lon="2.15469">
        <ele>451.3</ele>
        <time>2026-07-04T07:20:43Z</time>
      </trkpt>
      <trkpt lat="44.52294" lon="2.15471">
        <ele>452.1</ele>
        <time>2026-07-04T07:20:46Z</time>
      </trkpt>
      <trkpt lat="44.52282" lon="2.15468">
        <ele>453</ele>
        <time>2026-07-04T07:20:49Z</time>
      </trkpt>
      <trkpt lat="44.52271" lon="2.1546">
        <ele>453.9</ele>
        <time>2026-07-04T07:20:52Z</time>
      </trkpt>
      <trkpt lat="44.52262" lon="2.1545">
        <ele>454.6</ele>
        <time>2026-07-04T07:20:55Z</time>
      </trkpt>
      <trkpt lat="44.52255" lon="2.15442">
        <ele>455.1</ele>
        <time>2026-07-04T07:20:58Z</time>
      </trkpt>
      <trkpt lat="44.52246" lon="2.15431">
        <ele>455.7</ele>
        <time>2026-07-04T07:21:02Z</time>
      </trkpt>
      <trkpt lat="44.52239" lon="2.15422">
        <ele>455.9</ele>
        <time>2026-07-04T07:21:05Z</time>
      </trkpt>
      <trkpt lat="44.52231" lon="2.15413">
        <ele>456.1</ele>
        <time>2026-07-04T07:21:08Z</time>
      </trkpt>
      <trkpt lat="44.52221" lon="2.15403">
        <ele>456.2</ele>
        <time>2026-07-04T07:21:11Z</time>
      </trkpt>
      <trkpt lat="44.52212" lon="2.15394">
        <ele>456.3</ele>
        <time>2026-07-04T07:21:14Z</time>
      </trkpt>
      <trkpt lat="44.52203" lon="2.15387">
        <ele>456.5</ele>
        <time>2026-07-04T07:21:17Z</time>
      </trkpt>
      <trkpt lat="44.52195" lon="2.1538">
        <ele>456.6</ele>
        <time>2026-07-04T07:21:20Z</time>
      </trkpt>
      <trkpt lat="44.52185" lon="2.15373">
        <ele>456.8</ele>
        <time>2026-07-04T07:21:23Z</time>
      </trkpt>
      <trkpt lat="44.52175" lon="2.15367">
        <ele>456.9</ele>
        <time>2026-07-04T07:21:26Z</time>
      </trkpt>
      <trkpt lat="44.52166" lon="2.15362">
        <ele>457.1</ele>
        <time>2026-07-04T07:21:29Z</time>
      </trkpt>
      <trkpt lat="44.52157" lon="2.15356">
        <ele>457.3</ele>
        <time>2026-07-04T07:21:32Z</time>
      </trkpt>
      <trkpt lat="44.52147" lon="2.1535">
        <ele>457.5</ele>
        <time>2026-07-04T07:21:35Z</time>
      </trkpt>
      <trkpt lat="44.52136" lon="2.15344">
        <ele>457.8</ele>
        <time>2026-07-04T07:21:38Z</time>
      </trkpt>
      <trkpt lat="44.52125" lon="2.15338">
        <ele>458.2</ele>
        <time>2026-07-04T07:21:41Z</time>
      </trkpt>
      <trkpt lat="44.52113" lon="2.15333">
        <ele>458.7</ele>
        <time>2026-07-04T07:21:44Z</time>
      </trkpt>
      <trkpt lat="44.52103" lon="2.15328">
        <ele>459.2</ele>
        <time>2026-07-04T07:21:47Z</time>
      </trkpt>
      <trkpt lat="44.52093" lon="2.15323">
        <ele>459.8</ele>
        <time>2026-07-04T07:21:50Z</time>
      </trkpt>
      <trkpt lat="44.52083" lon="2.15318">
        <ele>460.5</ele>
        <time>2026-07-04T07:21:53Z</time>
      </trkpt>
      <trkpt lat="44.52072" lon="2.15313">
        <ele>461.3</ele>
        <time>2026-07-04T07:21:56Z</time>
      </trkpt>
      <trkpt lat="44.52062" lon="2.1531">
        <ele>461.9</ele>
        <time>2026-07-04T07:21:59Z</time>
      </trkpt>
      <trkpt lat="44.5205" lon="2.15307">
        <ele>462.6</ele>
        <time>2026-07-04T07:22:02Z</time>
      </trkpt>
      <trkpt lat="44.52039" lon="2.15302">
        <ele>463.1</ele>
        <time>2026-07-04T07:22:05Z</time>
      </trkpt>
      <trkpt lat="44.52027" lon="2.15297">
        <ele>463.5</ele>
        <time>2026-07-04T07:22:08Z</time>
      </trkpt>
      <trkpt lat="44.52016" lon="2.1529">
        <ele>463.9</ele>
        <time>2026-07-04T07:22:11Z</time>
      </trkpt>
      <trkpt lat="44.52004" lon="2.15282">
        <ele>464.2</ele>
        <time>2026-07-04T07:22:14Z</time>
      </trkpt>
      <trkpt lat="44.51992" lon="2.15275">
        <ele>464.4</ele>
        <time>2026-07-04T07:22:17Z</time>
      </trkpt>
      <trkpt lat="44.51981" lon="2.1527">
        <ele>464.7</ele>
        <time>2026-07-04T07:22:20Z</time>
      </trkpt>
      <trkpt lat="44.5197" lon="2.15265">
        <ele>465.1</ele>
        <time>2026-07-04T07:22:23Z</time>
      </trkpt>
      <trkpt lat="44.51959" lon="2.15261">
        <ele>465.5</ele>
        <time>2026-07-04T07:22:26Z</time>
      </trkpt>
      <trkpt lat="44.51947" lon="2.15259">
        <ele>465.9</ele>
        <time>2026-07-04T07:22:29Z</time>
      </trkpt>
      <trkpt lat="44.51936" lon="2.15258">
        <ele>466.2</ele>
        <time>2026-07-04T07:22:32Z</time>
      </trkpt>
      <trkpt lat="44.51924" lon="2.15258">
        <ele>466.5</ele>
        <time>2026-07-04T07:22:35Z</time>
      </trkpt>
      <trkpt lat="44.51912" lon="2.15259">
        <ele>466.8</ele>
        <time>2026-07-04T07:22:38Z</time>
      </trkpt>
      <trkpt lat="44.519" lon="2.15261">
        <ele>467</ele>
        <time>2026-07-04T07:22:41Z</time>
      </trkpt>
      <trkpt lat="44.51888" lon="2.15262">
        <ele>467.1</ele>
        <time>2026-07-04T07:22:44Z</time>
      </trkpt>
      <trkpt lat="44.51876" lon="2.15265">
        <ele>467.2</ele>
        <time>2026-07-04T07:22:47Z</time>
      </trkpt>
      <trkpt lat="44.51864" lon="2.15268">
        <ele>467.4</ele>
        <time>2026-07-04T07:22:50Z</time>
      </trkpt>
      <trkpt lat="44.51852" lon="2.15273">
        <ele>467.6</ele>
        <time>2026-07-04T07:22:53Z</time>
      </trkpt>
      <trkpt lat="44.5184" lon="2.15279">
        <ele>467.9</ele>
        <time>2026-07-04T07:22:56Z</time>
      </trkpt>
      <trkpt lat="44.51829" lon="2.15285">
        <ele>468.2</ele>
        <time>2026-07-04T07:22:59Z</time>
      </trkpt>
      <trkpt lat="44.51818" lon="2.15292">
        <ele>468.4</ele>
        <time>2026-07-04T07:23:02Z</time>
      </trkpt>
      <trkpt lat="44.51808" lon="2.15299">
        <ele>468.7</ele>
        <time>2026-07-04T07:23:05Z</time>
      </trkpt>
      <trkpt lat="44.51797" lon="2.15306">
        <ele>468.9</ele>
        <time>2026-07-04T07:23:08Z</time>
      </trkpt>
      <trkpt lat="44.51784" lon="2.15312">
        <ele>469.2</ele>
        <time>2026-07-04T07:23:11Z</time>
      </trkpt>
      <trkpt lat="44.51776" lon="2.15317">
        <ele>469.4</ele>
        <time>2026-07-04T07:23:13Z</time>
      </trkpt>
      <trkpt lat="44.51767" lon="2.15321">
        <ele>469.4</ele>
        <time>2026-07-04T07:23:15Z</time>
      </trkpt>
      <trkpt lat="44.51756" lon="2.15328">
        <ele>469.4</ele>
        <time>2026-07-04T07:23:18Z</time>
      </trkpt>
      <trkpt lat="44.51746" lon="2.15335">
        <ele>469.5</ele>
        <time>2026-07-04T07:23:21Z</time>
      </trkpt>
      <trkpt lat="44.51735" lon="2.15344">
        <ele>469.4</ele>
        <time>2026-07-04T07:23:24Z</time>
      </trkpt>
      <trkpt lat="44.51725" lon="2.15354">
        <ele>469.2</ele>
        <time>2026-07-04T07:23:27Z</time>
      </trkpt>
      <trkpt lat="44.51714" lon="2.15364">
        <ele>468.8</ele>
        <time>2026-07-04T07:23:30Z</time>
      </trkpt>
      <trkpt lat="44.51702" lon="2.15364">
        <ele>468.3</ele>
        <time>2026-07-04T07:23:33Z</time>
      </trkpt>
      <trkpt lat="44.51694" lon="2.15354">
        <ele>468.1</ele>
        <time>2026-07-04T07:23:36Z</time>
      </trkpt>
      <trkpt lat="44.51686" lon="2.15342">
        <ele>468</ele>
        <time>2026-07-04T07:23:39Z</time>
      </trkpt>
      <trkpt lat="44.51677" lon="2.15329">
        <ele>467.8</ele>
        <time>2026-07-04T07:23:42Z</time>
      </trkpt>
      <trkpt lat="44.5167" lon="2.15321">
        <ele>467.7</ele>
        <time>2026-07-04T07:23:44Z</time>
      </trkpt>
      <trkpt lat="44.51662" lon="2.15312">
        <ele>467.6</ele>
        <time>2026-07-04T07:23:46Z</time>
      </trkpt>
      <trkpt lat="44.51654" lon="2.15305">
        <ele>467.5</ele>
        <time>2026-07-04T07:23:48Z</time>
      </trkpt>
      <trkpt lat="44.51645" lon="2.15298">
        <ele>467.4</ele>
        <time>2026-07-04T07:23:50Z</time>
      </trkpt>
      <trkpt lat="44.51635" lon="2.15292">
        <ele>467.2</ele>
        <time>2026-07-04T07:23:52Z</time>
      </trkpt>
      <trkpt lat="44.51625" lon="2.15287">
        <ele>467.1</ele>
        <time>2026-07-04T07:23:54Z</time>
      </trkpt>
      <trkpt lat="44.51616" lon="2.15281">
        <ele>467</ele>
        <time>2026-07-04T07:23:56Z</time>
      </trkpt>
      <trkpt lat="44.51607" lon="2.15275">
        <ele>466.8</ele>
        <time>2026-07-04T07:23:58Z</time>
      </trkpt>
      <trkpt lat="44.516" lon="2.15267">
        <ele>466.7</ele>
        <time>2026-07-04T07:24:00Z</time>
      </trkpt>
      <trkpt lat="44.51591" lon="2.15255">
        <ele>466.6</ele>
        <time>2026-07-04T07:24:03Z</time>
      </trkpt>
      <trkpt lat="44.51585" lon="2.15243">
        <ele>466.4</ele>
        <time>2026-07-04T07:24:06Z</time>
      </trkpt>
      <trkpt lat="44.51579" lon="2.15228">
        <ele>466.3</ele>
        <time>2026-07-04T07:24:09Z</time>
      </trkpt>
      <trkpt lat="44.51573" lon="2.15217">
        <ele>466.2</ele>
        <time>2026-07-04T07:24:11Z</time>
      </trkpt>
      <trkpt lat="44.51567" lon="2.15208">
        <ele>466.1</ele>
        <time>2026-07-04T07:24:13Z</time>
      </trkpt>
      <trkpt lat="44.5156" lon="2.15199">
        <ele>465.9</ele>
        <time>2026-07-04T07:24:15Z</time>
      </trkpt>
      <trkpt lat="44.51552" lon="2.15191">
        <ele>465.8</ele>
        <time>2026-07-04T07:24:17Z</time>
      </trkpt>
      <trkpt lat="44.51542" lon="2.15185">
        <ele>465.7</ele>
        <time>2026-07-04T07:24:19Z</time>
      </trkpt>
      <trkpt lat="44.51532" lon="2.15177">
        <ele>465.5</ele>
        <time>2026-07-04T07:24:21Z</time>
      </trkpt>
      <trkpt lat="44.51523" lon="2.15166">
        <ele>465.4</ele>
        <time>2026-07-04T07:24:23Z</time>
      </trkpt>
      <trkpt lat="44.51515" lon="2.15153">
        <ele>465.2</ele>
        <time>2026-07-04T07:24:25Z</time>
      </trkpt>
      <trkpt lat="44.51509" lon="2.15138">
        <ele>465.1</ele>
        <time>2026-07-04T07:24:27Z</time>
      </trkpt>
      <trkpt lat="44.51504" lon="2.15124">
        <ele>465.1</ele>
        <time>2026-07-04T07:24:29Z</time>
      </trkpt>
      <trkpt lat="44.51498" lon="2.1511">
        <ele>465</ele>
        <time>2026-07-04T07:24:31Z</time>
      </trkpt>
      <trkpt lat="44.51492" lon="2.15096">
        <ele>465</ele>
        <time>2026-07-04T07:24:33Z</time>
      </trkpt>
      <trkpt lat="44.51484" lon="2.15079">
        <ele>464.9</ele>
        <time>2026-07-04T07:24:35Z</time>
      </trkpt>
      <trkpt lat="44.51477" lon="2.15062">
        <ele>464.8</ele>
        <time>2026-07-04T07:24:37Z</time>
      </trkpt>
      <trkpt lat="44.5147" lon="2.15045">
        <ele>464.8</ele>
        <time>2026-07-04T07:24:39Z</time>
      </trkpt>
      <trkpt lat="44.51465" lon="2.15027">
        <ele>464.7</ele>
        <time>2026-07-04T07:24:41Z</time>
      </trkpt>
      <trkpt lat="44.51463" lon="2.1501">
        <ele>464.7</ele>
        <time>2026-07-04T07:24:43Z</time>
      </trkpt>
      <trkpt lat="44.51461" lon="2.14994">
        <ele>464.6</ele>
        <time>2026-07-04T07:24:45Z</time>
      </trkpt>
      <trkpt lat="44.51459" lon="2.14978">
        <ele>464.6</ele>
        <time>2026-07-04T07:24:47Z</time>
      </trkpt>
      <trkpt lat="44.51458" lon="2.14964">
        <ele>464.5</ele>
        <time>2026-07-04T07:24:49Z</time>
      </trkpt>
      <trkpt lat="44.51458" lon="2.1495">
        <ele>464.5</ele>
        <time>2026-07-04T07:24:51Z</time>
      </trkpt>
      <trkpt lat="44.51457" lon="2.14937">
        <ele>464.4</ele>
        <time>2026-07-04T07:24:53Z</time>
      </trkpt>
      <trkpt lat="44.51458" lon="2.14921">
        <ele>464.4</ele>
        <time>2026-07-04T07:24:56Z</time>
      </trkpt>
      <trkpt lat="44.51463" lon="2.14903">
        <ele>464.3</ele>
        <time>2026-07-04T07:24:59Z</time>
      </trkpt>
      <trkpt lat="44.51471" lon="2.14897">
        <ele>464.5</ele>
        <time>2026-07-04T07:25:01Z</time>
      </trkpt>
      <trkpt lat="44.5148" lon="2.14892">
        <ele>464.4</ele>
        <time>2026-07-04T07:25:03Z</time>
      </trkpt>
      <trkpt lat="44.5149" lon="2.14884">
        <ele>464.3</ele>
        <time>2026-07-04T07:25:05Z</time>
      </trkpt>
      <trkpt lat="44.515" lon="2.14876">
        <ele>464.2</ele>
        <time>2026-07-04T07:25:07Z</time>
      </trkpt>
      <trkpt lat="44.51511" lon="2.14867">
        <ele>463.8</ele>
        <time>2026-07-04T07:25:09Z</time>
      </trkpt>
      <trkpt lat="44.51522" lon="2.14858">
        <ele>463.4</ele>
        <time>2026-07-04T07:25:11Z</time>
      </trkpt>
      <trkpt lat="44.51532" lon="2.1485">
        <ele>463.3</ele>
        <time>2026-07-04T07:25:13Z</time>
      </trkpt>
      <trkpt lat="44.51542" lon="2.14843">
        <ele>463.3</ele>
        <time>2026-07-04T07:25:15Z</time>
      </trkpt>
      <trkpt lat="44.51552" lon="2.14836">
        <ele>463.3</ele>
        <time>2026-07-04T07:25:17Z</time>
      </trkpt>
      <trkpt lat="44.51562" lon="2.14828">
        <ele>463.4</ele>
        <time>2026-07-04T07:25:19Z</time>
      </trkpt>
      <trkpt lat="44.51572" lon="2.14821">
        <ele>463.4</ele>
        <time>2026-07-04T07:25:21Z</time>
      </trkpt>
      <trkpt lat="44.51582" lon="2.14815">
        <ele>463.5</ele>
        <time>2026-07-04T07:25:23Z</time>
      </trkpt>
      <trkpt lat="44.51592" lon="2.14808">
        <ele>463.5</ele>
        <time>2026-07-04T07:25:25Z</time>
      </trkpt>
      <trkpt lat="44.51603" lon="2.14801">
        <ele>463.3</ele>
        <time>2026-07-04T07:25:27Z</time>
      </trkpt>
      <trkpt lat="44.51612" lon="2.14794">
        <ele>463.1</ele>
        <time>2026-07-04T07:25:29Z</time>
      </trkpt>
      <trkpt lat="44.51622" lon="2.14786">
        <ele>462.5</ele>
        <time>2026-07-04T07:25:31Z</time>
      </trkpt>
      <trkpt lat="44.51635" lon="2.14776">
        <ele>461.3</ele>
        <time>2026-07-04T07:25:33Z</time>
      </trkpt>
      <trkpt lat="44.51648" lon="2.14764">
        <ele>460.1</ele>
        <time>2026-07-04T07:25:35Z</time>
      </trkpt>
      <trkpt lat="44.51652" lon="2.14748">
        <ele>459.4</ele>
        <time>2026-07-04T07:25:37Z</time>
      </trkpt>
      <trkpt lat="44.51648" lon="2.14734">
        <ele>457.9</ele>
        <time>2026-07-04T07:25:39Z</time>
      </trkpt>
      <trkpt lat="44.51636" lon="2.14725">
        <ele>456.2</ele>
        <time>2026-07-04T07:25:41Z</time>
      </trkpt>
      <trkpt lat="44.51622" lon="2.14719">
        <ele>454.7</ele>
        <time>2026-07-04T07:25:43Z</time>
      </trkpt>
      <trkpt lat="44.51608" lon="2.14713">
        <ele>453.4</ele>
        <time>2026-07-04T07:25:45Z</time>
      </trkpt>
      <trkpt lat="44.51594" lon="2.14706">
        <ele>452.1</ele>
        <time>2026-07-04T07:25:47Z</time>
      </trkpt>
      <trkpt lat="44.5158" lon="2.14697">
        <ele>450.9</ele>
        <time>2026-07-04T07:25:49Z</time>
      </trkpt>
      <trkpt lat="44.51567" lon="2.14689">
        <ele>449.9</ele>
        <time>2026-07-04T07:25:51Z</time>
      </trkpt>
      <trkpt lat="44.51553" lon="2.14683">
        <ele>448.6</ele>
        <time>2026-07-04T07:25:53Z</time>
      </trkpt>
      <trkpt lat="44.51537" lon="2.14679">
        <ele>447.5</ele>
        <time>2026-07-04T07:25:55Z</time>
      </trkpt>
      <trkpt lat="44.51523" lon="2.14674">
        <ele>446.8</ele>
        <time>2026-07-04T07:25:57Z</time>
      </trkpt>
      <trkpt lat="44.51509" lon="2.1467">
        <ele>446</ele>
        <time>2026-07-04T07:25:59Z</time>
      </trkpt>
      <trkpt lat="44.51495" lon="2.1467">
        <ele>445.1</ele>
        <time>2026-07-04T07:26:01Z</time>
      </trkpt>
      <trkpt lat="44.5148" lon="2.14666">
        <ele>444.2</ele>
        <time>2026-07-04T07:26:03Z</time>
      </trkpt>
      <trkpt lat="44.51468" lon="2.14655">
        <ele>443.5</ele>
        <time>2026-07-04T07:26:05Z</time>
      </trkpt>
      <trkpt lat="44.51457" lon="2.14643">
        <ele>442.8</ele>
        <time>2026-07-04T07:26:07Z</time>
      </trkpt>
      <trkpt lat="44.51445" lon="2.14633">
        <ele>442</ele>
        <time>2026-07-04T07:26:09Z</time>
      </trkpt>
      <trkpt lat="44.51431" lon="2.14627">
        <ele>441.2</ele>
        <time>2026-07-04T07:26:11Z</time>
      </trkpt>
      <trkpt lat="44.51417" lon="2.1462">
        <ele>440.3</ele>
        <time>2026-07-04T07:26:13Z</time>
      </trkpt>
      <trkpt lat="44.51402" lon="2.14608">
        <ele>439.6</ele>
        <time>2026-07-04T07:26:15Z</time>
      </trkpt>
      <trkpt lat="44.51388" lon="2.14593">
        <ele>439.4</ele>
        <time>2026-07-04T07:26:17Z</time>
      </trkpt>
      <trkpt lat="44.51375" lon="2.14579">
        <ele>439.5</ele>
        <time>2026-07-04T07:26:19Z</time>
      </trkpt>
      <trkpt lat="44.51363" lon="2.14566">
        <ele>439.9</ele>
        <time>2026-07-04T07:26:21Z</time>
      </trkpt>
      <trkpt lat="44.51352" lon="2.14556">
        <ele>440.3</ele>
        <time>2026-07-04T07:26:23Z</time>
      </trkpt>
      <trkpt lat="44.51343" lon="2.14547">
        <ele>440.4</ele>
        <time>2026-07-04T07:26:25Z</time>
      </trkpt>
      <trkpt lat="44.51335" lon="2.14536">
        <ele>440.4</ele>
        <time>2026-07-04T07:26:27Z</time>
      </trkpt>
      <trkpt lat="44.51331" lon="2.14523">
        <ele>440.4</ele>
        <time>2026-07-04T07:26:29Z</time>
      </trkpt>
      <trkpt lat="44.5133" lon="2.1451">
        <ele>440.5</ele>
        <time>2026-07-04T07:26:31Z</time>
      </trkpt>
      <trkpt lat="44.5133" lon="2.14496">
        <ele>440.6</ele>
        <time>2026-07-04T07:26:33Z</time>
      </trkpt>
      <trkpt lat="44.51338" lon="2.14484">
        <ele>440.7</ele>
        <time>2026-07-04T07:26:36Z</time>
      </trkpt>
      <trkpt lat="44.51351" lon="2.14478">
        <ele>440.8</ele>
        <time>2026-07-04T07:26:39Z</time>
      </trkpt>
      <trkpt lat="44.5136" lon="2.14477">
        <ele>440.9</ele>
        <time>2026-07-04T07:26:41Z</time>
      </trkpt>
      <trkpt lat="44.5137" lon="2.14477">
        <ele>440.9</ele>
        <time>2026-07-04T07:26:43Z</time>
      </trkpt>
      <trkpt lat="44.51382" lon="2.14482">
        <ele>441</ele>
        <time>2026-07-04T07:26:46Z</time>
      </trkpt>
      <trkpt lat="44.51392" lon="2.14486">
        <ele>441</ele>
        <time>2026-07-04T07:26:48Z</time>
      </trkpt>
      <trkpt lat="44.51402" lon="2.14487">
        <ele>441</ele>
        <time>2026-07-04T07:26:50Z</time>
      </trkpt>
      <trkpt lat="44.51413" lon="2.14483">
        <ele>441</ele>
        <time>2026-07-04T07:26:52Z</time>
      </trkpt>
      <trkpt lat="44.51423" lon="2.14473">
        <ele>440.9</ele>
        <time>2026-07-04T07:26:54Z</time>
      </trkpt>
      <trkpt lat="44.51432" lon="2.14461">
        <ele>440.8</ele>
        <time>2026-07-04T07:26:56Z</time>
      </trkpt>
      <trkpt lat="44.51442" lon="2.14449">
        <ele>440.8</ele>
        <time>2026-07-04T07:26:58Z</time>
      </trkpt>
      <trkpt lat="44.51451" lon="2.14439">
        <ele>440.9</ele>
        <time>2026-07-04T07:27:00Z</time>
      </trkpt>
      <trkpt lat="44.51461" lon="2.1443">
        <ele>441</ele>
        <time>2026-07-04T07:27:02Z</time>
      </trkpt>
      <trkpt lat="44.51472" lon="2.14423">
        <ele>441</ele>
        <time>2026-07-04T07:27:04Z</time>
      </trkpt>
      <trkpt lat="44.51483" lon="2.14416">
        <ele>441</ele>
        <time>2026-07-04T07:27:06Z</time>
      </trkpt>
      <trkpt lat="44.51493" lon="2.14408">
        <ele>441</ele>
        <time>2026-07-04T07:27:08Z</time>
      </trkpt>
      <trkpt lat="44.51502" lon="2.14398">
        <ele>440.9</ele>
        <time>2026-07-04T07:27:10Z</time>
      </trkpt>
      <trkpt lat="44.5151" lon="2.14384">
        <ele>440.7</ele>
        <time>2026-07-04T07:27:12Z</time>
      </trkpt>
      <trkpt lat="44.51516" lon="2.1437">
        <ele>440.6</ele>
        <time>2026-07-04T07:27:14Z</time>
      </trkpt>
      <trkpt lat="44.51523" lon="2.14356">
        <ele>440.6</ele>
        <time>2026-07-04T07:27:16Z</time>
      </trkpt>
      <trkpt lat="44.51532" lon="2.14344">
        <ele>440.5</ele>
        <time>2026-07-04T07:27:18Z</time>
      </trkpt>
      <trkpt lat="44.51541" lon="2.14331">
        <ele>440.6</ele>
        <time>2026-07-04T07:27:20Z</time>
      </trkpt>
      <trkpt lat="44.51549" lon="2.14319">
        <ele>440.6</ele>
        <time>2026-07-04T07:27:22Z</time>
      </trkpt>
      <trkpt lat="44.51557" lon="2.14306">
        <ele>440.6</ele>
        <time>2026-07-04T07:27:24Z</time>
      </trkpt>
      <trkpt lat="44.51564" lon="2.14292">
        <ele>440.6</ele>
        <time>2026-07-04T07:27:26Z</time>
      </trkpt>
      <trkpt lat="44.51571" lon="2.14278">
        <ele>440.6</ele>
        <time>2026-07-04T07:27:28Z</time>
      </trkpt>
      <trkpt lat="44.51577" lon="2.14264">
        <ele>440.6</ele>
        <time>2026-07-04T07:27:30Z</time>
      </trkpt>
      <trkpt lat="44.51583" lon="2.14251">
        <ele>440.7</ele>
        <time>2026-07-04T07:27:32Z</time>
      </trkpt>
      <trkpt lat="44.5159" lon="2.14238">
        <ele>440.7</ele>
        <time>2026-07-04T07:27:34Z</time>
      </trkpt>
      <trkpt lat="44.51597" lon="2.14224">
        <ele>440.7</ele>
        <time>2026-07-04T07:27:36Z</time>
      </trkpt>
      <trkpt lat="44.51605" lon="2.14212">
        <ele>440.7</ele>
        <time>2026-07-04T07:27:38Z</time>
      </trkpt>
      <trkpt lat="44.51612" lon="2.14199">
        <ele>440.7</ele>
        <time>2026-07-04T07:27:40Z</time>
      </trkpt>
      <trkpt lat="44.5162" lon="2.14186">
        <ele>440.7</ele>
        <time>2026-07-04T07:27:42Z</time>
      </trkpt>
      <trkpt lat="44.51626" lon="2.14174">
        <ele>440.6</ele>
        <time>2026-07-04T07:27:44Z</time>
      </trkpt>
      <trkpt lat="44.51633" lon="2.14162">
        <ele>440.6</ele>
        <time>2026-07-04T07:27:46Z</time>
      </trkpt>
      <trkpt lat="44.5164" lon="2.14151">
        <ele>440.5</ele>
        <time>2026-07-04T07:27:48Z</time>
      </trkpt>
      <trkpt lat="44.51647" lon="2.14141">
        <ele>440.4</ele>
        <time>2026-07-04T07:27:50Z</time>
      </trkpt>
      <trkpt lat="44.51652" lon="2.14128">
        <ele>440.4</ele>
        <time>2026-07-04T07:27:53Z</time>
      </trkpt>
      <trkpt lat="44.51645" lon="2.1412">
        <ele>438.1</ele>
        <time>2026-07-04T07:28:07Z</time>
      </trkpt>
      <trkpt lat="44.51645" lon="2.1412">
        <ele>438.1</ele>
        <time>2026-07-04T07:28:15Z</time>
      </trkpt>
      <trkpt lat="44.51641" lon="2.14127">
        <ele>437.1</ele>
        <time>2026-07-04T07:28:24Z</time>
      </trkpt>
      <trkpt lat="44.51634" lon="2.14139">
        <ele>435</ele>
        <time>2026-07-04T07:28:29Z</time>
      </trkpt>
      <trkpt lat="44.51625" lon="2.14142">
        <ele>434.6</ele>
        <time>2026-07-04T07:28:32Z</time>
      </trkpt>
      <trkpt lat="44.51613" lon="2.14142">
        <ele>434.9</ele>
        <time>2026-07-04T07:28:35Z</time>
      </trkpt>
      <trkpt lat="44.51603" lon="2.14143">
        <ele>435.1</ele>
        <time>2026-07-04T07:28:37Z</time>
      </trkpt>
      <trkpt lat="44.51592" lon="2.14145">
        <ele>435.4</ele>
        <time>2026-07-04T07:28:39Z</time>
      </trkpt>
      <trkpt lat="44.51581" lon="2.14145">
        <ele>435.8</ele>
        <time>2026-07-04T07:28:41Z</time>
      </trkpt>
      <trkpt lat="44.51572" lon="2.14145">
        <ele>436.4</ele>
        <time>2026-07-04T07:28:43Z</time>
      </trkpt>
      <trkpt lat="44.5156" lon="2.14146">
        <ele>437.6</ele>
        <time>2026-07-04T07:28:46Z</time>
      </trkpt>
      <trkpt lat="44.51549" lon="2.14147">
        <ele>438.9</ele>
        <time>2026-07-04T07:28:49Z</time>
      </trkpt>
      <trkpt lat="44.51541" lon="2.14154">
        <ele>439.9</ele>
        <time>2026-07-04T07:28:52Z</time>
      </trkpt>
      <trkpt lat="44.51533" lon="2.14165">
        <ele>441.1</ele>
        <time>2026-07-04T07:28:55Z</time>
      </trkpt>
      <trkpt lat="44.51526" lon="2.14176">
        <ele>442.1</ele>
        <time>2026-07-04T07:28:58Z</time>
      </trkpt>
      <trkpt lat="44.51518" lon="2.14186">
        <ele>443.2</ele>
        <time>2026-07-04T07:29:01Z</time>
      </trkpt>
      <trkpt lat="44.51511" lon="2.14194">
        <ele>444.1</ele>
        <time>2026-07-04T07:29:04Z</time>
      </trkpt>
      <trkpt lat="44.51501" lon="2.14198">
        <ele>444.8</ele>
        <time>2026-07-04T07:29:07Z</time>
      </trkpt>
      <trkpt lat="44.5149" lon="2.142">
        <ele>445.5</ele>
        <time>2026-07-04T07:29:10Z</time>
      </trkpt>
      <trkpt lat="44.51478" lon="2.142">
        <ele>446.3</ele>
        <time>2026-07-04T07:29:13Z</time>
      </trkpt>
      <trkpt lat="44.51466" lon="2.142">
        <ele>447.1</ele>
        <time>2026-07-04T07:29:16Z</time>
      </trkpt>
      <trkpt lat="44.51455" lon="2.14196">
        <ele>448</ele>
        <time>2026-07-04T07:29:19Z</time>
      </trkpt>
      <trkpt lat="44.51442" lon="2.14194">
        <ele>448.8</ele>
        <time>2026-07-04T07:29:22Z</time>
      </trkpt>
      <trkpt lat="44.5143" lon="2.14192">
        <ele>449.6</ele>
        <time>2026-07-04T07:29:25Z</time>
      </trkpt>
      <trkpt lat="44.51418" lon="2.14192">
        <ele>450.4</ele>
        <time>2026-07-04T07:29:28Z</time>
      </trkpt>
      <trkpt lat="44.51407" lon="2.14193">
        <ele>451.2</ele>
        <time>2026-07-04T07:29:31Z</time>
      </trkpt>
      <trkpt lat="44.51395" lon="2.14198">
        <ele>452</ele>
        <time>2026-07-04T07:29:34Z</time>
      </trkpt>
      <trkpt lat="44.51383" lon="2.14204">
        <ele>452.8</ele>
        <time>2026-07-04T07:29:37Z</time>
      </trkpt>
      <trkpt lat="44.51372" lon="2.14213">
        <ele>453.6</ele>
        <time>2026-07-04T07:29:40Z</time>
      </trkpt>
      <trkpt lat="44.51362" lon="2.14221">
        <ele>454.4</ele>
        <time>2026-07-04T07:29:43Z</time>
      </trkpt>
      <trkpt lat="44.51353" lon="2.14232">
        <ele>455.3</ele>
        <time>2026-07-04T07:29:46Z</time>
      </trkpt>
      <trkpt lat="44.51347" lon="2.14246">
        <ele>456.2</ele>
        <time>2026-07-04T07:29:49Z</time>
      </trkpt>
      <trkpt lat="44.51337" lon="2.14252">
        <ele>457.1</ele>
        <time>2026-07-04T07:29:52Z</time>
      </trkpt>
      <trkpt lat="44.51326" lon="2.1425">
        <ele>458</ele>
        <time>2026-07-04T07:29:55Z</time>
      </trkpt>
      <trkpt lat="44.51315" lon="2.1425">
        <ele>458.8</ele>
        <time>2026-07-04T07:29:58Z</time>
      </trkpt>
      <trkpt lat="44.51304" lon="2.14252">
        <ele>459.6</ele>
        <time>2026-07-04T07:30:01Z</time>
      </trkpt>
      <trkpt lat="44.51293" lon="2.14256">
        <ele>460.2</ele>
        <time>2026-07-04T07:30:04Z</time>
      </trkpt>
      <trkpt lat="44.51279" lon="2.14254">
        <ele>460.5</ele>
        <time>2026-07-04T07:30:07Z</time>
      </trkpt>
      <trkpt lat="44.51269" lon="2.14249">
        <ele>460.5</ele>
        <time>2026-07-04T07:30:09Z</time>
      </trkpt>
      <trkpt lat="44.51258" lon="2.14242">
        <ele>460.6</ele>
        <time>2026-07-04T07:30:11Z</time>
      </trkpt>
      <trkpt lat="44.51248" lon="2.14237">
        <ele>460.7</ele>
        <time>2026-07-04T07:30:13Z</time>
      </trkpt>
      <trkpt lat="44.5124" lon="2.14223">
        <ele>460.4</ele>
        <time>2026-07-04T07:30:16Z</time>
      </trkpt>
      <trkpt lat="44.51243" lon="2.14209">
        <ele>459.7</ele>
        <time>2026-07-04T07:30:18Z</time>
      </trkpt>
      <trkpt lat="44.51246" lon="2.14193">
        <ele>458.9</ele>
        <time>2026-07-04T07:30:20Z</time>
      </trkpt>
      <trkpt lat="44.51251" lon="2.14176">
        <ele>458</ele>
        <time>2026-07-04T07:30:22Z</time>
      </trkpt>
      <trkpt lat="44.51255" lon="2.14156">
        <ele>457.3</ele>
        <time>2026-07-04T07:30:24Z</time>
      </trkpt>
      <trkpt lat="44.5126" lon="2.14136">
        <ele>456.6</ele>
        <time>2026-07-04T07:30:26Z</time>
      </trkpt>
      <trkpt lat="44.51265" lon="2.14117">
        <ele>456.1</ele>
        <time>2026-07-04T07:30:28Z</time>
      </trkpt>
      <trkpt lat="44.51267" lon="2.14097">
        <ele>455.7</ele>
        <time>2026-07-04T07:30:30Z</time>
      </trkpt>
      <trkpt lat="44.51269" lon="2.14078">
        <ele>455.3</ele>
        <time>2026-07-04T07:30:32Z</time>
      </trkpt>
      <trkpt lat="44.51269" lon="2.1406">
        <ele>455</ele>
        <time>2026-07-04T07:30:34Z</time>
      </trkpt>
      <trkpt lat="44.51269" lon="2.14042">
        <ele>454.7</ele>
        <time>2026-07-04T07:30:36Z</time>
      </trkpt>
      <trkpt lat="44.51268" lon="2.14025">
        <ele>454.3</ele>
        <time>2026-07-04T07:30:38Z</time>
      </trkpt>
      <trkpt lat="44.5127" lon="2.14008">
        <ele>453.8</ele>
        <time>2026-07-04T07:30:40Z</time>
      </trkpt>
      <trkpt lat="44.51277" lon="2.13993">
        <ele>453.4</ele>
        <time>2026-07-04T07:30:42Z</time>
      </trkpt>
      <trkpt lat="44.51282" lon="2.13977">
        <ele>452.9</ele>
        <time>2026-07-04T07:30:44Z</time>
      </trkpt>
      <trkpt lat="44.51287" lon="2.13961">
        <ele>452.4</ele>
        <time>2026-07-04T07:30:46Z</time>
      </trkpt>
      <trkpt lat="44.51292" lon="2.13945">
        <ele>452</ele>
        <time>2026-07-04T07:30:48Z</time>
      </trkpt>
      <trkpt lat="44.51296" lon="2.13928">
        <ele>451.4</ele>
        <time>2026-07-04T07:30:50Z</time>
      </trkpt>
      <trkpt lat="44.513" lon="2.13911">
        <ele>450.8</ele>
        <time>2026-07-04T07:30:52Z</time>
      </trkpt>
      <trkpt lat="44.51304" lon="2.13893">
        <ele>450.2</ele>
        <time>2026-07-04T07:30:54Z</time>
      </trkpt>
      <trkpt lat="44.51307" lon="2.13874">
        <ele>449.2</ele>
        <time>2026-07-04T07:30:56Z</time>
      </trkpt>
      <trkpt lat="44.51309" lon="2.13852">
        <ele>447.9</ele>
        <time>2026-07-04T07:30:58Z</time>
      </trkpt>
      <trkpt lat="44.5131" lon="2.13828">
        <ele>446.5</ele>
        <time>2026-07-04T07:31:00Z</time>
      </trkpt>
      <trkpt lat="44.5131" lon="2.13807">
        <ele>445.4</ele>
        <time>2026-07-04T07:31:02Z</time>
      </trkpt>
      <trkpt lat="44.51317" lon="2.13793">
        <ele>444.4</ele>
        <time>2026-07-04T07:31:04Z</time>
      </trkpt>
      <trkpt lat="44.51325" lon="2.13778">
        <ele>443.5</ele>
        <time>2026-07-04T07:31:06Z</time>
      </trkpt>
      <trkpt lat="44.51332" lon="2.13759">
        <ele>442.4</ele>
        <time>2026-07-04T07:31:08Z</time>
      </trkpt>
      <trkpt lat="44.51337" lon="2.13737">
        <ele>441.1</ele>
        <time>2026-07-04T07:31:10Z</time>
      </trkpt>
      <trkpt lat="44.51335" lon="2.13717">
        <ele>439.8</ele>
        <time>2026-07-04T07:31:12Z</time>
      </trkpt>
      <trkpt lat="44.51328" lon="2.13708">
        <ele>438.9</ele>
        <time>2026-07-04T07:31:14Z</time>
      </trkpt>
      <trkpt lat="44.5132" lon="2.13703">
        <ele>438</ele>
        <time>2026-07-04T07:31:17Z</time>
      </trkpt>
      <trkpt lat="44.51329" lon="2.13698">
        <ele>437.1</ele>
        <time>2026-07-04T07:31:27Z</time>
      </trkpt>
      <trkpt lat="44.51337" lon="2.13703">
        <ele>435.7</ele>
        <time>2026-07-04T07:31:30Z</time>
      </trkpt>
      <trkpt lat="44.51348" lon="2.13712">
        <ele>434.4</ele>
        <time>2026-07-04T07:31:33Z</time>
      </trkpt>
      <trkpt lat="44.51356" lon="2.1372">
        <ele>433.2</ele>
        <time>2026-07-04T07:31:36Z</time>
      </trkpt>
      <trkpt lat="44.51364" lon="2.13712">
        <ele>431.9</ele>
        <time>2026-07-04T07:31:40Z</time>
      </trkpt>
      <trkpt lat="44.51374" lon="2.13698">
        <ele>429.3</ele>
        <time>2026-07-04T07:31:43Z</time>
      </trkpt>
      <trkpt lat="44.51385" lon="2.13686">
        <ele>427.2</ele>
        <time>2026-07-04T07:31:45Z</time>
      </trkpt>
      <trkpt lat="44.51396" lon="2.13678">
        <ele>424.1</ele>
        <time>2026-07-04T07:31:47Z</time>
      </trkpt>
      <trkpt lat="44.51407" lon="2.13667">
        <ele>421.1</ele>
        <time>2026-07-04T07:31:49Z</time>
      </trkpt>
      <trkpt lat="44.5141" lon="2.13682">
        <ele>421.6</ele>
        <time>2026-07-04T07:31:56Z</time>
      </trkpt>
      <trkpt lat="44.51406" lon="2.13696">
        <ele>423</ele>
        <time>2026-07-04T07:31:58Z</time>
      </trkpt>
      <trkpt lat="44.51405" lon="2.13713">
        <ele>423.7</ele>
        <time>2026-07-04T07:32:00Z</time>
      </trkpt>
      <trkpt lat="44.5141" lon="2.13729">
        <ele>423.7</ele>
        <time>2026-07-04T07:32:02Z</time>
      </trkpt>
      <trkpt lat="44.51419" lon="2.13742">
        <ele>422.3</ele>
        <time>2026-07-04T07:32:04Z</time>
      </trkpt>
      <trkpt lat="44.51429" lon="2.13748">
        <ele>420.7</ele>
        <time>2026-07-04T07:32:06Z</time>
      </trkpt>
      <trkpt lat="44.51438" lon="2.13747">
        <ele>419</ele>
        <time>2026-07-04T07:32:08Z</time>
      </trkpt>
      <trkpt lat="44.51449" lon="2.13741">
        <ele>416.2</ele>
        <time>2026-07-04T07:32:11Z</time>
      </trkpt>
      <trkpt lat="44.5146" lon="2.13739">
        <ele>413.3</ele>
        <time>2026-07-04T07:32:15Z</time>
      </trkpt>
      <trkpt lat="44.51471" lon="2.13737">
        <ele>411.1</ele>
        <time>2026-07-04T07:32:18Z</time>
      </trkpt>
      <trkpt lat="44.51481" lon="2.13737">
        <ele>407.6</ele>
        <time>2026-07-04T07:32:21Z</time>
      </trkpt>
      <trkpt lat="44.51492" lon="2.13739">
        <ele>405</ele>
        <time>2026-07-04T07:32:23Z</time>
      </trkpt>
      <trkpt lat="44.51503" lon="2.13735">
        <ele>400</ele>
        <time>2026-07-04T07:32:25Z</time>
      </trkpt>
      <trkpt lat="44.51515" lon="2.13729">
        <ele>395</ele>
        <time>2026-07-04T07:32:27Z</time>
      </trkpt>
      <trkpt lat="44.51529" lon="2.13725">
        <ele>389.6</ele>
        <time>2026-07-04T07:32:29Z</time>
      </trkpt>
      <trkpt lat="44.51541" lon="2.13731">
        <ele>385.8</ele>
        <time>2026-07-04T07:32:31Z</time>
      </trkpt>
      <trkpt lat="44.51545" lon="2.13743">
        <ele>385.6</ele>
        <time>2026-07-04T07:32:33Z</time>
      </trkpt>
      <trkpt lat="44.51554" lon="2.13756">
        <ele>385.8</ele>
        <time>2026-07-04T07:32:35Z</time>
      </trkpt>
      <trkpt lat="44.51561" lon="2.13769">
        <ele>385.3</ele>
        <time>2026-07-04T07:32:37Z</time>
      </trkpt>
      <trkpt lat="44.51569" lon="2.13785">
        <ele>385.7</ele>
        <time>2026-07-04T07:32:39Z</time>
      </trkpt>
      <trkpt lat="44.51563" lon="2.13801">
        <ele>389.2</ele>
        <time>2026-07-04T07:32:42Z</time>
      </trkpt>
      <trkpt lat="44.51554" lon="2.13812">
        <ele>392</ele>
        <time>2026-07-04T07:32:45Z</time>
      </trkpt>
      <trkpt lat="44.51545" lon="2.13823">
        <ele>396.3</ele>
        <time>2026-07-04T07:32:47Z</time>
      </trkpt>
      <trkpt lat="44.51539" lon="2.1384">
        <ele>400.9</ele>
        <time>2026-07-04T07:32:49Z</time>
      </trkpt>
      <trkpt lat="44.5154" lon="2.13856">
        <ele>401.7</ele>
        <time>2026-07-04T07:32:52Z</time>
      </trkpt>
      <trkpt lat="44.51553" lon="2.13859">
        <ele>399.4</ele>
        <time>2026-07-04T07:32:55Z</time>
      </trkpt>
      <trkpt lat="44.51566" lon="2.13856">
        <ele>395.9</ele>
        <time>2026-07-04T07:32:57Z</time>
      </trkpt>
      <trkpt lat="44.51581" lon="2.13849">
        <ele>392.3</ele>
        <time>2026-07-04T07:32:59Z</time>
      </trkpt>
      <trkpt lat="44.51596" lon="2.13848">
        <ele>390.5</ele>
        <time>2026-07-04T07:33:01Z</time>
      </trkpt>
      <trkpt lat="44.51611" lon="2.1384">
        <ele>388.6</ele>
        <time>2026-07-04T07:33:03Z</time>
      </trkpt>
      <trkpt lat="44.51624" lon="2.13826">
        <ele>386</ele>
        <time>2026-07-04T07:33:05Z</time>
      </trkpt>
      <trkpt lat="44.51631" lon="2.13817">
        <ele>386.1</ele>
        <time>2026-07-04T07:33:06Z</time>
      </trkpt>
      <trkpt lat="44.51638" lon="2.13808">
        <ele>384.8</ele>
        <time>2026-07-04T07:33:07Z</time>
      </trkpt>
      <trkpt lat="44.51644" lon="2.13797">
        <ele>384.5</ele>
        <time>2026-07-04T07:33:08Z</time>
      </trkpt>
      <trkpt lat="44.51653" lon="2.13779">
        <ele>384.2</ele>
        <time>2026-07-04T07:33:10Z</time>
      </trkpt>
      <trkpt lat="44.51658" lon="2.13765">
        <ele>383.1</ele>
        <time>2026-07-04T07:33:12Z</time>
      </trkpt>
      <trkpt lat="44.51654" lon="2.13753">
        <ele>381.6</ele>
        <time>2026-07-04T07:33:14Z</time>
      </trkpt>
      <trkpt lat="44.51646" lon="2.13736">
        <ele>378.7</ele>
        <time>2026-07-04T07:33:16Z</time>
      </trkpt>
      <trkpt lat="44.51637" lon="2.1372">
        <ele>375</ele>
        <time>2026-07-04T07:33:18Z</time>
      </trkpt>
      <trkpt lat="44.51626" lon="2.13703">
        <ele>370.8</ele>
        <time>2026-07-04T07:33:20Z</time>
      </trkpt>
      <trkpt lat="44.51621" lon="2.13687">
        <ele>368.3</ele>
        <time>2026-07-04T07:33:22Z</time>
      </trkpt>
      <trkpt lat="44.51619" lon="2.13667">
        <ele>366.6</ele>
        <time>2026-07-04T07:33:24Z</time>
      </trkpt>
      <trkpt lat="44.51615" lon="2.13645">
        <ele>363.4</ele>
        <time>2026-07-04T07:33:26Z</time>
      </trkpt>
      <trkpt lat="44.51611" lon="2.13631">
        <ele>361.8</ele>
        <time>2026-07-04T07:33:27Z</time>
      </trkpt>
      <trkpt lat="44.51607" lon="2.13609">
        <ele>359.3</ele>
        <time>2026-07-04T07:33:29Z</time>
      </trkpt>
      <trkpt lat="44.51603" lon="2.13588">
        <ele>356.3</ele>
        <time>2026-07-04T07:33:31Z</time>
      </trkpt>
      <trkpt lat="44.51598" lon="2.13567">
        <ele>353.2</ele>
        <time>2026-07-04T07:33:33Z</time>
      </trkpt>
      <trkpt lat="44.51594" lon="2.13548">
        <ele>350.4</ele>
        <time>2026-07-04T07:33:35Z</time>
      </trkpt>
      <trkpt lat="44.51594" lon="2.1353">
        <ele>347.6</ele>
        <time>2026-07-04T07:33:37Z</time>
      </trkpt>
      <trkpt lat="44.51593" lon="2.13508">
        <ele>343.6</ele>
        <time>2026-07-04T07:33:39Z</time>
      </trkpt>
      <trkpt lat="44.51591" lon="2.13485">
        <ele>340.1</ele>
        <time>2026-07-04T07:33:41Z</time>
      </trkpt>
      <trkpt lat="44.51594" lon="2.13462">
        <ele>335.7</ele>
        <time>2026-07-04T07:33:43Z</time>
      </trkpt>
      <trkpt lat="44.51597" lon="2.13448">
        <ele>332.1</ele>
        <time>2026-07-04T07:33:44Z</time>
      </trkpt>
      <trkpt lat="44.51602" lon="2.13424">
        <ele>327.2</ele>
        <time>2026-07-04T07:33:46Z</time>
      </trkpt>
      <trkpt lat="44.51606" lon="2.13409">
        <ele>323.6</ele>
        <time>2026-07-04T07:33:47Z</time>
      </trkpt>
      <trkpt lat="44.51611" lon="2.13392">
        <ele>319.8</ele>
        <time>2026-07-04T07:33:48Z</time>
      </trkpt>
      <trkpt lat="44.51615" lon="2.13378">
        <ele>317.2</ele>
        <time>2026-07-04T07:33:49Z</time>
      </trkpt>
      <trkpt lat="44.51619" lon="2.13364">
        <ele>314.5</ele>
        <time>2026-07-04T07:33:50Z</time>
      </trkpt>
      <trkpt lat="44.51624" lon="2.13352">
        <ele>311.9</ele>
        <time>2026-07-04T07:33:51Z</time>
      </trkpt>
      <trkpt lat="44.51629" lon="2.1334">
        <ele>309.7</ele>
        <time>2026-07-04T07:33:52Z</time>
      </trkpt>
      <trkpt lat="44.51634" lon="2.13326">
        <ele>307.9</ele>
        <time>2026-07-04T07:33:53Z</time>
      </trkpt>
      <trkpt lat="44.51636" lon="2.13314">
        <ele>306</ele>
        <time>2026-07-04T07:33:54Z</time>
      </trkpt>
      <trkpt lat="44.51638" lon="2.13287">
        <ele>302.1</ele>
        <time>2026-07-04T07:33:56Z</time>
      </trkpt>
      <trkpt lat="44.51637" lon="2.13272">
        <ele>300.7</ele>
        <time>2026-07-04T07:33:57Z</time>
      </trkpt>
      <trkpt lat="44.51635" lon="2.1326">
        <ele>299.5</ele>
        <time>2026-07-04T07:33:58Z</time>
      </trkpt>
      <trkpt lat="44.51634" lon="2.13246">
        <ele>298.4</ele>
        <time>2026-07-04T07:33:59Z</time>
      </trkpt>
      <trkpt lat="44.51633" lon="2.13232">
        <ele>297.3</ele>
        <time>2026-07-04T07:34:00Z</time>
      </trkpt>
      <trkpt lat="44.51632" lon="2.13219">
        <ele>296.4</ele>
        <time>2026-07-04T07:34:01Z</time>
      </trkpt>
      <trkpt lat="44.51632" lon="2.13195">
        <ele>294.6</ele>
        <time>2026-07-04T07:34:03Z</time>
      </trkpt>
      <trkpt lat="44.51631" lon="2.13172">
        <ele>293.2</ele>
        <time>2026-07-04T07:34:05Z</time>
      </trkpt>
      <trkpt lat="44.51626" lon="2.13153">
        <ele>292.1</ele>
        <time>2026-07-04T07:34:07Z</time>
      </trkpt>
      <trkpt lat="44.5162" lon="2.13135">
        <ele>291.5</ele>
        <time>2026-07-04T07:34:09Z</time>
      </trkpt>
      <trkpt lat="44.51613" lon="2.13122">
        <ele>291.3</ele>
        <time>2026-07-04T07:34:11Z</time>
      </trkpt>
      <trkpt lat="44.51607" lon="2.1311">
        <ele>291.2</ele>
        <time>2026-07-04T07:34:13Z</time>
      </trkpt>
      <trkpt lat="44.51602" lon="2.131">
        <ele>291.2</ele>
        <time>2026-07-04T07:34:30Z</time>
      </trkpt>
      <trkpt lat="44.51593" lon="2.13098">
        <ele>292</ele>
        <time>2026-07-04T07:35:26Z</time>
      </trkpt>
      <trkpt lat="44.51585" lon="2.13107">
        <ele>293.3</ele>
        <time>2026-07-04T07:35:30Z</time>
      </trkpt>
      <trkpt lat="44.51578" lon="2.1312">
        <ele>295.4</ele>
        <time>2026-07-04T07:35:34Z</time>
      </trkpt>
      <trkpt lat="44.51571" lon="2.13133">
        <ele>297.2</ele>
        <time>2026-07-04T07:35:38Z</time>
      </trkpt>
      <trkpt lat="44.51564" lon="2.13141">
        <ele>298.9</ele>
        <time>2026-07-04T07:35:41Z</time>
      </trkpt>
      <trkpt lat="44.51556" lon="2.13149">
        <ele>301</ele>
        <time>2026-07-04T07:35:45Z</time>
      </trkpt>
      <trkpt lat="44.5155" lon="2.13161">
        <ele>303.1</ele>
        <time>2026-07-04T07:35:50Z</time>
      </trkpt>
      <trkpt lat="44.51551" lon="2.13174">
        <ele>303.7</ele>
        <time>2026-07-04T07:35:56Z</time>
      </trkpt>
      <trkpt lat="44.51558" lon="2.13184">
        <ele>303.1</ele>
        <time>2026-07-04T07:36:00Z</time>
      </trkpt>
      <trkpt lat="44.51561" lon="2.13197">
        <ele>303.3</ele>
        <time>2026-07-04T07:36:05Z</time>
      </trkpt>
      <trkpt lat="44.51552" lon="2.13202">
        <ele>305.8</ele>
        <time>2026-07-04T07:36:11Z</time>
      </trkpt>
      <trkpt lat="44.51542" lon="2.13206">
        <ele>308.5</ele>
        <time>2026-07-04T07:36:18Z</time>
      </trkpt>
      <trkpt lat="44.51533" lon="2.13209">
        <ele>311.4</ele>
        <time>2026-07-04T07:36:23Z</time>
      </trkpt>
      <trkpt lat="44.51524" lon="2.13216">
        <ele>314.7</ele>
        <time>2026-07-04T07:36:29Z</time>
      </trkpt>
      <trkpt lat="44.51516" lon="2.13224">
        <ele>318.9</ele>
        <time>2026-07-04T07:36:35Z</time>
      </trkpt>
      <trkpt lat="44.51508" lon="2.1323">
        <ele>323.3</ele>
        <time>2026-07-04T07:36:42Z</time>
      </trkpt>
      <trkpt lat="44.51499" lon="2.13222">
        <ele>324.8</ele>
        <time>2026-07-04T07:36:48Z</time>
      </trkpt>
      <trkpt lat="44.51495" lon="2.1321">
        <ele>323.3</ele>
        <time>2026-07-04T07:36:53Z</time>
      </trkpt>
      <trkpt lat="44.51494" lon="2.13197">
        <ele>321</ele>
        <time>2026-07-04T07:36:57Z</time>
      </trkpt>
      <trkpt lat="44.5149" lon="2.13183">
        <ele>319.6</ele>
        <time>2026-07-04T07:37:01Z</time>
      </trkpt>
      <trkpt lat="44.51485" lon="2.13171">
        <ele>318.5</ele>
        <time>2026-07-04T07:37:05Z</time>
      </trkpt>
      <trkpt lat="44.51476" lon="2.13165">
        <ele>318.8</ele>
        <time>2026-07-04T07:37:09Z</time>
      </trkpt>
      <trkpt lat="44.51466" lon="2.13162">
        <ele>320.8</ele>
        <time>2026-07-04T07:37:13Z</time>
      </trkpt>
      <trkpt lat="44.51456" lon="2.13163">
        <ele>323.2</ele>
        <time>2026-07-04T07:37:17Z</time>
      </trkpt>
      <trkpt lat="44.51447" lon="2.1316">
        <ele>324.4</ele>
        <time>2026-07-04T07:37:21Z</time>
      </trkpt>
      <trkpt lat="44.5144" lon="2.1315">
        <ele>324.2</ele>
        <time>2026-07-04T07:37:25Z</time>
      </trkpt>
      <trkpt lat="44.51434" lon="2.13141">
        <ele>323.9</ele>
        <time>2026-07-04T07:37:29Z</time>
      </trkpt>
      <trkpt lat="44.51425" lon="2.13134">
        <ele>323.3</ele>
        <time>2026-07-04T07:37:33Z</time>
      </trkpt>
      <trkpt lat="44.51416" lon="2.13127">
        <ele>324.4</ele>
        <time>2026-07-04T07:37:37Z</time>
      </trkpt>
      <trkpt lat="44.51405" lon="2.13121">
        <ele>324.5</ele>
        <time>2026-07-04T07:37:41Z</time>
      </trkpt>
      <trkpt lat="44.51396" lon="2.13118">
        <ele>326.4</ele>
        <time>2026-07-04T07:37:44Z</time>
      </trkpt>
      <trkpt lat="44.51387" lon="2.13117">
        <ele>327.6</ele>
        <time>2026-07-04T07:37:47Z</time>
      </trkpt>
      <trkpt lat="44.51377" lon="2.13117">
        <ele>329.9</ele>
        <time>2026-07-04T07:37:51Z</time>
      </trkpt>
      <trkpt lat="44.51366" lon="2.13117">
        <ele>332.9</ele>
        <time>2026-07-04T07:37:56Z</time>
      </trkpt>
      <trkpt lat="44.51356" lon="2.13118">
        <ele>336.5</ele>
        <time>2026-07-04T07:38:00Z</time>
      </trkpt>
      <trkpt lat="44.51347" lon="2.13119">
        <ele>338.3</ele>
        <time>2026-07-04T07:38:04Z</time>
      </trkpt>
      <trkpt lat="44.51338" lon="2.13121">
        <ele>339.8</ele>
        <time>2026-07-04T07:38:08Z</time>
      </trkpt>
      <trkpt lat="44.51329" lon="2.13124">
        <ele>342.3</ele>
        <time>2026-07-04T07:38:12Z</time>
      </trkpt>
      <trkpt lat="44.51318" lon="2.13127">
        <ele>344.9</ele>
        <time>2026-07-04T07:38:17Z</time>
      </trkpt>
      <trkpt lat="44.51308" lon="2.13132">
        <ele>347</ele>
        <time>2026-07-04T07:38:22Z</time>
      </trkpt>
      <trkpt lat="44.51299" lon="2.13138">
        <ele>350.1</ele>
        <time>2026-07-04T07:38:26Z</time>
      </trkpt>
      <trkpt lat="44.51291" lon="2.13145">
        <ele>353.3</ele>
        <time>2026-07-04T07:38:30Z</time>
      </trkpt>
      <trkpt lat="44.51284" lon="2.13154">
        <ele>355.9</ele>
        <time>2026-07-04T07:38:34Z</time>
      </trkpt>
      <trkpt lat="44.51277" lon="2.13162">
        <ele>358.6</ele>
        <time>2026-07-04T07:38:39Z</time>
      </trkpt>
      <trkpt lat="44.51267" lon="2.13167">
        <ele>360</ele>
        <time>2026-07-04T07:38:43Z</time>
      </trkpt>
      <trkpt lat="44.51256" lon="2.13166">
        <ele>360</ele>
        <time>2026-07-04T07:38:47Z</time>
      </trkpt>
      <trkpt lat="44.51259" lon="2.13179">
        <ele>364.4</ele>
        <time>2026-07-04T07:38:57Z</time>
      </trkpt>
      <trkpt lat="44.51268" lon="2.13186">
        <ele>367.2</ele>
        <time>2026-07-04T07:39:02Z</time>
      </trkpt>
      <trkpt lat="44.51276" lon="2.13192">
        <ele>368.2</ele>
        <time>2026-07-04T07:39:07Z</time>
      </trkpt>
      <trkpt lat="44.51286" lon="2.1319">
        <ele>366.6</ele>
        <time>2026-07-04T07:39:11Z</time>
      </trkpt>
      <trkpt lat="44.51294" lon="2.13183">
        <ele>365.2</ele>
        <time>2026-07-04T07:39:14Z</time>
      </trkpt>
      <trkpt lat="44.51303" lon="2.13181">
        <ele>363.3</ele>
        <time>2026-07-04T07:39:17Z</time>
      </trkpt>
      <trkpt lat="44.51312" lon="2.13181">
        <ele>362.3</ele>
        <time>2026-07-04T07:39:20Z</time>
      </trkpt>
      <trkpt lat="44.51322" lon="2.13183">
        <ele>361.7</ele>
        <time>2026-07-04T07:39:24Z</time>
      </trkpt>
      <trkpt lat="44.51333" lon="2.13187">
        <ele>361.1</ele>
        <time>2026-07-04T07:39:28Z</time>
      </trkpt>
      <trkpt lat="44.51341" lon="2.13195">
        <ele>360.1</ele>
        <time>2026-07-04T07:39:32Z</time>
      </trkpt>
      <trkpt lat="44.51351" lon="2.13203">
        <ele>360.1</ele>
        <time>2026-07-04T07:39:36Z</time>
      </trkpt>
      <trkpt lat="44.5136" lon="2.13212">
        <ele>359.9</ele>
        <time>2026-07-04T07:39:40Z</time>
      </trkpt>
      <trkpt lat="44.51369" lon="2.13222">
        <ele>360.6</ele>
        <time>2026-07-04T07:39:44Z</time>
      </trkpt>
      <trkpt lat="44.51372" lon="2.13235">
        <ele>362.9</ele>
        <time>2026-07-04T07:39:48Z</time>
      </trkpt>
      <trkpt lat="44.51362" lon="2.1324">
        <ele>366.7</ele>
        <time>2026-07-04T07:39:54Z</time>
      </trkpt>
      <trkpt lat="44.51352" lon="2.13239">
        <ele>370.2</ele>
        <time>2026-07-04T07:39:59Z</time>
      </trkpt>
      <trkpt lat="44.51342" lon="2.1324">
        <ele>372.5</ele>
        <time>2026-07-04T07:40:03Z</time>
      </trkpt>
      <trkpt lat="44.51334" lon="2.13248">
        <ele>376</ele>
        <time>2026-07-04T07:40:09Z</time>
      </trkpt>
      <trkpt lat="44.51333" lon="2.13261">
        <ele>380.1</ele>
        <time>2026-07-04T07:40:14Z</time>
      </trkpt>
      <trkpt lat="44.5134" lon="2.13273">
        <ele>382</ele>
        <time>2026-07-04T07:40:19Z</time>
      </trkpt>
      <trkpt lat="44.51347" lon="2.13284">
        <ele>382.1</ele>
        <time>2026-07-04T07:40:24Z</time>
      </trkpt>
      <trkpt lat="44.51351" lon="2.13291">
        <ele>383.6</ele>
        <time>2026-07-04T07:40:41Z</time>
      </trkpt>
      <trkpt lat="44.51352" lon="2.13291">
        <ele>383.6</ele>
        <time>2026-07-04T07:40:46Z</time>
      </trkpt>
      <trkpt lat="44.51359" lon="2.13303">
        <ele>384.9</ele>
        <time>2026-07-04T07:40:59Z</time>
      </trkpt>
      <trkpt lat="44.51364" lon="2.13314">
        <ele>386.5</ele>
        <time>2026-07-04T07:41:04Z</time>
      </trkpt>
      <trkpt lat="44.51368" lon="2.13326">
        <ele>388</ele>
        <time>2026-07-04T07:41:08Z</time>
      </trkpt>
      <trkpt lat="44.51373" lon="2.13339">
        <ele>390.1</ele>
        <time>2026-07-04T07:41:12Z</time>
      </trkpt>
      <trkpt lat="44.51366" lon="2.13347">
        <ele>393.5</ele>
        <time>2026-07-04T07:41:20Z</time>
      </trkpt>
      <trkpt lat="44.51357" lon="2.13344">
        <ele>394.8</ele>
        <time>2026-07-04T07:41:24Z</time>
      </trkpt>
      <trkpt lat="44.51347" lon="2.13344">
        <ele>396.6</ele>
        <time>2026-07-04T07:41:28Z</time>
      </trkpt>
      <trkpt lat="44.51338" lon="2.13344">
        <ele>398.4</ele>
        <time>2026-07-04T07:41:32Z</time>
      </trkpt>
      <trkpt lat="44.51329" lon="2.1335">
        <ele>402.1</ele>
        <time>2026-07-04T07:41:43Z</time>
      </trkpt>
      <trkpt lat="44.5132" lon="2.13352">
        <ele>403.7</ele>
        <time>2026-07-04T07:41:49Z</time>
      </trkpt>
      <trkpt lat="44.51309" lon="2.13352">
        <ele>405.4</ele>
        <time>2026-07-04T07:41:54Z</time>
      </trkpt>
      <trkpt lat="44.51299" lon="2.1335">
        <ele>406.7</ele>
        <time>2026-07-04T07:42:00Z</time>
      </trkpt>
      <trkpt lat="44.5129" lon="2.13346">
        <ele>406.8</ele>
        <time>2026-07-04T07:42:03Z</time>
      </trkpt>
      <trkpt lat="44.51278" lon="2.13342">
        <ele>407.6</ele>
        <time>2026-07-04T07:42:06Z</time>
      </trkpt>
      <trkpt lat="44.51268" lon="2.13338">
        <ele>408</ele>
        <time>2026-07-04T07:42:08Z</time>
      </trkpt>
      <trkpt lat="44.51257" lon="2.13331">
        <ele>407.1</ele>
        <time>2026-07-04T07:42:10Z</time>
      </trkpt>
      <trkpt lat="44.51245" lon="2.13327">
        <ele>406.6</ele>
        <time>2026-07-04T07:42:12Z</time>
      </trkpt>
      <trkpt lat="44.51231" lon="2.13324">
        <ele>406.9</ele>
        <time>2026-07-04T07:42:15Z</time>
      </trkpt>
      <trkpt lat="44.51221" lon="2.13324">
        <ele>407</ele>
        <time>2026-07-04T07:42:17Z</time>
      </trkpt>
      <trkpt lat="44.51212" lon="2.13323">
        <ele>406.3</ele>
        <time>2026-07-04T07:42:19Z</time>
      </trkpt>
      <trkpt lat="44.51202" lon="2.13324">
        <ele>407.5</ele>
        <time>2026-07-04T07:42:21Z</time>
      </trkpt>
      <trkpt lat="44.5119" lon="2.13331">
        <ele>408.5</ele>
        <time>2026-07-04T07:42:24Z</time>
      </trkpt>
      <trkpt lat="44.51181" lon="2.13338">
        <ele>410.2</ele>
        <time>2026-07-04T07:42:26Z</time>
      </trkpt>
      <trkpt lat="44.51172" lon="2.13345">
        <ele>411.7</ele>
        <time>2026-07-04T07:42:28Z</time>
      </trkpt>
      <trkpt lat="44.51163" lon="2.13353">
        <ele>412.1</ele>
        <time>2026-07-04T07:42:30Z</time>
      </trkpt>
      <trkpt lat="44.51156" lon="2.13362">
        <ele>413.5</ele>
        <time>2026-07-04T07:42:32Z</time>
      </trkpt>
      <trkpt lat="44.51153" lon="2.13374">
        <ele>416.3</ele>
        <time>2026-07-04T07:42:48Z</time>
      </trkpt>
      <trkpt lat="44.51146" lon="2.13385">
        <ele>418.8</ele>
        <time>2026-07-04T07:43:08Z</time>
      </trkpt>
      <trkpt lat="44.51138" lon="2.13392">
        <ele>419</ele>
        <time>2026-07-04T07:43:12Z</time>
      </trkpt>
      <trkpt lat="44.51127" lon="2.13388">
        <ele>417.1</ele>
        <time>2026-07-04T07:43:15Z</time>
      </trkpt>
      <trkpt lat="44.51117" lon="2.13386">
        <ele>416.3</ele>
        <time>2026-07-04T07:43:17Z</time>
      </trkpt>
      <trkpt lat="44.51108" lon="2.13385">
        <ele>415.7</ele>
        <time>2026-07-04T07:43:19Z</time>
      </trkpt>
      <trkpt lat="44.51096" lon="2.13384">
        <ele>415.1</ele>
        <time>2026-07-04T07:43:21Z</time>
      </trkpt>
      <trkpt lat="44.51085" lon="2.1338">
        <ele>413.7</ele>
        <time>2026-07-04T07:43:23Z</time>
      </trkpt>
      <trkpt lat="44.51075" lon="2.13377">
        <ele>412.7</ele>
        <time>2026-07-04T07:43:25Z</time>
      </trkpt>
      <trkpt lat="44.51065" lon="2.13373">
        <ele>412</ele>
        <time>2026-07-04T07:43:27Z</time>
      </trkpt>
      <trkpt lat="44.51053" lon="2.13371">
        <ele>412.2</ele>
        <time>2026-07-04T07:43:29Z</time>
      </trkpt>
      <trkpt lat="44.5104" lon="2.13375">
        <ele>412.6</ele>
        <time>2026-07-04T07:43:32Z</time>
      </trkpt>
      <trkpt lat="44.5103" lon="2.1338">
        <ele>414.2</ele>
        <time>2026-07-04T07:43:35Z</time>
      </trkpt>
      <trkpt lat="44.51021" lon="2.13383">
        <ele>414.6</ele>
        <time>2026-07-04T07:43:38Z</time>
      </trkpt>
      <trkpt lat="44.51012" lon="2.13388">
        <ele>415.9</ele>
        <time>2026-07-04T07:43:42Z</time>
      </trkpt>
      <trkpt lat="44.51002" lon="2.13392">
        <ele>417.5</ele>
        <time>2026-07-04T07:43:46Z</time>
      </trkpt>
      <trkpt lat="44.50994" lon="2.134">
        <ele>419.5</ele>
        <time>2026-07-04T07:43:58Z</time>
      </trkpt>
      <trkpt lat="44.50986" lon="2.13404">
        <ele>421.2</ele>
        <time>2026-07-04T07:44:09Z</time>
      </trkpt>
      <trkpt lat="44.50977" lon="2.13411">
        <ele>423.4</ele>
        <time>2026-07-04T07:44:13Z</time>
      </trkpt>
      <trkpt lat="44.50971" lon="2.13399">
        <ele>422.4</ele>
        <time>2026-07-04T07:44:20Z</time>
      </trkpt>
      <trkpt lat="44.5097" lon="2.13385">
        <ele>421.4</ele>
        <time>2026-07-04T07:44:24Z</time>
      </trkpt>
      <trkpt lat="44.50971" lon="2.13372">
        <ele>420.1</ele>
        <time>2026-07-04T07:44:28Z</time>
      </trkpt>
      <trkpt lat="44.50974" lon="2.13359">
        <ele>418.9</ele>
        <time>2026-07-04T07:44:33Z</time>
      </trkpt>
      <trkpt lat="44.50981" lon="2.13347">
        <ele>417.2</ele>
        <time>2026-07-04T07:44:37Z</time>
      </trkpt>
      <trkpt lat="44.50987" lon="2.13336">
        <ele>415.7</ele>
        <time>2026-07-04T07:44:41Z</time>
      </trkpt>
      <trkpt lat="44.50993" lon="2.13325">
        <ele>414.4</ele>
        <time>2026-07-04T07:44:45Z</time>
      </trkpt>
      <trkpt lat="44.50999" lon="2.13312">
        <ele>412.7</ele>
        <time>2026-07-04T07:44:50Z</time>
      </trkpt>
      <trkpt lat="44.51003" lon="2.133">
        <ele>411.4</ele>
        <time>2026-07-04T07:44:54Z</time>
      </trkpt>
      <trkpt lat="44.51006" lon="2.13287">
        <ele>410.3</ele>
        <time>2026-07-04T07:44:58Z</time>
      </trkpt>
      <trkpt lat="44.51008" lon="2.13274">
        <ele>409.4</ele>
        <time>2026-07-04T07:45:02Z</time>
      </trkpt>
      <trkpt lat="44.50998" lon="2.13271">
        <ele>410.7</ele>
        <time>2026-07-04T07:45:08Z</time>
      </trkpt>
      <trkpt lat="44.50988" lon="2.13277">
        <ele>412.4</ele>
        <time>2026-07-04T07:45:13Z</time>
      </trkpt>
      <trkpt lat="44.50978" lon="2.13283">
        <ele>414.7</ele>
        <time>2026-07-04T07:45:18Z</time>
      </trkpt>
      <trkpt lat="44.50968" lon="2.13288">
        <ele>416.9</ele>
        <time>2026-07-04T07:45:23Z</time>
      </trkpt>
      <trkpt lat="44.50958" lon="2.13293">
        <ele>419</ele>
        <time>2026-07-04T07:45:28Z</time>
      </trkpt>
      <trkpt lat="44.50947" lon="2.13296">
        <ele>421.6</ele>
        <time>2026-07-04T07:45:33Z</time>
      </trkpt>
      <trkpt lat="44.50941" lon="2.13307">
        <ele>423.7</ele>
        <time>2026-07-04T07:45:37Z</time>
      </trkpt>
      <trkpt lat="44.50935" lon="2.13316">
        <ele>425.4</ele>
        <time>2026-07-04T07:45:44Z</time>
      </trkpt>
      <trkpt lat="44.5093" lon="2.13318">
        <ele>426</ele>
        <time>2026-07-04T07:45:55Z</time>
      </trkpt>
      <trkpt lat="44.50929" lon="2.13319">
        <ele>426.6</ele>
        <time>2026-07-04T07:45:58Z</time>
      </trkpt>
      <trkpt lat="44.50924" lon="2.13331">
        <ele>428.7</ele>
        <time>2026-07-04T07:46:14Z</time>
      </trkpt>
      <trkpt lat="44.50918" lon="2.13344">
        <ele>430.7</ele>
        <time>2026-07-04T07:46:19Z</time>
      </trkpt>
      <trkpt lat="44.50913" lon="2.13358">
        <ele>432.3</ele>
        <time>2026-07-04T07:46:23Z</time>
      </trkpt>
      <trkpt lat="44.5091" lon="2.13372">
        <ele>433.5</ele>
        <time>2026-07-04T07:46:26Z</time>
      </trkpt>
      <trkpt lat="44.50909" lon="2.13388">
        <ele>434.3</ele>
        <time>2026-07-04T07:46:29Z</time>
      </trkpt>
      <trkpt lat="44.50908" lon="2.13402">
        <ele>435.9</ele>
        <time>2026-07-04T07:46:32Z</time>
      </trkpt>
      <trkpt lat="44.50905" lon="2.13417">
        <ele>437.6</ele>
        <time>2026-07-04T07:46:36Z</time>
      </trkpt>
      <trkpt lat="44.50903" lon="2.13431">
        <ele>438.9</ele>
        <time>2026-07-04T07:46:40Z</time>
      </trkpt>
      <trkpt lat="44.50902" lon="2.13444">
        <ele>441.4</ele>
        <time>2026-07-04T07:46:44Z</time>
      </trkpt>
      <trkpt lat="44.509" lon="2.13458">
        <ele>442.8</ele>
        <time>2026-07-04T07:46:48Z</time>
      </trkpt>
      <trkpt lat="44.50897" lon="2.13472">
        <ele>444.3</ele>
        <time>2026-07-04T07:46:52Z</time>
      </trkpt>
      <trkpt lat="44.50894" lon="2.13487">
        <ele>446</ele>
        <time>2026-07-04T07:46:56Z</time>
      </trkpt>
      <trkpt lat="44.50893" lon="2.13503">
        <ele>447.3</ele>
        <time>2026-07-04T07:47:00Z</time>
      </trkpt>
      <trkpt lat="44.5089" lon="2.13517">
        <ele>448.8</ele>
        <time>2026-07-04T07:47:04Z</time>
      </trkpt>
      <trkpt lat="44.50888" lon="2.1353">
        <ele>450.3</ele>
        <time>2026-07-04T07:47:08Z</time>
      </trkpt>
      <trkpt lat="44.50885" lon="2.13543">
        <ele>451.9</ele>
        <time>2026-07-04T07:47:12Z</time>
      </trkpt>
      <trkpt lat="44.50883" lon="2.13556">
        <ele>453.1</ele>
        <time>2026-07-04T07:47:16Z</time>
      </trkpt>
      <trkpt lat="44.50879" lon="2.13571">
        <ele>454.3</ele>
        <time>2026-07-04T07:47:21Z</time>
      </trkpt>
      <trkpt lat="44.50874" lon="2.13586">
        <ele>455.3</ele>
        <time>2026-07-04T07:47:25Z</time>
      </trkpt>
      <trkpt lat="44.50869" lon="2.136">
        <ele>456.3</ele>
        <time>2026-07-04T07:47:29Z</time>
      </trkpt>
      <trkpt lat="44.50865" lon="2.13612">
        <ele>457</ele>
        <time>2026-07-04T07:47:32Z</time>
      </trkpt>
      <trkpt lat="44.5086" lon="2.13627">
        <ele>457.6</ele>
        <time>2026-07-04T07:47:36Z</time>
      </trkpt>
      <trkpt lat="44.50856" lon="2.13642">
        <ele>458.1</ele>
        <time>2026-07-04T07:47:40Z</time>
      </trkpt>
      <trkpt lat="44.50853" lon="2.13655">
        <ele>458.3</ele>
        <time>2026-07-04T07:47:43Z</time>
      </trkpt>
      <trkpt lat="44.50848" lon="2.13668">
        <ele>458.5</ele>
        <time>2026-07-04T07:47:46Z</time>
      </trkpt>
      <trkpt lat="44.50844" lon="2.13681">
        <ele>458.8</ele>
        <time>2026-07-04T07:47:49Z</time>
      </trkpt>
      <trkpt lat="44.50838" lon="2.13693">
        <ele>459.2</ele>
        <time>2026-07-04T07:47:52Z</time>
      </trkpt>
      <trkpt lat="44.50831" lon="2.13707">
        <ele>459.8</ele>
        <time>2026-07-04T07:47:55Z</time>
      </trkpt>
      <trkpt lat="44.50825" lon="2.13722">
        <ele>460.3</ele>
        <time>2026-07-04T07:47:58Z</time>
      </trkpt>
      <trkpt lat="44.50818" lon="2.13737">
        <ele>460.7</ele>
        <time>2026-07-04T07:48:01Z</time>
      </trkpt>
      <trkpt lat="44.50812" lon="2.13751">
        <ele>461.2</ele>
        <time>2026-07-04T07:48:04Z</time>
      </trkpt>
      <trkpt lat="44.50806" lon="2.13766">
        <ele>461.9</ele>
        <time>2026-07-04T07:48:07Z</time>
      </trkpt>
      <trkpt lat="44.50798" lon="2.13779">
        <ele>462.6</ele>
        <time>2026-07-04T07:48:10Z</time>
      </trkpt>
      <trkpt lat="44.50791" lon="2.13793">
        <ele>463.3</ele>
        <time>2026-07-04T07:48:13Z</time>
      </trkpt>
      <trkpt lat="44.50785" lon="2.13807">
        <ele>463.9</ele>
        <time>2026-07-04T07:48:16Z</time>
      </trkpt>
      <trkpt lat="44.50778" lon="2.13821">
        <ele>464.6</ele>
        <time>2026-07-04T07:48:19Z</time>
      </trkpt>
      <trkpt lat="44.50772" lon="2.13835">
        <ele>465.4</ele>
        <time>2026-07-04T07:48:22Z</time>
      </trkpt>
      <trkpt lat="44.50765" lon="2.13849">
        <ele>465.9</ele>
        <time>2026-07-04T07:48:25Z</time>
      </trkpt>
      <trkpt lat="44.50759" lon="2.13862">
        <ele>466.5</ele>
        <time>2026-07-04T07:48:28Z</time>
      </trkpt>
      <trkpt lat="44.50753" lon="2.13876">
        <ele>467.1</ele>
        <time>2026-07-04T07:48:31Z</time>
      </trkpt>
      <trkpt lat="44.50749" lon="2.13887">
        <ele>467.6</ele>
        <time>2026-07-04T07:48:34Z</time>
      </trkpt>
      <trkpt lat="44.50748" lon="2.1389">
        <ele>467.7</ele>
        <time>2026-07-04T07:48:51Z</time>
      </trkpt>
      <trkpt lat="44.50747" lon="2.13891">
        <ele>467.8</ele>
        <time>2026-07-04T07:48:55Z</time>
      </trkpt>
      <trkpt lat="44.50746" lon="2.13892">
        <ele>467.9</ele>
        <time>2026-07-04T07:49:16Z</time>
      </trkpt>
      <trkpt lat="44.50744" lon="2.13895">
        <ele>468</ele>
        <time>2026-07-04T07:58:10Z</time>
      </trkpt>
      <trkpt lat="44.50745" lon="2.13895">
        <ele>468.1</ele>
        <time>2026-07-04T07:58:41Z</time>
      </trkpt>
      <trkpt lat="44.5074" lon="2.13907">
        <ele>468.5</ele>
        <time>2026-07-04T07:59:00Z</time>
      </trkpt>
      <trkpt lat="44.50741" lon="2.1392">
        <ele>469</ele>
        <time>2026-07-04T07:59:04Z</time>
      </trkpt>
      <trkpt lat="44.50746" lon="2.13932">
        <ele>469.5</ele>
        <time>2026-07-04T07:59:07Z</time>
      </trkpt>
      <trkpt lat="44.5075" lon="2.13946">
        <ele>470.1</ele>
        <time>2026-07-04T07:59:10Z</time>
      </trkpt>
      <trkpt lat="44.50755" lon="2.1396">
        <ele>470.7</ele>
        <time>2026-07-04T07:59:13Z</time>
      </trkpt>
      <trkpt lat="44.50763" lon="2.13972">
        <ele>471.1</ele>
        <time>2026-07-04T07:59:16Z</time>
      </trkpt>
      <trkpt lat="44.50773" lon="2.13981">
        <ele>471.7</ele>
        <time>2026-07-04T07:59:19Z</time>
      </trkpt>
      <trkpt lat="44.50782" lon="2.1399">
        <ele>472.2</ele>
        <time>2026-07-04T07:59:22Z</time>
      </trkpt>
      <trkpt lat="44.50793" lon="2.14">
        <ele>472.5</ele>
        <time>2026-07-04T07:59:25Z</time>
      </trkpt>
      <trkpt lat="44.50804" lon="2.14011">
        <ele>472.6</ele>
        <time>2026-07-04T07:59:28Z</time>
      </trkpt>
      <trkpt lat="44.50811" lon="2.14018">
        <ele>472.6</ele>
        <time>2026-07-04T07:59:30Z</time>
      </trkpt>
      <trkpt lat="44.5082" lon="2.14024">
        <ele>472.7</ele>
        <time>2026-07-04T07:59:32Z</time>
      </trkpt>
      <trkpt lat="44.50828" lon="2.1403">
        <ele>472.8</ele>
        <time>2026-07-04T07:59:34Z</time>
      </trkpt>
      <trkpt lat="44.50836" lon="2.14036">
        <ele>472.9</ele>
        <time>2026-07-04T07:59:36Z</time>
      </trkpt>
      <trkpt lat="44.50845" lon="2.14042">
        <ele>473</ele>
        <time>2026-07-04T07:59:38Z</time>
      </trkpt>
      <trkpt lat="44.50857" lon="2.14049">
        <ele>473.3</ele>
        <time>2026-07-04T07:59:41Z</time>
      </trkpt>
      <trkpt lat="44.50868" lon="2.14056">
        <ele>473.8</ele>
        <time>2026-07-04T07:59:44Z</time>
      </trkpt>
      <trkpt lat="44.5088" lon="2.14063">
        <ele>474.4</ele>
        <time>2026-07-04T07:59:47Z</time>
      </trkpt>
      <trkpt lat="44.50891" lon="2.1407">
        <ele>475.1</ele>
        <time>2026-07-04T07:59:50Z</time>
      </trkpt>
      <trkpt lat="44.50903" lon="2.14076">
        <ele>475.9</ele>
        <time>2026-07-04T07:59:53Z</time>
      </trkpt>
      <trkpt lat="44.50914" lon="2.14081">
        <ele>476.6</ele>
        <time>2026-07-04T07:59:56Z</time>
      </trkpt>
      <trkpt lat="44.50925" lon="2.14088">
        <ele>477.3</ele>
        <time>2026-07-04T07:59:59Z</time>
      </trkpt>
      <trkpt lat="44.50935" lon="2.14096">
        <ele>477.9</ele>
        <time>2026-07-04T08:00:02Z</time>
      </trkpt>
      <trkpt lat="44.50945" lon="2.14105">
        <ele>478.3</ele>
        <time>2026-07-04T08:00:05Z</time>
      </trkpt>
      <trkpt lat="44.50954" lon="2.14114">
        <ele>478.7</ele>
        <time>2026-07-04T08:00:08Z</time>
      </trkpt>
      <trkpt lat="44.50963" lon="2.14124">
        <ele>479.1</ele>
        <time>2026-07-04T08:00:11Z</time>
      </trkpt>
      <trkpt lat="44.50972" lon="2.14134">
        <ele>479.5</ele>
        <time>2026-07-04T08:00:14Z</time>
      </trkpt>
      <trkpt lat="44.50981" lon="2.14145">
        <ele>480</ele>
        <time>2026-07-04T08:00:17Z</time>
      </trkpt>
      <trkpt lat="44.50991" lon="2.14156">
        <ele>480.4</ele>
        <time>2026-07-04T08:00:20Z</time>
      </trkpt>
      <trkpt lat="44.51" lon="2.14167">
        <ele>480.5</ele>
        <time>2026-07-04T08:00:23Z</time>
      </trkpt>
      <trkpt lat="44.51005" lon="2.14183">
        <ele>480.6</ele>
        <time>2026-07-04T08:00:26Z</time>
      </trkpt>
      <trkpt lat="44.51007" lon="2.14201">
        <ele>480.8</ele>
        <time>2026-07-04T08:00:29Z</time>
      </trkpt>
      <trkpt lat="44.51005" lon="2.14219">
        <ele>480.8</ele>
        <time>2026-07-04T08:00:32Z</time>
      </trkpt>
      <trkpt lat="44.50995" lon="2.1423">
        <ele>481.2</ele>
        <time>2026-07-04T08:00:35Z</time>
      </trkpt>
      <trkpt lat="44.50983" lon="2.14234">
        <ele>481.3</ele>
        <time>2026-07-04T08:00:38Z</time>
      </trkpt>
      <trkpt lat="44.5097" lon="2.14239">
        <ele>481.1</ele>
        <time>2026-07-04T08:00:41Z</time>
      </trkpt>
      <trkpt lat="44.5096" lon="2.14245">
        <ele>480.6</ele>
        <time>2026-07-04T08:00:43Z</time>
      </trkpt>
      <trkpt lat="44.50949" lon="2.14251">
        <ele>480.1</ele>
        <time>2026-07-04T08:00:45Z</time>
      </trkpt>
      <trkpt lat="44.50938" lon="2.14257">
        <ele>479.5</ele>
        <time>2026-07-04T08:00:47Z</time>
      </trkpt>
      <trkpt lat="44.50926" lon="2.14264">
        <ele>478.9</ele>
        <time>2026-07-04T08:00:49Z</time>
      </trkpt>
      <trkpt lat="44.50914" lon="2.1427">
        <ele>478.5</ele>
        <time>2026-07-04T08:00:51Z</time>
      </trkpt>
      <trkpt lat="44.50903" lon="2.14276">
        <ele>478.1</ele>
        <time>2026-07-04T08:00:53Z</time>
      </trkpt>
      <trkpt lat="44.50891" lon="2.14283">
        <ele>477.9</ele>
        <time>2026-07-04T08:00:55Z</time>
      </trkpt>
      <trkpt lat="44.50881" lon="2.14289">
        <ele>477.7</ele>
        <time>2026-07-04T08:00:57Z</time>
      </trkpt>
      <trkpt lat="44.5087" lon="2.14295">
        <ele>477.5</ele>
        <time>2026-07-04T08:00:59Z</time>
      </trkpt>
      <trkpt lat="44.5086" lon="2.14304">
        <ele>477.3</ele>
        <time>2026-07-04T08:01:01Z</time>
      </trkpt>
      <trkpt lat="44.50849" lon="2.14312">
        <ele>477.2</ele>
        <time>2026-07-04T08:01:03Z</time>
      </trkpt>
      <trkpt lat="44.50839" lon="2.14321">
        <ele>477.1</ele>
        <time>2026-07-04T08:01:05Z</time>
      </trkpt>
      <trkpt lat="44.50829" lon="2.1433">
        <ele>477</ele>
        <time>2026-07-04T08:01:07Z</time>
      </trkpt>
      <trkpt lat="44.50819" lon="2.14339">
        <ele>476.9</ele>
        <time>2026-07-04T08:01:09Z</time>
      </trkpt>
      <trkpt lat="44.50809" lon="2.14348">
        <ele>476.8</ele>
        <time>2026-07-04T08:01:11Z</time>
      </trkpt>
      <trkpt lat="44.50799" lon="2.14356">
        <ele>476.7</ele>
        <time>2026-07-04T08:01:13Z</time>
      </trkpt>
      <trkpt lat="44.50789" lon="2.14365">
        <ele>476.7</ele>
        <time>2026-07-04T08:01:15Z</time>
      </trkpt>
      <trkpt lat="44.50779" lon="2.14373">
        <ele>476.8</ele>
        <time>2026-07-04T08:01:17Z</time>
      </trkpt>
      <trkpt lat="44.50769" lon="2.1438">
        <ele>477</ele>
        <time>2026-07-04T08:01:19Z</time>
      </trkpt>
      <trkpt lat="44.50759" lon="2.14386">
        <ele>477.2</ele>
        <time>2026-07-04T08:01:21Z</time>
      </trkpt>
      <trkpt lat="44.50749" lon="2.14391">
        <ele>477.4</ele>
        <time>2026-07-04T08:01:23Z</time>
      </trkpt>
      <trkpt lat="44.50739" lon="2.14396">
        <ele>477.6</ele>
        <time>2026-07-04T08:01:25Z</time>
      </trkpt>
      <trkpt lat="44.50729" lon="2.14402">
        <ele>477.8</ele>
        <time>2026-07-04T08:01:27Z</time>
      </trkpt>
      <trkpt lat="44.5072" lon="2.14407">
        <ele>478</ele>
        <time>2026-07-04T08:01:29Z</time>
      </trkpt>
      <trkpt lat="44.5071" lon="2.14412">
        <ele>478.2</ele>
        <time>2026-07-04T08:01:31Z</time>
      </trkpt>
      <trkpt lat="44.507" lon="2.14418">
        <ele>478.4</ele>
        <time>2026-07-04T08:01:33Z</time>
      </trkpt>
      <trkpt lat="44.50691" lon="2.14423">
        <ele>478.5</ele>
        <time>2026-07-04T08:01:35Z</time>
      </trkpt>
      <trkpt lat="44.50681" lon="2.14428">
        <ele>478.6</ele>
        <time>2026-07-04T08:01:37Z</time>
      </trkpt>
      <trkpt lat="44.50672" lon="2.14435">
        <ele>478.8</ele>
        <time>2026-07-04T08:01:39Z</time>
      </trkpt>
      <trkpt lat="44.50663" lon="2.14443">
        <ele>478.8</ele>
        <time>2026-07-04T08:01:41Z</time>
      </trkpt>
      <trkpt lat="44.50654" lon="2.14452">
        <ele>478.8</ele>
        <time>2026-07-04T08:01:43Z</time>
      </trkpt>
      <trkpt lat="44.50645" lon="2.14461">
        <ele>478.8</ele>
        <time>2026-07-04T08:01:45Z</time>
      </trkpt>
      <trkpt lat="44.50637" lon="2.14471">
        <ele>478.8</ele>
        <time>2026-07-04T08:01:47Z</time>
      </trkpt>
      <trkpt lat="44.50629" lon="2.14481">
        <ele>478.8</ele>
        <time>2026-07-04T08:01:49Z</time>
      </trkpt>
      <trkpt lat="44.50621" lon="2.14492">
        <ele>478.8</ele>
        <time>2026-07-04T08:01:51Z</time>
      </trkpt>
      <trkpt lat="44.50612" lon="2.14502">
        <ele>478.8</ele>
        <time>2026-07-04T08:01:53Z</time>
      </trkpt>
      <trkpt lat="44.50604" lon="2.14512">
        <ele>478.9</ele>
        <time>2026-07-04T08:01:55Z</time>
      </trkpt>
      <trkpt lat="44.50596" lon="2.14523">
        <ele>478.9</ele>
        <time>2026-07-04T08:01:57Z</time>
      </trkpt>
      <trkpt lat="44.50588" lon="2.14533">
        <ele>478.9</ele>
        <time>2026-07-04T08:01:59Z</time>
      </trkpt>
      <trkpt lat="44.5058" lon="2.14542">
        <ele>479</ele>
        <time>2026-07-04T08:02:01Z</time>
      </trkpt>
      <trkpt lat="44.50572" lon="2.14552">
        <ele>479.1</ele>
        <time>2026-07-04T08:02:03Z</time>
      </trkpt>
      <trkpt lat="44.50564" lon="2.14561">
        <ele>479.3</ele>
        <time>2026-07-04T08:02:05Z</time>
      </trkpt>
      <trkpt lat="44.50554" lon="2.14564">
        <ele>479.7</ele>
        <time>2026-07-04T08:02:08Z</time>
      </trkpt>
      <trkpt lat="44.50556" lon="2.14552">
        <ele>479.7</ele>
        <time>2026-07-04T08:02:11Z</time>
      </trkpt>
      <trkpt lat="44.50557" lon="2.14533">
        <ele>479.6</ele>
        <time>2026-07-04T08:02:14Z</time>
      </trkpt>
      <trkpt lat="44.50557" lon="2.14519">
        <ele>479.5</ele>
        <time>2026-07-04T08:02:16Z</time>
      </trkpt>
      <trkpt lat="44.50556" lon="2.14504">
        <ele>479.4</ele>
        <time>2026-07-04T08:02:18Z</time>
      </trkpt>
      <trkpt lat="44.50555" lon="2.14489">
        <ele>479.2</ele>
        <time>2026-07-04T08:02:20Z</time>
      </trkpt>
      <trkpt lat="44.50554" lon="2.14473">
        <ele>479</ele>
        <time>2026-07-04T08:02:22Z</time>
      </trkpt>
      <trkpt lat="44.50554" lon="2.14457">
        <ele>478.9</ele>
        <time>2026-07-04T08:02:24Z</time>
      </trkpt>
      <trkpt lat="44.50553" lon="2.14441">
        <ele>478.8</ele>
        <time>2026-07-04T08:02:26Z</time>
      </trkpt>
      <trkpt lat="44.50552" lon="2.14426">
        <ele>478.7</ele>
        <time>2026-07-04T08:02:28Z</time>
      </trkpt>
      <trkpt lat="44.50551" lon="2.14411">
        <ele>478.7</ele>
        <time>2026-07-04T08:02:30Z</time>
      </trkpt>
      <trkpt lat="44.5055" lon="2.14395">
        <ele>478.6</ele>
        <time>2026-07-04T08:02:32Z</time>
      </trkpt>
      <trkpt lat="44.50549" lon="2.1438">
        <ele>478.5</ele>
        <time>2026-07-04T08:02:34Z</time>
      </trkpt>
      <trkpt lat="44.50549" lon="2.14364">
        <ele>478.3</ele>
        <time>2026-07-04T08:02:36Z</time>
      </trkpt>
      <trkpt lat="44.50548" lon="2.14348">
        <ele>478.2</ele>
        <time>2026-07-04T08:02:38Z</time>
      </trkpt>
      <trkpt lat="44.50547" lon="2.14332">
        <ele>478</ele>
        <time>2026-07-04T08:02:40Z</time>
      </trkpt>
      <trkpt lat="44.50546" lon="2.14316">
        <ele>477.9</ele>
        <time>2026-07-04T08:02:42Z</time>
      </trkpt>
      <trkpt lat="44.50545" lon="2.143">
        <ele>477.8</ele>
        <time>2026-07-04T08:02:44Z</time>
      </trkpt>
      <trkpt lat="44.50545" lon="2.14285">
        <ele>477.7</ele>
        <time>2026-07-04T08:02:46Z</time>
      </trkpt>
      <trkpt lat="44.50544" lon="2.1427">
        <ele>477.6</ele>
        <time>2026-07-04T08:02:48Z</time>
      </trkpt>
      <trkpt lat="44.50544" lon="2.14255">
        <ele>477.5</ele>
        <time>2026-07-04T08:02:50Z</time>
      </trkpt>
      <trkpt lat="44.50543" lon="2.14241">
        <ele>477.4</ele>
        <time>2026-07-04T08:02:52Z</time>
      </trkpt>
      <trkpt lat="44.50543" lon="2.14227">
        <ele>477.3</ele>
        <time>2026-07-04T08:02:54Z</time>
      </trkpt>
      <trkpt lat="44.50543" lon="2.14213">
        <ele>477.1</ele>
        <time>2026-07-04T08:02:56Z</time>
      </trkpt>
      <trkpt lat="44.50542" lon="2.14199">
        <ele>476.9</ele>
        <time>2026-07-04T08:02:58Z</time>
      </trkpt>
      <trkpt lat="44.50541" lon="2.14184">
        <ele>476.6</ele>
        <time>2026-07-04T08:03:00Z</time>
      </trkpt>
      <trkpt lat="44.50539" lon="2.14169">
        <ele>476.3</ele>
        <time>2026-07-04T08:03:02Z</time>
      </trkpt>
      <trkpt lat="44.50538" lon="2.14155">
        <ele>475.9</ele>
        <time>2026-07-04T08:03:04Z</time>
      </trkpt>
      <trkpt lat="44.50536" lon="2.1414">
        <ele>475.5</ele>
        <time>2026-07-04T08:03:06Z</time>
      </trkpt>
      <trkpt lat="44.50534" lon="2.14124">
        <ele>475</ele>
        <time>2026-07-04T08:03:08Z</time>
      </trkpt>
      <trkpt lat="44.50532" lon="2.14108">
        <ele>474.5</ele>
        <time>2026-07-04T08:03:10Z</time>
      </trkpt>
      <trkpt lat="44.50529" lon="2.14092">
        <ele>473.9</ele>
        <time>2026-07-04T08:03:12Z</time>
      </trkpt>
      <trkpt lat="44.50526" lon="2.14075">
        <ele>473.2</ele>
        <time>2026-07-04T08:03:14Z</time>
      </trkpt>
      <trkpt lat="44.50524" lon="2.14057">
        <ele>472.4</ele>
        <time>2026-07-04T08:03:16Z</time>
      </trkpt>
      <trkpt lat="44.50522" lon="2.14039">
        <ele>471.7</ele>
        <time>2026-07-04T08:03:18Z</time>
      </trkpt>
      <trkpt lat="44.5052" lon="2.1402">
        <ele>470.9</ele>
        <time>2026-07-04T08:03:20Z</time>
      </trkpt>
      <trkpt lat="44.50518" lon="2.14001">
        <ele>470.2</ele>
        <time>2026-07-04T08:03:22Z</time>
      </trkpt>
      <trkpt lat="44.50516" lon="2.13983">
        <ele>469.7</ele>
        <time>2026-07-04T08:03:24Z</time>
      </trkpt>
      <trkpt lat="44.50515" lon="2.13965">
        <ele>469.2</ele>
        <time>2026-07-04T08:03:26Z</time>
      </trkpt>
      <trkpt lat="44.50516" lon="2.13947">
        <ele>468.8</ele>
        <time>2026-07-04T08:03:28Z</time>
      </trkpt>
      <trkpt lat="44.50516" lon="2.1393">
        <ele>468.4</ele>
        <time>2026-07-04T08:03:30Z</time>
      </trkpt>
      <trkpt lat="44.50518" lon="2.13914">
        <ele>468.1</ele>
        <time>2026-07-04T08:03:32Z</time>
      </trkpt>
      <trkpt lat="44.50521" lon="2.13898">
        <ele>467.7</ele>
        <time>2026-07-04T08:03:34Z</time>
      </trkpt>
      <trkpt lat="44.50523" lon="2.13883">
        <ele>467.2</ele>
        <time>2026-07-04T08:03:36Z</time>
      </trkpt>
      <trkpt lat="44.50526" lon="2.13867">
        <ele>466.7</ele>
        <time>2026-07-04T08:03:38Z</time>
      </trkpt>
      <trkpt lat="44.50528" lon="2.1385">
        <ele>466.3</ele>
        <time>2026-07-04T08:03:40Z</time>
      </trkpt>
      <trkpt lat="44.50528" lon="2.13833">
        <ele>465.8</ele>
        <time>2026-07-04T08:03:42Z</time>
      </trkpt>
      <trkpt lat="44.50526" lon="2.13816">
        <ele>465.3</ele>
        <time>2026-07-04T08:03:44Z</time>
      </trkpt>
      <trkpt lat="44.50527" lon="2.13799">
        <ele>464.8</ele>
        <time>2026-07-04T08:03:46Z</time>
      </trkpt>
      <trkpt lat="44.50531" lon="2.13781">
        <ele>464.5</ele>
        <time>2026-07-04T08:03:48Z</time>
      </trkpt>
      <trkpt lat="44.50537" lon="2.13765">
        <ele>464.3</ele>
        <time>2026-07-04T08:03:50Z</time>
      </trkpt>
      <trkpt lat="44.5054" lon="2.13752">
        <ele>463.7</ele>
        <time>2026-07-04T08:03:52Z</time>
      </trkpt>
      <trkpt lat="44.50535" lon="2.1374">
        <ele>462.5</ele>
        <time>2026-07-04T08:03:54Z</time>
      </trkpt>
      <trkpt lat="44.50527" lon="2.13724">
        <ele>460.5</ele>
        <time>2026-07-04T08:03:56Z</time>
      </trkpt>
      <trkpt lat="44.50519" lon="2.13703">
        <ele>458.3</ele>
        <time>2026-07-04T08:03:58Z</time>
      </trkpt>
      <trkpt lat="44.50513" lon="2.13681">
        <ele>456.4</ele>
        <time>2026-07-04T08:04:00Z</time>
      </trkpt>
      <trkpt lat="44.5051" lon="2.13656">
        <ele>454.6</ele>
        <time>2026-07-04T08:04:02Z</time>
      </trkpt>
      <trkpt lat="44.5051" lon="2.13642">
        <ele>453.5</ele>
        <time>2026-07-04T08:04:03Z</time>
      </trkpt>
      <trkpt lat="44.5051" lon="2.13628">
        <ele>452.6</ele>
        <time>2026-07-04T08:04:04Z</time>
      </trkpt>
      <trkpt lat="44.5051" lon="2.13615">
        <ele>451.7</ele>
        <time>2026-07-04T08:04:05Z</time>
      </trkpt>
      <trkpt lat="44.5051" lon="2.13601">
        <ele>450.8</ele>
        <time>2026-07-04T08:04:06Z</time>
      </trkpt>
      <trkpt lat="44.50509" lon="2.13587">
        <ele>450</ele>
        <time>2026-07-04T08:04:07Z</time>
      </trkpt>
      <trkpt lat="44.50509" lon="2.13574">
        <ele>449.2</ele>
        <time>2026-07-04T08:04:08Z</time>
      </trkpt>
      <trkpt lat="44.5051" lon="2.1356">
        <ele>448.5</ele>
        <time>2026-07-04T08:04:09Z</time>
      </trkpt>
      <trkpt lat="44.50509" lon="2.13546">
        <ele>447.9</ele>
        <time>2026-07-04T08:04:10Z</time>
      </trkpt>
      <trkpt lat="44.50509" lon="2.13533">
        <ele>447.2</ele>
        <time>2026-07-04T08:04:11Z</time>
      </trkpt>
      <trkpt lat="44.50507" lon="2.13519">
        <ele>446.5</ele>
        <time>2026-07-04T08:04:12Z</time>
      </trkpt>
      <trkpt lat="44.50505" lon="2.13505">
        <ele>445.8</ele>
        <time>2026-07-04T08:04:13Z</time>
      </trkpt>
      <trkpt lat="44.50503" lon="2.13491">
        <ele>445.1</ele>
        <time>2026-07-04T08:04:14Z</time>
      </trkpt>
      <trkpt lat="44.50501" lon="2.13478">
        <ele>444.5</ele>
        <time>2026-07-04T08:04:15Z</time>
      </trkpt>
      <trkpt lat="44.50499" lon="2.13464">
        <ele>443.9</ele>
        <time>2026-07-04T08:04:16Z</time>
      </trkpt>
      <trkpt lat="44.50497" lon="2.1345">
        <ele>443.5</ele>
        <time>2026-07-04T08:04:17Z</time>
      </trkpt>
      <trkpt lat="44.50495" lon="2.13436">
        <ele>443</ele>
        <time>2026-07-04T08:04:18Z</time>
      </trkpt>
      <trkpt lat="44.50495" lon="2.13423">
        <ele>442.6</ele>
        <time>2026-07-04T08:04:19Z</time>
      </trkpt>
      <trkpt lat="44.50495" lon="2.13409">
        <ele>442.3</ele>
        <time>2026-07-04T08:04:20Z</time>
      </trkpt>
      <trkpt lat="44.50496" lon="2.1339">
        <ele>441.8</ele>
        <time>2026-07-04T08:04:22Z</time>
      </trkpt>
      <trkpt lat="44.50486" lon="2.1338">
        <ele>441.1</ele>
        <time>2026-07-04T08:04:25Z</time>
      </trkpt>
      <trkpt lat="44.50477" lon="2.13378">
        <ele>440.3</ele>
        <time>2026-07-04T08:04:27Z</time>
      </trkpt>
      <trkpt lat="44.50466" lon="2.13375">
        <ele>439.3</ele>
        <time>2026-07-04T08:04:29Z</time>
      </trkpt>
      <trkpt lat="44.50454" lon="2.13371">
        <ele>438.2</ele>
        <time>2026-07-04T08:04:31Z</time>
      </trkpt>
      <trkpt lat="44.50441" lon="2.13367">
        <ele>436.9</ele>
        <time>2026-07-04T08:04:33Z</time>
      </trkpt>
      <trkpt lat="44.50427" lon="2.13364">
        <ele>435.7</ele>
        <time>2026-07-04T08:04:35Z</time>
      </trkpt>
      <trkpt lat="44.50414" lon="2.1336">
        <ele>434.9</ele>
        <time>2026-07-04T08:04:37Z</time>
      </trkpt>
      <trkpt lat="44.504" lon="2.13355">
        <ele>434.3</ele>
        <time>2026-07-04T08:04:39Z</time>
      </trkpt>
      <trkpt lat="44.50388" lon="2.13349">
        <ele>433.5</ele>
        <time>2026-07-04T08:04:41Z</time>
      </trkpt>
      <trkpt lat="44.50375" lon="2.13345">
        <ele>432</ele>
        <time>2026-07-04T08:04:43Z</time>
      </trkpt>
      <trkpt lat="44.50358" lon="2.13346">
        <ele>429.4</ele>
        <time>2026-07-04T08:04:45Z</time>
      </trkpt>
      <trkpt lat="44.50341" lon="2.13348">
        <ele>426.3</ele>
        <time>2026-07-04T08:04:47Z</time>
      </trkpt>
      <trkpt lat="44.50332" lon="2.13348">
        <ele>424.6</ele>
        <time>2026-07-04T08:04:48Z</time>
      </trkpt>
      <trkpt lat="44.50323" lon="2.13346">
        <ele>422.8</ele>
        <time>2026-07-04T08:04:49Z</time>
      </trkpt>
      <trkpt lat="44.50313" lon="2.13343">
        <ele>421.3</ele>
        <time>2026-07-04T08:04:50Z</time>
      </trkpt>
      <trkpt lat="44.50303" lon="2.13341">
        <ele>420.1</ele>
        <time>2026-07-04T08:04:51Z</time>
      </trkpt>
      <trkpt lat="44.50293" lon="2.13341">
        <ele>419.1</ele>
        <time>2026-07-04T08:04:52Z</time>
      </trkpt>
      <trkpt lat="44.50284" lon="2.13342">
        <ele>418.3</ele>
        <time>2026-07-04T08:04:53Z</time>
      </trkpt>
      <trkpt lat="44.50275" lon="2.13345">
        <ele>417.5</ele>
        <time>2026-07-04T08:04:54Z</time>
      </trkpt>
      <trkpt lat="44.50258" lon="2.13352">
        <ele>415.9</ele>
        <time>2026-07-04T08:04:56Z</time>
      </trkpt>
      <trkpt lat="44.50242" lon="2.13359">
        <ele>413.8</ele>
        <time>2026-07-04T08:04:58Z</time>
      </trkpt>
      <trkpt lat="44.50233" lon="2.13361">
        <ele>412.3</ele>
        <time>2026-07-04T08:04:59Z</time>
      </trkpt>
      <trkpt lat="44.50224" lon="2.13363">
        <ele>410.6</ele>
        <time>2026-07-04T08:05:00Z</time>
      </trkpt>
      <trkpt lat="44.50207" lon="2.13369">
        <ele>407</ele>
        <time>2026-07-04T08:05:02Z</time>
      </trkpt>
      <trkpt lat="44.50192" lon="2.13375">
        <ele>403.7</ele>
        <time>2026-07-04T08:05:04Z</time>
      </trkpt>
      <trkpt lat="44.50183" lon="2.13377">
        <ele>401.8</ele>
        <time>2026-07-04T08:05:05Z</time>
      </trkpt>
      <trkpt lat="44.50167" lon="2.13377">
        <ele>398.7</ele>
        <time>2026-07-04T08:05:07Z</time>
      </trkpt>
      <trkpt lat="44.50155" lon="2.13385">
        <ele>395.9</ele>
        <time>2026-07-04T08:05:09Z</time>
      </trkpt>
      <trkpt lat="44.50145" lon="2.13394">
        <ele>393</ele>
        <time>2026-07-04T08:05:11Z</time>
      </trkpt>
      <trkpt lat="44.50131" lon="2.13402">
        <ele>388.9</ele>
        <time>2026-07-04T08:05:13Z</time>
      </trkpt>
      <trkpt lat="44.50115" lon="2.13409">
        <ele>384.2</ele>
        <time>2026-07-04T08:05:15Z</time>
      </trkpt>
      <trkpt lat="44.501" lon="2.13416">
        <ele>379.7</ele>
        <time>2026-07-04T08:05:17Z</time>
      </trkpt>
      <trkpt lat="44.50087" lon="2.13426">
        <ele>375.6</ele>
        <time>2026-07-04T08:05:19Z</time>
      </trkpt>
      <trkpt lat="44.50074" lon="2.1343">
        <ele>372.1</ele>
        <time>2026-07-04T08:05:21Z</time>
      </trkpt>
      <trkpt lat="44.50073" lon="2.13445">
        <ele>369.2</ele>
        <time>2026-07-04T08:05:26Z</time>
      </trkpt>
      <trkpt lat="44.50081" lon="2.13454">
        <ele>366.4</ele>
        <time>2026-07-04T08:05:28Z</time>
      </trkpt>
      <trkpt lat="44.5009" lon="2.13461">
        <ele>363.4</ele>
        <time>2026-07-04T08:05:30Z</time>
      </trkpt>
      <trkpt lat="44.50099" lon="2.13468">
        <ele>360.2</ele>
        <time>2026-07-04T08:05:32Z</time>
      </trkpt>
      <trkpt lat="44.50111" lon="2.13479">
        <ele>356.1</ele>
        <time>2026-07-04T08:05:34Z</time>
      </trkpt>
      <trkpt lat="44.50124" lon="2.13489">
        <ele>352.2</ele>
        <time>2026-07-04T08:05:36Z</time>
      </trkpt>
      <trkpt lat="44.50133" lon="2.13494">
        <ele>350.2</ele>
        <time>2026-07-04T08:05:38Z</time>
      </trkpt>
      <trkpt lat="44.50129" lon="2.13495">
        <ele>349.4</ele>
        <time>2026-07-04T08:05:55Z</time>
      </trkpt>
      <trkpt lat="44.50119" lon="2.13498">
        <ele>347.3</ele>
        <time>2026-07-04T08:06:39Z</time>
      </trkpt>
      <trkpt lat="44.50119" lon="2.13498">
        <ele>347.3</ele>
        <time>2026-07-04T08:06:40Z</time>
      </trkpt>
      <trkpt lat="44.50106" lon="2.13501">
        <ele>344.7</ele>
        <time>2026-07-04T08:06:42Z</time>
      </trkpt>
      <trkpt lat="44.50087" lon="2.13504">
        <ele>341.3</ele>
        <time>2026-07-04T08:06:44Z</time>
      </trkpt>
      <trkpt lat="44.50078" lon="2.13506">
        <ele>339.7</ele>
        <time>2026-07-04T08:06:45Z</time>
      </trkpt>
      <trkpt lat="44.50068" lon="2.13507">
        <ele>338.4</ele>
        <time>2026-07-04T08:06:46Z</time>
      </trkpt>
      <trkpt lat="44.50052" lon="2.13506">
        <ele>336.7</ele>
        <time>2026-07-04T08:06:48Z</time>
      </trkpt>
      <trkpt lat="44.50039" lon="2.13507">
        <ele>335.2</ele>
        <time>2026-07-04T08:06:50Z</time>
      </trkpt>
      <trkpt lat="44.50024" lon="2.13504">
        <ele>333.1</ele>
        <time>2026-07-04T08:06:52Z</time>
      </trkpt>
      <trkpt lat="44.50008" lon="2.13502">
        <ele>330.7</ele>
        <time>2026-07-04T08:06:54Z</time>
      </trkpt>
      <trkpt lat="44.49993" lon="2.13499">
        <ele>328.2</ele>
        <time>2026-07-04T08:06:56Z</time>
      </trkpt>
      <trkpt lat="44.49983" lon="2.13496">
        <ele>326.1</ele>
        <time>2026-07-04T08:06:58Z</time>
      </trkpt>
      <trkpt lat="44.49971" lon="2.1349">
        <ele>323.3</ele>
        <time>2026-07-04T08:07:01Z</time>
      </trkpt>
      <trkpt lat="44.49959" lon="2.13482">
        <ele>320</ele>
        <time>2026-07-04T08:07:04Z</time>
      </trkpt>
      <trkpt lat="44.49947" lon="2.13473">
        <ele>317</ele>
        <time>2026-07-04T08:07:06Z</time>
      </trkpt>
      <trkpt lat="44.49938" lon="2.13468">
        <ele>314.7</ele>
        <time>2026-07-04T08:07:08Z</time>
      </trkpt>
      <trkpt lat="44.49933" lon="2.13479">
        <ele>312.2</ele>
        <time>2026-07-04T08:07:13Z</time>
      </trkpt>
      <trkpt lat="44.49938" lon="2.13496">
        <ele>308.2</ele>
        <time>2026-07-04T08:07:16Z</time>
      </trkpt>
      <trkpt lat="44.49941" lon="2.13509">
        <ele>305.4</ele>
        <time>2026-07-04T08:07:18Z</time>
      </trkpt>
      <trkpt lat="44.49944" lon="2.13522">
        <ele>302.7</ele>
        <time>2026-07-04T08:07:21Z</time>
      </trkpt>
      <trkpt lat="44.49945" lon="2.13535">
        <ele>300.3</ele>
        <time>2026-07-04T08:07:23Z</time>
      </trkpt>
      <trkpt lat="44.49943" lon="2.13552">
        <ele>297.4</ele>
        <time>2026-07-04T08:07:26Z</time>
      </trkpt>
      <trkpt lat="44.49944" lon="2.13567">
        <ele>295.9</ele>
        <time>2026-07-04T08:07:40Z</time>
      </trkpt>
      <trkpt lat="44.49941" lon="2.13579">
        <ele>295.2</ele>
        <time>2026-07-04T08:07:55Z</time>
      </trkpt>
      <trkpt lat="44.49942" lon="2.13592">
        <ele>294.8</ele>
        <time>2026-07-04T08:08:14Z</time>
      </trkpt>
      <trkpt lat="44.49943" lon="2.13605">
        <ele>294.9</ele>
        <time>2026-07-04T08:08:19Z</time>
      </trkpt>
      <trkpt lat="44.49942" lon="2.13622">
        <ele>295.9</ele>
        <time>2026-07-04T08:08:23Z</time>
      </trkpt>
      <trkpt lat="44.49942" lon="2.13636">
        <ele>296.5</ele>
        <time>2026-07-04T08:08:26Z</time>
      </trkpt>
      <trkpt lat="44.49943" lon="2.1365">
        <ele>297</ele>
        <time>2026-07-04T08:08:29Z</time>
      </trkpt>
      <trkpt lat="44.49943" lon="2.13665">
        <ele>297.4</ele>
        <time>2026-07-04T08:08:32Z</time>
      </trkpt>
      <trkpt lat="44.49942" lon="2.13678">
        <ele>298.3</ele>
        <time>2026-07-04T08:08:35Z</time>
      </trkpt>
      <trkpt lat="44.49943" lon="2.13692">
        <ele>299.5</ele>
        <time>2026-07-04T08:08:38Z</time>
      </trkpt>
      <trkpt lat="44.49944" lon="2.13705">
        <ele>301</ele>
        <time>2026-07-04T08:08:41Z</time>
      </trkpt>
      <trkpt lat="44.49945" lon="2.13721">
        <ele>303.6</ele>
        <time>2026-07-04T08:08:45Z</time>
      </trkpt>
      <trkpt lat="44.4994" lon="2.13732">
        <ele>303.6</ele>
        <time>2026-07-04T08:08:49Z</time>
      </trkpt>
      <trkpt lat="44.49939" lon="2.13745">
        <ele>304.3</ele>
        <time>2026-07-04T08:08:53Z</time>
      </trkpt>
      <trkpt lat="44.49936" lon="2.13758">
        <ele>304.6</ele>
        <time>2026-07-04T08:08:56Z</time>
      </trkpt>
      <trkpt lat="44.49932" lon="2.13772">
        <ele>304.7</ele>
        <time>2026-07-04T08:09:00Z</time>
      </trkpt>
      <trkpt lat="44.49932" lon="2.13786">
        <ele>305.7</ele>
        <time>2026-07-04T08:09:04Z</time>
      </trkpt>
      <trkpt lat="44.49928" lon="2.13798">
        <ele>306.5</ele>
        <time>2026-07-04T08:09:09Z</time>
      </trkpt>
      <trkpt lat="44.49925" lon="2.13812">
        <ele>307.4</ele>
        <time>2026-07-04T08:09:16Z</time>
      </trkpt>
      <trkpt lat="44.49919" lon="2.13821">
        <ele>307.4</ele>
        <time>2026-07-04T08:09:32Z</time>
      </trkpt>
      <trkpt lat="44.49909" lon="2.13821">
        <ele>307</ele>
        <time>2026-07-04T08:09:44Z</time>
      </trkpt>
      <trkpt lat="44.49902" lon="2.13812">
        <ele>306.3</ele>
        <time>2026-07-04T08:09:50Z</time>
      </trkpt>
      <trkpt lat="44.499" lon="2.13797">
        <ele>307.2</ele>
        <time>2026-07-04T08:09:54Z</time>
      </trkpt>
      <trkpt lat="44.499" lon="2.13782">
        <ele>307.7</ele>
        <time>2026-07-04T08:09:58Z</time>
      </trkpt>
      <trkpt lat="44.49901" lon="2.13766">
        <ele>307.7</ele>
        <time>2026-07-04T08:10:02Z</time>
      </trkpt>
      <trkpt lat="44.49903" lon="2.13749">
        <ele>307.9</ele>
        <time>2026-07-04T08:10:06Z</time>
      </trkpt>
      <trkpt lat="44.499" lon="2.13734">
        <ele>308.1</ele>
        <time>2026-07-04T08:10:09Z</time>
      </trkpt>
      <trkpt lat="44.49901" lon="2.1372">
        <ele>308.1</ele>
        <time>2026-07-04T08:10:12Z</time>
      </trkpt>
      <trkpt lat="44.49906" lon="2.13705">
        <ele>307.9</ele>
        <time>2026-07-04T08:10:15Z</time>
      </trkpt>
      <trkpt lat="44.4991" lon="2.1369">
        <ele>307.1</ele>
        <time>2026-07-04T08:10:18Z</time>
      </trkpt>
      <trkpt lat="44.49909" lon="2.13671">
        <ele>305.8</ele>
        <time>2026-07-04T08:10:21Z</time>
      </trkpt>
      <trkpt lat="44.49909" lon="2.13654">
        <ele>304.4</ele>
        <time>2026-07-04T08:10:23Z</time>
      </trkpt>
      <trkpt lat="44.49907" lon="2.13635">
        <ele>302.8</ele>
        <time>2026-07-04T08:10:25Z</time>
      </trkpt>
      <trkpt lat="44.49904" lon="2.13615">
        <ele>301.6</ele>
        <time>2026-07-04T08:10:27Z</time>
      </trkpt>
      <trkpt lat="44.49901" lon="2.13596">
        <ele>301.3</ele>
        <time>2026-07-04T08:10:29Z</time>
      </trkpt>
      <trkpt lat="44.49897" lon="2.13579">
        <ele>301.4</ele>
        <time>2026-07-04T08:10:31Z</time>
      </trkpt>
      <trkpt lat="44.49891" lon="2.13565">
        <ele>301.3</ele>
        <time>2026-07-04T08:10:33Z</time>
      </trkpt>
      <trkpt lat="44.49881" lon="2.13552">
        <ele>301</ele>
        <time>2026-07-04T08:10:35Z</time>
      </trkpt>
      <trkpt lat="44.49871" lon="2.13539">
        <ele>300.5</ele>
        <time>2026-07-04T08:10:37Z</time>
      </trkpt>
      <trkpt lat="44.49862" lon="2.13525">
        <ele>300.2</ele>
        <time>2026-07-04T08:10:39Z</time>
      </trkpt>
      <trkpt lat="44.49855" lon="2.13512">
        <ele>300.3</ele>
        <time>2026-07-04T08:10:41Z</time>
      </trkpt>
      <trkpt lat="44.49849" lon="2.13501">
        <ele>300.7</ele>
        <time>2026-07-04T08:10:43Z</time>
      </trkpt>
      <trkpt lat="44.49843" lon="2.13491">
        <ele>301.3</ele>
        <time>2026-07-04T08:10:45Z</time>
      </trkpt>
      <trkpt lat="44.49838" lon="2.13475">
        <ele>302.3</ele>
        <time>2026-07-04T08:10:48Z</time>
      </trkpt>
      <trkpt lat="44.49834" lon="2.13457">
        <ele>302.8</ele>
        <time>2026-07-04T08:10:51Z</time>
      </trkpt>
      <trkpt lat="44.49831" lon="2.1344">
        <ele>302.9</ele>
        <time>2026-07-04T08:10:54Z</time>
      </trkpt>
      <trkpt lat="44.49834" lon="2.13422">
        <ele>302.4</ele>
        <time>2026-07-04T08:10:57Z</time>
      </trkpt>
      <trkpt lat="44.49839" lon="2.13405">
        <ele>301.1</ele>
        <time>2026-07-04T08:10:59Z</time>
      </trkpt>
      <trkpt lat="44.49847" lon="2.13388">
        <ele>299.7</ele>
        <time>2026-07-04T08:11:01Z</time>
      </trkpt>
      <trkpt lat="44.49853" lon="2.13375">
        <ele>298.7</ele>
        <time>2026-07-04T08:11:03Z</time>
      </trkpt>
      <trkpt lat="44.49859" lon="2.13364">
        <ele>298.1</ele>
        <time>2026-07-04T08:11:05Z</time>
      </trkpt>
      <trkpt lat="44.49865" lon="2.13354">
        <ele>297.5</ele>
        <time>2026-07-04T08:11:08Z</time>
      </trkpt>
      <trkpt lat="44.49868" lon="2.13339">
        <ele>296.9</ele>
        <time>2026-07-04T08:11:16Z</time>
      </trkpt>
      <trkpt lat="44.49872" lon="2.13325">
        <ele>296.3</ele>
        <time>2026-07-04T08:11:21Z</time>
      </trkpt>
      <trkpt lat="44.49877" lon="2.13312">
        <ele>295.7</ele>
        <time>2026-07-04T08:11:26Z</time>
      </trkpt>
      <trkpt lat="44.49882" lon="2.133">
        <ele>295.2</ele>
        <time>2026-07-04T08:11:30Z</time>
      </trkpt>
      <trkpt lat="44.49889" lon="2.13287">
        <ele>294.8</ele>
        <time>2026-07-04T08:11:34Z</time>
      </trkpt>
      <trkpt lat="44.49895" lon="2.13275">
        <ele>294.3</ele>
        <time>2026-07-04T08:11:38Z</time>
      </trkpt>
      <trkpt lat="44.49902" lon="2.13265">
        <ele>293.8</ele>
        <time>2026-07-04T08:11:41Z</time>
      </trkpt>
      <trkpt lat="44.49909" lon="2.13256">
        <ele>293.3</ele>
        <time>2026-07-04T08:11:45Z</time>
      </trkpt>
      <trkpt lat="44.49914" lon="2.13245">
        <ele>293.7</ele>
        <time>2026-07-04T08:11:49Z</time>
      </trkpt>
      <trkpt lat="44.49921" lon="2.13233">
        <ele>293.8</ele>
        <time>2026-07-04T08:11:53Z</time>
      </trkpt>
      <trkpt lat="44.49927" lon="2.13221">
        <ele>293.4</ele>
        <time>2026-07-04T08:11:57Z</time>
      </trkpt>
      <trkpt lat="44.49931" lon="2.13209">
        <ele>295.2</ele>
        <time>2026-07-04T08:12:01Z</time>
      </trkpt>
      <trkpt lat="44.49935" lon="2.13195">
        <ele>296.8</ele>
        <time>2026-07-04T08:12:06Z</time>
      </trkpt>
      <trkpt lat="44.49937" lon="2.13183">
        <ele>298.2</ele>
        <time>2026-07-04T08:12:10Z</time>
      </trkpt>
      <trkpt lat="44.49936" lon="2.13169">
        <ele>301.9</ele>
        <time>2026-07-04T08:12:14Z</time>
      </trkpt>
      <trkpt lat="44.49934" lon="2.13154">
        <ele>306.3</ele>
        <time>2026-07-04T08:12:18Z</time>
      </trkpt>
      <trkpt lat="44.49931" lon="2.13139">
        <ele>310.6</ele>
        <time>2026-07-04T08:12:22Z</time>
      </trkpt>
      <trkpt lat="44.49929" lon="2.13124">
        <ele>316.5</ele>
        <time>2026-07-04T08:12:26Z</time>
      </trkpt>
      <trkpt lat="44.49926" lon="2.1311">
        <ele>319.6</ele>
        <time>2026-07-04T08:12:30Z</time>
      </trkpt>
      <trkpt lat="44.49923" lon="2.13098">
        <ele>326.3</ele>
        <time>2026-07-04T08:12:33Z</time>
      </trkpt>
      <trkpt lat="44.49916" lon="2.13108">
        <ele>329.4</ele>
        <time>2026-07-04T08:12:43Z</time>
      </trkpt>
      <trkpt lat="44.49918" lon="2.13122">
        <ele>325.9</ele>
        <time>2026-07-04T08:12:49Z</time>
      </trkpt>
      <trkpt lat="44.49918" lon="2.13135">
        <ele>324.3</ele>
        <time>2026-07-04T08:12:54Z</time>
      </trkpt>
      <trkpt lat="44.49914" lon="2.13148">
        <ele>323.6</ele>
        <time>2026-07-04T08:13:00Z</time>
      </trkpt>
      <trkpt lat="44.49907" lon="2.13159">
        <ele>328.5</ele>
        <time>2026-07-04T08:13:05Z</time>
      </trkpt>
      <trkpt lat="44.49901" lon="2.13172">
        <ele>330.3</ele>
        <time>2026-07-04T08:13:10Z</time>
      </trkpt>
      <trkpt lat="44.49894" lon="2.13181">
        <ele>333.1</ele>
        <time>2026-07-04T08:13:14Z</time>
      </trkpt>
      <trkpt lat="44.49886" lon="2.13192">
        <ele>337</ele>
        <time>2026-07-04T08:13:19Z</time>
      </trkpt>
      <trkpt lat="44.49877" lon="2.13199">
        <ele>342.5</ele>
        <time>2026-07-04T08:13:24Z</time>
      </trkpt>
      <trkpt lat="44.49868" lon="2.13207">
        <ele>344.5</ele>
        <time>2026-07-04T08:13:29Z</time>
      </trkpt>
      <trkpt lat="44.4986" lon="2.13217">
        <ele>346.8</ele>
        <time>2026-07-04T08:13:34Z</time>
      </trkpt>
      <trkpt lat="44.49852" lon="2.13227">
        <ele>350.4</ele>
        <time>2026-07-04T08:13:39Z</time>
      </trkpt>
      <trkpt lat="44.49852" lon="2.13214">
        <ele>352.6</ele>
        <time>2026-07-04T08:13:53Z</time>
      </trkpt>
      <trkpt lat="44.49855" lon="2.132">
        <ele>355</ele>
        <time>2026-07-04T08:13:59Z</time>
      </trkpt>
      <trkpt lat="44.49861" lon="2.1319">
        <ele>357.1</ele>
        <time>2026-07-04T08:14:04Z</time>
      </trkpt>
      <trkpt lat="44.49865" lon="2.13178">
        <ele>358.9</ele>
        <time>2026-07-04T08:14:09Z</time>
      </trkpt>
      <trkpt lat="44.49868" lon="2.13164">
        <ele>360.8</ele>
        <time>2026-07-04T08:14:14Z</time>
      </trkpt>
      <trkpt lat="44.4987" lon="2.13151">
        <ele>362.5</ele>
        <time>2026-07-04T08:14:19Z</time>
      </trkpt>
      <trkpt lat="44.4987" lon="2.13137">
        <ele>364.5</ele>
        <time>2026-07-04T08:14:24Z</time>
      </trkpt>
      <trkpt lat="44.49865" lon="2.13147">
        <ele>365.1</ele>
        <time>2026-07-04T08:14:29Z</time>
      </trkpt>
      <trkpt lat="44.4986" lon="2.13158">
        <ele>365.8</ele>
        <time>2026-07-04T08:14:32Z</time>
      </trkpt>
      <trkpt lat="44.49853" lon="2.13169">
        <ele>366.5</ele>
        <time>2026-07-04T08:14:35Z</time>
      </trkpt>
      <trkpt lat="44.49844" lon="2.13178">
        <ele>367.3</ele>
        <time>2026-07-04T08:14:38Z</time>
      </trkpt>
      <trkpt lat="44.49837" lon="2.13187">
        <ele>368</ele>
        <time>2026-07-04T08:14:41Z</time>
      </trkpt>
      <trkpt lat="44.49828" lon="2.13196">
        <ele>368.8</ele>
        <time>2026-07-04T08:14:44Z</time>
      </trkpt>
      <trkpt lat="44.49818" lon="2.13202">
        <ele>369.7</ele>
        <time>2026-07-04T08:14:47Z</time>
      </trkpt>
      <trkpt lat="44.49807" lon="2.13202">
        <ele>370.6</ele>
        <time>2026-07-04T08:14:50Z</time>
      </trkpt>
      <trkpt lat="44.49795" lon="2.13201">
        <ele>371.6</ele>
        <time>2026-07-04T08:14:53Z</time>
      </trkpt>
      <trkpt lat="44.49784" lon="2.13206">
        <ele>372.4</ele>
        <time>2026-07-04T08:14:56Z</time>
      </trkpt>
      <trkpt lat="44.49775" lon="2.13215">
        <ele>373.2</ele>
        <time>2026-07-04T08:14:59Z</time>
      </trkpt>
      <trkpt lat="44.49768" lon="2.13226">
        <ele>374</ele>
        <time>2026-07-04T08:15:02Z</time>
      </trkpt>
      <trkpt lat="44.49761" lon="2.13238">
        <ele>374.8</ele>
        <time>2026-07-04T08:15:05Z</time>
      </trkpt>
      <trkpt lat="44.49754" lon="2.13249">
        <ele>375.6</ele>
        <time>2026-07-04T08:15:08Z</time>
      </trkpt>
      <trkpt lat="44.49746" lon="2.1326">
        <ele>376.4</ele>
        <time>2026-07-04T08:15:11Z</time>
      </trkpt>
      <trkpt lat="44.4974" lon="2.13271">
        <ele>377.1</ele>
        <time>2026-07-04T08:15:14Z</time>
      </trkpt>
      <trkpt lat="44.49736" lon="2.13285">
        <ele>377.7</ele>
        <time>2026-07-04T08:15:17Z</time>
      </trkpt>
      <trkpt lat="44.49736" lon="2.133">
        <ele>378.3</ele>
        <time>2026-07-04T08:15:20Z</time>
      </trkpt>
      <trkpt lat="44.49738" lon="2.13315">
        <ele>378.9</ele>
        <time>2026-07-04T08:15:23Z</time>
      </trkpt>
      <trkpt lat="44.49738" lon="2.13331">
        <ele>379.6</ele>
        <time>2026-07-04T08:15:26Z</time>
      </trkpt>
      <trkpt lat="44.49732" lon="2.13345">
        <ele>380.3</ele>
        <time>2026-07-04T08:15:29Z</time>
      </trkpt>
      <trkpt lat="44.49723" lon="2.13353">
        <ele>381.1</ele>
        <time>2026-07-04T08:15:32Z</time>
      </trkpt>
      <trkpt lat="44.49713" lon="2.13359">
        <ele>382.1</ele>
        <time>2026-07-04T08:15:35Z</time>
      </trkpt>
      <trkpt lat="44.49703" lon="2.13364">
        <ele>383</ele>
        <time>2026-07-04T08:15:38Z</time>
      </trkpt>
      <trkpt lat="44.49695" lon="2.13373">
        <ele>383.9</ele>
        <time>2026-07-04T08:15:41Z</time>
      </trkpt>
      <trkpt lat="44.49687" lon="2.13385">
        <ele>384.8</ele>
        <time>2026-07-04T08:15:44Z</time>
      </trkpt>
      <trkpt lat="44.49682" lon="2.13397">
        <ele>385.6</ele>
        <time>2026-07-04T08:15:47Z</time>
      </trkpt>
      <trkpt lat="44.49678" lon="2.13412">
        <ele>386.5</ele>
        <time>2026-07-04T08:15:50Z</time>
      </trkpt>
      <trkpt lat="44.49677" lon="2.13429">
        <ele>387.3</ele>
        <time>2026-07-04T08:15:53Z</time>
      </trkpt>
      <trkpt lat="44.4968" lon="2.13445">
        <ele>388.1</ele>
        <time>2026-07-04T08:15:56Z</time>
      </trkpt>
      <trkpt lat="44.49685" lon="2.1346">
        <ele>388.9</ele>
        <time>2026-07-04T08:15:59Z</time>
      </trkpt>
      <trkpt lat="44.4969" lon="2.13474">
        <ele>389.6</ele>
        <time>2026-07-04T08:16:02Z</time>
      </trkpt>
      <trkpt lat="44.49695" lon="2.13488">
        <ele>390.3</ele>
        <time>2026-07-04T08:16:05Z</time>
      </trkpt>
      <trkpt lat="44.49697" lon="2.13501">
        <ele>390.9</ele>
        <time>2026-07-04T08:16:08Z</time>
      </trkpt>
      <trkpt lat="44.49697" lon="2.13516">
        <ele>391.5</ele>
        <time>2026-07-04T08:16:11Z</time>
      </trkpt>
      <trkpt lat="44.49695" lon="2.1353">
        <ele>392.1</ele>
        <time>2026-07-04T08:16:14Z</time>
      </trkpt>
      <trkpt lat="44.49688" lon="2.13542">
        <ele>392.9</ele>
        <time>2026-07-04T08:16:17Z</time>
      </trkpt>
      <trkpt lat="44.49681" lon="2.13554">
        <ele>393.7</ele>
        <time>2026-07-04T08:16:20Z</time>
      </trkpt>
      <trkpt lat="44.49674" lon="2.13565">
        <ele>394.5</ele>
        <time>2026-07-04T08:16:23Z</time>
      </trkpt>
      <trkpt lat="44.49667" lon="2.13577">
        <ele>395.3</ele>
        <time>2026-07-04T08:16:26Z</time>
      </trkpt>
      <trkpt lat="44.49662" lon="2.13589">
        <ele>396.1</ele>
        <time>2026-07-04T08:16:29Z</time>
      </trkpt>
      <trkpt lat="44.49657" lon="2.13603">
        <ele>397</ele>
        <time>2026-07-04T08:16:32Z</time>
      </trkpt>
      <trkpt lat="44.49651" lon="2.13617">
        <ele>397.8</ele>
        <time>2026-07-04T08:16:35Z</time>
      </trkpt>
      <trkpt lat="44.49644" lon="2.13629">
        <ele>398.7</ele>
        <time>2026-07-04T08:16:38Z</time>
      </trkpt>
      <trkpt lat="44.49636" lon="2.1364">
        <ele>399.5</ele>
        <time>2026-07-04T08:16:41Z</time>
      </trkpt>
      <trkpt lat="44.49629" lon="2.13652">
        <ele>400.2</ele>
        <time>2026-07-04T08:16:44Z</time>
      </trkpt>
      <trkpt lat="44.49622" lon="2.13661">
        <ele>400.7</ele>
        <time>2026-07-04T08:16:47Z</time>
      </trkpt>
      <trkpt lat="44.49625" lon="2.13647">
        <ele>402.4</ele>
        <time>2026-07-04T08:16:52Z</time>
      </trkpt>
      <trkpt lat="44.4963" lon="2.13634">
        <ele>403.2</ele>
        <time>2026-07-04T08:16:55Z</time>
      </trkpt>
      <trkpt lat="44.49633" lon="2.1362">
        <ele>403.9</ele>
        <time>2026-07-04T08:16:58Z</time>
      </trkpt>
      <trkpt lat="44.49637" lon="2.13607">
        <ele>404.6</ele>
        <time>2026-07-04T08:17:01Z</time>
      </trkpt>
      <trkpt lat="44.49639" lon="2.13594">
        <ele>405.2</ele>
        <time>2026-07-04T08:17:04Z</time>
      </trkpt>
      <trkpt lat="44.49641" lon="2.13579">
        <ele>405.9</ele>
        <time>2026-07-04T08:17:07Z</time>
      </trkpt>
      <trkpt lat="44.49644" lon="2.13566">
        <ele>406.5</ele>
        <time>2026-07-04T08:17:10Z</time>
      </trkpt>
      <trkpt lat="44.49647" lon="2.13549">
        <ele>407.3</ele>
        <time>2026-07-04T08:17:14Z</time>
      </trkpt>
      <trkpt lat="44.4965" lon="2.13534">
        <ele>408</ele>
        <time>2026-07-04T08:17:17Z</time>
      </trkpt>
      <trkpt lat="44.49651" lon="2.13518">
        <ele>408.6</ele>
        <time>2026-07-04T08:17:20Z</time>
      </trkpt>
      <trkpt lat="44.49649" lon="2.13502">
        <ele>409.1</ele>
        <time>2026-07-04T08:17:23Z</time>
      </trkpt>
      <trkpt lat="44.49644" lon="2.13487">
        <ele>409.6</ele>
        <time>2026-07-04T08:17:26Z</time>
      </trkpt>
      <trkpt lat="44.49639" lon="2.13471">
        <ele>409.9</ele>
        <time>2026-07-04T08:17:29Z</time>
      </trkpt>
      <trkpt lat="44.49636" lon="2.13459">
        <ele>410</ele>
        <time>2026-07-04T08:17:31Z</time>
      </trkpt>
      <trkpt lat="44.49633" lon="2.13445">
        <ele>410</ele>
        <time>2026-07-04T08:17:33Z</time>
      </trkpt>
      <trkpt lat="44.49632" lon="2.13433">
        <ele>410.2</ele>
        <time>2026-07-04T08:17:35Z</time>
      </trkpt>
      <trkpt lat="44.49632" lon="2.13416">
        <ele>410.4</ele>
        <time>2026-07-04T08:17:38Z</time>
      </trkpt>
      <trkpt lat="44.49635" lon="2.13403">
        <ele>410.7</ele>
        <time>2026-07-04T08:17:40Z</time>
      </trkpt>
      <trkpt lat="44.49637" lon="2.13391">
        <ele>411.1</ele>
        <time>2026-07-04T08:17:42Z</time>
      </trkpt>
      <trkpt lat="44.4964" lon="2.13378">
        <ele>411.6</ele>
        <time>2026-07-04T08:17:44Z</time>
      </trkpt>
      <trkpt lat="44.49643" lon="2.13365">
        <ele>412.1</ele>
        <time>2026-07-04T08:17:46Z</time>
      </trkpt>
      <trkpt lat="44.49647" lon="2.13352">
        <ele>412.6</ele>
        <time>2026-07-04T08:17:48Z</time>
      </trkpt>
      <trkpt lat="44.49651" lon="2.1334">
        <ele>413</ele>
        <time>2026-07-04T08:17:50Z</time>
      </trkpt>
      <trkpt lat="44.49656" lon="2.13329">
        <ele>413.5</ele>
        <time>2026-07-04T08:17:52Z</time>
      </trkpt>
      <trkpt lat="44.49662" lon="2.13319">
        <ele>413.9</ele>
        <time>2026-07-04T08:17:54Z</time>
      </trkpt>
      <trkpt lat="44.49668" lon="2.13308">
        <ele>414.2</ele>
        <time>2026-07-04T08:17:56Z</time>
      </trkpt>
      <trkpt lat="44.49675" lon="2.13293">
        <ele>414.5</ele>
        <time>2026-07-04T08:17:59Z</time>
      </trkpt>
      <trkpt lat="44.4968" lon="2.13277">
        <ele>414.3</ele>
        <time>2026-07-04T08:18:02Z</time>
      </trkpt>
      <trkpt lat="44.49684" lon="2.13265">
        <ele>413.9</ele>
        <time>2026-07-04T08:18:04Z</time>
      </trkpt>
      <trkpt lat="44.49688" lon="2.13251">
        <ele>413.2</ele>
        <time>2026-07-04T08:18:06Z</time>
      </trkpt>
      <trkpt lat="44.49695" lon="2.13236">
        <ele>412.5</ele>
        <time>2026-07-04T08:18:08Z</time>
      </trkpt>
      <trkpt lat="44.49704" lon="2.13221">
        <ele>411.6</ele>
        <time>2026-07-04T08:18:10Z</time>
      </trkpt>
      <trkpt lat="44.49711" lon="2.13205">
        <ele>410.7</ele>
        <time>2026-07-04T08:18:12Z</time>
      </trkpt>
      <trkpt lat="44.49719" lon="2.13187">
        <ele>409.8</ele>
        <time>2026-07-04T08:18:14Z</time>
      </trkpt>
      <trkpt lat="44.49724" lon="2.13168">
        <ele>409</ele>
        <time>2026-07-04T08:18:16Z</time>
      </trkpt>
      <trkpt lat="44.49728" lon="2.13146">
        <ele>408.3</ele>
        <time>2026-07-04T08:18:18Z</time>
      </trkpt>
      <trkpt lat="44.4973" lon="2.13125">
        <ele>408</ele>
        <time>2026-07-04T08:18:20Z</time>
      </trkpt>
      <trkpt lat="44.49729" lon="2.13105">
        <ele>407.8</ele>
        <time>2026-07-04T08:18:22Z</time>
      </trkpt>
      <trkpt lat="44.49723" lon="2.13087">
        <ele>407.3</ele>
        <time>2026-07-04T08:18:24Z</time>
      </trkpt>
      <trkpt lat="44.49715" lon="2.13069">
        <ele>406.5</ele>
        <time>2026-07-04T08:18:26Z</time>
      </trkpt>
      <trkpt lat="44.49707" lon="2.1305">
        <ele>405.5</ele>
        <time>2026-07-04T08:18:28Z</time>
      </trkpt>
      <trkpt lat="44.49712" lon="2.1303">
        <ele>404</ele>
        <time>2026-07-04T08:18:30Z</time>
      </trkpt>
      <trkpt lat="44.49722" lon="2.13017">
        <ele>402.3</ele>
        <time>2026-07-04T08:18:32Z</time>
      </trkpt>
      <trkpt lat="44.49731" lon="2.1301">
        <ele>402.3</ele>
        <time>2026-07-04T08:18:34Z</time>
      </trkpt>
      <trkpt lat="44.49738" lon="2.12997">
        <ele>402.5</ele>
        <time>2026-07-04T08:18:38Z</time>
      </trkpt>
      <trkpt lat="44.49743" lon="2.12983">
        <ele>402.7</ele>
        <time>2026-07-04T08:18:42Z</time>
      </trkpt>
      <trkpt lat="44.49746" lon="2.12971">
        <ele>402.9</ele>
        <time>2026-07-04T08:18:45Z</time>
      </trkpt>
      <trkpt lat="44.49751" lon="2.12959">
        <ele>403.3</ele>
        <time>2026-07-04T08:18:50Z</time>
      </trkpt>
      <trkpt lat="44.49746" lon="2.12971">
        <ele>402.9</ele>
        <time>2026-07-04T08:18:57Z</time>
      </trkpt>
      <trkpt lat="44.49743" lon="2.12983">
        <ele>402.7</ele>
        <time>2026-07-04T08:19:00Z</time>
      </trkpt>
      <trkpt lat="44.49737" lon="2.12996">
        <ele>402.5</ele>
        <time>2026-07-04T08:19:03Z</time>
      </trkpt>
      <trkpt lat="44.49728" lon="2.13008">
        <ele>402.3</ele>
        <time>2026-07-04T08:19:06Z</time>
      </trkpt>
      <trkpt lat="44.49719" lon="2.13017">
        <ele>402.5</ele>
        <time>2026-07-04T08:19:09Z</time>
      </trkpt>
      <trkpt lat="44.49711" lon="2.13024">
        <ele>403.5</ele>
        <time>2026-07-04T08:19:12Z</time>
      </trkpt>
      <trkpt lat="44.49722" lon="2.13024">
        <ele>402.5</ele>
        <time>2026-07-04T08:19:18Z</time>
      </trkpt>
      <trkpt lat="44.4973" lon="2.13017">
        <ele>401.3</ele>
        <time>2026-07-04T08:19:20Z</time>
      </trkpt>
      <trkpt lat="44.49741" lon="2.13008">
        <ele>399.7</ele>
        <time>2026-07-04T08:19:22Z</time>
      </trkpt>
      <trkpt lat="44.49753" lon="2.12995">
        <ele>397.6</ele>
        <time>2026-07-04T08:19:24Z</time>
      </trkpt>
      <trkpt lat="44.49762" lon="2.1298">
        <ele>395.7</ele>
        <time>2026-07-04T08:19:26Z</time>
      </trkpt>
      <trkpt lat="44.49771" lon="2.12962">
        <ele>394.3</ele>
        <time>2026-07-04T08:19:28Z</time>
      </trkpt>
      <trkpt lat="44.4978" lon="2.12941">
        <ele>393.1</ele>
        <time>2026-07-04T08:19:30Z</time>
      </trkpt>
      <trkpt lat="44.49787" lon="2.12925">
        <ele>392.3</ele>
        <time>2026-07-04T08:19:32Z</time>
      </trkpt>
      <trkpt lat="44.49794" lon="2.12909">
        <ele>391.4</ele>
        <time>2026-07-04T08:19:34Z</time>
      </trkpt>
      <trkpt lat="44.49801" lon="2.1289">
        <ele>390.5</ele>
        <time>2026-07-04T08:19:36Z</time>
      </trkpt>
      <trkpt lat="44.4981" lon="2.12873">
        <ele>389.2</ele>
        <time>2026-07-04T08:19:38Z</time>
      </trkpt>
      <trkpt lat="44.49821" lon="2.12869">
        <ele>388</ele>
        <time>2026-07-04T08:19:40Z</time>
      </trkpt>
      <trkpt lat="44.49831" lon="2.12875">
        <ele>386.9</ele>
        <time>2026-07-04T08:19:42Z</time>
      </trkpt>
      <trkpt lat="44.49842" lon="2.12881">
        <ele>386.2</ele>
        <time>2026-07-04T08:19:44Z</time>
      </trkpt>
      <trkpt lat="44.49853" lon="2.12889">
        <ele>385.5</ele>
        <time>2026-07-04T08:19:46Z</time>
      </trkpt>
      <trkpt lat="44.49863" lon="2.129">
        <ele>384.2</ele>
        <time>2026-07-04T08:19:48Z</time>
      </trkpt>
      <trkpt lat="44.49876" lon="2.12906">
        <ele>382.4</ele>
        <time>2026-07-04T08:19:50Z</time>
      </trkpt>
      <trkpt lat="44.49889" lon="2.12909">
        <ele>380.5</ele>
        <time>2026-07-04T08:19:52Z</time>
      </trkpt>
      <trkpt lat="44.49898" lon="2.12911">
        <ele>379.3</ele>
        <time>2026-07-04T08:19:53Z</time>
      </trkpt>
      <trkpt lat="44.49913" lon="2.12918">
        <ele>377.3</ele>
        <time>2026-07-04T08:19:55Z</time>
      </trkpt>
      <trkpt lat="44.49931" lon="2.12914">
        <ele>374.7</ele>
        <time>2026-07-04T08:19:57Z</time>
      </trkpt>
      <trkpt lat="44.4994" lon="2.12907">
        <ele>373.2</ele>
        <time>2026-07-04T08:19:58Z</time>
      </trkpt>
      <trkpt lat="44.49948" lon="2.129">
        <ele>371.9</ele>
        <time>2026-07-04T08:19:59Z</time>
      </trkpt>
      <trkpt lat="44.49956" lon="2.12892">
        <ele>370.7</ele>
        <time>2026-07-04T08:20:00Z</time>
      </trkpt>
      <trkpt lat="44.49964" lon="2.12885">
        <ele>369.7</ele>
        <time>2026-07-04T08:20:01Z</time>
      </trkpt>
      <trkpt lat="44.49972" lon="2.12877">
        <ele>368.6</ele>
        <time>2026-07-04T08:20:02Z</time>
      </trkpt>
      <trkpt lat="44.4998" lon="2.12869">
        <ele>367.5</ele>
        <time>2026-07-04T08:20:03Z</time>
      </trkpt>
      <trkpt lat="44.49988" lon="2.1286">
        <ele>366.5</ele>
        <time>2026-07-04T08:20:04Z</time>
      </trkpt>
      <trkpt lat="44.49996" lon="2.1285">
        <ele>365.6</ele>
        <time>2026-07-04T08:20:05Z</time>
      </trkpt>
      <trkpt lat="44.50004" lon="2.1284">
        <ele>364.8</ele>
        <time>2026-07-04T08:20:06Z</time>
      </trkpt>
      <trkpt lat="44.50012" lon="2.12832">
        <ele>364.2</ele>
        <time>2026-07-04T08:20:07Z</time>
      </trkpt>
      <trkpt lat="44.5002" lon="2.12822">
        <ele>363.7</ele>
        <time>2026-07-04T08:20:08Z</time>
      </trkpt>
      <trkpt lat="44.50028" lon="2.12812">
        <ele>363.4</ele>
        <time>2026-07-04T08:20:09Z</time>
      </trkpt>
      <trkpt lat="44.50034" lon="2.12802">
        <ele>363.1</ele>
        <time>2026-07-04T08:20:10Z</time>
      </trkpt>
      <trkpt lat="44.50041" lon="2.12792">
        <ele>363.1</ele>
        <time>2026-07-04T08:20:11Z</time>
      </trkpt>
      <trkpt lat="44.50049" lon="2.12783">
        <ele>362.9</ele>
        <time>2026-07-04T08:20:12Z</time>
      </trkpt>
      <trkpt lat="44.50055" lon="2.12773">
        <ele>362.6</ele>
        <time>2026-07-04T08:20:13Z</time>
      </trkpt>
      <trkpt lat="44.50066" lon="2.12757">
        <ele>361.7</ele>
        <time>2026-07-04T08:20:15Z</time>
      </trkpt>
      <trkpt lat="44.50073" lon="2.12733">
        <ele>360.5</ele>
        <time>2026-07-04T08:20:17Z</time>
      </trkpt>
      <trkpt lat="44.5008" lon="2.12711">
        <ele>358.7</ele>
        <time>2026-07-04T08:20:19Z</time>
      </trkpt>
      <trkpt lat="44.50086" lon="2.12702">
        <ele>357.3</ele>
        <time>2026-07-04T08:20:20Z</time>
      </trkpt>
      <trkpt lat="44.50094" lon="2.12693">
        <ele>355.5</ele>
        <time>2026-07-04T08:20:21Z</time>
      </trkpt>
      <trkpt lat="44.50103" lon="2.12686">
        <ele>353.8</ele>
        <time>2026-07-04T08:20:22Z</time>
      </trkpt>
      <trkpt lat="44.50119" lon="2.12677">
        <ele>350.8</ele>
        <time>2026-07-04T08:20:24Z</time>
      </trkpt>
      <trkpt lat="44.50134" lon="2.12665">
        <ele>348.1</ele>
        <time>2026-07-04T08:20:26Z</time>
      </trkpt>
      <trkpt lat="44.50149" lon="2.12653">
        <ele>345.4</ele>
        <time>2026-07-04T08:20:28Z</time>
      </trkpt>
      <trkpt lat="44.50164" lon="2.12644">
        <ele>342.4</ele>
        <time>2026-07-04T08:20:30Z</time>
      </trkpt>
      <trkpt lat="44.50174" lon="2.12641">
        <ele>340.5</ele>
        <time>2026-07-04T08:20:31Z</time>
      </trkpt>
      <trkpt lat="44.50183" lon="2.12639">
        <ele>338.6</ele>
        <time>2026-07-04T08:20:32Z</time>
      </trkpt>
      <trkpt lat="44.50199" lon="2.12636">
        <ele>335.1</ele>
        <time>2026-07-04T08:20:34Z</time>
      </trkpt>
      <trkpt lat="44.50216" lon="2.12628">
        <ele>331.7</ele>
        <time>2026-07-04T08:20:36Z</time>
      </trkpt>
      <trkpt lat="44.50226" lon="2.12624">
        <ele>330.2</ele>
        <time>2026-07-04T08:20:37Z</time>
      </trkpt>
      <trkpt lat="44.50234" lon="2.1262">
        <ele>329</ele>
        <time>2026-07-04T08:20:38Z</time>
      </trkpt>
      <trkpt lat="44.50244" lon="2.12615">
        <ele>327.9</ele>
        <time>2026-07-04T08:20:39Z</time>
      </trkpt>
      <trkpt lat="44.5026" lon="2.12608">
        <ele>326.1</ele>
        <time>2026-07-04T08:20:41Z</time>
      </trkpt>
      <trkpt lat="44.50275" lon="2.126">
        <ele>323.5</ele>
        <time>2026-07-04T08:20:43Z</time>
      </trkpt>
      <trkpt lat="44.50288" lon="2.12593">
        <ele>320.5</ele>
        <time>2026-07-04T08:20:45Z</time>
      </trkpt>
      <trkpt lat="44.503" lon="2.12589">
        <ele>317.6</ele>
        <time>2026-07-04T08:20:47Z</time>
      </trkpt>
      <trkpt lat="44.50312" lon="2.12584">
        <ele>315</ele>
        <time>2026-07-04T08:20:49Z</time>
      </trkpt>
      <trkpt lat="44.50323" lon="2.12577">
        <ele>314.2</ele>
        <time>2026-07-04T08:20:51Z</time>
      </trkpt>
      <trkpt lat="44.50331" lon="2.1257">
        <ele>313.6</ele>
        <time>2026-07-04T08:20:54Z</time>
      </trkpt>
      <trkpt lat="44.50332" lon="2.12564">
        <ele>313.4</ele>
        <time>2026-07-04T08:21:09Z</time>
      </trkpt>
      <trkpt lat="44.50341" lon="2.12555">
        <ele>312.7</ele>
        <time>2026-07-04T08:21:17Z</time>
      </trkpt>
      <trkpt lat="44.50346" lon="2.12549">
        <ele>312.3</ele>
        <time>2026-07-04T08:21:19Z</time>
      </trkpt>
      <trkpt lat="44.50353" lon="2.12541">
        <ele>311.8</ele>
        <time>2026-07-04T08:21:21Z</time>
      </trkpt>
      <trkpt lat="44.50359" lon="2.12529">
        <ele>311.2</ele>
        <time>2026-07-04T08:21:23Z</time>
      </trkpt>
      <trkpt lat="44.50364" lon="2.12515">
        <ele>310.7</ele>
        <time>2026-07-04T08:21:25Z</time>
      </trkpt>
      <trkpt lat="44.50366" lon="2.12499">
        <ele>310</ele>
        <time>2026-07-04T08:21:27Z</time>
      </trkpt>
      <trkpt lat="44.50367" lon="2.1248">
        <ele>309.2</ele>
        <time>2026-07-04T08:21:29Z</time>
      </trkpt>
      <trkpt lat="44.50365" lon="2.12461">
        <ele>308.2</ele>
        <time>2026-07-04T08:21:31Z</time>
      </trkpt>
      <trkpt lat="44.50362" lon="2.1244">
        <ele>307.1</ele>
        <time>2026-07-04T08:21:33Z</time>
      </trkpt>
      <trkpt lat="44.50359" lon="2.12418">
        <ele>306</ele>
        <time>2026-07-04T08:21:35Z</time>
      </trkpt>
      <trkpt lat="44.50356" lon="2.12395">
        <ele>304.8</ele>
        <time>2026-07-04T08:21:37Z</time>
      </trkpt>
      <trkpt lat="44.50353" lon="2.12371">
        <ele>303.7</ele>
        <time>2026-07-04T08:21:39Z</time>
      </trkpt>
      <trkpt lat="44.5035" lon="2.12347">
        <ele>302.5</ele>
        <time>2026-07-04T08:21:41Z</time>
      </trkpt>
      <trkpt lat="44.50349" lon="2.12327">
        <ele>301.6</ele>
        <time>2026-07-04T08:21:43Z</time>
      </trkpt>
      <trkpt lat="44.50346" lon="2.12312">
        <ele>300.8</ele>
        <time>2026-07-04T08:21:45Z</time>
      </trkpt>
      <trkpt lat="44.50336" lon="2.12305">
        <ele>302.4</ele>
        <time>2026-07-04T08:21:48Z</time>
      </trkpt>
      <trkpt lat="44.50326" lon="2.12303">
        <ele>304</ele>
        <time>2026-07-04T08:21:51Z</time>
      </trkpt>
      <trkpt lat="44.50316" lon="2.12299">
        <ele>304.8</ele>
        <time>2026-07-04T08:21:54Z</time>
      </trkpt>
      <trkpt lat="44.50306" lon="2.12295">
        <ele>305.5</ele>
        <time>2026-07-04T08:21:57Z</time>
      </trkpt>
      <trkpt lat="44.50316" lon="2.12293">
        <ele>304.1</ele>
        <time>2026-07-04T08:22:17Z</time>
      </trkpt>
      <trkpt lat="44.50322" lon="2.12291">
        <ele>303.3</ele>
        <time>2026-07-04T08:22:38Z</time>
      </trkpt>
      <trkpt lat="44.50325" lon="2.12289">
        <ele>302.6</ele>
        <time>2026-07-04T08:26:06Z</time>
      </trkpt>
      <trkpt lat="44.50325" lon="2.12289">
        <ele>302.6</ele>
        <time>2026-07-04T08:26:18Z</time>
      </trkpt>
      <trkpt lat="44.50322" lon="2.12289">
        <ele>303</ele>
        <time>2026-07-04T08:26:34Z</time>
      </trkpt>
      <trkpt lat="44.50321" lon="2.12289">
        <ele>303.1</ele>
        <time>2026-07-04T08:26:48Z</time>
      </trkpt>
      <trkpt lat="44.50321" lon="2.12289">
        <ele>303.1</ele>
        <time>2026-07-04T08:27:04Z</time>
      </trkpt>
      <trkpt lat="44.50321" lon="2.12289">
        <ele>303.1</ele>
        <time>2026-07-04T08:27:15Z</time>
      </trkpt>
      <trkpt lat="44.50321" lon="2.12289">
        <ele>303.5</ele>
        <time>2026-07-04T08:27:31Z</time>
      </trkpt>
      <trkpt lat="44.50321" lon="2.12289">
        <ele>303.2</ele>
        <time>2026-07-04T08:27:41Z</time>
      </trkpt>
      <trkpt lat="44.50314" lon="2.12287">
        <ele>304.3</ele>
        <time>2026-07-04T08:27:48Z</time>
      </trkpt>
      <trkpt lat="44.50304" lon="2.12286">
        <ele>305.3</ele>
        <time>2026-07-04T08:27:54Z</time>
      </trkpt>
      <trkpt lat="44.50294" lon="2.12283">
        <ele>305.7</ele>
        <time>2026-07-04T08:27:59Z</time>
      </trkpt>
      <trkpt lat="44.50286" lon="2.12276">
        <ele>305.7</ele>
        <time>2026-07-04T08:28:03Z</time>
      </trkpt>
      <trkpt lat="44.50276" lon="2.12279">
        <ele>307.2</ele>
        <time>2026-07-04T08:28:17Z</time>
      </trkpt>
      <trkpt lat="44.50269" lon="2.12291">
        <ele>309.4</ele>
        <time>2026-07-04T08:28:22Z</time>
      </trkpt>
      <trkpt lat="44.50262" lon="2.12299">
        <ele>311.1</ele>
        <time>2026-07-04T08:28:26Z</time>
      </trkpt>
      <trkpt lat="44.50253" lon="2.12306">
        <ele>312.6</ele>
        <time>2026-07-04T08:28:30Z</time>
      </trkpt>
      <trkpt lat="44.50242" lon="2.12308">
        <ele>314.3</ele>
        <time>2026-07-04T08:28:36Z</time>
      </trkpt>
      <trkpt lat="44.50231" lon="2.12309">
        <ele>315.7</ele>
        <time>2026-07-04T08:28:41Z</time>
      </trkpt>
      <trkpt lat="44.50222" lon="2.12313">
        <ele>317.8</ele>
        <time>2026-07-04T08:28:46Z</time>
      </trkpt>
      <trkpt lat="44.50212" lon="2.12315">
        <ele>319.1</ele>
        <time>2026-07-04T08:28:51Z</time>
      </trkpt>
      <trkpt lat="44.50202" lon="2.12315">
        <ele>320.5</ele>
        <time>2026-07-04T08:28:56Z</time>
      </trkpt>
      <trkpt lat="44.50192" lon="2.12317">
        <ele>323.4</ele>
        <time>2026-07-04T08:29:01Z</time>
      </trkpt>
      <trkpt lat="44.50181" lon="2.12319">
        <ele>324.9</ele>
        <time>2026-07-04T08:29:08Z</time>
      </trkpt>
      <trkpt lat="44.50171" lon="2.12322">
        <ele>327.5</ele>
        <time>2026-07-04T08:29:14Z</time>
      </trkpt>
      <trkpt lat="44.5016" lon="2.12324">
        <ele>329.9</ele>
        <time>2026-07-04T08:29:20Z</time>
      </trkpt>
      <trkpt lat="44.50151" lon="2.12326">
        <ele>331.2</ele>
        <time>2026-07-04T08:29:25Z</time>
      </trkpt>
      <trkpt lat="44.50142" lon="2.12329">
        <ele>333.7</ele>
        <time>2026-07-04T08:29:29Z</time>
      </trkpt>
      <trkpt lat="44.50134" lon="2.12333">
        <ele>336.3</ele>
        <time>2026-07-04T08:29:38Z</time>
      </trkpt>
      <trkpt lat="44.50125" lon="2.12335">
        <ele>337.7</ele>
        <time>2026-07-04T08:30:00Z</time>
      </trkpt>
      <trkpt lat="44.50116" lon="2.12341">
        <ele>339.9</ele>
        <time>2026-07-04T08:30:18Z</time>
      </trkpt>
      <trkpt lat="44.50105" lon="2.12343">
        <ele>342.1</ele>
        <time>2026-07-04T08:30:30Z</time>
      </trkpt>
      <trkpt lat="44.50095" lon="2.12345">
        <ele>343.2</ele>
        <time>2026-07-04T08:30:35Z</time>
      </trkpt>
      <trkpt lat="44.50084" lon="2.12346">
        <ele>345.9</ele>
        <time>2026-07-04T08:30:40Z</time>
      </trkpt>
      <trkpt lat="44.50073" lon="2.12345">
        <ele>346.4</ele>
        <time>2026-07-04T08:30:45Z</time>
      </trkpt>
      <trkpt lat="44.50063" lon="2.12348">
        <ele>348.3</ele>
        <time>2026-07-04T08:30:49Z</time>
      </trkpt>
      <trkpt lat="44.50054" lon="2.12352">
        <ele>350.2</ele>
        <time>2026-07-04T08:30:53Z</time>
      </trkpt>
      <trkpt lat="44.50045" lon="2.12355">
        <ele>352.1</ele>
        <time>2026-07-04T08:30:59Z</time>
      </trkpt>
      <trkpt lat="44.50036" lon="2.1236">
        <ele>354</ele>
        <time>2026-07-04T08:31:04Z</time>
      </trkpt>
      <trkpt lat="44.50025" lon="2.12364">
        <ele>356.2</ele>
        <time>2026-07-04T08:31:09Z</time>
      </trkpt>
      <trkpt lat="44.50016" lon="2.12368">
        <ele>358.1</ele>
        <time>2026-07-04T08:31:14Z</time>
      </trkpt>
      <trkpt lat="44.50006" lon="2.12369">
        <ele>358.8</ele>
        <time>2026-07-04T08:31:19Z</time>
      </trkpt>
      <trkpt lat="44.49995" lon="2.12371">
        <ele>359.1</ele>
        <time>2026-07-04T08:31:25Z</time>
      </trkpt>
      <trkpt lat="44.49985" lon="2.12373">
        <ele>360.6</ele>
        <time>2026-07-04T08:31:30Z</time>
      </trkpt>
      <trkpt lat="44.49976" lon="2.12378">
        <ele>362</ele>
        <time>2026-07-04T08:31:35Z</time>
      </trkpt>
      <trkpt lat="44.49965" lon="2.12382">
        <ele>363.6</ele>
        <time>2026-07-04T08:31:41Z</time>
      </trkpt>
      <trkpt lat="44.49955" lon="2.12383">
        <ele>364</ele>
        <time>2026-07-04T08:31:45Z</time>
      </trkpt>
      <trkpt lat="44.49948" lon="2.1239">
        <ele>366.8</ele>
        <time>2026-07-04T08:31:48Z</time>
      </trkpt>
      <trkpt lat="44.49941" lon="2.12398">
        <ele>369.8</ele>
        <time>2026-07-04T08:31:52Z</time>
      </trkpt>
      <trkpt lat="44.49932" lon="2.12403">
        <ele>371.5</ele>
        <time>2026-07-04T08:31:55Z</time>
      </trkpt>
      <trkpt lat="44.49922" lon="2.12403">
        <ele>372.3</ele>
        <time>2026-07-04T08:31:58Z</time>
      </trkpt>
      <trkpt lat="44.49914" lon="2.12391">
        <ele>369.7</ele>
        <time>2026-07-04T08:32:01Z</time>
      </trkpt>
      <trkpt lat="44.49909" lon="2.12376">
        <ele>366.9</ele>
        <time>2026-07-04T08:32:04Z</time>
      </trkpt>
      <trkpt lat="44.49904" lon="2.12362">
        <ele>362</ele>
        <time>2026-07-04T08:32:07Z</time>
      </trkpt>
      <trkpt lat="44.49899" lon="2.12345">
        <ele>358.2</ele>
        <time>2026-07-04T08:32:11Z</time>
      </trkpt>
      <trkpt lat="44.49895" lon="2.12332">
        <ele>355.4</ele>
        <time>2026-07-04T08:32:13Z</time>
      </trkpt>
      <trkpt lat="44.49889" lon="2.1232">
        <ele>352.6</ele>
        <time>2026-07-04T08:32:15Z</time>
      </trkpt>
      <trkpt lat="44.49881" lon="2.12307">
        <ele>349.8</ele>
        <time>2026-07-04T08:32:17Z</time>
      </trkpt>
      <trkpt lat="44.49871" lon="2.12295">
        <ele>348</ele>
        <time>2026-07-04T08:32:19Z</time>
      </trkpt>
      <trkpt lat="44.49859" lon="2.12283">
        <ele>347.1</ele>
        <time>2026-07-04T08:32:21Z</time>
      </trkpt>
      <trkpt lat="44.49847" lon="2.12276">
        <ele>347.5</ele>
        <time>2026-07-04T08:32:23Z</time>
      </trkpt>
      <trkpt lat="44.49834" lon="2.12269">
        <ele>349.2</ele>
        <time>2026-07-04T08:32:25Z</time>
      </trkpt>
      <trkpt lat="44.49823" lon="2.12263">
        <ele>349.5</ele>
        <time>2026-07-04T08:32:27Z</time>
      </trkpt>
      <trkpt lat="44.49811" lon="2.12255">
        <ele>350.8</ele>
        <time>2026-07-04T08:32:29Z</time>
      </trkpt>
      <trkpt lat="44.498" lon="2.12246">
        <ele>349.2</ele>
        <time>2026-07-04T08:32:31Z</time>
      </trkpt>
      <trkpt lat="44.49787" lon="2.12238">
        <ele>349.7</ele>
        <time>2026-07-04T08:32:33Z</time>
      </trkpt>
      <trkpt lat="44.49775" lon="2.12232">
        <ele>348.3</ele>
        <time>2026-07-04T08:32:35Z</time>
      </trkpt>
      <trkpt lat="44.49764" lon="2.12227">
        <ele>347.8</ele>
        <time>2026-07-04T08:32:37Z</time>
      </trkpt>
      <trkpt lat="44.49753" lon="2.12226">
        <ele>348.6</ele>
        <time>2026-07-04T08:32:39Z</time>
      </trkpt>
      <trkpt lat="44.4974" lon="2.12226">
        <ele>349.1</ele>
        <time>2026-07-04T08:32:42Z</time>
      </trkpt>
      <trkpt lat="44.49728" lon="2.12228">
        <ele>349</ele>
        <time>2026-07-04T08:32:44Z</time>
      </trkpt>
      <trkpt lat="44.49715" lon="2.12232">
        <ele>350</ele>
        <time>2026-07-04T08:32:46Z</time>
      </trkpt>
      <trkpt lat="44.49701" lon="2.12234">
        <ele>350.8</ele>
        <time>2026-07-04T08:32:48Z</time>
      </trkpt>
      <trkpt lat="44.49686" lon="2.12238">
        <ele>350.3</ele>
        <time>2026-07-04T08:32:50Z</time>
      </trkpt>
      <trkpt lat="44.49675" lon="2.12241">
        <ele>351.3</ele>
        <time>2026-07-04T08:32:52Z</time>
      </trkpt>
      <trkpt lat="44.49663" lon="2.12242">
        <ele>352.2</ele>
        <time>2026-07-04T08:32:54Z</time>
      </trkpt>
      <trkpt lat="44.49653" lon="2.12241">
        <ele>350.6</ele>
        <time>2026-07-04T08:32:56Z</time>
      </trkpt>
      <trkpt lat="44.49645" lon="2.1223">
        <ele>348.1</ele>
        <time>2026-07-04T08:32:59Z</time>
      </trkpt>
      <trkpt lat="44.4965" lon="2.12215">
        <ele>343.6</ele>
        <time>2026-07-04T08:33:02Z</time>
      </trkpt>
      <trkpt lat="44.49659" lon="2.12205">
        <ele>341.3</ele>
        <time>2026-07-04T08:33:04Z</time>
      </trkpt>
      <trkpt lat="44.49663" lon="2.1219">
        <ele>336.7</ele>
        <time>2026-07-04T08:33:07Z</time>
      </trkpt>
      <trkpt lat="44.49659" lon="2.12175">
        <ele>333.7</ele>
        <time>2026-07-04T08:33:10Z</time>
      </trkpt>
      <trkpt lat="44.49663" lon="2.12162">
        <ele>330.6</ele>
        <time>2026-07-04T08:33:13Z</time>
      </trkpt>
      <trkpt lat="44.49666" lon="2.12147">
        <ele>327.4</ele>
        <time>2026-07-04T08:33:17Z</time>
      </trkpt>
      <trkpt lat="44.49668" lon="2.12134">
        <ele>325.5</ele>
        <time>2026-07-04T08:33:19Z</time>
      </trkpt>
      <trkpt lat="44.49672" lon="2.12121">
        <ele>323.7</ele>
        <time>2026-07-04T08:33:21Z</time>
      </trkpt>
      <trkpt lat="44.49676" lon="2.12108">
        <ele>322.4</ele>
        <time>2026-07-04T08:33:23Z</time>
      </trkpt>
      <trkpt lat="44.49678" lon="2.12095">
        <ele>321.3</ele>
        <time>2026-07-04T08:33:25Z</time>
      </trkpt>
      <trkpt lat="44.49679" lon="2.12081">
        <ele>321.8</ele>
        <time>2026-07-04T08:33:27Z</time>
      </trkpt>
      <trkpt lat="44.4968" lon="2.12064">
        <ele>322.4</ele>
        <time>2026-07-04T08:33:30Z</time>
      </trkpt>
      <trkpt lat="44.49681" lon="2.12046">
        <ele>323.2</ele>
        <time>2026-07-04T08:33:33Z</time>
      </trkpt>
      <trkpt lat="44.49681" lon="2.12032">
        <ele>323.9</ele>
        <time>2026-07-04T08:33:36Z</time>
      </trkpt>
      <trkpt lat="44.4968" lon="2.12018">
        <ele>324.6</ele>
        <time>2026-07-04T08:33:48Z</time>
      </trkpt>
      <trkpt lat="44.49674" lon="2.12006">
        <ele>326.1</ele>
        <time>2026-07-04T08:33:52Z</time>
      </trkpt>
      <trkpt lat="44.49663" lon="2.12005">
        <ele>326.1</ele>
        <time>2026-07-04T08:33:55Z</time>
      </trkpt>
      <trkpt lat="44.49652" lon="2.12007">
        <ele>326.2</ele>
        <time>2026-07-04T08:33:58Z</time>
      </trkpt>
      <trkpt lat="44.49641" lon="2.12008">
        <ele>326.8</ele>
        <time>2026-07-04T08:34:01Z</time>
      </trkpt>
      <trkpt lat="44.4963" lon="2.1201">
        <ele>327.6</ele>
        <time>2026-07-04T08:34:04Z</time>
      </trkpt>
      <trkpt lat="44.4962" lon="2.12011">
        <ele>328.4</ele>
        <time>2026-07-04T08:34:07Z</time>
      </trkpt>
      <trkpt lat="44.49609" lon="2.12011">
        <ele>329.4</ele>
        <time>2026-07-04T08:34:10Z</time>
      </trkpt>
      <trkpt lat="44.49599" lon="2.12011">
        <ele>330.5</ele>
        <time>2026-07-04T08:34:13Z</time>
      </trkpt>
      <trkpt lat="44.49589" lon="2.12011">
        <ele>331.7</ele>
        <time>2026-07-04T08:34:16Z</time>
      </trkpt>
      <trkpt lat="44.4958" lon="2.12008">
        <ele>332.8</ele>
        <time>2026-07-04T08:34:19Z</time>
      </trkpt>
      <trkpt lat="44.49571" lon="2.12005">
        <ele>333.8</ele>
        <time>2026-07-04T08:34:22Z</time>
      </trkpt>
      <trkpt lat="44.49561" lon="2.12004">
        <ele>334.8</ele>
        <time>2026-07-04T08:34:25Z</time>
      </trkpt>
      <trkpt lat="44.4955" lon="2.12006">
        <ele>336.1</ele>
        <time>2026-07-04T08:34:29Z</time>
      </trkpt>
      <trkpt lat="44.4954" lon="2.12009">
        <ele>337.7</ele>
        <time>2026-07-04T08:34:33Z</time>
      </trkpt>
      <trkpt lat="44.49531" lon="2.12009">
        <ele>339.5</ele>
        <time>2026-07-04T08:34:37Z</time>
      </trkpt>
      <trkpt lat="44.4952" lon="2.12014">
        <ele>341.5</ele>
        <time>2026-07-04T08:34:42Z</time>
      </trkpt>
      <trkpt lat="44.49511" lon="2.12016">
        <ele>343.2</ele>
        <time>2026-07-04T08:34:46Z</time>
      </trkpt>
      <trkpt lat="44.49501" lon="2.12022">
        <ele>345.1</ele>
        <time>2026-07-04T08:34:51Z</time>
      </trkpt>
      <trkpt lat="44.49492" lon="2.12028">
        <ele>347.2</ele>
        <time>2026-07-04T08:34:56Z</time>
      </trkpt>
      <trkpt lat="44.49482" lon="2.12032">
        <ele>349.3</ele>
        <time>2026-07-04T08:35:01Z</time>
      </trkpt>
      <trkpt lat="44.49473" lon="2.12036">
        <ele>351.1</ele>
        <time>2026-07-04T08:35:05Z</time>
      </trkpt>
      <trkpt lat="44.49462" lon="2.12038">
        <ele>353.1</ele>
        <time>2026-07-04T08:35:10Z</time>
      </trkpt>
      <trkpt lat="44.4945" lon="2.12041">
        <ele>355</ele>
        <time>2026-07-04T08:35:14Z</time>
      </trkpt>
      <trkpt lat="44.49439" lon="2.12043">
        <ele>356.6</ele>
        <time>2026-07-04T08:35:18Z</time>
      </trkpt>
      <trkpt lat="44.49426" lon="2.12041">
        <ele>358.1</ele>
        <time>2026-07-04T08:35:22Z</time>
      </trkpt>
      <trkpt lat="44.49415" lon="2.12042">
        <ele>359.3</ele>
        <time>2026-07-04T08:35:26Z</time>
      </trkpt>
      <trkpt lat="44.49403" lon="2.1204">
        <ele>360.8</ele>
        <time>2026-07-04T08:35:30Z</time>
      </trkpt>
      <trkpt lat="44.49394" lon="2.1204">
        <ele>361.9</ele>
        <time>2026-07-04T08:35:33Z</time>
      </trkpt>
      <trkpt lat="44.49382" lon="2.12041">
        <ele>363.3</ele>
        <time>2026-07-04T08:35:37Z</time>
      </trkpt>
      <trkpt lat="44.4937" lon="2.12043">
        <ele>364.6</ele>
        <time>2026-07-04T08:35:41Z</time>
      </trkpt>
      <trkpt lat="44.4936" lon="2.12043">
        <ele>365.7</ele>
        <time>2026-07-04T08:35:44Z</time>
      </trkpt>
      <trkpt lat="44.49349" lon="2.12043">
        <ele>366.9</ele>
        <time>2026-07-04T08:35:48Z</time>
      </trkpt>
      <trkpt lat="44.49339" lon="2.12044">
        <ele>368.1</ele>
        <time>2026-07-04T08:35:51Z</time>
      </trkpt>
      <trkpt lat="44.49329" lon="2.12046">
        <ele>369.2</ele>
        <time>2026-07-04T08:35:54Z</time>
      </trkpt>
      <trkpt lat="44.49319" lon="2.12047">
        <ele>370.4</ele>
        <time>2026-07-04T08:35:57Z</time>
      </trkpt>
      <trkpt lat="44.49308" lon="2.12048">
        <ele>371.5</ele>
        <time>2026-07-04T08:36:00Z</time>
      </trkpt>
      <trkpt lat="44.49298" lon="2.12051">
        <ele>372.6</ele>
        <time>2026-07-04T08:36:03Z</time>
      </trkpt>
      <trkpt lat="44.49287" lon="2.12054">
        <ele>373.7</ele>
        <time>2026-07-04T08:36:06Z</time>
      </trkpt>
      <trkpt lat="44.49278" lon="2.12056">
        <ele>374.8</ele>
        <time>2026-07-04T08:36:09Z</time>
      </trkpt>
      <trkpt lat="44.49268" lon="2.12059">
        <ele>376</ele>
        <time>2026-07-04T08:36:12Z</time>
      </trkpt>
      <trkpt lat="44.49259" lon="2.12062">
        <ele>377.3</ele>
        <time>2026-07-04T08:36:15Z</time>
      </trkpt>
      <trkpt lat="44.49249" lon="2.12065">
        <ele>378.8</ele>
        <time>2026-07-04T08:36:18Z</time>
      </trkpt>
      <trkpt lat="44.4924" lon="2.12071">
        <ele>380</ele>
        <time>2026-07-04T08:36:21Z</time>
      </trkpt>
      <trkpt lat="44.49233" lon="2.1208">
        <ele>381.3</ele>
        <time>2026-07-04T08:36:24Z</time>
      </trkpt>
      <trkpt lat="44.49224" lon="2.12089">
        <ele>383.1</ele>
        <time>2026-07-04T08:36:28Z</time>
      </trkpt>
      <trkpt lat="44.49217" lon="2.12103">
        <ele>385.2</ele>
        <time>2026-07-04T08:36:32Z</time>
      </trkpt>
      <trkpt lat="44.49212" lon="2.12117">
        <ele>387.2</ele>
        <time>2026-07-04T08:36:36Z</time>
      </trkpt>
      <trkpt lat="44.49208" lon="2.12132">
        <ele>389.3</ele>
        <time>2026-07-04T08:36:40Z</time>
      </trkpt>
      <trkpt lat="44.49202" lon="2.12147">
        <ele>391</ele>
        <time>2026-07-04T08:36:44Z</time>
      </trkpt>
      <trkpt lat="44.49198" lon="2.12161">
        <ele>392.2</ele>
        <time>2026-07-04T08:36:48Z</time>
      </trkpt>
      <trkpt lat="44.49194" lon="2.12174">
        <ele>393</ele>
        <time>2026-07-04T08:36:51Z</time>
      </trkpt>
      <trkpt lat="44.4919" lon="2.12186">
        <ele>393.9</ele>
        <time>2026-07-04T08:36:54Z</time>
      </trkpt>
      <trkpt lat="44.49185" lon="2.12198">
        <ele>394.9</ele>
        <time>2026-07-04T08:36:57Z</time>
      </trkpt>
      <trkpt lat="44.49181" lon="2.12209">
        <ele>396.2</ele>
        <time>2026-07-04T08:37:00Z</time>
      </trkpt>
      <trkpt lat="44.49177" lon="2.12221">
        <ele>397.4</ele>
        <time>2026-07-04T08:37:03Z</time>
      </trkpt>
      <trkpt lat="44.49174" lon="2.12236">
        <ele>399</ele>
        <time>2026-07-04T08:37:07Z</time>
      </trkpt>
      <trkpt lat="44.49171" lon="2.12251">
        <ele>400.8</ele>
        <time>2026-07-04T08:37:11Z</time>
      </trkpt>
      <trkpt lat="44.49168" lon="2.12265">
        <ele>402.2</ele>
        <time>2026-07-04T08:37:15Z</time>
      </trkpt>
      <trkpt lat="44.49165" lon="2.1228">
        <ele>403.7</ele>
        <time>2026-07-04T08:37:19Z</time>
      </trkpt>
      <trkpt lat="44.49162" lon="2.12293">
        <ele>405.5</ele>
        <time>2026-07-04T08:37:24Z</time>
      </trkpt>
      <trkpt lat="44.49159" lon="2.12306">
        <ele>407.2</ele>
        <time>2026-07-04T08:37:28Z</time>
      </trkpt>
      <trkpt lat="44.49158" lon="2.12319">
        <ele>408.9</ele>
        <time>2026-07-04T08:37:32Z</time>
      </trkpt>
      <trkpt lat="44.49156" lon="2.12332">
        <ele>410.6</ele>
        <time>2026-07-04T08:37:36Z</time>
      </trkpt>
      <trkpt lat="44.49156" lon="2.12345">
        <ele>412.2</ele>
        <time>2026-07-04T08:37:40Z</time>
      </trkpt>
      <trkpt lat="44.49157" lon="2.12359">
        <ele>413.6</ele>
        <time>2026-07-04T08:37:44Z</time>
      </trkpt>
      <trkpt lat="44.49157" lon="2.12372">
        <ele>414.6</ele>
        <time>2026-07-04T08:37:47Z</time>
      </trkpt>
      <trkpt lat="44.49155" lon="2.12389">
        <ele>415.5</ele>
        <time>2026-07-04T08:37:51Z</time>
      </trkpt>
      <trkpt lat="44.49149" lon="2.12401">
        <ele>416</ele>
        <time>2026-07-04T08:37:54Z</time>
      </trkpt>
      <trkpt lat="44.49141" lon="2.12409">
        <ele>416.6</ele>
        <time>2026-07-04T08:37:57Z</time>
      </trkpt>
      <trkpt lat="44.49133" lon="2.12418">
        <ele>417.3</ele>
        <time>2026-07-04T08:38:00Z</time>
      </trkpt>
      <trkpt lat="44.49125" lon="2.12426">
        <ele>418.1</ele>
        <time>2026-07-04T08:38:03Z</time>
      </trkpt>
      <trkpt lat="44.49117" lon="2.12434">
        <ele>419</ele>
        <time>2026-07-04T08:38:06Z</time>
      </trkpt>
      <trkpt lat="44.49108" lon="2.12441">
        <ele>419.8</ele>
        <time>2026-07-04T08:38:09Z</time>
      </trkpt>
      <trkpt lat="44.49098" lon="2.12443">
        <ele>420.5</ele>
        <time>2026-07-04T08:38:12Z</time>
      </trkpt>
      <trkpt lat="44.4909" lon="2.12436">
        <ele>421.3</ele>
        <time>2026-07-04T08:38:15Z</time>
      </trkpt>
      <trkpt lat="44.49084" lon="2.12424">
        <ele>422.1</ele>
        <time>2026-07-04T08:38:18Z</time>
      </trkpt>
      <trkpt lat="44.49077" lon="2.1241">
        <ele>423.1</ele>
        <time>2026-07-04T08:38:22Z</time>
      </trkpt>
      <trkpt lat="44.4907" lon="2.12399">
        <ele>423.8</ele>
        <time>2026-07-04T08:38:25Z</time>
      </trkpt>
      <trkpt lat="44.49063" lon="2.12388">
        <ele>424.5</ele>
        <time>2026-07-04T08:38:28Z</time>
      </trkpt>
      <trkpt lat="44.49058" lon="2.12375">
        <ele>425.3</ele>
        <time>2026-07-04T08:38:31Z</time>
      </trkpt>
      <trkpt lat="44.49052" lon="2.12362">
        <ele>426.1</ele>
        <time>2026-07-04T08:38:34Z</time>
      </trkpt>
      <trkpt lat="44.49046" lon="2.12351">
        <ele>427.3</ele>
        <time>2026-07-04T08:38:37Z</time>
      </trkpt>
      <trkpt lat="44.49035" lon="2.1235">
        <ele>428.8</ele>
        <time>2026-07-04T08:38:42Z</time>
      </trkpt>
      <trkpt lat="44.49026" lon="2.12353">
        <ele>430.4</ele>
        <time>2026-07-04T08:38:46Z</time>
      </trkpt>
      <trkpt lat="44.49015" lon="2.12355">
        <ele>432.3</ele>
        <time>2026-07-04T08:38:50Z</time>
      </trkpt>
      <trkpt lat="44.49005" lon="2.12356">
        <ele>434.1</ele>
        <time>2026-07-04T08:38:54Z</time>
      </trkpt>
      <trkpt lat="44.48994" lon="2.12358">
        <ele>435.9</ele>
        <time>2026-07-04T08:38:58Z</time>
      </trkpt>
      <trkpt lat="44.48984" lon="2.1236">
        <ele>437.5</ele>
        <time>2026-07-04T08:39:02Z</time>
      </trkpt>
      <trkpt lat="44.48973" lon="2.12363">
        <ele>439.1</ele>
        <time>2026-07-04T08:39:06Z</time>
      </trkpt>
      <trkpt lat="44.48963" lon="2.12364">
        <ele>440.6</ele>
        <time>2026-07-04T08:39:10Z</time>
      </trkpt>
      <trkpt lat="44.48954" lon="2.12362">
        <ele>441.8</ele>
        <time>2026-07-04T08:39:13Z</time>
      </trkpt>
      <trkpt lat="44.48945" lon="2.1236">
        <ele>442.9</ele>
        <time>2026-07-04T08:39:16Z</time>
      </trkpt>
      <trkpt lat="44.48936" lon="2.12363">
        <ele>443.9</ele>
        <time>2026-07-04T08:39:19Z</time>
      </trkpt>
      <trkpt lat="44.48927" lon="2.12373">
        <ele>444.9</ele>
        <time>2026-07-04T08:39:23Z</time>
      </trkpt>
      <trkpt lat="44.48919" lon="2.12384">
        <ele>445.9</ele>
        <time>2026-07-04T08:39:27Z</time>
      </trkpt>
      <trkpt lat="44.4891" lon="2.12395">
        <ele>447</ele>
        <time>2026-07-04T08:39:31Z</time>
      </trkpt>
      <trkpt lat="44.48903" lon="2.12403">
        <ele>448</ele>
        <time>2026-07-04T08:39:34Z</time>
      </trkpt>
      <trkpt lat="44.48894" lon="2.12413">
        <ele>449.4</ele>
        <time>2026-07-04T08:39:38Z</time>
      </trkpt>
      <trkpt lat="44.48886" lon="2.12424">
        <ele>450.9</ele>
        <time>2026-07-04T08:39:42Z</time>
      </trkpt>
      <trkpt lat="44.48877" lon="2.12435">
        <ele>452.5</ele>
        <time>2026-07-04T08:39:46Z</time>
      </trkpt>
      <trkpt lat="44.4887" lon="2.12446">
        <ele>454.2</ele>
        <time>2026-07-04T08:39:50Z</time>
      </trkpt>
      <trkpt lat="44.48863" lon="2.12456">
        <ele>455.8</ele>
        <time>2026-07-04T08:39:54Z</time>
      </trkpt>
      <trkpt lat="44.48856" lon="2.12467">
        <ele>457.3</ele>
        <time>2026-07-04T08:39:58Z</time>
      </trkpt>
      <trkpt lat="44.48849" lon="2.12479">
        <ele>458.5</ele>
        <time>2026-07-04T08:40:02Z</time>
      </trkpt>
      <trkpt lat="44.48843" lon="2.12489">
        <ele>459.3</ele>
        <time>2026-07-04T08:40:05Z</time>
      </trkpt>
      <trkpt lat="44.48837" lon="2.12499">
        <ele>460.2</ele>
        <time>2026-07-04T08:40:08Z</time>
      </trkpt>
      <trkpt lat="44.48832" lon="2.12509">
        <ele>461.2</ele>
        <time>2026-07-04T08:40:11Z</time>
      </trkpt>
      <trkpt lat="44.48825" lon="2.12521">
        <ele>462.4</ele>
        <time>2026-07-04T08:40:15Z</time>
      </trkpt>
      <trkpt lat="44.48818" lon="2.12534">
        <ele>463.7</ele>
        <time>2026-07-04T08:40:19Z</time>
      </trkpt>
      <trkpt lat="44.48812" lon="2.12544">
        <ele>464.5</ele>
        <time>2026-07-04T08:40:22Z</time>
      </trkpt>
      <trkpt lat="44.48803" lon="2.12554">
        <ele>465.4</ele>
        <time>2026-07-04T08:40:26Z</time>
      </trkpt>
      <trkpt lat="44.48795" lon="2.12565">
        <ele>466.2</ele>
        <time>2026-07-04T08:40:30Z</time>
      </trkpt>
      <trkpt lat="44.48789" lon="2.12577">
        <ele>466.6</ele>
        <time>2026-07-04T08:40:33Z</time>
      </trkpt>
      <trkpt lat="44.48783" lon="2.12588">
        <ele>466.8</ele>
        <time>2026-07-04T08:40:36Z</time>
      </trkpt>
      <trkpt lat="44.48776" lon="2.12601">
        <ele>466.9</ele>
        <time>2026-07-04T08:40:39Z</time>
      </trkpt>
      <trkpt lat="44.48768" lon="2.12614">
        <ele>466.9</ele>
        <time>2026-07-04T08:40:42Z</time>
      </trkpt>
      <trkpt lat="44.4876" lon="2.12628">
        <ele>466.8</ele>
        <time>2026-07-04T08:40:45Z</time>
      </trkpt>
      <trkpt lat="44.48752" lon="2.12641">
        <ele>466.7</ele>
        <time>2026-07-04T08:40:48Z</time>
      </trkpt>
      <trkpt lat="44.48746" lon="2.12651">
        <ele>466.7</ele>
        <time>2026-07-04T08:40:51Z</time>
      </trkpt>
      <trkpt lat="44.48739" lon="2.12662">
        <ele>466.6</ele>
        <time>2026-07-04T08:40:54Z</time>
      </trkpt>
      <trkpt lat="44.48732" lon="2.12674">
        <ele>466.7</ele>
        <time>2026-07-04T08:40:57Z</time>
      </trkpt>
      <trkpt lat="44.48725" lon="2.12686">
        <ele>466.9</ele>
        <time>2026-07-04T08:41:00Z</time>
      </trkpt>
      <trkpt lat="44.48719" lon="2.12699">
        <ele>467.1</ele>
        <time>2026-07-04T08:41:03Z</time>
      </trkpt>
      <trkpt lat="44.48708" lon="2.12702">
        <ele>467.2</ele>
        <time>2026-07-04T08:41:07Z</time>
      </trkpt>
      <trkpt lat="44.48699" lon="2.12693">
        <ele>467.1</ele>
        <time>2026-07-04T08:41:10Z</time>
      </trkpt>
      <trkpt lat="44.4869" lon="2.1268">
        <ele>466.8</ele>
        <time>2026-07-04T08:41:13Z</time>
      </trkpt>
      <trkpt lat="44.4868" lon="2.12667">
        <ele>466.2</ele>
        <time>2026-07-04T08:41:16Z</time>
      </trkpt>
      <trkpt lat="44.48673" lon="2.12657">
        <ele>465.7</ele>
        <time>2026-07-04T08:41:18Z</time>
      </trkpt>
      <trkpt lat="44.48665" lon="2.12647">
        <ele>465.2</ele>
        <time>2026-07-04T08:41:20Z</time>
      </trkpt>
      <trkpt lat="44.48656" lon="2.12638">
        <ele>464.9</ele>
        <time>2026-07-04T08:41:22Z</time>
      </trkpt>
      <trkpt lat="44.48648" lon="2.12629">
        <ele>464.7</ele>
        <time>2026-07-04T08:41:24Z</time>
      </trkpt>
      <trkpt lat="44.4864" lon="2.1262">
        <ele>464.5</ele>
        <time>2026-07-04T08:41:26Z</time>
      </trkpt>
      <trkpt lat="44.48633" lon="2.12612">
        <ele>464.4</ele>
        <time>2026-07-04T08:41:28Z</time>
      </trkpt>
      <trkpt lat="44.48622" lon="2.12601">
        <ele>464.2</ele>
        <time>2026-07-04T08:41:31Z</time>
      </trkpt>
      <trkpt lat="44.48615" lon="2.12593">
        <ele>464</ele>
        <time>2026-07-04T08:41:33Z</time>
      </trkpt>
      <trkpt lat="44.48609" lon="2.12583">
        <ele>463.6</ele>
        <time>2026-07-04T08:41:35Z</time>
      </trkpt>
      <trkpt lat="44.48605" lon="2.1257">
        <ele>463.2</ele>
        <time>2026-07-04T08:41:37Z</time>
      </trkpt>
      <trkpt lat="44.48602" lon="2.12556">
        <ele>463.2</ele>
        <time>2026-07-04T08:41:39Z</time>
      </trkpt>
      <trkpt lat="44.48599" lon="2.12542">
        <ele>463.3</ele>
        <time>2026-07-04T08:41:41Z</time>
      </trkpt>
      <trkpt lat="44.48596" lon="2.12527">
        <ele>463.2</ele>
        <time>2026-07-04T08:41:43Z</time>
      </trkpt>
      <trkpt lat="44.48592" lon="2.12512">
        <ele>463.1</ele>
        <time>2026-07-04T08:41:45Z</time>
      </trkpt>
      <trkpt lat="44.48587" lon="2.12496">
        <ele>463</ele>
        <time>2026-07-04T08:41:47Z</time>
      </trkpt>
      <trkpt lat="44.48584" lon="2.12482">
        <ele>462.9</ele>
        <time>2026-07-04T08:41:49Z</time>
      </trkpt>
      <trkpt lat="44.48579" lon="2.12467">
        <ele>462.5</ele>
        <time>2026-07-04T08:41:51Z</time>
      </trkpt>
      <trkpt lat="44.48572" lon="2.12452">
        <ele>461.2</ele>
        <time>2026-07-04T08:41:53Z</time>
      </trkpt>
      <trkpt lat="44.48565" lon="2.12437">
        <ele>460.1</ele>
        <time>2026-07-04T08:41:55Z</time>
      </trkpt>
      <trkpt lat="44.48559" lon="2.12419">
        <ele>458.8</ele>
        <time>2026-07-04T08:41:57Z</time>
      </trkpt>
      <trkpt lat="44.48552" lon="2.12399">
        <ele>457.1</ele>
        <time>2026-07-04T08:41:59Z</time>
      </trkpt>
      <trkpt lat="44.48547" lon="2.12376">
        <ele>455.5</ele>
        <time>2026-07-04T08:42:01Z</time>
      </trkpt>
      <trkpt lat="44.48544" lon="2.12352">
        <ele>453.1</ele>
        <time>2026-07-04T08:42:03Z</time>
      </trkpt>
      <trkpt lat="44.48544" lon="2.12329">
        <ele>451</ele>
        <time>2026-07-04T08:42:05Z</time>
      </trkpt>
      <trkpt lat="44.48545" lon="2.12316">
        <ele>449.9</ele>
        <time>2026-07-04T08:42:06Z</time>
      </trkpt>
      <trkpt lat="44.48546" lon="2.12304">
        <ele>448.4</ele>
        <time>2026-07-04T08:42:07Z</time>
      </trkpt>
      <trkpt lat="44.48548" lon="2.1228">
        <ele>446.6</ele>
        <time>2026-07-04T08:42:09Z</time>
      </trkpt>
      <trkpt lat="44.48551" lon="2.12259">
        <ele>444.4</ele>
        <time>2026-07-04T08:42:11Z</time>
      </trkpt>
      <trkpt lat="44.48553" lon="2.12246">
        <ele>442.8</ele>
        <time>2026-07-04T08:42:13Z</time>
      </trkpt>
      <trkpt lat="44.48555" lon="2.12232">
        <ele>441.2</ele>
        <time>2026-07-04T08:42:16Z</time>
      </trkpt>
      <trkpt lat="44.4856" lon="2.12218">
        <ele>439.4</ele>
        <time>2026-07-04T08:42:19Z</time>
      </trkpt>
      <trkpt lat="44.48566" lon="2.12205">
        <ele>437</ele>
        <time>2026-07-04T08:42:22Z</time>
      </trkpt>
      <trkpt lat="44.48575" lon="2.1219">
        <ele>434</ele>
        <time>2026-07-04T08:42:25Z</time>
      </trkpt>
      <trkpt lat="44.48584" lon="2.12174">
        <ele>431.1</ele>
        <time>2026-07-04T08:42:27Z</time>
      </trkpt>
      <trkpt lat="44.48593" lon="2.12163">
        <ele>428.1</ele>
        <time>2026-07-04T08:42:29Z</time>
      </trkpt>
      <trkpt lat="44.48596" lon="2.12149">
        <ele>426.8</ele>
        <time>2026-07-04T08:42:31Z</time>
      </trkpt>
      <trkpt lat="44.48595" lon="2.12133">
        <ele>425.8</ele>
        <time>2026-07-04T08:42:33Z</time>
      </trkpt>
      <trkpt lat="44.48596" lon="2.12119">
        <ele>424.9</ele>
        <time>2026-07-04T08:42:35Z</time>
      </trkpt>
      <trkpt lat="44.48604" lon="2.12111">
        <ele>421.9</ele>
        <time>2026-07-04T08:42:37Z</time>
      </trkpt>
      <trkpt lat="44.48615" lon="2.12106">
        <ele>418.6</ele>
        <time>2026-07-04T08:42:39Z</time>
      </trkpt>
      <trkpt lat="44.48627" lon="2.12108">
        <ele>415</ele>
        <time>2026-07-04T08:42:41Z</time>
      </trkpt>
      <trkpt lat="44.48635" lon="2.12116">
        <ele>412.6</ele>
        <time>2026-07-04T08:42:43Z</time>
      </trkpt>
      <trkpt lat="44.4864" lon="2.12104">
        <ele>411.2</ele>
        <time>2026-07-04T08:42:46Z</time>
      </trkpt>
      <trkpt lat="44.48635" lon="2.12092">
        <ele>411.6</ele>
        <time>2026-07-04T08:42:48Z</time>
      </trkpt>
      <trkpt lat="44.48638" lon="2.12079">
        <ele>410</ele>
        <time>2026-07-04T08:42:51Z</time>
      </trkpt>
      <trkpt lat="44.48649" lon="2.12082">
        <ele>407.6</ele>
        <time>2026-07-04T08:42:53Z</time>
      </trkpt>
      <trkpt lat="44.48661" lon="2.12088">
        <ele>404.4</ele>
        <time>2026-07-04T08:42:55Z</time>
      </trkpt>
      <trkpt lat="44.48669" lon="2.12081">
        <ele>401.5</ele>
        <time>2026-07-04T08:42:58Z</time>
      </trkpt>
      <trkpt lat="44.48669" lon="2.12065">
        <ele>401.2</ele>
        <time>2026-07-04T08:43:01Z</time>
      </trkpt>
      <trkpt lat="44.48679" lon="2.12055">
        <ele>398.4</ele>
        <time>2026-07-04T08:43:04Z</time>
      </trkpt>
      <trkpt lat="44.4869" lon="2.1206">
        <ele>395.1</ele>
        <time>2026-07-04T08:43:07Z</time>
      </trkpt>
      <trkpt lat="44.48698" lon="2.12066">
        <ele>393.2</ele>
        <time>2026-07-04T08:43:09Z</time>
      </trkpt>
      <trkpt lat="44.48706" lon="2.1206">
        <ele>390.5</ele>
        <time>2026-07-04T08:43:12Z</time>
      </trkpt>
      <trkpt lat="44.48709" lon="2.12045">
        <ele>389.6</ele>
        <time>2026-07-04T08:43:15Z</time>
      </trkpt>
      <trkpt lat="44.48704" lon="2.12033">
        <ele>390.9</ele>
        <time>2026-07-04T08:43:17Z</time>
      </trkpt>
      <trkpt lat="44.48706" lon="2.12019">
        <ele>389.7</ele>
        <time>2026-07-04T08:43:20Z</time>
      </trkpt>
      <trkpt lat="44.48714" lon="2.12014">
        <ele>387.4</ele>
        <time>2026-07-04T08:43:22Z</time>
      </trkpt>
      <trkpt lat="44.48723" lon="2.12008">
        <ele>385.6</ele>
        <time>2026-07-04T08:43:24Z</time>
      </trkpt>
      <trkpt lat="44.48734" lon="2.12006">
        <ele>382.7</ele>
        <time>2026-07-04T08:43:26Z</time>
      </trkpt>
      <trkpt lat="44.48745" lon="2.12004">
        <ele>379.9</ele>
        <time>2026-07-04T08:43:28Z</time>
      </trkpt>
      <trkpt lat="44.48755" lon="2.12004">
        <ele>377.8</ele>
        <time>2026-07-04T08:43:30Z</time>
      </trkpt>
      <trkpt lat="44.48763" lon="2.11992">
        <ele>375.2</ele>
        <time>2026-07-04T08:43:33Z</time>
      </trkpt>
      <trkpt lat="44.48758" lon="2.11981">
        <ele>376</ele>
        <time>2026-07-04T08:43:35Z</time>
      </trkpt>
      <trkpt lat="44.48751" lon="2.11971">
        <ele>376.2</ele>
        <time>2026-07-04T08:43:37Z</time>
      </trkpt>
      <trkpt lat="44.48742" lon="2.1196">
        <ele>377.2</ele>
        <time>2026-07-04T08:43:39Z</time>
      </trkpt>
      <trkpt lat="44.48733" lon="2.11953">
        <ele>378</ele>
        <time>2026-07-04T08:43:41Z</time>
      </trkpt>
      <trkpt lat="44.48721" lon="2.11946">
        <ele>379.8</ele>
        <time>2026-07-04T08:43:43Z</time>
      </trkpt>
      <trkpt lat="44.48707" lon="2.11945">
        <ele>381.8</ele>
        <time>2026-07-04T08:43:45Z</time>
      </trkpt>
      <trkpt lat="44.48693" lon="2.11943">
        <ele>383.6</ele>
        <time>2026-07-04T08:43:47Z</time>
      </trkpt>
      <trkpt lat="44.4868" lon="2.11935">
        <ele>384.1</ele>
        <time>2026-07-04T08:43:49Z</time>
      </trkpt>
      <trkpt lat="44.48667" lon="2.11925">
        <ele>384</ele>
        <time>2026-07-04T08:43:51Z</time>
      </trkpt>
      <trkpt lat="44.48655" lon="2.11912">
        <ele>381.3</ele>
        <time>2026-07-04T08:43:53Z</time>
      </trkpt>
      <trkpt lat="44.48645" lon="2.11897">
        <ele>379</ele>
        <time>2026-07-04T08:43:55Z</time>
      </trkpt>
      <trkpt lat="44.48637" lon="2.11882">
        <ele>376.8</ele>
        <time>2026-07-04T08:43:57Z</time>
      </trkpt>
      <trkpt lat="44.48628" lon="2.11871">
        <ele>374</ele>
        <time>2026-07-04T08:43:59Z</time>
      </trkpt>
      <trkpt lat="44.48619" lon="2.11861">
        <ele>371.8</ele>
        <time>2026-07-04T08:44:01Z</time>
      </trkpt>
      <trkpt lat="44.48612" lon="2.11853">
        <ele>370</ele>
        <time>2026-07-04T08:44:04Z</time>
      </trkpt>
      <trkpt lat="44.4862" lon="2.11845">
        <ele>366.8</ele>
        <time>2026-07-04T08:44:08Z</time>
      </trkpt>
      <trkpt lat="44.48631" lon="2.11842">
        <ele>364.6</ele>
        <time>2026-07-04T08:44:11Z</time>
      </trkpt>
      <trkpt lat="44.48631" lon="2.11829">
        <ele>360.9</ele>
        <time>2026-07-04T08:44:14Z</time>
      </trkpt>
      <trkpt lat="44.48625" lon="2.11818">
        <ele>358.8</ele>
        <time>2026-07-04T08:44:16Z</time>
      </trkpt>
      <trkpt lat="44.48618" lon="2.11808">
        <ele>355.7</ele>
        <time>2026-07-04T08:44:18Z</time>
      </trkpt>
      <trkpt lat="44.48613" lon="2.11797">
        <ele>353.8</ele>
        <time>2026-07-04T08:44:20Z</time>
      </trkpt>
      <trkpt lat="44.48607" lon="2.11786">
        <ele>350.5</ele>
        <time>2026-07-04T08:44:22Z</time>
      </trkpt>
      <trkpt lat="44.48598" lon="2.11775">
        <ele>348.1</ele>
        <time>2026-07-04T08:44:24Z</time>
      </trkpt>
      <trkpt lat="44.48587" lon="2.11764">
        <ele>344.4</ele>
        <time>2026-07-04T08:44:26Z</time>
      </trkpt>
      <trkpt lat="44.48578" lon="2.11754">
        <ele>341.9</ele>
        <time>2026-07-04T08:44:28Z</time>
      </trkpt>
      <trkpt lat="44.48568" lon="2.11749">
        <ele>340.4</ele>
        <time>2026-07-04T08:44:30Z</time>
      </trkpt>
      <trkpt lat="44.48558" lon="2.11748">
        <ele>338.5</ele>
        <time>2026-07-04T08:44:32Z</time>
      </trkpt>
      <trkpt lat="44.48545" lon="2.11752">
        <ele>338.5</ele>
        <time>2026-07-04T08:44:34Z</time>
      </trkpt>
      <trkpt lat="44.48534" lon="2.11751">
        <ele>337.6</ele>
        <time>2026-07-04T08:44:36Z</time>
      </trkpt>
      <trkpt lat="44.48517" lon="2.11752">
        <ele>335.7</ele>
        <time>2026-07-04T08:44:38Z</time>
      </trkpt>
      <trkpt lat="44.48503" lon="2.11752">
        <ele>334.6</ele>
        <time>2026-07-04T08:44:40Z</time>
      </trkpt>
      <trkpt lat="44.48494" lon="2.11753">
        <ele>333.9</ele>
        <time>2026-07-04T08:44:42Z</time>
      </trkpt>
      <trkpt lat="44.48484" lon="2.11753">
        <ele>333.2</ele>
        <time>2026-07-04T08:44:44Z</time>
      </trkpt>
      <trkpt lat="44.48478" lon="2.11742">
        <ele>331</ele>
        <time>2026-07-04T08:44:46Z</time>
      </trkpt>
      <trkpt lat="44.48473" lon="2.11729">
        <ele>328</ele>
        <time>2026-07-04T08:44:48Z</time>
      </trkpt>
      <trkpt lat="44.48466" lon="2.1172">
        <ele>326.3</ele>
        <time>2026-07-04T08:44:50Z</time>
      </trkpt>
      <trkpt lat="44.48457" lon="2.11707">
        <ele>324.3</ele>
        <time>2026-07-04T08:44:52Z</time>
      </trkpt>
      <trkpt lat="44.48448" lon="2.11699">
        <ele>323</ele>
        <time>2026-07-04T08:44:54Z</time>
      </trkpt>
      <trkpt lat="44.48438" lon="2.11695">
        <ele>322.6</ele>
        <time>2026-07-04T08:44:56Z</time>
      </trkpt>
      <trkpt lat="44.48424" lon="2.11694">
        <ele>323.5</ele>
        <time>2026-07-04T08:44:58Z</time>
      </trkpt>
      <trkpt lat="44.48408" lon="2.11686">
        <ele>323.6</ele>
        <time>2026-07-04T08:45:00Z</time>
      </trkpt>
      <trkpt lat="44.48393" lon="2.11674">
        <ele>322.6</ele>
        <time>2026-07-04T08:45:02Z</time>
      </trkpt>
      <trkpt lat="44.48382" lon="2.11659">
        <ele>321.2</ele>
        <time>2026-07-04T08:45:04Z</time>
      </trkpt>
      <trkpt lat="44.48373" lon="2.11643">
        <ele>318.6</ele>
        <time>2026-07-04T08:45:06Z</time>
      </trkpt>
      <trkpt lat="44.48364" lon="2.11625">
        <ele>316.1</ele>
        <time>2026-07-04T08:45:08Z</time>
      </trkpt>
      <trkpt lat="44.48352" lon="2.11613">
        <ele>314.2</ele>
        <time>2026-07-04T08:45:10Z</time>
      </trkpt>
      <trkpt lat="44.4834" lon="2.11609">
        <ele>313.6</ele>
        <time>2026-07-04T08:45:12Z</time>
      </trkpt>
      <trkpt lat="44.48325" lon="2.11603">
        <ele>313.1</ele>
        <time>2026-07-04T08:45:14Z</time>
      </trkpt>
      <trkpt lat="44.48311" lon="2.11594">
        <ele>311.8</ele>
        <time>2026-07-04T08:45:16Z</time>
      </trkpt>
      <trkpt lat="44.48299" lon="2.11586">
        <ele>310.4</ele>
        <time>2026-07-04T08:45:18Z</time>
      </trkpt>
      <trkpt lat="44.48286" lon="2.11579">
        <ele>309.1</ele>
        <time>2026-07-04T08:45:20Z</time>
      </trkpt>
      <trkpt lat="44.48271" lon="2.11569">
        <ele>308.3</ele>
        <time>2026-07-04T08:45:22Z</time>
      </trkpt>
      <trkpt lat="44.48259" lon="2.11558">
        <ele>305.6</ele>
        <time>2026-07-04T08:45:24Z</time>
      </trkpt>
      <trkpt lat="44.48247" lon="2.11547">
        <ele>303.8</ele>
        <time>2026-07-04T08:45:26Z</time>
      </trkpt>
      <trkpt lat="44.48234" lon="2.11536">
        <ele>300.9</ele>
        <time>2026-07-04T08:45:28Z</time>
      </trkpt>
      <trkpt lat="44.48224" lon="2.11527">
        <ele>298.9</ele>
        <time>2026-07-04T08:45:30Z</time>
      </trkpt>
      <trkpt lat="44.48216" lon="2.11515">
        <ele>297.7</ele>
        <time>2026-07-04T08:45:33Z</time>
      </trkpt>
      <trkpt lat="44.48207" lon="2.11514">
        <ele>296.6</ele>
        <time>2026-07-04T08:45:37Z</time>
      </trkpt>
      <trkpt lat="44.48198" lon="2.11515">
        <ele>295.6</ele>
        <time>2026-07-04T08:45:57Z</time>
      </trkpt>
      <trkpt lat="44.48197" lon="2.11515">
        <ele>295.6</ele>
        <time>2026-07-04T08:46:01Z</time>
      </trkpt>
      <trkpt lat="44.48197" lon="2.11514">
        <ele>295.5</ele>
        <time>2026-07-04T08:46:08Z</time>
      </trkpt>
      <trkpt lat="44.48196" lon="2.11513">
        <ele>295.4</ele>
        <time>2026-07-04T08:46:20Z</time>
      </trkpt>
      <trkpt lat="44.48203" lon="2.11518">
        <ele>296.4</ele>
        <time>2026-07-04T08:47:06Z</time>
      </trkpt>
      <trkpt lat="44.48212" lon="2.11523">
        <ele>297.8</ele>
        <time>2026-07-04T08:47:12Z</time>
      </trkpt>
      <trkpt lat="44.4822" lon="2.11531">
        <ele>299.2</ele>
        <time>2026-07-04T08:47:17Z</time>
      </trkpt>
      <trkpt lat="44.48214" lon="2.11543">
        <ele>300.3</ele>
        <time>2026-07-04T08:47:35Z</time>
      </trkpt>
      <trkpt lat="44.48204" lon="2.11546">
        <ele>301.3</ele>
        <time>2026-07-04T08:47:39Z</time>
      </trkpt>
      <trkpt lat="44.48195" lon="2.11549">
        <ele>302</ele>
        <time>2026-07-04T08:47:42Z</time>
      </trkpt>
      <trkpt lat="44.48184" lon="2.11552">
        <ele>302.9</ele>
        <time>2026-07-04T08:47:46Z</time>
      </trkpt>
      <trkpt lat="44.48173" lon="2.11555">
        <ele>303.6</ele>
        <time>2026-07-04T08:47:50Z</time>
      </trkpt>
      <trkpt lat="44.48162" lon="2.11557">
        <ele>304.4</ele>
        <time>2026-07-04T08:47:54Z</time>
      </trkpt>
      <trkpt lat="44.48151" lon="2.1156">
        <ele>305.1</ele>
        <time>2026-07-04T08:47:58Z</time>
      </trkpt>
      <trkpt lat="44.48142" lon="2.1156">
        <ele>305.6</ele>
        <time>2026-07-04T08:48:01Z</time>
      </trkpt>
      <trkpt lat="44.48131" lon="2.11563">
        <ele>306.4</ele>
        <time>2026-07-04T08:48:05Z</time>
      </trkpt>
      <trkpt lat="44.48122" lon="2.11565">
        <ele>307.1</ele>
        <time>2026-07-04T08:48:09Z</time>
      </trkpt>
      <trkpt lat="44.48112" lon="2.11568">
        <ele>308.1</ele>
        <time>2026-07-04T08:48:13Z</time>
      </trkpt>
      <trkpt lat="44.48101" lon="2.1157">
        <ele>309</ele>
        <time>2026-07-04T08:48:17Z</time>
      </trkpt>
      <trkpt lat="44.4809" lon="2.11572">
        <ele>310</ele>
        <time>2026-07-04T08:48:21Z</time>
      </trkpt>
      <trkpt lat="44.48079" lon="2.11573">
        <ele>310.9</ele>
        <time>2026-07-04T08:48:25Z</time>
      </trkpt>
      <trkpt lat="44.48068" lon="2.11575">
        <ele>311.7</ele>
        <time>2026-07-04T08:48:29Z</time>
      </trkpt>
      <trkpt lat="44.48059" lon="2.11575">
        <ele>312.4</ele>
        <time>2026-07-04T08:48:33Z</time>
      </trkpt>
      <trkpt lat="44.48047" lon="2.11574">
        <ele>313.2</ele>
        <time>2026-07-04T08:48:37Z</time>
      </trkpt>
      <trkpt lat="44.48037" lon="2.11576">
        <ele>314.1</ele>
        <time>2026-07-04T08:48:41Z</time>
      </trkpt>
      <trkpt lat="44.48025" lon="2.11577">
        <ele>315.1</ele>
        <time>2026-07-04T08:48:45Z</time>
      </trkpt>
      <trkpt lat="44.48016" lon="2.11579">
        <ele>315.9</ele>
        <time>2026-07-04T08:48:48Z</time>
      </trkpt>
      <trkpt lat="44.48005" lon="2.11581">
        <ele>316.8</ele>
        <time>2026-07-04T08:48:52Z</time>
      </trkpt>
      <trkpt lat="44.47996" lon="2.11585">
        <ele>317.6</ele>
        <time>2026-07-04T08:48:55Z</time>
      </trkpt>
      <trkpt lat="44.47986" lon="2.11588">
        <ele>318.4</ele>
        <time>2026-07-04T08:48:58Z</time>
      </trkpt>
      <trkpt lat="44.47975" lon="2.1159">
        <ele>319.4</ele>
        <time>2026-07-04T08:49:02Z</time>
      </trkpt>
      <trkpt lat="44.47966" lon="2.11595">
        <ele>320.3</ele>
        <time>2026-07-04T08:49:05Z</time>
      </trkpt>
      <trkpt lat="44.47956" lon="2.116">
        <ele>321.4</ele>
        <time>2026-07-04T08:49:08Z</time>
      </trkpt>
      <trkpt lat="44.47948" lon="2.11604">
        <ele>322.5</ele>
        <time>2026-07-04T08:49:11Z</time>
      </trkpt>
      <trkpt lat="44.47956" lon="2.11613">
        <ele>323.5</ele>
        <time>2026-07-04T08:49:19Z</time>
      </trkpt>
      <trkpt lat="44.47968" lon="2.11611">
        <ele>324.2</ele>
        <time>2026-07-04T08:49:24Z</time>
      </trkpt>
      <trkpt lat="44.47978" lon="2.1161">
        <ele>324.8</ele>
        <time>2026-07-04T08:49:28Z</time>
      </trkpt>
      <trkpt lat="44.47987" lon="2.1161">
        <ele>325.4</ele>
        <time>2026-07-04T08:49:31Z</time>
      </trkpt>
      <trkpt lat="44.47998" lon="2.11609">
        <ele>326</ele>
        <time>2026-07-04T08:49:35Z</time>
      </trkpt>
      <trkpt lat="44.4801" lon="2.11608">
        <ele>326.7</ele>
        <time>2026-07-04T08:49:39Z</time>
      </trkpt>
      <trkpt lat="44.48021" lon="2.11609">
        <ele>327.4</ele>
        <time>2026-07-04T08:49:43Z</time>
      </trkpt>
      <trkpt lat="44.48032" lon="2.11611">
        <ele>328.1</ele>
        <time>2026-07-04T08:49:47Z</time>
      </trkpt>
      <trkpt lat="44.48042" lon="2.11612">
        <ele>328.7</ele>
        <time>2026-07-04T08:49:50Z</time>
      </trkpt>
      <trkpt lat="44.48051" lon="2.11614">
        <ele>329.4</ele>
        <time>2026-07-04T08:49:53Z</time>
      </trkpt>
      <trkpt lat="44.48063" lon="2.11614">
        <ele>330.2</ele>
        <time>2026-07-04T08:49:57Z</time>
      </trkpt>
      <trkpt lat="44.48074" lon="2.11615">
        <ele>331</ele>
        <time>2026-07-04T08:50:01Z</time>
      </trkpt>
      <trkpt lat="44.48083" lon="2.11617">
        <ele>331.7</ele>
        <time>2026-07-04T08:50:04Z</time>
      </trkpt>
      <trkpt lat="44.48095" lon="2.11621">
        <ele>332.5</ele>
        <time>2026-07-04T08:50:08Z</time>
      </trkpt>
      <trkpt lat="44.48106" lon="2.11626">
        <ele>333.3</ele>
        <time>2026-07-04T08:50:12Z</time>
      </trkpt>
      <trkpt lat="44.48116" lon="2.11632">
        <ele>334.1</ele>
        <time>2026-07-04T08:50:16Z</time>
      </trkpt>
      <trkpt lat="44.48124" lon="2.11638">
        <ele>334.8</ele>
        <time>2026-07-04T08:50:19Z</time>
      </trkpt>
      <trkpt lat="44.48131" lon="2.11646">
        <ele>335.4</ele>
        <time>2026-07-04T08:50:22Z</time>
      </trkpt>
      <trkpt lat="44.48139" lon="2.11654">
        <ele>336.1</ele>
        <time>2026-07-04T08:50:25Z</time>
      </trkpt>
      <trkpt lat="44.48147" lon="2.11662">
        <ele>336.7</ele>
        <time>2026-07-04T08:50:28Z</time>
      </trkpt>
      <trkpt lat="44.48155" lon="2.11669">
        <ele>337.3</ele>
        <time>2026-07-04T08:50:31Z</time>
      </trkpt>
      <trkpt lat="44.48164" lon="2.11673">
        <ele>337.9</ele>
        <time>2026-07-04T08:50:34Z</time>
      </trkpt>
      <trkpt lat="44.48173" lon="2.11676">
        <ele>338.5</ele>
        <time>2026-07-04T08:50:37Z</time>
      </trkpt>
      <trkpt lat="44.48183" lon="2.11678">
        <ele>339.2</ele>
        <time>2026-07-04T08:50:40Z</time>
      </trkpt>
      <trkpt lat="44.48192" lon="2.11682">
        <ele>339.8</ele>
        <time>2026-07-04T08:50:43Z</time>
      </trkpt>
      <trkpt lat="44.48203" lon="2.11684">
        <ele>340.6</ele>
        <time>2026-07-04T08:50:46Z</time>
      </trkpt>
      <trkpt lat="44.48212" lon="2.11686">
        <ele>341.3</ele>
        <time>2026-07-04T08:50:49Z</time>
      </trkpt>
      <trkpt lat="44.48224" lon="2.11689">
        <ele>342.1</ele>
        <time>2026-07-04T08:50:53Z</time>
      </trkpt>
      <trkpt lat="44.48233" lon="2.11693">
        <ele>342.7</ele>
        <time>2026-07-04T08:50:56Z</time>
      </trkpt>
      <trkpt lat="44.48244" lon="2.11697">
        <ele>343.4</ele>
        <time>2026-07-04T08:50:59Z</time>
      </trkpt>
      <trkpt lat="44.48254" lon="2.11702">
        <ele>344.1</ele>
        <time>2026-07-04T08:51:02Z</time>
      </trkpt>
      <trkpt lat="44.48263" lon="2.11708">
        <ele>344.8</ele>
        <time>2026-07-04T08:51:05Z</time>
      </trkpt>
      <trkpt lat="44.48271" lon="2.11718">
        <ele>345.7</ele>
        <time>2026-07-04T08:51:09Z</time>
      </trkpt>
      <trkpt lat="44.48275" lon="2.11733">
        <ele>346.6</ele>
        <time>2026-07-04T08:51:13Z</time>
      </trkpt>
      <trkpt lat="44.48274" lon="2.11747">
        <ele>347.4</ele>
        <time>2026-07-04T08:51:17Z</time>
      </trkpt>
      <trkpt lat="44.48275" lon="2.11761">
        <ele>348.2</ele>
        <time>2026-07-04T08:51:21Z</time>
      </trkpt>
      <trkpt lat="44.48278" lon="2.11774">
        <ele>348.9</ele>
        <time>2026-07-04T08:51:24Z</time>
      </trkpt>
      <trkpt lat="44.48281" lon="2.11786">
        <ele>349.6</ele>
        <time>2026-07-04T08:51:27Z</time>
      </trkpt>
      <trkpt lat="44.48289" lon="2.11798">
        <ele>350.5</ele>
        <time>2026-07-04T08:51:31Z</time>
      </trkpt>
      <trkpt lat="44.483" lon="2.11797">
        <ele>351.2</ele>
        <time>2026-07-04T08:51:35Z</time>
      </trkpt>
      <trkpt lat="44.48311" lon="2.11793">
        <ele>351.8</ele>
        <time>2026-07-04T08:51:39Z</time>
      </trkpt>
      <trkpt lat="44.4832" lon="2.11788">
        <ele>352.4</ele>
        <time>2026-07-04T08:51:42Z</time>
      </trkpt>
      <trkpt lat="44.4833" lon="2.11786">
        <ele>352.9</ele>
        <time>2026-07-04T08:51:45Z</time>
      </trkpt>
      <trkpt lat="44.4834" lon="2.11785">
        <ele>353.5</ele>
        <time>2026-07-04T08:51:48Z</time>
      </trkpt>
      <trkpt lat="44.4835" lon="2.11784">
        <ele>354.2</ele>
        <time>2026-07-04T08:51:51Z</time>
      </trkpt>
      <trkpt lat="44.48359" lon="2.11785">
        <ele>354.9</ele>
        <time>2026-07-04T08:51:54Z</time>
      </trkpt>
      <trkpt lat="44.48368" lon="2.11786">
        <ele>355.6</ele>
        <time>2026-07-04T08:51:57Z</time>
      </trkpt>
      <trkpt lat="44.48378" lon="2.11789">
        <ele>356.4</ele>
        <time>2026-07-04T08:52:00Z</time>
      </trkpt>
      <trkpt lat="44.48387" lon="2.11794">
        <ele>357.2</ele>
        <time>2026-07-04T08:52:03Z</time>
      </trkpt>
      <trkpt lat="44.48395" lon="2.11801">
        <ele>358</ele>
        <time>2026-07-04T08:52:06Z</time>
      </trkpt>
      <trkpt lat="44.48403" lon="2.11809">
        <ele>358.8</ele>
        <time>2026-07-04T08:52:09Z</time>
      </trkpt>
      <trkpt lat="44.4841" lon="2.11823">
        <ele>359.8</ele>
        <time>2026-07-04T08:52:13Z</time>
      </trkpt>
      <trkpt lat="44.48415" lon="2.11837">
        <ele>360.7</ele>
        <time>2026-07-04T08:52:17Z</time>
      </trkpt>
      <trkpt lat="44.48419" lon="2.11853">
        <ele>361.5</ele>
        <time>2026-07-04T08:52:21Z</time>
      </trkpt>
      <trkpt lat="44.48425" lon="2.11868">
        <ele>362.4</ele>
        <time>2026-07-04T08:52:25Z</time>
      </trkpt>
      <trkpt lat="44.48432" lon="2.11878">
        <ele>363.1</ele>
        <time>2026-07-04T08:52:28Z</time>
      </trkpt>
      <trkpt lat="44.48439" lon="2.11887">
        <ele>363.9</ele>
        <time>2026-07-04T08:52:31Z</time>
      </trkpt>
      <trkpt lat="44.48444" lon="2.119">
        <ele>365</ele>
        <time>2026-07-04T08:52:35Z</time>
      </trkpt>
      <trkpt lat="44.48434" lon="2.11894">
        <ele>366.1</ele>
        <time>2026-07-04T08:52:41Z</time>
      </trkpt>
      <trkpt lat="44.48426" lon="2.11884">
        <ele>366.8</ele>
        <time>2026-07-04T08:52:45Z</time>
      </trkpt>
      <trkpt lat="44.4842" lon="2.11875">
        <ele>367.3</ele>
        <time>2026-07-04T08:52:49Z</time>
      </trkpt>
      <trkpt lat="44.48415" lon="2.11864">
        <ele>367.8</ele>
        <time>2026-07-04T08:52:53Z</time>
      </trkpt>
      <trkpt lat="44.48407" lon="2.11853">
        <ele>368.4</ele>
        <time>2026-07-04T08:52:57Z</time>
      </trkpt>
      <trkpt lat="44.48397" lon="2.11844">
        <ele>369.2</ele>
        <time>2026-07-04T08:53:01Z</time>
      </trkpt>
      <trkpt lat="44.48387" lon="2.11841">
        <ele>370</ele>
        <time>2026-07-04T08:53:05Z</time>
      </trkpt>
      <trkpt lat="44.48376" lon="2.1184">
        <ele>370.8</ele>
        <time>2026-07-04T08:53:09Z</time>
      </trkpt>
      <trkpt lat="44.48364" lon="2.11841">
        <ele>371.6</ele>
        <time>2026-07-04T08:53:13Z</time>
      </trkpt>
      <trkpt lat="44.48354" lon="2.11845">
        <ele>372.4</ele>
        <time>2026-07-04T08:53:17Z</time>
      </trkpt>
      <trkpt lat="44.48345" lon="2.11851">
        <ele>373.1</ele>
        <time>2026-07-04T08:53:21Z</time>
      </trkpt>
      <trkpt lat="44.48336" lon="2.11857">
        <ele>373.8</ele>
        <time>2026-07-04T08:53:25Z</time>
      </trkpt>
      <trkpt lat="44.48328" lon="2.11868">
        <ele>374.6</ele>
        <time>2026-07-04T08:53:30Z</time>
      </trkpt>
      <trkpt lat="44.48321" lon="2.1188">
        <ele>375.5</ele>
        <time>2026-07-04T08:53:34Z</time>
      </trkpt>
      <trkpt lat="44.48315" lon="2.11889">
        <ele>376.1</ele>
        <time>2026-07-04T08:53:38Z</time>
      </trkpt>
      <trkpt lat="44.48307" lon="2.11898">
        <ele>376.9</ele>
        <time>2026-07-04T08:53:43Z</time>
      </trkpt>
      <trkpt lat="44.48297" lon="2.11904">
        <ele>377.7</ele>
        <time>2026-07-04T08:53:47Z</time>
      </trkpt>
      <trkpt lat="44.48288" lon="2.1191">
        <ele>378.4</ele>
        <time>2026-07-04T08:53:51Z</time>
      </trkpt>
      <trkpt lat="44.48278" lon="2.11911">
        <ele>379.3</ele>
        <time>2026-07-04T08:53:56Z</time>
      </trkpt>
      <trkpt lat="44.48272" lon="2.11901">
        <ele>380.1</ele>
        <time>2026-07-04T08:54:01Z</time>
      </trkpt>
      <trkpt lat="44.48264" lon="2.11891">
        <ele>380.9</ele>
        <time>2026-07-04T08:54:05Z</time>
      </trkpt>
      <trkpt lat="44.48261" lon="2.11878">
        <ele>381.3</ele>
        <time>2026-07-04T08:54:09Z</time>
      </trkpt>
      <trkpt lat="44.48256" lon="2.11866">
        <ele>381.7</ele>
        <time>2026-07-04T08:54:13Z</time>
      </trkpt>
      <trkpt lat="44.48251" lon="2.11855">
        <ele>382.2</ele>
        <time>2026-07-04T08:54:16Z</time>
      </trkpt>
      <trkpt lat="44.48246" lon="2.11845">
        <ele>382.6</ele>
        <time>2026-07-04T08:54:19Z</time>
      </trkpt>
      <trkpt lat="44.48238" lon="2.11835">
        <ele>383.2</ele>
        <time>2026-07-04T08:54:22Z</time>
      </trkpt>
      <trkpt lat="44.4823" lon="2.11831">
        <ele>383.7</ele>
        <time>2026-07-04T08:54:25Z</time>
      </trkpt>
      <trkpt lat="44.48219" lon="2.11825">
        <ele>384.4</ele>
        <time>2026-07-04T08:54:29Z</time>
      </trkpt>
      <trkpt lat="44.48209" lon="2.1182">
        <ele>385.2</ele>
        <time>2026-07-04T08:54:33Z</time>
      </trkpt>
      <trkpt lat="44.48198" lon="2.11816">
        <ele>386</ele>
        <time>2026-07-04T08:54:38Z</time>
      </trkpt>
      <trkpt lat="44.48189" lon="2.11814">
        <ele>386.7</ele>
        <time>2026-07-04T08:54:41Z</time>
      </trkpt>
      <trkpt lat="44.48178" lon="2.11811">
        <ele>387.7</ele>
        <time>2026-07-04T08:54:44Z</time>
      </trkpt>
      <trkpt lat="44.48167" lon="2.1181">
        <ele>388.5</ele>
        <time>2026-07-04T08:54:48Z</time>
      </trkpt>
      <trkpt lat="44.48157" lon="2.11812">
        <ele>389.3</ele>
        <time>2026-07-04T08:54:52Z</time>
      </trkpt>
      <trkpt lat="44.48148" lon="2.1181">
        <ele>389.9</ele>
        <time>2026-07-04T08:54:55Z</time>
      </trkpt>
      <trkpt lat="44.48137" lon="2.11807">
        <ele>390.5</ele>
        <time>2026-07-04T08:54:58Z</time>
      </trkpt>
      <trkpt lat="44.48127" lon="2.11805">
        <ele>391.1</ele>
        <time>2026-07-04T08:55:01Z</time>
      </trkpt>
      <trkpt lat="44.48118" lon="2.11802">
        <ele>391.7</ele>
        <time>2026-07-04T08:55:04Z</time>
      </trkpt>
      <trkpt lat="44.48108" lon="2.11801">
        <ele>392.4</ele>
        <time>2026-07-04T08:55:07Z</time>
      </trkpt>
      <trkpt lat="44.48097" lon="2.11799">
        <ele>393.2</ele>
        <time>2026-07-04T08:55:10Z</time>
      </trkpt>
      <trkpt lat="44.48087" lon="2.11797">
        <ele>394</ele>
        <time>2026-07-04T08:55:13Z</time>
      </trkpt>
      <trkpt lat="44.48078" lon="2.11796">
        <ele>394.8</ele>
        <time>2026-07-04T08:55:16Z</time>
      </trkpt>
      <trkpt lat="44.48067" lon="2.11796">
        <ele>395.5</ele>
        <time>2026-07-04T08:55:19Z</time>
      </trkpt>
      <trkpt lat="44.48056" lon="2.11795">
        <ele>396.2</ele>
        <time>2026-07-04T08:55:22Z</time>
      </trkpt>
      <trkpt lat="44.48046" lon="2.11796">
        <ele>396.8</ele>
        <time>2026-07-04T08:55:25Z</time>
      </trkpt>
      <trkpt lat="44.48035" lon="2.11797">
        <ele>397.5</ele>
        <time>2026-07-04T08:55:28Z</time>
      </trkpt>
      <trkpt lat="44.48025" lon="2.11799">
        <ele>398.1</ele>
        <time>2026-07-04T08:55:31Z</time>
      </trkpt>
      <trkpt lat="44.48015" lon="2.11803">
        <ele>398.8</ele>
        <time>2026-07-04T08:55:34Z</time>
      </trkpt>
      <trkpt lat="44.48005" lon="2.11807">
        <ele>399.6</ele>
        <time>2026-07-04T08:55:37Z</time>
      </trkpt>
      <trkpt lat="44.47995" lon="2.11813">
        <ele>400.4</ele>
        <time>2026-07-04T08:55:40Z</time>
      </trkpt>
      <trkpt lat="44.47986" lon="2.11821">
        <ele>401.1</ele>
        <time>2026-07-04T08:55:43Z</time>
      </trkpt>
      <trkpt lat="44.47981" lon="2.11833">
        <ele>401.9</ele>
        <time>2026-07-04T08:55:46Z</time>
      </trkpt>
      <trkpt lat="44.47977" lon="2.11844">
        <ele>402.5</ele>
        <time>2026-07-04T08:55:49Z</time>
      </trkpt>
      <trkpt lat="44.47974" lon="2.1186">
        <ele>403.3</ele>
        <time>2026-07-04T08:55:53Z</time>
      </trkpt>
      <trkpt lat="44.47974" lon="2.11876">
        <ele>404.1</ele>
        <time>2026-07-04T08:55:57Z</time>
      </trkpt>
      <trkpt lat="44.47976" lon="2.11892">
        <ele>405</ele>
        <time>2026-07-04T08:56:01Z</time>
      </trkpt>
      <trkpt lat="44.47978" lon="2.11905">
        <ele>405.6</ele>
        <time>2026-07-04T08:56:04Z</time>
      </trkpt>
      <trkpt lat="44.47979" lon="2.11918">
        <ele>406.3</ele>
        <time>2026-07-04T08:56:07Z</time>
      </trkpt>
      <trkpt lat="44.47981" lon="2.1193">
        <ele>406.9</ele>
        <time>2026-07-04T08:56:10Z</time>
      </trkpt>
      <trkpt lat="44.47983" lon="2.11947">
        <ele>407.7</ele>
        <time>2026-07-04T08:56:14Z</time>
      </trkpt>
      <trkpt lat="44.47983" lon="2.11962">
        <ele>408.4</ele>
        <time>2026-07-04T08:56:18Z</time>
      </trkpt>
      <trkpt lat="44.47982" lon="2.11976">
        <ele>409</ele>
        <time>2026-07-04T08:56:22Z</time>
      </trkpt>
      <trkpt lat="44.47981" lon="2.1199">
        <ele>409.6</ele>
        <time>2026-07-04T08:56:26Z</time>
      </trkpt>
      <trkpt lat="44.4798" lon="2.12006">
        <ele>410.4</ele>
        <time>2026-07-04T08:56:30Z</time>
      </trkpt>
      <trkpt lat="44.47978" lon="2.12019">
        <ele>411.2</ele>
        <time>2026-07-04T08:56:33Z</time>
      </trkpt>
      <trkpt lat="44.47976" lon="2.12034">
        <ele>412</ele>
        <time>2026-07-04T08:56:36Z</time>
      </trkpt>
      <trkpt lat="44.47977" lon="2.12049">
        <ele>412.8</ele>
        <time>2026-07-04T08:56:39Z</time>
      </trkpt>
      <trkpt lat="44.47979" lon="2.12062">
        <ele>413.5</ele>
        <time>2026-07-04T08:56:42Z</time>
      </trkpt>
      <trkpt lat="44.47982" lon="2.12075">
        <ele>413.8</ele>
        <time>2026-07-04T08:56:47Z</time>
      </trkpt>
      <trkpt lat="44.47985" lon="2.12091">
        <ele>413.4</ele>
        <time>2026-07-04T08:56:51Z</time>
      </trkpt>
      <trkpt lat="44.47992" lon="2.12101">
        <ele>412.6</ele>
        <time>2026-07-04T08:56:53Z</time>
      </trkpt>
      <trkpt lat="44.48002" lon="2.1211">
        <ele>411.3</ele>
        <time>2026-07-04T08:56:55Z</time>
      </trkpt>
      <trkpt lat="44.48013" lon="2.12119">
        <ele>409.9</ele>
        <time>2026-07-04T08:56:57Z</time>
      </trkpt>
      <trkpt lat="44.48026" lon="2.12129">
        <ele>408.5</ele>
        <time>2026-07-04T08:56:59Z</time>
      </trkpt>
      <trkpt lat="44.48036" lon="2.12143">
        <ele>407.7</ele>
        <time>2026-07-04T08:57:01Z</time>
      </trkpt>
      <trkpt lat="44.4804" lon="2.12162">
        <ele>407.5</ele>
        <time>2026-07-04T08:57:03Z</time>
      </trkpt>
      <trkpt lat="44.48038" lon="2.12177">
        <ele>407.4</ele>
        <time>2026-07-04T08:57:05Z</time>
      </trkpt>
      <trkpt lat="44.48034" lon="2.12194">
        <ele>407.5</ele>
        <time>2026-07-04T08:57:07Z</time>
      </trkpt>
      <trkpt lat="44.48032" lon="2.12208">
        <ele>407.5</ele>
        <time>2026-07-04T08:57:09Z</time>
      </trkpt>
      <trkpt lat="44.48031" lon="2.12226">
        <ele>407.7</ele>
        <time>2026-07-04T08:57:12Z</time>
      </trkpt>
      <trkpt lat="44.48027" lon="2.1224">
        <ele>407.8</ele>
        <time>2026-07-04T08:57:15Z</time>
      </trkpt>
      <trkpt lat="44.48021" lon="2.12251">
        <ele>407.9</ele>
        <time>2026-07-04T08:57:18Z</time>
      </trkpt>
      <trkpt lat="44.48015" lon="2.12263">
        <ele>408.1</ele>
        <time>2026-07-04T08:57:21Z</time>
      </trkpt>
      <trkpt lat="44.48008" lon="2.12278">
        <ele>408.4</ele>
        <time>2026-07-04T08:57:24Z</time>
      </trkpt>
      <trkpt lat="44.48003" lon="2.12289">
        <ele>408.7</ele>
        <time>2026-07-04T08:57:26Z</time>
      </trkpt>
      <trkpt lat="44.47999" lon="2.12302">
        <ele>408.9</ele>
        <time>2026-07-04T08:57:28Z</time>
      </trkpt>
      <trkpt lat="44.47995" lon="2.12313">
        <ele>409.2</ele>
        <time>2026-07-04T08:57:30Z</time>
      </trkpt>
      <trkpt lat="44.47988" lon="2.12329">
        <ele>409.4</ele>
        <time>2026-07-04T08:57:33Z</time>
      </trkpt>
      <trkpt lat="44.4798" lon="2.12346">
        <ele>409.7</ele>
        <time>2026-07-04T08:57:36Z</time>
      </trkpt>
      <trkpt lat="44.47974" lon="2.12357">
        <ele>409.9</ele>
        <time>2026-07-04T08:57:38Z</time>
      </trkpt>
      <trkpt lat="44.47968" lon="2.12369">
        <ele>410.1</ele>
        <time>2026-07-04T08:57:41Z</time>
      </trkpt>
      <trkpt lat="44.47961" lon="2.12382">
        <ele>410.3</ele>
        <time>2026-07-04T08:57:44Z</time>
      </trkpt>
      <trkpt lat="44.47958" lon="2.12394">
        <ele>410.5</ele>
        <time>2026-07-04T08:57:46Z</time>
      </trkpt>
      <trkpt lat="44.47956" lon="2.12408">
        <ele>410.8</ele>
        <time>2026-07-04T08:57:48Z</time>
      </trkpt>
      <trkpt lat="44.47953" lon="2.12421">
        <ele>411.1</ele>
        <time>2026-07-04T08:57:50Z</time>
      </trkpt>
      <trkpt lat="44.4795" lon="2.12435">
        <ele>411.4</ele>
        <time>2026-07-04T08:57:53Z</time>
      </trkpt>
      <trkpt lat="44.47948" lon="2.12454">
        <ele>411.7</ele>
        <time>2026-07-04T08:57:56Z</time>
      </trkpt>
      <trkpt lat="44.47945" lon="2.12466">
        <ele>412</ele>
        <time>2026-07-04T08:57:58Z</time>
      </trkpt>
      <trkpt lat="44.47938" lon="2.12475">
        <ele>412.4</ele>
        <time>2026-07-04T08:58:01Z</time>
      </trkpt>
      <trkpt lat="44.47929" lon="2.12485">
        <ele>412.8</ele>
        <time>2026-07-04T08:58:04Z</time>
      </trkpt>
      <trkpt lat="44.47924" lon="2.12496">
        <ele>413.1</ele>
        <time>2026-07-04T08:58:06Z</time>
      </trkpt>
      <trkpt lat="44.47918" lon="2.12512">
        <ele>413.6</ele>
        <time>2026-07-04T08:58:09Z</time>
      </trkpt>
      <trkpt lat="44.47915" lon="2.12526">
        <ele>414.1</ele>
        <time>2026-07-04T08:58:11Z</time>
      </trkpt>
      <trkpt lat="44.47909" lon="2.12539">
        <ele>414.4</ele>
        <time>2026-07-04T08:58:13Z</time>
      </trkpt>
      <trkpt lat="44.47904" lon="2.1255">
        <ele>414.8</ele>
        <time>2026-07-04T08:58:15Z</time>
      </trkpt>
      <trkpt lat="44.47895" lon="2.12565">
        <ele>415.2</ele>
        <time>2026-07-04T08:58:18Z</time>
      </trkpt>
      <trkpt lat="44.47889" lon="2.12576">
        <ele>415.6</ele>
        <time>2026-07-04T08:58:20Z</time>
      </trkpt>
      <trkpt lat="44.47881" lon="2.12583">
        <ele>415.9</ele>
        <time>2026-07-04T08:58:22Z</time>
      </trkpt>
      <trkpt lat="44.47873" lon="2.1259">
        <ele>416.2</ele>
        <time>2026-07-04T08:58:24Z</time>
      </trkpt>
      <trkpt lat="44.47864" lon="2.12598">
        <ele>416.5</ele>
        <time>2026-07-04T08:58:26Z</time>
      </trkpt>
      <trkpt lat="44.47854" lon="2.12601">
        <ele>418.9</ele>
        <time>2026-07-04T08:58:29Z</time>
      </trkpt>
      <trkpt lat="44.47845" lon="2.12592">
        <ele>419.5</ele>
        <time>2026-07-04T08:58:32Z</time>
      </trkpt>
      <trkpt lat="44.47842" lon="2.12577">
        <ele>419.7</ele>
        <time>2026-07-04T08:58:35Z</time>
      </trkpt>
      <trkpt lat="44.47834" lon="2.12569">
        <ele>420.5</ele>
        <time>2026-07-04T08:58:40Z</time>
      </trkpt>
      <trkpt lat="44.47828" lon="2.12582">
        <ele>421.4</ele>
        <time>2026-07-04T08:58:45Z</time>
      </trkpt>
      <trkpt lat="44.47824" lon="2.12597">
        <ele>422.2</ele>
        <time>2026-07-04T08:58:50Z</time>
      </trkpt>
      <trkpt lat="44.4782" lon="2.12609">
        <ele>423</ele>
        <time>2026-07-04T08:58:53Z</time>
      </trkpt>
      <trkpt lat="44.47817" lon="2.12623">
        <ele>423.8</ele>
        <time>2026-07-04T08:58:57Z</time>
      </trkpt>
      <trkpt lat="44.47813" lon="2.12635">
        <ele>424.6</ele>
        <time>2026-07-04T08:59:00Z</time>
      </trkpt>
      <trkpt lat="44.47808" lon="2.12648">
        <ele>425.5</ele>
        <time>2026-07-04T08:59:03Z</time>
      </trkpt>
      <trkpt lat="44.47803" lon="2.12661">
        <ele>426.5</ele>
        <time>2026-07-04T08:59:06Z</time>
      </trkpt>
      <trkpt lat="44.47795" lon="2.12671">
        <ele>427.5</ele>
        <time>2026-07-04T08:59:09Z</time>
      </trkpt>
      <trkpt lat="44.47786" lon="2.12677">
        <ele>428.5</ele>
        <time>2026-07-04T08:59:12Z</time>
      </trkpt>
      <trkpt lat="44.47777" lon="2.12682">
        <ele>429.5</ele>
        <time>2026-07-04T08:59:15Z</time>
      </trkpt>
      <trkpt lat="44.47767" lon="2.1269">
        <ele>430.6</ele>
        <time>2026-07-04T08:59:18Z</time>
      </trkpt>
      <trkpt lat="44.47761" lon="2.12701">
        <ele>431.6</ele>
        <time>2026-07-04T08:59:21Z</time>
      </trkpt>
      <trkpt lat="44.47757" lon="2.12713">
        <ele>432.6</ele>
        <time>2026-07-04T08:59:24Z</time>
      </trkpt>
      <trkpt lat="44.47753" lon="2.12729">
        <ele>433.6</ele>
        <time>2026-07-04T08:59:28Z</time>
      </trkpt>
      <trkpt lat="44.4775" lon="2.12745">
        <ele>434.5</ele>
        <time>2026-07-04T08:59:32Z</time>
      </trkpt>
      <trkpt lat="44.47742" lon="2.12756">
        <ele>435.2</ele>
        <time>2026-07-04T08:59:36Z</time>
      </trkpt>
      <trkpt lat="44.47731" lon="2.12756">
        <ele>435.9</ele>
        <time>2026-07-04T08:59:40Z</time>
      </trkpt>
      <trkpt lat="44.47723" lon="2.12748">
        <ele>436.4</ele>
        <time>2026-07-04T08:59:44Z</time>
      </trkpt>
      <trkpt lat="44.47715" lon="2.1274">
        <ele>436.9</ele>
        <time>2026-07-04T08:59:48Z</time>
      </trkpt>
      <trkpt lat="44.47706" lon="2.12732">
        <ele>437.4</ele>
        <time>2026-07-04T08:59:51Z</time>
      </trkpt>
      <trkpt lat="44.47695" lon="2.12733">
        <ele>437.7</ele>
        <time>2026-07-04T08:59:54Z</time>
      </trkpt>
      <trkpt lat="44.47686" lon="2.12742">
        <ele>438.2</ele>
        <time>2026-07-04T08:59:57Z</time>
      </trkpt>
      <trkpt lat="44.47678" lon="2.12751">
        <ele>438.8</ele>
        <time>2026-07-04T09:00:00Z</time>
      </trkpt>
      <trkpt lat="44.47668" lon="2.12763">
        <ele>439.5</ele>
        <time>2026-07-04T09:00:03Z</time>
      </trkpt>
      <trkpt lat="44.4766" lon="2.12773">
        <ele>440.2</ele>
        <time>2026-07-04T09:00:06Z</time>
      </trkpt>
      <trkpt lat="44.47651" lon="2.12783">
        <ele>441</ele>
        <time>2026-07-04T09:00:09Z</time>
      </trkpt>
      <trkpt lat="44.47642" lon="2.12796">
        <ele>441.8</ele>
        <time>2026-07-04T09:00:12Z</time>
      </trkpt>
      <trkpt lat="44.47632" lon="2.12807">
        <ele>442.4</ele>
        <time>2026-07-04T09:00:15Z</time>
      </trkpt>
      <trkpt lat="44.47622" lon="2.12816">
        <ele>442.6</ele>
        <time>2026-07-04T09:00:18Z</time>
      </trkpt>
      <trkpt lat="44.47611" lon="2.12824">
        <ele>442.6</ele>
        <time>2026-07-04T09:00:21Z</time>
      </trkpt>
      <trkpt lat="44.47602" lon="2.12833">
        <ele>442.8</ele>
        <time>2026-07-04T09:00:24Z</time>
      </trkpt>
      <trkpt lat="44.47592" lon="2.12844">
        <ele>443</ele>
        <time>2026-07-04T09:00:27Z</time>
      </trkpt>
      <trkpt lat="44.47584" lon="2.12853">
        <ele>443.1</ele>
        <time>2026-07-04T09:00:30Z</time>
      </trkpt>
      <trkpt lat="44.47577" lon="2.12863">
        <ele>443.2</ele>
        <time>2026-07-04T09:00:33Z</time>
      </trkpt>
      <trkpt lat="44.4757" lon="2.12873">
        <ele>444.7</ele>
        <time>2026-07-04T09:00:36Z</time>
      </trkpt>
      <trkpt lat="44.47565" lon="2.12884">
        <ele>446</ele>
        <time>2026-07-04T09:00:39Z</time>
      </trkpt>
      <trkpt lat="44.47559" lon="2.12896">
        <ele>447.3</ele>
        <time>2026-07-04T09:00:42Z</time>
      </trkpt>
      <trkpt lat="44.47552" lon="2.12908">
        <ele>448.5</ele>
        <time>2026-07-04T09:00:45Z</time>
      </trkpt>
      <trkpt lat="44.47548" lon="2.12921">
        <ele>449.5</ele>
        <time>2026-07-04T09:00:48Z</time>
      </trkpt>
      <trkpt lat="44.47544" lon="2.12935">
        <ele>450.5</ele>
        <time>2026-07-04T09:00:51Z</time>
      </trkpt>
      <trkpt lat="44.4754" lon="2.12947">
        <ele>451.3</ele>
        <time>2026-07-04T09:00:54Z</time>
      </trkpt>
      <trkpt lat="44.47534" lon="2.1296">
        <ele>452</ele>
        <time>2026-07-04T09:00:57Z</time>
      </trkpt>
      <trkpt lat="44.47529" lon="2.12973">
        <ele>452.6</ele>
        <time>2026-07-04T09:01:00Z</time>
      </trkpt>
      <trkpt lat="44.47524" lon="2.12988">
        <ele>452.9</ele>
        <time>2026-07-04T09:01:03Z</time>
      </trkpt>
      <trkpt lat="44.47522" lon="2.13005">
        <ele>452.9</ele>
        <time>2026-07-04T09:01:06Z</time>
      </trkpt>
      <trkpt lat="44.47521" lon="2.13021">
        <ele>452.8</ele>
        <time>2026-07-04T09:01:09Z</time>
      </trkpt>
      <trkpt lat="44.47523" lon="2.13038">
        <ele>452.3</ele>
        <time>2026-07-04T09:01:12Z</time>
      </trkpt>
      <trkpt lat="44.47524" lon="2.13056">
        <ele>451.9</ele>
        <time>2026-07-04T09:01:15Z</time>
      </trkpt>
      <trkpt lat="44.47525" lon="2.1307">
        <ele>451.5</ele>
        <time>2026-07-04T09:01:17Z</time>
      </trkpt>
      <trkpt lat="44.47525" lon="2.13084">
        <ele>451.2</ele>
        <time>2026-07-04T09:01:19Z</time>
      </trkpt>
      <trkpt lat="44.47523" lon="2.13097">
        <ele>450.8</ele>
        <time>2026-07-04T09:01:21Z</time>
      </trkpt>
      <trkpt lat="44.4752" lon="2.13116">
        <ele>450.2</ele>
        <time>2026-07-04T09:01:24Z</time>
      </trkpt>
      <trkpt lat="44.47517" lon="2.13132">
        <ele>449.5</ele>
        <time>2026-07-04T09:01:27Z</time>
      </trkpt>
      <trkpt lat="44.47517" lon="2.1315">
        <ele>448.7</ele>
        <time>2026-07-04T09:01:30Z</time>
      </trkpt>
      <trkpt lat="44.47519" lon="2.13171">
        <ele>447.6</ele>
        <time>2026-07-04T09:01:33Z</time>
      </trkpt>
      <trkpt lat="44.47517" lon="2.13186">
        <ele>446.9</ele>
        <time>2026-07-04T09:01:35Z</time>
      </trkpt>
      <trkpt lat="44.47513" lon="2.13202">
        <ele>446.5</ele>
        <time>2026-07-04T09:01:37Z</time>
      </trkpt>
      <trkpt lat="44.4751" lon="2.13217">
        <ele>446</ele>
        <time>2026-07-04T09:01:39Z</time>
      </trkpt>
      <trkpt lat="44.47508" lon="2.13231">
        <ele>445.5</ele>
        <time>2026-07-04T09:01:41Z</time>
      </trkpt>
      <trkpt lat="44.47506" lon="2.13245">
        <ele>444.9</ele>
        <time>2026-07-04T09:01:43Z</time>
      </trkpt>
      <trkpt lat="44.47505" lon="2.13258">
        <ele>444.3</ele>
        <time>2026-07-04T09:01:45Z</time>
      </trkpt>
      <trkpt lat="44.47503" lon="2.13278">
        <ele>443.4</ele>
        <time>2026-07-04T09:01:48Z</time>
      </trkpt>
      <trkpt lat="44.47503" lon="2.13293">
        <ele>442.8</ele>
        <time>2026-07-04T09:01:50Z</time>
      </trkpt>
      <trkpt lat="44.47502" lon="2.13307">
        <ele>442.1</ele>
        <time>2026-07-04T09:01:52Z</time>
      </trkpt>
      <trkpt lat="44.47503" lon="2.13323">
        <ele>441.3</ele>
        <time>2026-07-04T09:01:54Z</time>
      </trkpt>
      <trkpt lat="44.47506" lon="2.13339">
        <ele>440.4</ele>
        <time>2026-07-04T09:01:56Z</time>
      </trkpt>
      <trkpt lat="44.47509" lon="2.13357">
        <ele>439.4</ele>
        <time>2026-07-04T09:01:58Z</time>
      </trkpt>
      <trkpt lat="44.47511" lon="2.13374">
        <ele>438.7</ele>
        <time>2026-07-04T09:02:00Z</time>
      </trkpt>
      <trkpt lat="44.47514" lon="2.13391">
        <ele>437.9</ele>
        <time>2026-07-04T09:02:02Z</time>
      </trkpt>
      <trkpt lat="44.47517" lon="2.13408">
        <ele>437</ele>
        <time>2026-07-04T09:02:04Z</time>
      </trkpt>
      <trkpt lat="44.47521" lon="2.13426">
        <ele>436.1</ele>
        <time>2026-07-04T09:02:06Z</time>
      </trkpt>
      <trkpt lat="44.4752" lon="2.13441">
        <ele>435.1</ele>
        <time>2026-07-04T09:02:08Z</time>
      </trkpt>
      <trkpt lat="44.47518" lon="2.13458">
        <ele>434</ele>
        <time>2026-07-04T09:02:10Z</time>
      </trkpt>
      <trkpt lat="44.47515" lon="2.13477">
        <ele>432.9</ele>
        <time>2026-07-04T09:02:12Z</time>
      </trkpt>
      <trkpt lat="44.47514" lon="2.13491">
        <ele>432.2</ele>
        <time>2026-07-04T09:02:14Z</time>
      </trkpt>
      <trkpt lat="44.47516" lon="2.13504">
        <ele>431.5</ele>
        <time>2026-07-04T09:02:16Z</time>
      </trkpt>
      <trkpt lat="44.47522" lon="2.13513">
        <ele>430.7</ele>
        <time>2026-07-04T09:02:18Z</time>
      </trkpt>
      <trkpt lat="44.47532" lon="2.13519">
        <ele>429.7</ele>
        <time>2026-07-04T09:02:21Z</time>
      </trkpt>
      <trkpt lat="44.47542" lon="2.13523">
        <ele>428.6</ele>
        <time>2026-07-04T09:02:24Z</time>
      </trkpt>
      <trkpt lat="44.47547" lon="2.13534">
        <ele>427.7</ele>
        <time>2026-07-04T09:02:28Z</time>
      </trkpt>
      <trkpt lat="44.47538" lon="2.13537">
        <ele>426.8</ele>
        <time>2026-07-04T09:02:34Z</time>
      </trkpt>
      <trkpt lat="44.47529" lon="2.13539">
        <ele>426</ele>
        <time>2026-07-04T09:02:37Z</time>
      </trkpt>
      <trkpt lat="44.47517" lon="2.13539">
        <ele>424.9</ele>
        <time>2026-07-04T09:02:40Z</time>
      </trkpt>
      <trkpt lat="44.47507" lon="2.13536">
        <ele>424.1</ele>
        <time>2026-07-04T09:02:42Z</time>
      </trkpt>
      <trkpt lat="44.47499" lon="2.13526">
        <ele>423</ele>
        <time>2026-07-04T09:02:44Z</time>
      </trkpt>
      <trkpt lat="44.47495" lon="2.13509">
        <ele>421.6</ele>
        <time>2026-07-04T09:02:46Z</time>
      </trkpt>
      <trkpt lat="44.47491" lon="2.13489">
        <ele>419.8</ele>
        <time>2026-07-04T09:02:48Z</time>
      </trkpt>
      <trkpt lat="44.47485" lon="2.13466">
        <ele>418</ele>
        <time>2026-07-04T09:02:50Z</time>
      </trkpt>
      <trkpt lat="44.47481" lon="2.13454">
        <ele>417.2</ele>
        <time>2026-07-04T09:02:51Z</time>
      </trkpt>
      <trkpt lat="44.47476" lon="2.13442">
        <ele>416.5</ele>
        <time>2026-07-04T09:02:52Z</time>
      </trkpt>
      <trkpt lat="44.47473" lon="2.13429">
        <ele>415.8</ele>
        <time>2026-07-04T09:02:53Z</time>
      </trkpt>
      <trkpt lat="44.47471" lon="2.13415">
        <ele>415.2</ele>
        <time>2026-07-04T09:02:54Z</time>
      </trkpt>
      <trkpt lat="44.47469" lon="2.13402">
        <ele>414.6</ele>
        <time>2026-07-04T09:02:55Z</time>
      </trkpt>
      <trkpt lat="44.47466" lon="2.13383">
        <ele>413.4</ele>
        <time>2026-07-04T09:02:57Z</time>
      </trkpt>
      <trkpt lat="44.47455" lon="2.13381">
        <ele>411.9</ele>
        <time>2026-07-04T09:03:00Z</time>
      </trkpt>
      <trkpt lat="44.47454" lon="2.13401">
        <ele>409.7</ele>
        <time>2026-07-04T09:03:03Z</time>
      </trkpt>
      <trkpt lat="44.47454" lon="2.13418">
        <ele>408.1</ele>
        <time>2026-07-04T09:03:05Z</time>
      </trkpt>
      <trkpt lat="44.47452" lon="2.13439">
        <ele>406.6</ele>
        <time>2026-07-04T09:03:07Z</time>
      </trkpt>
      <trkpt lat="44.47454" lon="2.1346">
        <ele>405.2</ele>
        <time>2026-07-04T09:03:09Z</time>
      </trkpt>
      <trkpt lat="44.47458" lon="2.13483">
        <ele>403.7</ele>
        <time>2026-07-04T09:03:11Z</time>
      </trkpt>
      <trkpt lat="44.47457" lon="2.13507">
        <ele>402.2</ele>
        <time>2026-07-04T09:03:13Z</time>
      </trkpt>
      <trkpt lat="44.47455" lon="2.1352">
        <ele>401.4</ele>
        <time>2026-07-04T09:03:14Z</time>
      </trkpt>
      <trkpt lat="44.47453" lon="2.13533">
        <ele>400.8</ele>
        <time>2026-07-04T09:03:15Z</time>
      </trkpt>
      <trkpt lat="44.47453" lon="2.13547">
        <ele>400.1</ele>
        <time>2026-07-04T09:03:16Z</time>
      </trkpt>
      <trkpt lat="44.47455" lon="2.1356">
        <ele>399.4</ele>
        <time>2026-07-04T09:03:17Z</time>
      </trkpt>
      <trkpt lat="44.47459" lon="2.13572">
        <ele>398.6</ele>
        <time>2026-07-04T09:03:18Z</time>
      </trkpt>
      <trkpt lat="44.47465" lon="2.13582">
        <ele>397.9</ele>
        <time>2026-07-04T09:03:19Z</time>
      </trkpt>
      <trkpt lat="44.47469" lon="2.13603">
        <ele>396.4</ele>
        <time>2026-07-04T09:03:21Z</time>
      </trkpt>
      <trkpt lat="44.47461" lon="2.13625">
        <ele>394.5</ele>
        <time>2026-07-04T09:03:23Z</time>
      </trkpt>
      <trkpt lat="44.47455" lon="2.13634">
        <ele>393.5</ele>
        <time>2026-07-04T09:03:24Z</time>
      </trkpt>
      <trkpt lat="44.47449" lon="2.13643">
        <ele>392.6</ele>
        <time>2026-07-04T09:03:25Z</time>
      </trkpt>
      <trkpt lat="44.47442" lon="2.13654">
        <ele>391.7</ele>
        <time>2026-07-04T09:03:26Z</time>
      </trkpt>
      <trkpt lat="44.47437" lon="2.13666">
        <ele>391</ele>
        <time>2026-07-04T09:03:27Z</time>
      </trkpt>
      <trkpt lat="44.47434" lon="2.13679">
        <ele>390.3</ele>
        <time>2026-07-04T09:03:28Z</time>
      </trkpt>
      <trkpt lat="44.47434" lon="2.13692">
        <ele>389.7</ele>
        <time>2026-07-04T09:03:29Z</time>
      </trkpt>
      <trkpt lat="44.47435" lon="2.13706">
        <ele>389.1</ele>
        <time>2026-07-04T09:03:30Z</time>
      </trkpt>
      <trkpt lat="44.4744" lon="2.13718">
        <ele>388.5</ele>
        <time>2026-07-04T09:03:31Z</time>
      </trkpt>
      <trkpt lat="44.47445" lon="2.13729">
        <ele>387.9</ele>
        <time>2026-07-04T09:03:32Z</time>
      </trkpt>
      <trkpt lat="44.47449" lon="2.1374">
        <ele>387.4</ele>
        <time>2026-07-04T09:03:33Z</time>
      </trkpt>
      <trkpt lat="44.47454" lon="2.13752">
        <ele>386.9</ele>
        <time>2026-07-04T09:03:34Z</time>
      </trkpt>
      <trkpt lat="44.47458" lon="2.13765">
        <ele>386.5</ele>
        <time>2026-07-04T09:03:35Z</time>
      </trkpt>
      <trkpt lat="44.47462" lon="2.13777">
        <ele>386.2</ele>
        <time>2026-07-04T09:03:36Z</time>
      </trkpt>
      <trkpt lat="44.47465" lon="2.13789">
        <ele>385.8</ele>
        <time>2026-07-04T09:03:37Z</time>
      </trkpt>
      <trkpt lat="44.47469" lon="2.13801">
        <ele>385.4</ele>
        <time>2026-07-04T09:03:38Z</time>
      </trkpt>
      <trkpt lat="44.47472" lon="2.13813">
        <ele>385</ele>
        <time>2026-07-04T09:03:39Z</time>
      </trkpt>
      <trkpt lat="44.47475" lon="2.13825">
        <ele>384.7</ele>
        <time>2026-07-04T09:03:40Z</time>
      </trkpt>
      <trkpt lat="44.47477" lon="2.13838">
        <ele>384.3</ele>
        <time>2026-07-04T09:03:41Z</time>
      </trkpt>
      <trkpt lat="44.47479" lon="2.1385">
        <ele>384</ele>
        <time>2026-07-04T09:03:42Z</time>
      </trkpt>
      <trkpt lat="44.47481" lon="2.13863">
        <ele>383.7</ele>
        <time>2026-07-04T09:03:43Z</time>
      </trkpt>
      <trkpt lat="44.47484" lon="2.13882">
        <ele>383.4</ele>
        <time>2026-07-04T09:03:45Z</time>
      </trkpt>
      <trkpt lat="44.47474" lon="2.13883">
        <ele>383.6</ele>
        <time>2026-07-04T09:03:53Z</time>
      </trkpt>
      <trkpt lat="44.47468" lon="2.13869">
        <ele>383.9</ele>
        <time>2026-07-04T09:03:56Z</time>
      </trkpt>
      <trkpt lat="44.47463" lon="2.13856">
        <ele>384.2</ele>
        <time>2026-07-04T09:03:58Z</time>
      </trkpt>
      <trkpt lat="44.47459" lon="2.13843">
        <ele>384.6</ele>
        <time>2026-07-04T09:04:00Z</time>
      </trkpt>
      <trkpt lat="44.47454" lon="2.13829">
        <ele>385</ele>
        <time>2026-07-04T09:04:02Z</time>
      </trkpt>
      <trkpt lat="44.47448" lon="2.13816">
        <ele>385.5</ele>
        <time>2026-07-04T09:04:04Z</time>
      </trkpt>
      <trkpt lat="44.47441" lon="2.13802">
        <ele>385.9</ele>
        <time>2026-07-04T09:04:06Z</time>
      </trkpt>
      <trkpt lat="44.47433" lon="2.13788">
        <ele>386.4</ele>
        <time>2026-07-04T09:04:08Z</time>
      </trkpt>
      <trkpt lat="44.47423" lon="2.13774">
        <ele>386.9</ele>
        <time>2026-07-04T09:04:10Z</time>
      </trkpt>
      <trkpt lat="44.47413" lon="2.1376">
        <ele>384</ele>
        <time>2026-07-04T09:04:12Z</time>
      </trkpt>
      <trkpt lat="44.47402" lon="2.13745">
        <ele>380.8</ele>
        <time>2026-07-04T09:04:14Z</time>
      </trkpt>
      <trkpt lat="44.47392" lon="2.13728">
        <ele>379</ele>
        <time>2026-07-04T09:04:16Z</time>
      </trkpt>
      <trkpt lat="44.47384" lon="2.13711">
        <ele>377.6</ele>
        <time>2026-07-04T09:04:18Z</time>
      </trkpt>
      <trkpt lat="44.47379" lon="2.13692">
        <ele>378.4</ele>
        <time>2026-07-04T09:04:20Z</time>
      </trkpt>
      <trkpt lat="44.47375" lon="2.13675">
        <ele>378.7</ele>
        <time>2026-07-04T09:04:22Z</time>
      </trkpt>
      <trkpt lat="44.47375" lon="2.13659">
        <ele>379.6</ele>
        <time>2026-07-04T09:04:24Z</time>
      </trkpt>
      <trkpt lat="44.47379" lon="2.13646">
        <ele>380.8</ele>
        <time>2026-07-04T09:04:26Z</time>
      </trkpt>
      <trkpt lat="44.47385" lon="2.13634">
        <ele>382.3</ele>
        <time>2026-07-04T09:04:28Z</time>
      </trkpt>
      <trkpt lat="44.4739" lon="2.13621">
        <ele>383.7</ele>
        <time>2026-07-04T09:04:30Z</time>
      </trkpt>
      <trkpt lat="44.47394" lon="2.13607">
        <ele>385.4</ele>
        <time>2026-07-04T09:04:32Z</time>
      </trkpt>
      <trkpt lat="44.47395" lon="2.13594">
        <ele>387.2</ele>
        <time>2026-07-04T09:04:34Z</time>
      </trkpt>
      <trkpt lat="44.47396" lon="2.1358">
        <ele>388.7</ele>
        <time>2026-07-04T09:04:37Z</time>
      </trkpt>
      <trkpt lat="44.47394" lon="2.13566">
        <ele>389.2</ele>
        <time>2026-07-04T09:04:41Z</time>
      </trkpt>
      <trkpt lat="44.47389" lon="2.1355">
        <ele>389.7</ele>
        <time>2026-07-04T09:04:44Z</time>
      </trkpt>
      <trkpt lat="44.47387" lon="2.13537">
        <ele>389.8</ele>
        <time>2026-07-04T09:04:46Z</time>
      </trkpt>
      <trkpt lat="44.47384" lon="2.1352">
        <ele>390.2</ele>
        <time>2026-07-04T09:04:48Z</time>
      </trkpt>
      <trkpt lat="44.47379" lon="2.13502">
        <ele>390.2</ele>
        <time>2026-07-04T09:04:50Z</time>
      </trkpt>
      <trkpt lat="44.47373" lon="2.13484">
        <ele>390.5</ele>
        <time>2026-07-04T09:04:52Z</time>
      </trkpt>
      <trkpt lat="44.47369" lon="2.13467">
        <ele>390</ele>
        <time>2026-07-04T09:04:54Z</time>
      </trkpt>
      <trkpt lat="44.47367" lon="2.13452">
        <ele>389.7</ele>
        <time>2026-07-04T09:04:56Z</time>
      </trkpt>
      <trkpt lat="44.47365" lon="2.13438">
        <ele>388.9</ele>
        <time>2026-07-04T09:04:58Z</time>
      </trkpt>
      <trkpt lat="44.47363" lon="2.1342">
        <ele>387.9</ele>
        <time>2026-07-04T09:05:01Z</time>
      </trkpt>
      <trkpt lat="44.47362" lon="2.13406">
        <ele>387.5</ele>
        <time>2026-07-04T09:05:03Z</time>
      </trkpt>
      <trkpt lat="44.47365" lon="2.13393">
        <ele>387.5</ele>
        <time>2026-07-04T09:05:05Z</time>
      </trkpt>
      <trkpt lat="44.47369" lon="2.13382">
        <ele>387.7</ele>
        <time>2026-07-04T09:05:07Z</time>
      </trkpt>
      <trkpt lat="44.47371" lon="2.13365">
        <ele>387.6</ele>
        <time>2026-07-04T09:05:09Z</time>
      </trkpt>
      <trkpt lat="44.47373" lon="2.1335">
        <ele>387.6</ele>
        <time>2026-07-04T09:05:11Z</time>
      </trkpt>
      <trkpt lat="44.47373" lon="2.13336">
        <ele>386.3</ele>
        <time>2026-07-04T09:05:13Z</time>
      </trkpt>
      <trkpt lat="44.47375" lon="2.13322">
        <ele>385.6</ele>
        <time>2026-07-04T09:05:15Z</time>
      </trkpt>
      <trkpt lat="44.47377" lon="2.13308">
        <ele>386.2</ele>
        <time>2026-07-04T09:05:17Z</time>
      </trkpt>
      <trkpt lat="44.47377" lon="2.13291">
        <ele>385.8</ele>
        <time>2026-07-04T09:05:20Z</time>
      </trkpt>
      <trkpt lat="44.47372" lon="2.13279">
        <ele>383.4</ele>
        <time>2026-07-04T09:05:22Z</time>
      </trkpt>
      <trkpt lat="44.47369" lon="2.13265">
        <ele>382</ele>
        <time>2026-07-04T09:05:25Z</time>
      </trkpt>
      <trkpt lat="44.47367" lon="2.13251">
        <ele>381.5</ele>
        <time>2026-07-04T09:05:28Z</time>
      </trkpt>
      <trkpt lat="44.47362" lon="2.13234">
        <ele>378.1</ele>
        <time>2026-07-04T09:05:31Z</time>
      </trkpt>
      <trkpt lat="44.47361" lon="2.13216">
        <ele>376.8</ele>
        <time>2026-07-04T09:05:34Z</time>
      </trkpt>
      <trkpt lat="44.4736" lon="2.13202">
        <ele>374.9</ele>
        <time>2026-07-04T09:05:36Z</time>
      </trkpt>
      <trkpt lat="44.47359" lon="2.13185">
        <ele>374.2</ele>
        <time>2026-07-04T09:05:38Z</time>
      </trkpt>
      <trkpt lat="44.47357" lon="2.13163">
        <ele>371.8</ele>
        <time>2026-07-04T09:05:40Z</time>
      </trkpt>
      <trkpt lat="44.47359" lon="2.13143">
        <ele>371.8</ele>
        <time>2026-07-04T09:05:42Z</time>
      </trkpt>
      <trkpt lat="44.47358" lon="2.13123">
        <ele>370.5</ele>
        <time>2026-07-04T09:05:44Z</time>
      </trkpt>
      <trkpt lat="44.47357" lon="2.13105">
        <ele>367.6</ele>
        <time>2026-07-04T09:05:46Z</time>
      </trkpt>
      <trkpt lat="44.47355" lon="2.13084">
        <ele>366.2</ele>
        <time>2026-07-04T09:05:48Z</time>
      </trkpt>
      <trkpt lat="44.47352" lon="2.13064">
        <ele>362.8</ele>
        <time>2026-07-04T09:05:50Z</time>
      </trkpt>
      <trkpt lat="44.47348" lon="2.13045">
        <ele>358.8</ele>
        <time>2026-07-04T09:05:52Z</time>
      </trkpt>
      <trkpt lat="44.47345" lon="2.13025">
        <ele>356.5</ele>
        <time>2026-07-04T09:05:54Z</time>
      </trkpt>
      <trkpt lat="44.47343" lon="2.13007">
        <ele>355.5</ele>
        <time>2026-07-04T09:05:56Z</time>
      </trkpt>
      <trkpt lat="44.47339" lon="2.1299">
        <ele>353.7</ele>
        <time>2026-07-04T09:05:58Z</time>
      </trkpt>
      <trkpt lat="44.4734" lon="2.12971">
        <ele>352.8</ele>
        <time>2026-07-04T09:06:00Z</time>
      </trkpt>
      <trkpt lat="44.47341" lon="2.12954">
        <ele>352</ele>
        <time>2026-07-04T09:06:02Z</time>
      </trkpt>
      <trkpt lat="44.4734" lon="2.1294">
        <ele>351.2</ele>
        <time>2026-07-04T09:06:04Z</time>
      </trkpt>
      <trkpt lat="44.47341" lon="2.12925">
        <ele>350.3</ele>
        <time>2026-07-04T09:06:07Z</time>
      </trkpt>
      <trkpt lat="44.47337" lon="2.12913">
        <ele>349.1</ele>
        <time>2026-07-04T09:06:13Z</time>
      </trkpt>
      <trkpt lat="44.47331" lon="2.12903">
        <ele>347.9</ele>
        <time>2026-07-04T09:06:27Z</time>
      </trkpt>
      <trkpt lat="44.47322" lon="2.12897">
        <ele>347.3</ele>
        <time>2026-07-04T09:06:37Z</time>
      </trkpt>
      <trkpt lat="44.4732" lon="2.12883">
        <ele>347.2</ele>
        <time>2026-07-04T09:06:47Z</time>
      </trkpt>
      <trkpt lat="44.47319" lon="2.12865">
        <ele>347.4</ele>
        <time>2026-07-04T09:06:51Z</time>
      </trkpt>
      <trkpt lat="44.47316" lon="2.1285">
        <ele>348.1</ele>
        <time>2026-07-04T09:06:55Z</time>
      </trkpt>
      <trkpt lat="44.47307" lon="2.1285">
        <ele>348.9</ele>
        <time>2026-07-04T09:07:05Z</time>
      </trkpt>
      <trkpt lat="44.47302" lon="2.12863">
        <ele>348.9</ele>
        <time>2026-07-04T09:07:10Z</time>
      </trkpt>
      <trkpt lat="44.47298" lon="2.12875">
        <ele>350.2</ele>
        <time>2026-07-04T09:07:15Z</time>
      </trkpt>
      <trkpt lat="44.47293" lon="2.12886">
        <ele>350.7</ele>
        <time>2026-07-04T09:07:20Z</time>
      </trkpt>
      <trkpt lat="44.47289" lon="2.12898">
        <ele>352.2</ele>
        <time>2026-07-04T09:07:24Z</time>
      </trkpt>
      <trkpt lat="44.47288" lon="2.12912">
        <ele>352</ele>
        <time>2026-07-04T09:07:28Z</time>
      </trkpt>
      <trkpt lat="44.47285" lon="2.12927">
        <ele>353.1</ele>
        <time>2026-07-04T09:07:33Z</time>
      </trkpt>
      <trkpt lat="44.47284" lon="2.12941">
        <ele>353.6</ele>
        <time>2026-07-04T09:07:37Z</time>
      </trkpt>
      <trkpt lat="44.47284" lon="2.12955">
        <ele>355.7</ele>
        <time>2026-07-04T09:07:41Z</time>
      </trkpt>
      <trkpt lat="44.47284" lon="2.12969">
        <ele>356.3</ele>
        <time>2026-07-04T09:07:45Z</time>
      </trkpt>
      <trkpt lat="44.47283" lon="2.12982">
        <ele>356.8</ele>
        <time>2026-07-04T09:07:49Z</time>
      </trkpt>
      <trkpt lat="44.47283" lon="2.12995">
        <ele>357.4</ele>
        <time>2026-07-04T09:07:53Z</time>
      </trkpt>
      <trkpt lat="44.47284" lon="2.13009">
        <ele>358.2</ele>
        <time>2026-07-04T09:07:57Z</time>
      </trkpt>
      <trkpt lat="44.47284" lon="2.13023">
        <ele>359.1</ele>
        <time>2026-07-04T09:08:02Z</time>
      </trkpt>
      <trkpt lat="44.47283" lon="2.13036">
        <ele>360.3</ele>
        <time>2026-07-04T09:08:06Z</time>
      </trkpt>
      <trkpt lat="44.47283" lon="2.1305">
        <ele>362.4</ele>
        <time>2026-07-04T09:08:11Z</time>
      </trkpt>
      <trkpt lat="44.47277" lon="2.13038">
        <ele>363.6</ele>
        <time>2026-07-04T09:08:19Z</time>
      </trkpt>
      <trkpt lat="44.47275" lon="2.13023">
        <ele>361.8</ele>
        <time>2026-07-04T09:08:24Z</time>
      </trkpt>
      <trkpt lat="44.47271" lon="2.13012">
        <ele>364.1</ele>
        <time>2026-07-04T09:08:28Z</time>
      </trkpt>
      <trkpt lat="44.47265" lon="2.13">
        <ele>366</ele>
        <time>2026-07-04T09:08:32Z</time>
      </trkpt>
      <trkpt lat="44.47261" lon="2.12988">
        <ele>366.5</ele>
        <time>2026-07-04T09:08:36Z</time>
      </trkpt>
      <trkpt lat="44.47256" lon="2.12977">
        <ele>369.5</ele>
        <time>2026-07-04T09:08:40Z</time>
      </trkpt>
      <trkpt lat="44.47254" lon="2.12964">
        <ele>369</ele>
        <time>2026-07-04T09:08:45Z</time>
      </trkpt>
      <trkpt lat="44.47253" lon="2.1295">
        <ele>370.1</ele>
        <time>2026-07-04T09:08:50Z</time>
      </trkpt>
      <trkpt lat="44.4725" lon="2.12936">
        <ele>369.4</ele>
        <time>2026-07-04T09:08:55Z</time>
      </trkpt>
      <trkpt lat="44.47245" lon="2.12923">
        <ele>372.6</ele>
        <time>2026-07-04T09:09:00Z</time>
      </trkpt>
      <trkpt lat="44.47243" lon="2.12908">
        <ele>373.2</ele>
        <time>2026-07-04T09:09:06Z</time>
      </trkpt>
      <trkpt lat="44.47241" lon="2.12894">
        <ele>371.8</ele>
        <time>2026-07-04T09:09:12Z</time>
      </trkpt>
      <trkpt lat="44.4724" lon="2.12881">
        <ele>372.3</ele>
        <time>2026-07-04T09:09:16Z</time>
      </trkpt>
      <trkpt lat="44.47236" lon="2.12868">
        <ele>372.9</ele>
        <time>2026-07-04T09:09:21Z</time>
      </trkpt>
      <trkpt lat="44.47228" lon="2.12861">
        <ele>377.5</ele>
        <time>2026-07-04T09:09:27Z</time>
      </trkpt>
      <trkpt lat="44.47218" lon="2.12862">
        <ele>382.9</ele>
        <time>2026-07-04T09:09:32Z</time>
      </trkpt>
      <trkpt lat="44.47207" lon="2.12864">
        <ele>389.7</ele>
        <time>2026-07-04T09:09:39Z</time>
      </trkpt>
      <trkpt lat="44.47197" lon="2.12867">
        <ele>395.5</ele>
        <time>2026-07-04T09:09:45Z</time>
      </trkpt>
      <trkpt lat="44.47188" lon="2.12868">
        <ele>400.7</ele>
        <time>2026-07-04T09:09:50Z</time>
      </trkpt>
      <trkpt lat="44.47178" lon="2.1287">
        <ele>406</ele>
        <time>2026-07-04T09:09:55Z</time>
      </trkpt>
      <trkpt lat="44.47168" lon="2.12865">
        <ele>409.8</ele>
        <time>2026-07-04T09:10:01Z</time>
      </trkpt>
      <trkpt lat="44.47158" lon="2.12862">
        <ele>415.1</ele>
        <time>2026-07-04T09:10:06Z</time>
      </trkpt>
      <trkpt lat="44.47158" lon="2.12876">
        <ele>416.9</ele>
        <time>2026-07-04T09:11:06Z</time>
      </trkpt>
      <trkpt lat="44.47167" lon="2.12883">
        <ele>413.7</ele>
        <time>2026-07-04T09:11:10Z</time>
      </trkpt>
      <trkpt lat="44.47177" lon="2.12888">
        <ele>408.1</ele>
        <time>2026-07-04T09:11:13Z</time>
      </trkpt>
      <trkpt lat="44.47186" lon="2.12896">
        <ele>406</ele>
        <time>2026-07-04T09:11:16Z</time>
      </trkpt>
      <trkpt lat="44.47191" lon="2.12909">
        <ele>404.2</ele>
        <time>2026-07-04T09:11:19Z</time>
      </trkpt>
      <trkpt lat="44.4718" lon="2.1291">
        <ele>409.4</ele>
        <time>2026-07-04T09:11:31Z</time>
      </trkpt>
      <trkpt lat="44.47171" lon="2.12907">
        <ele>413.5</ele>
        <time>2026-07-04T09:11:36Z</time>
      </trkpt>
      <trkpt lat="44.47162" lon="2.12902">
        <ele>417.8</ele>
        <time>2026-07-04T09:11:41Z</time>
      </trkpt>
      <trkpt lat="44.47153" lon="2.12895">
        <ele>421.1</ele>
        <time>2026-07-04T09:11:44Z</time>
      </trkpt>
      <trkpt lat="44.47145" lon="2.12886">
        <ele>423.1</ele>
        <time>2026-07-04T09:11:48Z</time>
      </trkpt>
      <trkpt lat="44.47135" lon="2.1288">
        <ele>425.5</ele>
        <time>2026-07-04T09:11:52Z</time>
      </trkpt>
      <trkpt lat="44.47126" lon="2.12874">
        <ele>427.8</ele>
        <time>2026-07-04T09:11:55Z</time>
      </trkpt>
      <trkpt lat="44.47115" lon="2.12872">
        <ele>430.9</ele>
        <time>2026-07-04T09:11:58Z</time>
      </trkpt>
      <trkpt lat="44.47103" lon="2.1287">
        <ele>434.2</ele>
        <time>2026-07-04T09:12:01Z</time>
      </trkpt>
      <trkpt lat="44.47093" lon="2.12875">
        <ele>437</ele>
        <time>2026-07-04T09:12:04Z</time>
      </trkpt>
      <trkpt lat="44.47087" lon="2.12885">
        <ele>439.6</ele>
        <time>2026-07-04T09:12:09Z</time>
      </trkpt>
      <trkpt lat="44.47078" lon="2.12894">
        <ele>442.6</ele>
        <time>2026-07-04T09:12:14Z</time>
      </trkpt>
      <trkpt lat="44.47072" lon="2.12907">
        <ele>445.4</ele>
        <time>2026-07-04T09:12:18Z</time>
      </trkpt>
      <trkpt lat="44.47067" lon="2.12918">
        <ele>447.6</ele>
        <time>2026-07-04T09:12:21Z</time>
      </trkpt>
      <trkpt lat="44.47061" lon="2.12934">
        <ele>450.2</ele>
        <time>2026-07-04T09:12:25Z</time>
      </trkpt>
      <trkpt lat="44.47054" lon="2.12944">
        <ele>451.6</ele>
        <time>2026-07-04T09:12:29Z</time>
      </trkpt>
      <trkpt lat="44.47048" lon="2.12955">
        <ele>453.2</ele>
        <time>2026-07-04T09:12:33Z</time>
      </trkpt>
      <trkpt lat="44.47054" lon="2.12939">
        <ele>451.2</ele>
        <time>2026-07-04T09:12:49Z</time>
      </trkpt>
      <trkpt lat="44.47059" lon="2.12923">
        <ele>448.9</ele>
        <time>2026-07-04T09:12:51Z</time>
      </trkpt>
      <trkpt lat="44.47064" lon="2.1291">
        <ele>446.5</ele>
        <time>2026-07-04T09:12:53Z</time>
      </trkpt>
      <trkpt lat="44.47054" lon="2.12913">
        <ele>448.2</ele>
        <time>2026-07-04T09:12:57Z</time>
      </trkpt>
      <trkpt lat="44.47046" lon="2.12921">
        <ele>449.9</ele>
        <time>2026-07-04T09:12:59Z</time>
      </trkpt>
      <trkpt lat="44.47034" lon="2.12927">
        <ele>450.8</ele>
        <time>2026-07-04T09:13:02Z</time>
      </trkpt>
      <trkpt lat="44.47023" lon="2.12927">
        <ele>451.3</ele>
        <time>2026-07-04T09:13:07Z</time>
      </trkpt>
      <trkpt lat="44.47014" lon="2.12929">
        <ele>451.5</ele>
        <time>2026-07-04T09:13:12Z</time>
      </trkpt>
      <trkpt lat="44.47005" lon="2.12932">
        <ele>451.4</ele>
        <time>2026-07-04T09:13:17Z</time>
      </trkpt>
      <trkpt lat="44.46999" lon="2.12921">
        <ele>451.2</ele>
        <time>2026-07-04T09:14:02Z</time>
      </trkpt>
      <trkpt lat="44.47004" lon="2.12908">
        <ele>451</ele>
        <time>2026-07-04T09:14:07Z</time>
      </trkpt>
      <trkpt lat="44.47004" lon="2.12893">
        <ele>450.9</ele>
        <time>2026-07-04T09:14:12Z</time>
      </trkpt>
      <trkpt lat="44.47004" lon="2.12878">
        <ele>450.9</ele>
        <time>2026-07-04T09:14:16Z</time>
      </trkpt>
      <trkpt lat="44.47005" lon="2.12863">
        <ele>451.1</ele>
        <time>2026-07-04T09:14:19Z</time>
      </trkpt>
      <trkpt lat="44.47008" lon="2.12848">
        <ele>451.1</ele>
        <time>2026-07-04T09:14:22Z</time>
      </trkpt>
      <trkpt lat="44.47015" lon="2.12836">
        <ele>450.3</ele>
        <time>2026-07-04T09:14:24Z</time>
      </trkpt>
      <trkpt lat="44.47023" lon="2.12829">
        <ele>449.7</ele>
        <time>2026-07-04T09:14:26Z</time>
      </trkpt>
      <trkpt lat="44.47031" lon="2.12821">
        <ele>448.1</ele>
        <time>2026-07-04T09:14:30Z</time>
      </trkpt>
      <trkpt lat="44.47038" lon="2.12812">
        <ele>447.1</ele>
        <time>2026-07-04T09:14:37Z</time>
      </trkpt>
      <trkpt lat="44.47045" lon="2.12803">
        <ele>446.1</ele>
        <time>2026-07-04T09:14:41Z</time>
      </trkpt>
      <trkpt lat="44.47053" lon="2.12793">
        <ele>443.9</ele>
        <time>2026-07-04T09:14:50Z</time>
      </trkpt>
      <trkpt lat="44.47062" lon="2.12787">
        <ele>441.3</ele>
        <time>2026-07-04T09:14:54Z</time>
      </trkpt>
      <trkpt lat="44.47068" lon="2.12775">
        <ele>440.7</ele>
        <time>2026-07-04T09:14:59Z</time>
      </trkpt>
      <trkpt lat="44.47075" lon="2.12766">
        <ele>440</ele>
        <time>2026-07-04T09:15:02Z</time>
      </trkpt>
      <trkpt lat="44.47081" lon="2.12757">
        <ele>439.7</ele>
        <time>2026-07-04T09:15:06Z</time>
      </trkpt>
      <trkpt lat="44.47088" lon="2.12747">
        <ele>437.7</ele>
        <time>2026-07-04T09:15:10Z</time>
      </trkpt>
      <trkpt lat="44.47096" lon="2.12737">
        <ele>436.8</ele>
        <time>2026-07-04T09:15:13Z</time>
      </trkpt>
      <trkpt lat="44.47105" lon="2.12727">
        <ele>435.8</ele>
        <time>2026-07-04T09:15:16Z</time>
      </trkpt>
      <trkpt lat="44.47112" lon="2.12716">
        <ele>435.2</ele>
        <time>2026-07-04T09:15:20Z</time>
      </trkpt>
      <trkpt lat="44.47121" lon="2.12706">
        <ele>433.7</ele>
        <time>2026-07-04T09:15:24Z</time>
      </trkpt>
      <trkpt lat="44.47128" lon="2.12699">
        <ele>432.5</ele>
        <time>2026-07-04T09:15:27Z</time>
      </trkpt>
      <trkpt lat="44.47135" lon="2.12689">
        <ele>432.1</ele>
        <time>2026-07-04T09:15:30Z</time>
      </trkpt>
      <trkpt lat="44.4714" lon="2.12678">
        <ele>433.3</ele>
        <time>2026-07-04T09:15:34Z</time>
      </trkpt>
      <trkpt lat="44.47144" lon="2.12665">
        <ele>433.6</ele>
        <time>2026-07-04T09:15:39Z</time>
      </trkpt>
      <trkpt lat="44.47148" lon="2.12653">
        <ele>434.6</ele>
        <time>2026-07-04T09:15:44Z</time>
      </trkpt>
      <trkpt lat="44.47151" lon="2.12639">
        <ele>435.8</ele>
        <time>2026-07-04T09:15:48Z</time>
      </trkpt>
      <trkpt lat="44.47156" lon="2.12624">
        <ele>436.4</ele>
        <time>2026-07-04T09:15:52Z</time>
      </trkpt>
      <trkpt lat="44.47161" lon="2.1261">
        <ele>437.8</ele>
        <time>2026-07-04T09:15:56Z</time>
      </trkpt>
      <trkpt lat="44.47168" lon="2.12599">
        <ele>436.3</ele>
        <time>2026-07-04T09:16:00Z</time>
      </trkpt>
      <trkpt lat="44.47173" lon="2.12585">
        <ele>436.6</ele>
        <time>2026-07-04T09:16:04Z</time>
      </trkpt>
      <trkpt lat="44.47176" lon="2.12572">
        <ele>436.1</ele>
        <time>2026-07-04T09:16:07Z</time>
      </trkpt>
      <trkpt lat="44.4718" lon="2.1256">
        <ele>434.8</ele>
        <time>2026-07-04T09:16:10Z</time>
      </trkpt>
      <trkpt lat="44.47172" lon="2.12552">
        <ele>436.5</ele>
        <time>2026-07-04T09:16:50Z</time>
      </trkpt>
      <trkpt lat="44.47163" lon="2.1256">
        <ele>438.6</ele>
        <time>2026-07-04T09:16:56Z</time>
      </trkpt>
      <trkpt lat="44.47155" lon="2.12568">
        <ele>440.4</ele>
        <time>2026-07-04T09:17:00Z</time>
      </trkpt>
      <trkpt lat="44.47148" lon="2.12576">
        <ele>441.4</ele>
        <time>2026-07-04T09:17:03Z</time>
      </trkpt>
      <trkpt lat="44.47141" lon="2.12587">
        <ele>442.3</ele>
        <time>2026-07-04T09:17:06Z</time>
      </trkpt>
      <trkpt lat="44.47133" lon="2.12598">
        <ele>443.6</ele>
        <time>2026-07-04T09:17:10Z</time>
      </trkpt>
      <trkpt lat="44.47125" lon="2.12606">
        <ele>444.1</ele>
        <time>2026-07-04T09:17:13Z</time>
      </trkpt>
      <trkpt lat="44.47116" lon="2.12615">
        <ele>445</ele>
        <time>2026-07-04T09:17:17Z</time>
      </trkpt>
      <trkpt lat="44.47108" lon="2.12623">
        <ele>446.1</ele>
        <time>2026-07-04T09:17:21Z</time>
      </trkpt>
      <trkpt lat="44.47098" lon="2.12629">
        <ele>446.9</ele>
        <time>2026-07-04T09:17:25Z</time>
      </trkpt>
      <trkpt lat="44.47088" lon="2.12634">
        <ele>448</ele>
        <time>2026-07-04T09:17:29Z</time>
      </trkpt>
      <trkpt lat="44.47079" lon="2.12638">
        <ele>449.2</ele>
        <time>2026-07-04T09:17:32Z</time>
      </trkpt>
      <trkpt lat="44.47069" lon="2.12641">
        <ele>450.9</ele>
        <time>2026-07-04T09:17:35Z</time>
      </trkpt>
      <trkpt lat="44.47061" lon="2.12647">
        <ele>451.4</ele>
        <time>2026-07-04T09:17:38Z</time>
      </trkpt>
      <trkpt lat="44.47053" lon="2.12655">
        <ele>452.6</ele>
        <time>2026-07-04T09:17:41Z</time>
      </trkpt>
      <trkpt lat="44.47045" lon="2.12661">
        <ele>453.7</ele>
        <time>2026-07-04T09:17:44Z</time>
      </trkpt>
      <trkpt lat="44.47034" lon="2.1267">
        <ele>454.5</ele>
        <time>2026-07-04T09:17:48Z</time>
      </trkpt>
      <trkpt lat="44.47026" lon="2.12676">
        <ele>455.6</ele>
        <time>2026-07-04T09:17:51Z</time>
      </trkpt>
      <trkpt lat="44.47016" lon="2.12685">
        <ele>456.7</ele>
        <time>2026-07-04T09:17:55Z</time>
      </trkpt>
      <trkpt lat="44.47006" lon="2.1269">
        <ele>457.9</ele>
        <time>2026-07-04T09:17:58Z</time>
      </trkpt>
      <trkpt lat="44.46996" lon="2.12699">
        <ele>459.3</ele>
        <time>2026-07-04T09:18:01Z</time>
      </trkpt>
      <trkpt lat="44.46985" lon="2.12704">
        <ele>460.5</ele>
        <time>2026-07-04T09:18:04Z</time>
      </trkpt>
      <trkpt lat="44.46973" lon="2.12709">
        <ele>461.1</ele>
        <time>2026-07-04T09:18:07Z</time>
      </trkpt>
      <trkpt lat="44.4696" lon="2.12713">
        <ele>461.5</ele>
        <time>2026-07-04T09:18:10Z</time>
      </trkpt>
      <trkpt lat="44.46949" lon="2.12718">
        <ele>461.9</ele>
        <time>2026-07-04T09:18:13Z</time>
      </trkpt>
      <trkpt lat="44.4694" lon="2.12722">
        <ele>462.1</ele>
        <time>2026-07-04T09:18:15Z</time>
      </trkpt>
      <trkpt lat="44.46931" lon="2.12726">
        <ele>462.4</ele>
        <time>2026-07-04T09:18:17Z</time>
      </trkpt>
      <trkpt lat="44.46922" lon="2.12729">
        <ele>462.6</ele>
        <time>2026-07-04T09:18:19Z</time>
      </trkpt>
      <trkpt lat="44.46913" lon="2.12733">
        <ele>462.9</ele>
        <time>2026-07-04T09:18:21Z</time>
      </trkpt>
      <trkpt lat="44.46904" lon="2.12737">
        <ele>463.3</ele>
        <time>2026-07-04T09:18:23Z</time>
      </trkpt>
      <trkpt lat="44.46896" lon="2.12742">
        <ele>463.6</ele>
        <time>2026-07-04T09:18:25Z</time>
      </trkpt>
      <trkpt lat="44.46887" lon="2.12747">
        <ele>464</ele>
        <time>2026-07-04T09:18:27Z</time>
      </trkpt>
      <trkpt lat="44.46879" lon="2.12752">
        <ele>464.4</ele>
        <time>2026-07-04T09:18:29Z</time>
      </trkpt>
      <trkpt lat="44.46867" lon="2.12758">
        <ele>465</ele>
        <time>2026-07-04T09:18:32Z</time>
      </trkpt>
      <trkpt lat="44.46857" lon="2.12763">
        <ele>465.6</ele>
        <time>2026-07-04T09:18:35Z</time>
      </trkpt>
      <trkpt lat="44.46844" lon="2.12769">
        <ele>466.5</ele>
        <time>2026-07-04T09:18:38Z</time>
      </trkpt>
      <trkpt lat="44.46835" lon="2.12774">
        <ele>467.3</ele>
        <time>2026-07-04T09:18:40Z</time>
      </trkpt>
      <trkpt lat="44.46825" lon="2.12778">
        <ele>468.1</ele>
        <time>2026-07-04T09:18:42Z</time>
      </trkpt>
      <trkpt lat="44.46816" lon="2.12783">
        <ele>468.9</ele>
        <time>2026-07-04T09:18:44Z</time>
      </trkpt>
      <trkpt lat="44.46807" lon="2.12789">
        <ele>469.7</ele>
        <time>2026-07-04T09:18:46Z</time>
      </trkpt>
      <trkpt lat="44.46798" lon="2.12794">
        <ele>470.6</ele>
        <time>2026-07-04T09:18:48Z</time>
      </trkpt>
      <trkpt lat="44.46788" lon="2.12799">
        <ele>471.3</ele>
        <time>2026-07-04T09:18:50Z</time>
      </trkpt>
      <trkpt lat="44.4678" lon="2.12804">
        <ele>472.1</ele>
        <time>2026-07-04T09:18:52Z</time>
      </trkpt>
      <trkpt lat="44.46771" lon="2.12808">
        <ele>472.8</ele>
        <time>2026-07-04T09:18:54Z</time>
      </trkpt>
      <trkpt lat="44.46758" lon="2.12815">
        <ele>473.8</ele>
        <time>2026-07-04T09:18:57Z</time>
      </trkpt>
      <trkpt lat="44.46746" lon="2.12822">
        <ele>474.8</ele>
        <time>2026-07-04T09:19:00Z</time>
      </trkpt>
      <trkpt lat="44.46737" lon="2.12826">
        <ele>475.5</ele>
        <time>2026-07-04T09:19:02Z</time>
      </trkpt>
      <trkpt lat="44.46728" lon="2.1283">
        <ele>476.2</ele>
        <time>2026-07-04T09:19:04Z</time>
      </trkpt>
      <trkpt lat="44.46715" lon="2.12834">
        <ele>477.1</ele>
        <time>2026-07-04T09:19:07Z</time>
      </trkpt>
      <trkpt lat="44.46706" lon="2.12835">
        <ele>477.7</ele>
        <time>2026-07-04T09:19:09Z</time>
      </trkpt>
      <trkpt lat="44.46697" lon="2.12836">
        <ele>478.2</ele>
        <time>2026-07-04T09:19:11Z</time>
      </trkpt>
      <trkpt lat="44.46688" lon="2.12837">
        <ele>478.6</ele>
        <time>2026-07-04T09:19:13Z</time>
      </trkpt>
      <trkpt lat="44.46679" lon="2.12838">
        <ele>479</ele>
        <time>2026-07-04T09:19:15Z</time>
      </trkpt>
      <trkpt lat="44.4667" lon="2.12839">
        <ele>479.3</ele>
        <time>2026-07-04T09:19:17Z</time>
      </trkpt>
      <trkpt lat="44.46661" lon="2.1284">
        <ele>479.6</ele>
        <time>2026-07-04T09:19:19Z</time>
      </trkpt>
      <trkpt lat="44.46652" lon="2.12842">
        <ele>479.9</ele>
        <time>2026-07-04T09:19:21Z</time>
      </trkpt>
      <trkpt lat="44.46642" lon="2.12844">
        <ele>480.3</ele>
        <time>2026-07-04T09:19:23Z</time>
      </trkpt>
      <trkpt lat="44.4663" lon="2.12845">
        <ele>480.8</ele>
        <time>2026-07-04T09:19:26Z</time>
      </trkpt>
      <trkpt lat="44.46619" lon="2.12846">
        <ele>481.4</ele>
        <time>2026-07-04T09:19:29Z</time>
      </trkpt>
      <trkpt lat="44.4661" lon="2.12846">
        <ele>481.9</ele>
        <time>2026-07-04T09:19:31Z</time>
      </trkpt>
      <trkpt lat="44.46601" lon="2.12845">
        <ele>482.4</ele>
        <time>2026-07-04T09:19:33Z</time>
      </trkpt>
      <trkpt lat="44.46587" lon="2.12843">
        <ele>483.4</ele>
        <time>2026-07-04T09:19:36Z</time>
      </trkpt>
      <trkpt lat="44.46574" lon="2.12841">
        <ele>484.3</ele>
        <time>2026-07-04T09:19:39Z</time>
      </trkpt>
      <trkpt lat="44.46562" lon="2.12841">
        <ele>485.1</ele>
        <time>2026-07-04T09:19:42Z</time>
      </trkpt>
      <trkpt lat="44.46549" lon="2.12842">
        <ele>486</ele>
        <time>2026-07-04T09:19:45Z</time>
      </trkpt>
      <trkpt lat="44.4654" lon="2.12843">
        <ele>486.6</ele>
        <time>2026-07-04T09:19:47Z</time>
      </trkpt>
      <trkpt lat="44.46527" lon="2.12848">
        <ele>487.4</ele>
        <time>2026-07-04T09:19:50Z</time>
      </trkpt>
      <trkpt lat="44.46515" lon="2.12857">
        <ele>488.1</ele>
        <time>2026-07-04T09:19:53Z</time>
      </trkpt>
      <trkpt lat="44.46507" lon="2.12865">
        <ele>488.6</ele>
        <time>2026-07-04T09:19:55Z</time>
      </trkpt>
      <trkpt lat="44.46497" lon="2.12874">
        <ele>489.2</ele>
        <time>2026-07-04T09:19:58Z</time>
      </trkpt>
      <trkpt lat="44.46484" lon="2.12879">
        <ele>489.8</ele>
        <time>2026-07-04T09:20:01Z</time>
      </trkpt>
      <trkpt lat="44.46471" lon="2.12883">
        <ele>490.4</ele>
        <time>2026-07-04T09:20:04Z</time>
      </trkpt>
      <trkpt lat="44.46461" lon="2.12885">
        <ele>490.8</ele>
        <time>2026-07-04T09:20:06Z</time>
      </trkpt>
      <trkpt lat="44.46449" lon="2.12888">
        <ele>491.3</ele>
        <time>2026-07-04T09:20:09Z</time>
      </trkpt>
      <trkpt lat="44.46439" lon="2.12891">
        <ele>491.7</ele>
        <time>2026-07-04T09:20:12Z</time>
      </trkpt>
      <trkpt lat="44.46429" lon="2.12888">
        <ele>492.1</ele>
        <time>2026-07-04T09:20:15Z</time>
      </trkpt>
      <trkpt lat="44.46422" lon="2.12874">
        <ele>492.6</ele>
        <time>2026-07-04T09:20:18Z</time>
      </trkpt>
      <trkpt lat="44.46414" lon="2.12867">
        <ele>492.7</ele>
        <time>2026-07-04T09:20:21Z</time>
      </trkpt>
      <trkpt lat="44.46409" lon="2.12879">
        <ele>493</ele>
        <time>2026-07-04T09:20:25Z</time>
      </trkpt>
      <trkpt lat="44.464" lon="2.12881">
        <ele>493.3</ele>
        <time>2026-07-04T09:20:29Z</time>
      </trkpt>
      <trkpt lat="44.4639" lon="2.12886">
        <ele>493.5</ele>
        <time>2026-07-04T09:20:32Z</time>
      </trkpt>
      <trkpt lat="44.46379" lon="2.12894">
        <ele>493.7</ele>
        <time>2026-07-04T09:20:35Z</time>
      </trkpt>
      <trkpt lat="44.4637" lon="2.12901">
        <ele>493.8</ele>
        <time>2026-07-04T09:20:38Z</time>
      </trkpt>
      <trkpt lat="44.4636" lon="2.12904">
        <ele>493.9</ele>
        <time>2026-07-04T09:20:42Z</time>
      </trkpt>
      <trkpt lat="44.46353" lon="2.12906">
        <ele>493.9</ele>
        <time>2026-07-04T09:20:59Z</time>
      </trkpt>
      <trkpt lat="44.46353" lon="2.12906">
        <ele>493.9</ele>
        <time>2026-07-04T09:20:59Z</time>
      </trkpt>
    </trkseg>
  </trk>
</gpx>